<?xml version="1.0" encoding="UTF-8"?>
<gpx version="1.1" creator="https://www.youtrack.es" xsi:schemaLocation="http://www.topografix.com/GPX/1/1 http://www.topografix.com/GPX/1/1/gpx.xsd http://www.garmin.com/xmlschemas/GpxExtensions/v3 http://www.garmin.com/xmlschemas/GpxExtensionsv3.xsd http://www.garmin.com/xmlschemas/TrackPointExtension/v1 http://www.garmin.com/xmlschemas/TrackPointExtensionv1.xsd" xmlns:gpxtpx="http://www.garmin.com/xmlschemas/TrackPointExtension/v1" xmlns:gpxx="http://www.garmin.com/xmlschemas/GpxExtensions/v3" xmlns:xsi="http://www.w3.org/2001/XMLSchema-instance">
  <metadata>
    <link href="https://www.youtrack.es">
      <text>YouTrack.es</text>
    </link>
    <time>2026-05-09T07:43:51Z</time>
  </metadata>
  <trk>
    <src>https://www.youtrack.es</src>
    <link href="https://www.youtrack.es/ruta/36734-el-rocio">
      <text>YouTrack.es</text>
    </link>
    <trkseg>
      <trkpt lat="37.378866" lon="-5.97959">
        <ele>0.0</ele>
        <time>2022-09-29T13:47:59Z</time>
      </trkpt>
      <trkpt lat="37.37895" lon="-5.97983">
        <ele>0.0</ele>
        <time>2022-09-29T13:48:03.17Z</time>
      </trkpt>
      <trkpt lat="37.37903" lon="-5.9802">
        <ele>0.0</ele>
        <time>2022-09-29T13:48:09.26Z</time>
      </trkpt>
      <trkpt lat="37.37909" lon="-5.98047">
        <ele>0.0</ele>
        <time>2022-09-29T13:48:13.72Z</time>
      </trkpt>
      <trkpt lat="37.37921" lon="-5.98094">
        <ele>0.0</ele>
        <time>2022-09-29T13:48:21.56Z</time>
      </trkpt>
      <trkpt lat="37.37926" lon="-5.98117">
        <ele>0.0</ele>
        <time>2022-09-29T13:48:25.35Z</time>
      </trkpt>
      <trkpt lat="37.37943" lon="-5.98178">
        <ele>0.0</ele>
        <time>2022-09-29T13:48:35.63Z</time>
      </trkpt>
      <trkpt lat="37.37946" lon="-5.98192">
        <ele>0.0</ele>
        <time>2022-09-29T13:48:37.93Z</time>
      </trkpt>
      <trkpt lat="37.37949" lon="-5.98204">
        <ele>0.0</ele>
        <time>2022-09-29T13:48:39.93Z</time>
      </trkpt>
      <trkpt lat="37.37952" lon="-5.98211">
        <ele>0.0</ele>
        <time>2022-09-29T13:48:41.19Z</time>
      </trkpt>
      <trkpt lat="37.37955" lon="-5.98217">
        <ele>0.0</ele>
        <time>2022-09-29T13:48:42.32Z</time>
      </trkpt>
      <trkpt lat="37.37958" lon="-5.98226">
        <ele>0.0</ele>
        <time>2022-09-29T13:48:43.87Z</time>
      </trkpt>
      <trkpt lat="37.37963" lon="-5.98235">
        <ele>0.0</ele>
        <time>2022-09-29T13:48:45.62Z</time>
      </trkpt>
      <trkpt lat="37.37965" lon="-5.98239">
        <ele>0.0</ele>
        <time>2022-09-29T13:48:46.37Z</time>
      </trkpt>
      <trkpt lat="37.3798" lon="-5.98263">
        <ele>0.0</ele>
        <time>2022-09-29T13:48:51.22Z</time>
      </trkpt>
      <trkpt lat="37.37982" lon="-5.98269">
        <ele>0.0</ele>
        <time>2022-09-29T13:48:52.25Z</time>
      </trkpt>
      <trkpt lat="37.379823" lon="-5.98269">
        <ele>0.0</ele>
        <time>2022-09-29T13:48:52.43Z</time>
      </trkpt>
      <trkpt lat="37.3798" lon="-5.98269">
        <ele>0.0</ele>
        <time>2022-09-29T13:48:52.9Z</time>
      </trkpt>
      <trkpt lat="37.37978" lon="-5.98269">
        <ele>0.0</ele>
        <time>2022-09-29T13:48:53.3Z</time>
      </trkpt>
      <trkpt lat="37.37975" lon="-5.98269">
        <ele>0.0</ele>
        <time>2022-09-29T13:48:53.9Z</time>
      </trkpt>
      <trkpt lat="37.37972" lon="-5.98269">
        <ele>0.0</ele>
        <time>2022-09-29T13:48:54.5Z</time>
      </trkpt>
      <trkpt lat="37.3797" lon="-5.9827">
        <ele>0.0</ele>
        <time>2022-09-29T13:48:54.93Z</time>
      </trkpt>
      <trkpt lat="37.37968" lon="-5.98271">
        <ele>0.0</ele>
        <time>2022-09-29T13:48:55.36Z</time>
      </trkpt>
      <trkpt lat="37.37966" lon="-5.98272">
        <ele>0.0</ele>
        <time>2022-09-29T13:48:55.79Z</time>
      </trkpt>
      <trkpt lat="37.37964" lon="-5.98273">
        <ele>0.0</ele>
        <time>2022-09-29T13:48:56.22Z</time>
      </trkpt>
      <trkpt lat="37.37963" lon="-5.98275">
        <ele>0.0</ele>
        <time>2022-09-29T13:48:56.6Z</time>
      </trkpt>
      <trkpt lat="37.37961" lon="-5.98276">
        <ele>0.0</ele>
        <time>2022-09-29T13:48:57.03Z</time>
      </trkpt>
      <trkpt lat="37.3796" lon="-5.98278">
        <ele>0.0</ele>
        <time>2022-09-29T13:48:57.4Z</time>
      </trkpt>
      <trkpt lat="37.37959" lon="-5.98279">
        <ele>0.0</ele>
        <time>2022-09-29T13:48:57.66Z</time>
      </trkpt>
      <trkpt lat="37.37957" lon="-5.98281">
        <ele>0.0</ele>
        <time>2022-09-29T13:48:58.17Z</time>
      </trkpt>
      <trkpt lat="37.37956" lon="-5.98284">
        <ele>0.0</ele>
        <time>2022-09-29T13:48:58.69Z</time>
      </trkpt>
      <trkpt lat="37.37955" lon="-5.98288">
        <ele>0.0</ele>
        <time>2022-09-29T13:48:59.35Z</time>
      </trkpt>
      <trkpt lat="37.37954" lon="-5.98291">
        <ele>0.0</ele>
        <time>2022-09-29T13:48:59.87Z</time>
      </trkpt>
      <trkpt lat="37.37953" lon="-5.98294">
        <ele>0.0</ele>
        <time>2022-09-29T13:49:00.39Z</time>
      </trkpt>
      <trkpt lat="37.37953" lon="-5.98298">
        <ele>0.0</ele>
        <time>2022-09-29T13:49:01.02Z</time>
      </trkpt>
      <trkpt lat="37.37953" lon="-5.98302">
        <ele>0.0</ele>
        <time>2022-09-29T13:49:01.66Z</time>
      </trkpt>
      <trkpt lat="37.37953" lon="-5.98305">
        <ele>0.0</ele>
        <time>2022-09-29T13:49:02.14Z</time>
      </trkpt>
      <trkpt lat="37.37954" lon="-5.9831">
        <ele>0.0</ele>
        <time>2022-09-29T13:49:02.96Z</time>
      </trkpt>
      <trkpt lat="37.379536" lon="-5.983102">
        <ele>0.0</ele>
        <time>2022-09-29T13:49:03.14Z</time>
      </trkpt>
      <trkpt lat="37.37932" lon="-5.9832">
        <ele>0.0</ele>
        <time>2022-09-29T13:49:07.73Z</time>
      </trkpt>
      <trkpt lat="37.3791" lon="-5.9833">
        <ele>0.0</ele>
        <time>2022-09-29T13:49:12.41Z</time>
      </trkpt>
      <trkpt lat="37.37889" lon="-5.98339">
        <ele>0.0</ele>
        <time>2022-09-29T13:49:16.85Z</time>
      </trkpt>
      <trkpt lat="37.37878" lon="-5.98345">
        <ele>0.0</ele>
        <time>2022-09-29T13:49:19.24Z</time>
      </trkpt>
      <trkpt lat="37.37815" lon="-5.98375">
        <ele>0.0</ele>
        <time>2022-09-29T13:49:32.72Z</time>
      </trkpt>
      <trkpt lat="37.37792" lon="-5.98386">
        <ele>0.0</ele>
        <time>2022-09-29T13:49:37.64Z</time>
      </trkpt>
      <trkpt lat="37.37783" lon="-5.98391">
        <ele>0.0</ele>
        <time>2022-09-29T13:49:39.6Z</time>
      </trkpt>
      <trkpt lat="37.37766" lon="-5.98399">
        <ele>0.0</ele>
        <time>2022-09-29T13:49:43.23Z</time>
      </trkpt>
      <trkpt lat="37.37765" lon="-5.984">
        <ele>0.0</ele>
        <time>2022-09-29T13:49:43.49Z</time>
      </trkpt>
      <trkpt lat="37.37749" lon="-5.98408">
        <ele>0.0</ele>
        <time>2022-09-29T13:49:46.93Z</time>
      </trkpt>
      <trkpt lat="37.37725" lon="-5.98419">
        <ele>0.0</ele>
        <time>2022-09-29T13:49:52.04Z</time>
      </trkpt>
      <trkpt lat="37.37702" lon="-5.98431">
        <ele>0.0</ele>
        <time>2022-09-29T13:49:57.02Z</time>
      </trkpt>
      <trkpt lat="37.37684" lon="-5.98439">
        <ele>0.0</ele>
        <time>2022-09-29T13:50:00.84Z</time>
      </trkpt>
      <trkpt lat="37.3761" lon="-5.98465">
        <ele>0.0</ele>
        <time>2022-09-29T13:50:16.21Z</time>
      </trkpt>
      <trkpt lat="37.37582" lon="-5.98475">
        <ele>0.0</ele>
        <time>2022-09-29T13:50:22.03Z</time>
      </trkpt>
      <trkpt lat="37.37454" lon="-5.9852">
        <ele>0.0</ele>
        <time>2022-09-29T13:50:48.61Z</time>
      </trkpt>
      <trkpt lat="37.37443" lon="-5.98524">
        <ele>0.0</ele>
        <time>2022-09-29T13:50:50.9Z</time>
      </trkpt>
      <trkpt lat="37.37386" lon="-5.98531">
        <ele>0.0</ele>
        <time>2022-09-29T13:51:02.35Z</time>
      </trkpt>
      <trkpt lat="37.37347" lon="-5.98535">
        <ele>0.0</ele>
        <time>2022-09-29T13:51:10.18Z</time>
      </trkpt>
      <trkpt lat="37.37202" lon="-5.98547">
        <ele>0.0</ele>
        <time>2022-09-29T13:51:39.24Z</time>
      </trkpt>
      <trkpt lat="37.37062" lon="-5.98537">
        <ele>0.0</ele>
        <time>2022-09-29T13:52:07.28Z</time>
      </trkpt>
      <trkpt lat="37.3704" lon="-5.98537">
        <ele>0.0</ele>
        <time>2022-09-29T13:52:11.68Z</time>
      </trkpt>
      <trkpt lat="37.37015" lon="-5.98538">
        <ele>0.0</ele>
        <time>2022-09-29T13:52:16.69Z</time>
      </trkpt>
      <trkpt lat="37.36996" lon="-5.98541">
        <ele>0.0</ele>
        <time>2022-09-29T13:52:20.52Z</time>
      </trkpt>
      <trkpt lat="37.369965" lon="-5.985414">
        <ele>0.0</ele>
        <time>2022-09-29T13:52:20.7Z</time>
      </trkpt>
      <trkpt lat="37.36986" lon="-5.98554">
        <ele>0.0</ele>
        <time>2022-09-29T13:52:23.6Z</time>
      </trkpt>
      <trkpt lat="37.36973" lon="-5.98567">
        <ele>0.0</ele>
        <time>2022-09-29T13:52:26.92Z</time>
      </trkpt>
      <trkpt lat="37.36961" lon="-5.9858">
        <ele>0.0</ele>
        <time>2022-09-29T13:52:30.08Z</time>
      </trkpt>
      <trkpt lat="37.3696" lon="-5.98584">
        <ele>0.0</ele>
        <time>2022-09-29T13:52:30.75Z</time>
      </trkpt>
      <trkpt lat="37.36959" lon="-5.98586">
        <ele>0.0</ele>
        <time>2022-09-29T13:52:31.13Z</time>
      </trkpt>
      <trkpt lat="37.36956" lon="-5.986">
        <ele>0.0</ele>
        <time>2022-09-29T13:52:33.43Z</time>
      </trkpt>
      <trkpt lat="37.36953" lon="-5.98614">
        <ele>0.0</ele>
        <time>2022-09-29T13:52:35.74Z</time>
      </trkpt>
      <trkpt lat="37.36944" lon="-5.98658">
        <ele>0.0</ele>
        <time>2022-09-29T13:52:42.96Z</time>
      </trkpt>
      <trkpt lat="37.36938" lon="-5.98686">
        <ele>0.0</ele>
        <time>2022-09-29T13:52:47.57Z</time>
      </trkpt>
      <trkpt lat="37.36937" lon="-5.98697">
        <ele>0.0</ele>
        <time>2022-09-29T13:52:49.33Z</time>
      </trkpt>
      <trkpt lat="37.36936" lon="-5.98708">
        <ele>0.0</ele>
        <time>2022-09-29T13:52:51.09Z</time>
      </trkpt>
      <trkpt lat="37.36936" lon="-5.98722">
        <ele>0.0</ele>
        <time>2022-09-29T13:52:53.31Z</time>
      </trkpt>
      <trkpt lat="37.36938" lon="-5.98731">
        <ele>0.0</ele>
        <time>2022-09-29T13:52:54.8Z</time>
      </trkpt>
      <trkpt lat="37.36937" lon="-5.98733">
        <ele>0.0</ele>
        <time>2022-09-29T13:52:55.17Z</time>
      </trkpt>
      <trkpt lat="37.36938" lon="-5.98749">
        <ele>0.0</ele>
        <time>2022-09-29T13:52:57.72Z</time>
      </trkpt>
      <trkpt lat="37.36939" lon="-5.98759">
        <ele>0.0</ele>
        <time>2022-09-29T13:52:59.33Z</time>
      </trkpt>
      <trkpt lat="37.3694" lon="-5.98763">
        <ele>0.0</ele>
        <time>2022-09-29T13:52:59.99Z</time>
      </trkpt>
      <trkpt lat="37.36944" lon="-5.98783">
        <ele>0.0</ele>
        <time>2022-09-29T13:53:03.27Z</time>
      </trkpt>
      <trkpt lat="37.36946" lon="-5.98793">
        <ele>0.0</ele>
        <time>2022-09-29T13:53:04.91Z</time>
      </trkpt>
      <trkpt lat="37.369457" lon="-5.987935">
        <ele>0.0</ele>
        <time>2022-09-29T13:53:05.09Z</time>
      </trkpt>
      <trkpt lat="37.36931" lon="-5.98782">
        <ele>0.0</ele>
        <time>2022-09-29T13:53:08.55Z</time>
      </trkpt>
      <trkpt lat="37.3689" lon="-5.98758">
        <ele>0.0</ele>
        <time>2022-09-29T13:53:17.59Z</time>
      </trkpt>
      <trkpt lat="37.36848" lon="-5.98732">
        <ele>0.0</ele>
        <time>2022-09-29T13:53:26.95Z</time>
      </trkpt>
      <trkpt lat="37.36824" lon="-5.98718">
        <ele>0.0</ele>
        <time>2022-09-29T13:53:32.25Z</time>
      </trkpt>
      <trkpt lat="37.36794" lon="-5.987">
        <ele>0.0</ele>
        <time>2022-09-29T13:53:38.89Z</time>
      </trkpt>
      <trkpt lat="37.36784" lon="-5.98694">
        <ele>0.0</ele>
        <time>2022-09-29T13:53:41.11Z</time>
      </trkpt>
      <trkpt lat="37.367839" lon="-5.986942">
        <ele>0.0</ele>
        <time>2022-09-29T13:53:41.29Z</time>
      </trkpt>
      <trkpt lat="37.3678" lon="-5.98712">
        <ele>0.0</ele>
        <time>2022-09-29T13:53:44.23Z</time>
      </trkpt>
      <trkpt lat="37.36776" lon="-5.98725">
        <ele>0.0</ele>
        <time>2022-09-29T13:53:46.45Z</time>
      </trkpt>
      <trkpt lat="37.36766" lon="-5.98761">
        <ele>0.0</ele>
        <time>2022-09-29T13:53:52.51Z</time>
      </trkpt>
      <trkpt lat="37.36763" lon="-5.98777">
        <ele>0.0</ele>
        <time>2022-09-29T13:53:55.12Z</time>
      </trkpt>
      <trkpt lat="37.36761" lon="-5.98789">
        <ele>0.0</ele>
        <time>2022-09-29T13:53:57.07Z</time>
      </trkpt>
      <trkpt lat="37.36762" lon="-5.98802">
        <ele>0.0</ele>
        <time>2022-09-29T13:53:59.15Z</time>
      </trkpt>
      <trkpt lat="37.36762" lon="-5.9883">
        <ele>0.0</ele>
        <time>2022-09-29T13:54:03.6Z</time>
      </trkpt>
      <trkpt lat="37.36763" lon="-5.98851">
        <ele>0.0</ele>
        <time>2022-09-29T13:54:06.94Z</time>
      </trkpt>
      <trkpt lat="37.36764" lon="-5.98883">
        <ele>0.0</ele>
        <time>2022-09-29T13:54:12.03Z</time>
      </trkpt>
      <trkpt lat="37.36761" lon="-5.98905">
        <ele>0.0</ele>
        <time>2022-09-29T13:54:15.58Z</time>
      </trkpt>
      <trkpt lat="37.36763" lon="-5.98943">
        <ele>0.0</ele>
        <time>2022-09-29T13:54:21.63Z</time>
      </trkpt>
      <trkpt lat="37.367633" lon="-5.98943">
        <ele>0.0</ele>
        <time>2022-09-29T13:54:21.81Z</time>
      </trkpt>
      <trkpt lat="37.36768" lon="-5.99028">
        <ele>0.0</ele>
        <time>2022-09-29T13:54:35.35Z</time>
      </trkpt>
      <trkpt lat="37.36768" lon="-5.99033">
        <ele>0.0</ele>
        <time>2022-09-29T13:54:36.15Z</time>
      </trkpt>
      <trkpt lat="37.36768" lon="-5.99052">
        <ele>0.0</ele>
        <time>2022-09-29T13:54:39.17Z</time>
      </trkpt>
      <trkpt lat="37.36768" lon="-5.99072">
        <ele>0.0</ele>
        <time>2022-09-29T13:54:42.35Z</time>
      </trkpt>
      <trkpt lat="37.36769" lon="-5.99118">
        <ele>0.0</ele>
        <time>2022-09-29T13:54:49.66Z</time>
      </trkpt>
      <trkpt lat="37.36769" lon="-5.99163">
        <ele>0.0</ele>
        <time>2022-09-29T13:54:56.81Z</time>
      </trkpt>
      <trkpt lat="37.36769" lon="-5.99165">
        <ele>0.0</ele>
        <time>2022-09-29T13:54:57.13Z</time>
      </trkpt>
      <trkpt lat="37.3677" lon="-5.99207">
        <ele>0.0</ele>
        <time>2022-09-29T13:55:03.81Z</time>
      </trkpt>
      <trkpt lat="37.36773" lon="-5.99308">
        <ele>0.0</ele>
        <time>2022-09-29T13:55:19.87Z</time>
      </trkpt>
      <trkpt lat="37.36774" lon="-5.99324">
        <ele>0.0</ele>
        <time>2022-09-29T13:55:22.43Z</time>
      </trkpt>
      <trkpt lat="37.36775" lon="-5.99358">
        <ele>0.0</ele>
        <time>2022-09-29T13:55:27.83Z</time>
      </trkpt>
      <trkpt lat="37.36776" lon="-5.99407">
        <ele>0.0</ele>
        <time>2022-09-29T13:55:35.63Z</time>
      </trkpt>
      <trkpt lat="37.36777" lon="-5.99475">
        <ele>0.0</ele>
        <time>2022-09-29T13:55:46.44Z</time>
      </trkpt>
      <trkpt lat="37.36778" lon="-5.99541">
        <ele>0.0</ele>
        <time>2022-09-29T13:55:56.93Z</time>
      </trkpt>
      <trkpt lat="37.36779" lon="-5.99549">
        <ele>0.0</ele>
        <time>2022-09-29T13:55:58.22Z</time>
      </trkpt>
      <trkpt lat="37.36781" lon="-5.99662">
        <ele>0.0</ele>
        <time>2022-09-29T13:56:16.18Z</time>
      </trkpt>
      <trkpt lat="37.36782" lon="-5.99698">
        <ele>0.0</ele>
        <time>2022-09-29T13:56:21.91Z</time>
      </trkpt>
      <trkpt lat="37.367819" lon="-5.996979">
        <ele>0.0</ele>
        <time>2022-09-29T13:56:22.09Z</time>
      </trkpt>
      <trkpt lat="37.36786" lon="-5.99698">
        <ele>0.0</ele>
        <time>2022-09-29T13:56:22.92Z</time>
      </trkpt>
      <trkpt lat="37.3679" lon="-5.99698">
        <ele>0.0</ele>
        <time>2022-09-29T13:56:23.72Z</time>
      </trkpt>
      <trkpt lat="37.36794" lon="-5.997">
        <ele>0.0</ele>
        <time>2022-09-29T13:56:24.58Z</time>
      </trkpt>
      <trkpt lat="37.36798" lon="-5.99701">
        <ele>0.0</ele>
        <time>2022-09-29T13:56:25.39Z</time>
      </trkpt>
      <trkpt lat="37.36802" lon="-5.99704">
        <ele>0.0</ele>
        <time>2022-09-29T13:56:26.32Z</time>
      </trkpt>
      <trkpt lat="37.36805" lon="-5.99708">
        <ele>0.0</ele>
        <time>2022-09-29T13:56:27.2Z</time>
      </trkpt>
      <trkpt lat="37.36807" lon="-5.99712">
        <ele>0.0</ele>
        <time>2022-09-29T13:56:27.95Z</time>
      </trkpt>
      <trkpt lat="37.36809" lon="-5.99716">
        <ele>0.0</ele>
        <time>2022-09-29T13:56:28.7Z</time>
      </trkpt>
      <trkpt lat="37.36811" lon="-5.9972">
        <ele>0.0</ele>
        <time>2022-09-29T13:56:29.45Z</time>
      </trkpt>
      <trkpt lat="37.36812" lon="-5.99724">
        <ele>0.0</ele>
        <time>2022-09-29T13:56:30.12Z</time>
      </trkpt>
      <trkpt lat="37.36813" lon="-5.99728">
        <ele>0.0</ele>
        <time>2022-09-29T13:56:30.78Z</time>
      </trkpt>
      <trkpt lat="37.36814" lon="-5.99732">
        <ele>0.0</ele>
        <time>2022-09-29T13:56:31.45Z</time>
      </trkpt>
      <trkpt lat="37.36814" lon="-5.99736">
        <ele>0.0</ele>
        <time>2022-09-29T13:56:32.09Z</time>
      </trkpt>
      <trkpt lat="37.36815" lon="-5.99741">
        <ele>0.0</ele>
        <time>2022-09-29T13:56:32.91Z</time>
      </trkpt>
      <trkpt lat="37.36815" lon="-5.99745">
        <ele>0.0</ele>
        <time>2022-09-29T13:56:33.54Z</time>
      </trkpt>
      <trkpt lat="37.36815" lon="-5.99749">
        <ele>0.0</ele>
        <time>2022-09-29T13:56:34.18Z</time>
      </trkpt>
      <trkpt lat="37.36814" lon="-5.99755">
        <ele>0.0</ele>
        <time>2022-09-29T13:56:35.15Z</time>
      </trkpt>
      <trkpt lat="37.36813" lon="-5.99761">
        <ele>0.0</ele>
        <time>2022-09-29T13:56:36.13Z</time>
      </trkpt>
      <trkpt lat="37.36811" lon="-5.99767">
        <ele>0.0</ele>
        <time>2022-09-29T13:56:37.16Z</time>
      </trkpt>
      <trkpt lat="37.36808" lon="-5.99772">
        <ele>0.0</ele>
        <time>2022-09-29T13:56:38.16Z</time>
      </trkpt>
      <trkpt lat="37.36804" lon="-5.99776">
        <ele>0.0</ele>
        <time>2022-09-29T13:56:39.18Z</time>
      </trkpt>
      <trkpt lat="37.368" lon="-5.9978">
        <ele>0.0</ele>
        <time>2022-09-29T13:56:40.2Z</time>
      </trkpt>
      <trkpt lat="37.36796" lon="-5.99782">
        <ele>0.0</ele>
        <time>2022-09-29T13:56:41.06Z</time>
      </trkpt>
      <trkpt lat="37.36791" lon="-5.99784">
        <ele>0.0</ele>
        <time>2022-09-29T13:56:42.11Z</time>
      </trkpt>
      <trkpt lat="37.36786" lon="-5.99785">
        <ele>0.0</ele>
        <time>2022-09-29T13:56:43.12Z</time>
      </trkpt>
      <trkpt lat="37.367855" lon="-5.997851">
        <ele>0.0</ele>
        <time>2022-09-29T13:56:43.3Z</time>
      </trkpt>
      <trkpt lat="37.36787" lon="-5.99802">
        <ele>0.0</ele>
        <time>2022-09-29T13:56:46.01Z</time>
      </trkpt>
      <trkpt lat="37.36785" lon="-5.99817">
        <ele>0.0</ele>
        <time>2022-09-29T13:56:48.43Z</time>
      </trkpt>
      <trkpt lat="37.36823" lon="-6.00043">
        <ele>0.0</ele>
        <time>2022-09-29T13:57:25.15Z</time>
      </trkpt>
      <trkpt lat="37.36838" lon="-6.00149">
        <ele>0.0</ele>
        <time>2022-09-29T13:57:42.26Z</time>
      </trkpt>
      <trkpt lat="37.36857" lon="-6.00271">
        <ele>0.0</ele>
        <time>2022-09-29T13:58:02.02Z</time>
      </trkpt>
      <trkpt lat="37.36863" lon="-6.00315">
        <ele>0.0</ele>
        <time>2022-09-29T13:58:09.12Z</time>
      </trkpt>
      <trkpt lat="37.36873" lon="-6.00383">
        <ele>0.0</ele>
        <time>2022-09-29T13:58:20.11Z</time>
      </trkpt>
      <trkpt lat="37.36882" lon="-6.00438">
        <ele>0.0</ele>
        <time>2022-09-29T13:58:29.04Z</time>
      </trkpt>
      <trkpt lat="37.36886" lon="-6.00461">
        <ele>0.0</ele>
        <time>2022-09-29T13:58:32.78Z</time>
      </trkpt>
      <trkpt lat="37.36887" lon="-6.00472">
        <ele>0.0</ele>
        <time>2022-09-29T13:58:34.54Z</time>
      </trkpt>
      <trkpt lat="37.36899" lon="-6.00549">
        <ele>0.0</ele>
        <time>2022-09-29T13:58:47.01Z</time>
      </trkpt>
      <trkpt lat="37.36969" lon="-6.01011">
        <ele>0.0</ele>
        <time>2022-09-29T14:00:01.77Z</time>
      </trkpt>
      <trkpt lat="37.36978" lon="-6.01074">
        <ele>0.0</ele>
        <time>2022-09-29T14:00:11.94Z</time>
      </trkpt>
      <trkpt lat="37.36981" lon="-6.01101">
        <ele>0.0</ele>
        <time>2022-09-29T14:00:16.27Z</time>
      </trkpt>
      <trkpt lat="37.369809" lon="-6.01101">
        <ele>0.0</ele>
        <time>2022-09-29T14:00:16.45Z</time>
      </trkpt>
      <trkpt lat="37.3698" lon="-6.01117">
        <ele>0.0</ele>
        <time>2022-09-29T14:00:19Z</time>
      </trkpt>
      <trkpt lat="37.369802" lon="-6.011171">
        <ele>0.0</ele>
        <time>2022-09-29T14:00:19.18Z</time>
      </trkpt>
      <trkpt lat="37.36979" lon="-6.01123">
        <ele>0.0</ele>
        <time>2022-09-29T14:00:20.15Z</time>
      </trkpt>
      <trkpt lat="37.36977" lon="-6.01128">
        <ele>0.0</ele>
        <time>2022-09-29T14:00:21.04Z</time>
      </trkpt>
      <trkpt lat="37.36976" lon="-6.01132">
        <ele>0.0</ele>
        <time>2022-09-29T14:00:21.7Z</time>
      </trkpt>
      <trkpt lat="37.36975" lon="-6.01136">
        <ele>0.0</ele>
        <time>2022-09-29T14:00:22.37Z</time>
      </trkpt>
      <trkpt lat="37.36975" lon="-6.01138">
        <ele>0.0</ele>
        <time>2022-09-29T14:00:22.69Z</time>
      </trkpt>
      <trkpt lat="37.36975" lon="-6.01141">
        <ele>0.0</ele>
        <time>2022-09-29T14:00:23.16Z</time>
      </trkpt>
      <trkpt lat="37.36974" lon="-6.01142">
        <ele>0.0</ele>
        <time>2022-09-29T14:00:23.42Z</time>
      </trkpt>
      <trkpt lat="37.36973" lon="-6.01144">
        <ele>0.0</ele>
        <time>2022-09-29T14:00:23.79Z</time>
      </trkpt>
      <trkpt lat="37.36973" lon="-6.01145">
        <ele>0.0</ele>
        <time>2022-09-29T14:00:23.97Z</time>
      </trkpt>
      <trkpt lat="37.36972" lon="-6.01146">
        <ele>0.0</ele>
        <time>2022-09-29T14:00:24.23Z</time>
      </trkpt>
      <trkpt lat="37.36971" lon="-6.01148">
        <ele>0.0</ele>
        <time>2022-09-29T14:00:24.61Z</time>
      </trkpt>
      <trkpt lat="37.36969" lon="-6.01149">
        <ele>0.0</ele>
        <time>2022-09-29T14:00:25.04Z</time>
      </trkpt>
      <trkpt lat="37.36969" lon="-6.0115">
        <ele>0.0</ele>
        <time>2022-09-29T14:00:25.22Z</time>
      </trkpt>
      <trkpt lat="37.36967" lon="-6.0115">
        <ele>0.0</ele>
        <time>2022-09-29T14:00:25.62Z</time>
      </trkpt>
      <trkpt lat="37.36962" lon="-6.01152">
        <ele>0.0</ele>
        <time>2022-09-29T14:00:26.67Z</time>
      </trkpt>
      <trkpt lat="37.36959" lon="-6.01153">
        <ele>0.0</ele>
        <time>2022-09-29T14:00:27.29Z</time>
      </trkpt>
      <trkpt lat="37.36942" lon="-6.01158">
        <ele>0.0</ele>
        <time>2022-09-29T14:00:30.78Z</time>
      </trkpt>
      <trkpt lat="37.36853" lon="-6.01184">
        <ele>0.0</ele>
        <time>2022-09-29T14:00:49.05Z</time>
      </trkpt>
      <trkpt lat="37.36846" lon="-6.01186">
        <ele>0.0</ele>
        <time>2022-09-29T14:00:50.49Z</time>
      </trkpt>
      <trkpt lat="37.36842" lon="-6.01187">
        <ele>0.0</ele>
        <time>2022-09-29T14:00:51.3Z</time>
      </trkpt>
      <trkpt lat="37.368422" lon="-6.011871">
        <ele>0.0</ele>
        <time>2022-09-29T14:00:51.48Z</time>
      </trkpt>
      <trkpt lat="37.36848" lon="-6.01223">
        <ele>0.0</ele>
        <time>2022-09-29T14:00:57.31Z</time>
      </trkpt>
      <trkpt lat="37.3685" lon="-6.01238">
        <ele>0.0</ele>
        <time>2022-09-29T14:00:59.73Z</time>
      </trkpt>
      <trkpt lat="37.36853" lon="-6.01254">
        <ele>0.0</ele>
        <time>2022-09-29T14:01:02.34Z</time>
      </trkpt>
      <trkpt lat="37.36856" lon="-6.01274">
        <ele>0.0</ele>
        <time>2022-09-29T14:01:05.57Z</time>
      </trkpt>
      <trkpt lat="37.36857" lon="-6.0128">
        <ele>0.0</ele>
        <time>2022-09-29T14:01:06.55Z</time>
      </trkpt>
      <trkpt lat="37.36861" lon="-6.01299">
        <ele>0.0</ele>
        <time>2022-09-29T14:01:09.67Z</time>
      </trkpt>
      <trkpt lat="37.36862" lon="-6.01306">
        <ele>0.0</ele>
        <time>2022-09-29T14:01:10.8Z</time>
      </trkpt>
      <trkpt lat="37.36865" lon="-6.01318">
        <ele>0.0</ele>
        <time>2022-09-29T14:01:12.8Z</time>
      </trkpt>
      <trkpt lat="37.3687" lon="-6.01342">
        <ele>0.0</ele>
        <time>2022-09-29T14:01:16.75Z</time>
      </trkpt>
      <trkpt lat="37.3687" lon="-6.01345">
        <ele>0.0</ele>
        <time>2022-09-29T14:01:17.22Z</time>
      </trkpt>
      <trkpt lat="37.36868" lon="-6.01348">
        <ele>0.0</ele>
        <time>2022-09-29T14:01:17.84Z</time>
      </trkpt>
      <trkpt lat="37.36867" lon="-6.01351">
        <ele>0.0</ele>
        <time>2022-09-29T14:01:18.36Z</time>
      </trkpt>
      <trkpt lat="37.36865" lon="-6.01353">
        <ele>0.0</ele>
        <time>2022-09-29T14:01:18.87Z</time>
      </trkpt>
      <trkpt lat="37.36861" lon="-6.01358">
        <ele>0.0</ele>
        <time>2022-09-29T14:01:20Z</time>
      </trkpt>
      <trkpt lat="37.36854" lon="-6.01363">
        <ele>0.0</ele>
        <time>2022-09-29T14:01:21.61Z</time>
      </trkpt>
      <trkpt lat="37.36845" lon="-6.01372">
        <ele>0.0</ele>
        <time>2022-09-29T14:01:23.91Z</time>
      </trkpt>
      <trkpt lat="37.36839" lon="-6.01376">
        <ele>0.0</ele>
        <time>2022-09-29T14:01:25.27Z</time>
      </trkpt>
      <trkpt lat="37.3683" lon="-6.01384">
        <ele>0.0</ele>
        <time>2022-09-29T14:01:27.47Z</time>
      </trkpt>
      <trkpt lat="37.36828" lon="-6.01386">
        <ele>0.0</ele>
        <time>2022-09-29T14:01:27.98Z</time>
      </trkpt>
      <trkpt lat="37.36823" lon="-6.0139">
        <ele>0.0</ele>
        <time>2022-09-29T14:01:29.17Z</time>
      </trkpt>
      <trkpt lat="37.3682" lon="-6.01393">
        <ele>0.0</ele>
        <time>2022-09-29T14:01:29.93Z</time>
      </trkpt>
      <trkpt lat="37.36817" lon="-6.01394">
        <ele>0.0</ele>
        <time>2022-09-29T14:01:30.55Z</time>
      </trkpt>
      <trkpt lat="37.36815" lon="-6.01395">
        <ele>0.0</ele>
        <time>2022-09-29T14:01:30.98Z</time>
      </trkpt>
      <trkpt lat="37.36812" lon="-6.01396">
        <ele>0.0</ele>
        <time>2022-09-29T14:01:31.61Z</time>
      </trkpt>
      <trkpt lat="37.36806" lon="-6.01397">
        <ele>0.0</ele>
        <time>2022-09-29T14:01:32.82Z</time>
      </trkpt>
      <trkpt lat="37.36803" lon="-6.01397">
        <ele>0.0</ele>
        <time>2022-09-29T14:01:33.42Z</time>
      </trkpt>
      <trkpt lat="37.36802" lon="-6.01397">
        <ele>0.0</ele>
        <time>2022-09-29T14:01:33.62Z</time>
      </trkpt>
      <trkpt lat="37.36796" lon="-6.01397">
        <ele>0.0</ele>
        <time>2022-09-29T14:01:34.82Z</time>
      </trkpt>
      <trkpt lat="37.36791" lon="-6.01396">
        <ele>0.0</ele>
        <time>2022-09-29T14:01:35.83Z</time>
      </trkpt>
      <trkpt lat="37.36787" lon="-6.01396">
        <ele>0.0</ele>
        <time>2022-09-29T14:01:36.63Z</time>
      </trkpt>
      <trkpt lat="37.36784" lon="-6.01396">
        <ele>0.0</ele>
        <time>2022-09-29T14:01:37.23Z</time>
      </trkpt>
      <trkpt lat="37.36782" lon="-6.01398">
        <ele>0.0</ele>
        <time>2022-09-29T14:01:37.74Z</time>
      </trkpt>
      <trkpt lat="37.36781" lon="-6.01399">
        <ele>0.0</ele>
        <time>2022-09-29T14:01:38Z</time>
      </trkpt>
      <trkpt lat="37.36781" lon="-6.014">
        <ele>0.0</ele>
        <time>2022-09-29T14:01:38.18Z</time>
      </trkpt>
      <trkpt lat="37.3678" lon="-6.01404">
        <ele>0.0</ele>
        <time>2022-09-29T14:01:38.84Z</time>
      </trkpt>
      <trkpt lat="37.36776" lon="-6.01419">
        <ele>0.0</ele>
        <time>2022-09-29T14:01:41.36Z</time>
      </trkpt>
      <trkpt lat="37.36773" lon="-6.01439">
        <ele>0.0</ele>
        <time>2022-09-29T14:01:44.59Z</time>
      </trkpt>
      <trkpt lat="37.36772" lon="-6.01441">
        <ele>0.0</ele>
        <time>2022-09-29T14:01:44.97Z</time>
      </trkpt>
      <trkpt lat="37.3677" lon="-6.01459">
        <ele>0.0</ele>
        <time>2022-09-29T14:01:47.86Z</time>
      </trkpt>
      <trkpt lat="37.36769" lon="-6.01463">
        <ele>0.0</ele>
        <time>2022-09-29T14:01:48.52Z</time>
      </trkpt>
      <trkpt lat="37.36767" lon="-6.0147">
        <ele>0.0</ele>
        <time>2022-09-29T14:01:49.71Z</time>
      </trkpt>
      <trkpt lat="37.36767" lon="-6.01474">
        <ele>0.0</ele>
        <time>2022-09-29T14:01:50.34Z</time>
      </trkpt>
      <trkpt lat="37.36767" lon="-6.01479">
        <ele>0.0</ele>
        <time>2022-09-29T14:01:51.14Z</time>
      </trkpt>
      <trkpt lat="37.36767" lon="-6.01483">
        <ele>0.0</ele>
        <time>2022-09-29T14:01:51.77Z</time>
      </trkpt>
      <trkpt lat="37.36768" lon="-6.01485">
        <ele>0.0</ele>
        <time>2022-09-29T14:01:52.15Z</time>
      </trkpt>
      <trkpt lat="37.36769" lon="-6.01487">
        <ele>0.0</ele>
        <time>2022-09-29T14:01:52.52Z</time>
      </trkpt>
      <trkpt lat="37.36773" lon="-6.01491">
        <ele>0.0</ele>
        <time>2022-09-29T14:01:53.54Z</time>
      </trkpt>
      <trkpt lat="37.36776" lon="-6.01492">
        <ele>0.0</ele>
        <time>2022-09-29T14:01:54.17Z</time>
      </trkpt>
      <trkpt lat="37.3678" lon="-6.01493">
        <ele>0.0</ele>
        <time>2022-09-29T14:01:54.98Z</time>
      </trkpt>
      <trkpt lat="37.36781" lon="-6.01493">
        <ele>0.0</ele>
        <time>2022-09-29T14:01:55.18Z</time>
      </trkpt>
      <trkpt lat="37.36785" lon="-6.01492">
        <ele>0.0</ele>
        <time>2022-09-29T14:01:56Z</time>
      </trkpt>
      <trkpt lat="37.36788" lon="-6.01492">
        <ele>0.0</ele>
        <time>2022-09-29T14:01:56.6Z</time>
      </trkpt>
      <trkpt lat="37.3679" lon="-6.01492">
        <ele>0.0</ele>
        <time>2022-09-29T14:01:57Z</time>
      </trkpt>
      <trkpt lat="37.36794" lon="-6.01492">
        <ele>0.0</ele>
        <time>2022-09-29T14:01:57.8Z</time>
      </trkpt>
      <trkpt lat="37.36798" lon="-6.01493">
        <ele>0.0</ele>
        <time>2022-09-29T14:01:58.61Z</time>
      </trkpt>
      <trkpt lat="37.36801" lon="-6.01494">
        <ele>0.0</ele>
        <time>2022-09-29T14:01:59.23Z</time>
      </trkpt>
      <trkpt lat="37.36804" lon="-6.01495">
        <ele>0.0</ele>
        <time>2022-09-29T14:01:59.85Z</time>
      </trkpt>
      <trkpt lat="37.36811" lon="-6.015">
        <ele>0.0</ele>
        <time>2022-09-29T14:02:01.46Z</time>
      </trkpt>
      <trkpt lat="37.36814" lon="-6.01502">
        <ele>0.0</ele>
        <time>2022-09-29T14:02:02.14Z</time>
      </trkpt>
      <trkpt lat="37.36817" lon="-6.01505">
        <ele>0.0</ele>
        <time>2022-09-29T14:02:02.91Z</time>
      </trkpt>
      <trkpt lat="37.36821" lon="-6.01508">
        <ele>0.0</ele>
        <time>2022-09-29T14:02:03.84Z</time>
      </trkpt>
      <trkpt lat="37.36824" lon="-6.0151">
        <ele>0.0</ele>
        <time>2022-09-29T14:02:04.52Z</time>
      </trkpt>
      <trkpt lat="37.36829" lon="-6.01515">
        <ele>0.0</ele>
        <time>2022-09-29T14:02:05.8Z</time>
      </trkpt>
      <trkpt lat="37.36831" lon="-6.01517">
        <ele>0.0</ele>
        <time>2022-09-29T14:02:06.31Z</time>
      </trkpt>
      <trkpt lat="37.36836" lon="-6.01523">
        <ele>0.0</ele>
        <time>2022-09-29T14:02:07.69Z</time>
      </trkpt>
      <trkpt lat="37.3684" lon="-6.01528">
        <ele>0.0</ele>
        <time>2022-09-29T14:02:08.82Z</time>
      </trkpt>
      <trkpt lat="37.36845" lon="-6.01533">
        <ele>0.0</ele>
        <time>2022-09-29T14:02:10.09Z</time>
      </trkpt>
      <trkpt lat="37.3685" lon="-6.01539">
        <ele>0.0</ele>
        <time>2022-09-29T14:02:11.48Z</time>
      </trkpt>
      <trkpt lat="37.3685" lon="-6.0154">
        <ele>0.0</ele>
        <time>2022-09-29T14:02:11.66Z</time>
      </trkpt>
      <trkpt lat="37.36854" lon="-6.01545">
        <ele>0.0</ele>
        <time>2022-09-29T14:02:12.78Z</time>
      </trkpt>
      <trkpt lat="37.36857" lon="-6.01551">
        <ele>0.0</ele>
        <time>2022-09-29T14:02:13.91Z</time>
      </trkpt>
      <trkpt lat="37.36862" lon="-6.01559">
        <ele>0.0</ele>
        <time>2022-09-29T14:02:15.53Z</time>
      </trkpt>
      <trkpt lat="37.36865" lon="-6.01563">
        <ele>0.0</ele>
        <time>2022-09-29T14:02:16.4Z</time>
      </trkpt>
      <trkpt lat="37.36869" lon="-6.01569">
        <ele>0.0</ele>
        <time>2022-09-29T14:02:17.65Z</time>
      </trkpt>
      <trkpt lat="37.36873" lon="-6.01574">
        <ele>0.0</ele>
        <time>2022-09-29T14:02:18.77Z</time>
      </trkpt>
      <trkpt lat="37.36874" lon="-6.01575">
        <ele>0.0</ele>
        <time>2022-09-29T14:02:19.03Z</time>
      </trkpt>
      <trkpt lat="37.36878" lon="-6.01581">
        <ele>0.0</ele>
        <time>2022-09-29T14:02:20.28Z</time>
      </trkpt>
      <trkpt lat="37.36878" lon="-6.01582">
        <ele>0.0</ele>
        <time>2022-09-29T14:02:20.46Z</time>
      </trkpt>
      <trkpt lat="37.36881" lon="-6.01587">
        <ele>0.0</ele>
        <time>2022-09-29T14:02:21.45Z</time>
      </trkpt>
      <trkpt lat="37.36883" lon="-6.01591">
        <ele>0.0</ele>
        <time>2022-09-29T14:02:22.2Z</time>
      </trkpt>
      <trkpt lat="37.36884" lon="-6.01594">
        <ele>0.0</ele>
        <time>2022-09-29T14:02:22.72Z</time>
      </trkpt>
      <trkpt lat="37.36886" lon="-6.01602">
        <ele>0.0</ele>
        <time>2022-09-29T14:02:24.05Z</time>
      </trkpt>
      <trkpt lat="37.36887" lon="-6.01606">
        <ele>0.0</ele>
        <time>2022-09-29T14:02:24.72Z</time>
      </trkpt>
      <trkpt lat="37.36887" lon="-6.01612">
        <ele>0.0</ele>
        <time>2022-09-29T14:02:25.67Z</time>
      </trkpt>
      <trkpt lat="37.36887" lon="-6.01624">
        <ele>0.0</ele>
        <time>2022-09-29T14:02:27.58Z</time>
      </trkpt>
      <trkpt lat="37.368874" lon="-6.016238">
        <ele>0.0</ele>
        <time>2022-09-29T14:02:27.76Z</time>
      </trkpt>
      <trkpt lat="37.36885" lon="-6.01645">
        <ele>0.0</ele>
        <time>2022-09-29T14:02:31.17Z</time>
      </trkpt>
      <trkpt lat="37.36885" lon="-6.01646">
        <ele>0.0</ele>
        <time>2022-09-29T14:02:31.35Z</time>
      </trkpt>
      <trkpt lat="37.36878" lon="-6.01689">
        <ele>0.0</ele>
        <time>2022-09-29T14:02:38.32Z</time>
      </trkpt>
      <trkpt lat="37.36878" lon="-6.0169">
        <ele>0.0</ele>
        <time>2022-09-29T14:02:38.5Z</time>
      </trkpt>
      <trkpt lat="37.36874" lon="-6.01711">
        <ele>0.0</ele>
        <time>2022-09-29T14:02:41.94Z</time>
      </trkpt>
      <trkpt lat="37.3687" lon="-6.01733">
        <ele>0.0</ele>
        <time>2022-09-29T14:02:45.52Z</time>
      </trkpt>
      <trkpt lat="37.36861" lon="-6.01785">
        <ele>0.0</ele>
        <time>2022-09-29T14:02:53.98Z</time>
      </trkpt>
      <trkpt lat="37.36858" lon="-6.01799">
        <ele>0.0</ele>
        <time>2022-09-29T14:02:56.29Z</time>
      </trkpt>
      <trkpt lat="37.36822" lon="-6.01998">
        <ele>0.0</ele>
        <time>2022-09-29T14:03:28.73Z</time>
      </trkpt>
      <trkpt lat="37.36818" lon="-6.0202">
        <ele>0.0</ele>
        <time>2022-09-29T14:03:32.31Z</time>
      </trkpt>
      <trkpt lat="37.36807" lon="-6.02082">
        <ele>0.0</ele>
        <time>2022-09-29T14:03:42.41Z</time>
      </trkpt>
      <trkpt lat="37.36807" lon="-6.02087">
        <ele>0.0</ele>
        <time>2022-09-29T14:03:43.21Z</time>
      </trkpt>
      <trkpt lat="37.36805" lon="-6.02103">
        <ele>0.0</ele>
        <time>2022-09-29T14:03:45.78Z</time>
      </trkpt>
      <trkpt lat="37.36804" lon="-6.02109">
        <ele>0.0</ele>
        <time>2022-09-29T14:03:46.76Z</time>
      </trkpt>
      <trkpt lat="37.36803" lon="-6.02125">
        <ele>0.0</ele>
        <time>2022-09-29T14:03:49.31Z</time>
      </trkpt>
      <trkpt lat="37.36804" lon="-6.02132">
        <ele>0.0</ele>
        <time>2022-09-29T14:03:50.44Z</time>
      </trkpt>
      <trkpt lat="37.36804" lon="-6.02144">
        <ele>0.0</ele>
        <time>2022-09-29T14:03:52.34Z</time>
      </trkpt>
      <trkpt lat="37.36804" lon="-6.02145">
        <ele>0.0</ele>
        <time>2022-09-29T14:03:52.52Z</time>
      </trkpt>
      <trkpt lat="37.36804" lon="-6.02148">
        <ele>0.0</ele>
        <time>2022-09-29T14:03:53Z</time>
      </trkpt>
      <trkpt lat="37.36805" lon="-6.02163">
        <ele>0.0</ele>
        <time>2022-09-29T14:03:55.39Z</time>
      </trkpt>
      <trkpt lat="37.36806" lon="-6.02183">
        <ele>0.0</ele>
        <time>2022-09-29T14:03:58.58Z</time>
      </trkpt>
      <trkpt lat="37.36807" lon="-6.02206">
        <ele>0.0</ele>
        <time>2022-09-29T14:04:02.24Z</time>
      </trkpt>
      <trkpt lat="37.36807" lon="-6.02229">
        <ele>0.0</ele>
        <time>2022-09-29T14:04:05.9Z</time>
      </trkpt>
      <trkpt lat="37.36808" lon="-6.02251">
        <ele>0.0</ele>
        <time>2022-09-29T14:04:09.4Z</time>
      </trkpt>
      <trkpt lat="37.36808" lon="-6.02266">
        <ele>0.0</ele>
        <time>2022-09-29T14:04:11.78Z</time>
      </trkpt>
      <trkpt lat="37.36808" lon="-6.02289">
        <ele>0.0</ele>
        <time>2022-09-29T14:04:15.44Z</time>
      </trkpt>
      <trkpt lat="37.36809" lon="-6.02311">
        <ele>0.0</ele>
        <time>2022-09-29T14:04:18.94Z</time>
      </trkpt>
      <trkpt lat="37.36809" lon="-6.02334">
        <ele>0.0</ele>
        <time>2022-09-29T14:04:22.6Z</time>
      </trkpt>
      <trkpt lat="37.36809" lon="-6.02356">
        <ele>0.0</ele>
        <time>2022-09-29T14:04:26.09Z</time>
      </trkpt>
      <trkpt lat="37.36809" lon="-6.02368">
        <ele>0.0</ele>
        <time>2022-09-29T14:04:28Z</time>
      </trkpt>
      <trkpt lat="37.36809" lon="-6.02379">
        <ele>0.0</ele>
        <time>2022-09-29T14:04:29.75Z</time>
      </trkpt>
      <trkpt lat="37.36809" lon="-6.02387">
        <ele>0.0</ele>
        <time>2022-09-29T14:04:31.02Z</time>
      </trkpt>
      <trkpt lat="37.36808" lon="-6.02408">
        <ele>0.0</ele>
        <time>2022-09-29T14:04:34.37Z</time>
      </trkpt>
      <trkpt lat="37.36807" lon="-6.0242">
        <ele>0.0</ele>
        <time>2022-09-29T14:04:36.28Z</time>
      </trkpt>
      <trkpt lat="37.36806" lon="-6.02425">
        <ele>0.0</ele>
        <time>2022-09-29T14:04:37.1Z</time>
      </trkpt>
      <trkpt lat="37.36805" lon="-6.0243">
        <ele>0.0</ele>
        <time>2022-09-29T14:04:37.92Z</time>
      </trkpt>
      <trkpt lat="37.36802" lon="-6.0244">
        <ele>0.0</ele>
        <time>2022-09-29T14:04:39.62Z</time>
      </trkpt>
      <trkpt lat="37.36802" lon="-6.02442">
        <ele>0.0</ele>
        <time>2022-09-29T14:04:39.94Z</time>
      </trkpt>
      <trkpt lat="37.36799" lon="-6.02451">
        <ele>0.0</ele>
        <time>2022-09-29T14:04:41.49Z</time>
      </trkpt>
      <trkpt lat="37.36797" lon="-6.02459">
        <ele>0.0</ele>
        <time>2022-09-29T14:04:42.82Z</time>
      </trkpt>
      <trkpt lat="37.36792" lon="-6.02472">
        <ele>0.0</ele>
        <time>2022-09-29T14:04:45.12Z</time>
      </trkpt>
      <trkpt lat="37.36786" lon="-6.02487">
        <ele>0.0</ele>
        <time>2022-09-29T14:04:47.79Z</time>
      </trkpt>
      <trkpt lat="37.36784" lon="-6.02492">
        <ele>0.0</ele>
        <time>2022-09-29T14:04:48.68Z</time>
      </trkpt>
      <trkpt lat="37.36773" lon="-6.0251">
        <ele>0.0</ele>
        <time>2022-09-29T14:04:52.29Z</time>
      </trkpt>
      <trkpt lat="37.36773" lon="-6.02511">
        <ele>0.0</ele>
        <time>2022-09-29T14:04:52.47Z</time>
      </trkpt>
      <trkpt lat="37.3676" lon="-6.02526">
        <ele>0.0</ele>
        <time>2022-09-29T14:04:56Z</time>
      </trkpt>
      <trkpt lat="37.36738" lon="-6.02552">
        <ele>0.0</ele>
        <time>2022-09-29T14:05:02.03Z</time>
      </trkpt>
      <trkpt lat="37.36733" lon="-6.02556">
        <ele>0.0</ele>
        <time>2022-09-29T14:05:03.22Z</time>
      </trkpt>
      <trkpt lat="37.36725" lon="-6.02561">
        <ele>0.0</ele>
        <time>2022-09-29T14:05:05Z</time>
      </trkpt>
      <trkpt lat="37.36716" lon="-6.02567">
        <ele>0.0</ele>
        <time>2022-09-29T14:05:07.04Z</time>
      </trkpt>
      <trkpt lat="37.36703" lon="-6.02575">
        <ele>0.0</ele>
        <time>2022-09-29T14:05:09.93Z</time>
      </trkpt>
      <trkpt lat="37.36693" lon="-6.02579">
        <ele>0.0</ele>
        <time>2022-09-29T14:05:12.03Z</time>
      </trkpt>
      <trkpt lat="37.36688" lon="-6.02581">
        <ele>0.0</ele>
        <time>2022-09-29T14:05:13.08Z</time>
      </trkpt>
      <trkpt lat="37.36682" lon="-6.02582">
        <ele>0.0</ele>
        <time>2022-09-29T14:05:14.29Z</time>
      </trkpt>
      <trkpt lat="37.36679" lon="-6.02583">
        <ele>0.0</ele>
        <time>2022-09-29T14:05:14.91Z</time>
      </trkpt>
      <trkpt lat="37.36675" lon="-6.02582">
        <ele>0.0</ele>
        <time>2022-09-29T14:05:15.73Z</time>
      </trkpt>
      <trkpt lat="37.36666" lon="-6.02581">
        <ele>0.0</ele>
        <time>2022-09-29T14:05:17.54Z</time>
      </trkpt>
      <trkpt lat="37.366658" lon="-6.025815">
        <ele>0.0</ele>
        <time>2022-09-29T14:05:17.72Z</time>
      </trkpt>
      <trkpt lat="37.36666" lon="-6.02583">
        <ele>0.0</ele>
        <time>2022-09-29T14:05:17.97Z</time>
      </trkpt>
      <trkpt lat="37.36665" lon="-6.02584">
        <ele>0.0</ele>
        <time>2022-09-29T14:05:18.22Z</time>
      </trkpt>
      <trkpt lat="37.36665" lon="-6.02585">
        <ele>0.0</ele>
        <time>2022-09-29T14:05:18.4Z</time>
      </trkpt>
      <trkpt lat="37.36665" lon="-6.02586">
        <ele>0.0</ele>
        <time>2022-09-29T14:05:18.58Z</time>
      </trkpt>
      <trkpt lat="37.36665" lon="-6.02587">
        <ele>0.0</ele>
        <time>2022-09-29T14:05:18.76Z</time>
      </trkpt>
      <trkpt lat="37.36665" lon="-6.02588">
        <ele>0.0</ele>
        <time>2022-09-29T14:05:18.94Z</time>
      </trkpt>
      <trkpt lat="37.36664" lon="-6.02588">
        <ele>0.0</ele>
        <time>2022-09-29T14:05:19.14Z</time>
      </trkpt>
      <trkpt lat="37.36664" lon="-6.02589">
        <ele>0.0</ele>
        <time>2022-09-29T14:05:19.32Z</time>
      </trkpt>
      <trkpt lat="37.36663" lon="-6.0259">
        <ele>0.0</ele>
        <time>2022-09-29T14:05:19.58Z</time>
      </trkpt>
      <trkpt lat="37.36663" lon="-6.02591">
        <ele>0.0</ele>
        <time>2022-09-29T14:05:19.76Z</time>
      </trkpt>
      <trkpt lat="37.36662" lon="-6.02592">
        <ele>0.0</ele>
        <time>2022-09-29T14:05:20.01Z</time>
      </trkpt>
      <trkpt lat="37.36661" lon="-6.02593">
        <ele>0.0</ele>
        <time>2022-09-29T14:05:20.27Z</time>
      </trkpt>
      <trkpt lat="37.3666" lon="-6.02593">
        <ele>0.0</ele>
        <time>2022-09-29T14:05:20.47Z</time>
      </trkpt>
      <trkpt lat="37.3666" lon="-6.02594">
        <ele>0.0</ele>
        <time>2022-09-29T14:05:20.65Z</time>
      </trkpt>
      <trkpt lat="37.36659" lon="-6.02594">
        <ele>0.0</ele>
        <time>2022-09-29T14:05:20.85Z</time>
      </trkpt>
      <trkpt lat="37.36658" lon="-6.02595">
        <ele>0.0</ele>
        <time>2022-09-29T14:05:21.1Z</time>
      </trkpt>
      <trkpt lat="37.36657" lon="-6.02595">
        <ele>0.0</ele>
        <time>2022-09-29T14:05:21.3Z</time>
      </trkpt>
      <trkpt lat="37.36656" lon="-6.02595">
        <ele>0.0</ele>
        <time>2022-09-29T14:05:21.5Z</time>
      </trkpt>
      <trkpt lat="37.36655" lon="-6.02596">
        <ele>0.0</ele>
        <time>2022-09-29T14:05:21.76Z</time>
      </trkpt>
      <trkpt lat="37.36654" lon="-6.02596">
        <ele>0.0</ele>
        <time>2022-09-29T14:05:21.96Z</time>
      </trkpt>
      <trkpt lat="37.36653" lon="-6.02596">
        <ele>0.0</ele>
        <time>2022-09-29T14:05:22.16Z</time>
      </trkpt>
      <trkpt lat="37.36652" lon="-6.02595">
        <ele>0.0</ele>
        <time>2022-09-29T14:05:22.41Z</time>
      </trkpt>
      <trkpt lat="37.36651" lon="-6.02595">
        <ele>0.0</ele>
        <time>2022-09-29T14:05:22.61Z</time>
      </trkpt>
      <trkpt lat="37.3665" lon="-6.02595">
        <ele>0.0</ele>
        <time>2022-09-29T14:05:22.81Z</time>
      </trkpt>
      <trkpt lat="37.3665" lon="-6.02594">
        <ele>0.0</ele>
        <time>2022-09-29T14:05:22.99Z</time>
      </trkpt>
      <trkpt lat="37.36649" lon="-6.02594">
        <ele>0.0</ele>
        <time>2022-09-29T14:05:23.19Z</time>
      </trkpt>
      <trkpt lat="37.36648" lon="-6.02593">
        <ele>0.0</ele>
        <time>2022-09-29T14:05:23.45Z</time>
      </trkpt>
      <trkpt lat="37.36647" lon="-6.02593">
        <ele>0.0</ele>
        <time>2022-09-29T14:05:23.65Z</time>
      </trkpt>
      <trkpt lat="37.36647" lon="-6.02592">
        <ele>0.0</ele>
        <time>2022-09-29T14:05:23.83Z</time>
      </trkpt>
      <trkpt lat="37.36646" lon="-6.02592">
        <ele>0.0</ele>
        <time>2022-09-29T14:05:24.03Z</time>
      </trkpt>
      <trkpt lat="37.36646" lon="-6.02591">
        <ele>0.0</ele>
        <time>2022-09-29T14:05:24.21Z</time>
      </trkpt>
      <trkpt lat="37.36645" lon="-6.0259">
        <ele>0.0</ele>
        <time>2022-09-29T14:05:24.47Z</time>
      </trkpt>
      <trkpt lat="37.36645" lon="-6.02589">
        <ele>0.0</ele>
        <time>2022-09-29T14:05:24.65Z</time>
      </trkpt>
      <trkpt lat="37.36644" lon="-6.02588">
        <ele>0.0</ele>
        <time>2022-09-29T14:05:24.9Z</time>
      </trkpt>
      <trkpt lat="37.36644" lon="-6.02587">
        <ele>0.0</ele>
        <time>2022-09-29T14:05:25.08Z</time>
      </trkpt>
      <trkpt lat="37.36644" lon="-6.02586">
        <ele>0.0</ele>
        <time>2022-09-29T14:05:25.26Z</time>
      </trkpt>
      <trkpt lat="37.36643" lon="-6.02586">
        <ele>0.0</ele>
        <time>2022-09-29T14:05:25.46Z</time>
      </trkpt>
      <trkpt lat="37.36643" lon="-6.02585">
        <ele>0.0</ele>
        <time>2022-09-29T14:05:25.64Z</time>
      </trkpt>
      <trkpt lat="37.36627" lon="-6.0257">
        <ele>0.0</ele>
        <time>2022-09-29T14:05:29.63Z</time>
      </trkpt>
      <trkpt lat="37.36591" lon="-6.02551">
        <ele>0.0</ele>
        <time>2022-09-29T14:05:37.44Z</time>
      </trkpt>
      <trkpt lat="37.36585" lon="-6.02547">
        <ele>0.0</ele>
        <time>2022-09-29T14:05:38.8Z</time>
      </trkpt>
      <trkpt lat="37.3658" lon="-6.02544">
        <ele>0.0</ele>
        <time>2022-09-29T14:05:39.9Z</time>
      </trkpt>
      <trkpt lat="37.36524" lon="-6.02513">
        <ele>0.0</ele>
        <time>2022-09-29T14:05:52.14Z</time>
      </trkpt>
      <trkpt lat="37.36514" lon="-6.02508">
        <ele>0.0</ele>
        <time>2022-09-29T14:05:54.29Z</time>
      </trkpt>
      <trkpt lat="37.36506" lon="-6.02506">
        <ele>0.0</ele>
        <time>2022-09-29T14:05:55.92Z</time>
      </trkpt>
      <trkpt lat="37.36493" lon="-6.02506">
        <ele>0.0</ele>
        <time>2022-09-29T14:05:58.52Z</time>
      </trkpt>
      <trkpt lat="37.36471" lon="-6.02507">
        <ele>0.0</ele>
        <time>2022-09-29T14:06:02.93Z</time>
      </trkpt>
      <trkpt lat="37.3643" lon="-6.02507">
        <ele>0.0</ele>
        <time>2022-09-29T14:06:11.13Z</time>
      </trkpt>
      <trkpt lat="37.36419" lon="-6.02506">
        <ele>0.0</ele>
        <time>2022-09-29T14:06:13.33Z</time>
      </trkpt>
      <trkpt lat="37.36364" lon="-6.02506">
        <ele>0.0</ele>
        <time>2022-09-29T14:06:24.33Z</time>
      </trkpt>
      <trkpt lat="37.36355" lon="-6.02506">
        <ele>0.0</ele>
        <time>2022-09-29T14:06:26.13Z</time>
      </trkpt>
      <trkpt lat="37.3634" lon="-6.02505">
        <ele>0.0</ele>
        <time>2022-09-29T14:06:29.14Z</time>
      </trkpt>
      <trkpt lat="37.363396" lon="-6.025052">
        <ele>0.0</ele>
        <time>2022-09-29T14:06:29.32Z</time>
      </trkpt>
      <trkpt lat="37.36334" lon="-6.02516">
        <ele>0.0</ele>
        <time>2022-09-29T14:06:31.36Z</time>
      </trkpt>
      <trkpt lat="37.36295" lon="-6.02528">
        <ele>0.0</ele>
        <time>2022-09-29T14:06:39.39Z</time>
      </trkpt>
      <trkpt lat="37.36276" lon="-6.02536">
        <ele>0.0</ele>
        <time>2022-09-29T14:06:43.4Z</time>
      </trkpt>
      <trkpt lat="37.36237" lon="-6.02554">
        <ele>0.0</ele>
        <time>2022-09-29T14:06:51.71Z</time>
      </trkpt>
      <trkpt lat="37.36222" lon="-6.02567">
        <ele>0.0</ele>
        <time>2022-09-29T14:06:55.35Z</time>
      </trkpt>
      <trkpt lat="37.36212" lon="-6.02581">
        <ele>0.0</ele>
        <time>2022-09-29T14:06:58.34Z</time>
      </trkpt>
      <trkpt lat="37.36202" lon="-6.02595">
        <ele>0.0</ele>
        <time>2022-09-29T14:07:01.34Z</time>
      </trkpt>
      <trkpt lat="37.36199" lon="-6.02604">
        <ele>0.0</ele>
        <time>2022-09-29T14:07:02.89Z</time>
      </trkpt>
      <trkpt lat="37.36186" lon="-6.02636">
        <ele>0.0</ele>
        <time>2022-09-29T14:07:08.6Z</time>
      </trkpt>
      <trkpt lat="37.36178" lon="-6.02691">
        <ele>0.0</ele>
        <time>2022-09-29T14:07:17.49Z</time>
      </trkpt>
      <trkpt lat="37.36178" lon="-6.02715">
        <ele>0.0</ele>
        <time>2022-09-29T14:07:21.3Z</time>
      </trkpt>
      <trkpt lat="37.36176" lon="-6.02742">
        <ele>0.0</ele>
        <time>2022-09-29T14:07:25.61Z</time>
      </trkpt>
      <trkpt lat="37.361765" lon="-6.027416">
        <ele>0.0</ele>
        <time>2022-09-29T14:07:25.79Z</time>
      </trkpt>
      <trkpt lat="37.36177" lon="-6.02742">
        <ele>0.0</ele>
        <time>2022-09-29T14:07:25.97Z</time>
      </trkpt>
      <trkpt lat="37.36178" lon="-6.02743">
        <ele>0.0</ele>
        <time>2022-09-29T14:07:26.23Z</time>
      </trkpt>
      <trkpt lat="37.36179" lon="-6.02743">
        <ele>0.0</ele>
        <time>2022-09-29T14:07:26.43Z</time>
      </trkpt>
      <trkpt lat="37.36179" lon="-6.02744">
        <ele>0.0</ele>
        <time>2022-09-29T14:07:26.61Z</time>
      </trkpt>
      <trkpt lat="37.3618" lon="-6.02745">
        <ele>0.0</ele>
        <time>2022-09-29T14:07:26.86Z</time>
      </trkpt>
      <trkpt lat="37.3618" lon="-6.02746">
        <ele>0.0</ele>
        <time>2022-09-29T14:07:27.04Z</time>
      </trkpt>
      <trkpt lat="37.36181" lon="-6.02746">
        <ele>0.0</ele>
        <time>2022-09-29T14:07:27.24Z</time>
      </trkpt>
      <trkpt lat="37.36181" lon="-6.02747">
        <ele>0.0</ele>
        <time>2022-09-29T14:07:27.42Z</time>
      </trkpt>
      <trkpt lat="37.36181" lon="-6.02748">
        <ele>0.0</ele>
        <time>2022-09-29T14:07:27.6Z</time>
      </trkpt>
      <trkpt lat="37.36182" lon="-6.02749">
        <ele>0.0</ele>
        <time>2022-09-29T14:07:27.86Z</time>
      </trkpt>
      <trkpt lat="37.36182" lon="-6.0275">
        <ele>0.0</ele>
        <time>2022-09-29T14:07:28.04Z</time>
      </trkpt>
      <trkpt lat="37.36182" lon="-6.02751">
        <ele>0.0</ele>
        <time>2022-09-29T14:07:28.22Z</time>
      </trkpt>
      <trkpt lat="37.36182" lon="-6.02752">
        <ele>0.0</ele>
        <time>2022-09-29T14:07:28.4Z</time>
      </trkpt>
      <trkpt lat="37.36182" lon="-6.02753">
        <ele>0.0</ele>
        <time>2022-09-29T14:07:28.58Z</time>
      </trkpt>
      <trkpt lat="37.36182" lon="-6.02754">
        <ele>0.0</ele>
        <time>2022-09-29T14:07:28.76Z</time>
      </trkpt>
      <trkpt lat="37.36182" lon="-6.02755">
        <ele>0.0</ele>
        <time>2022-09-29T14:07:28.94Z</time>
      </trkpt>
      <trkpt lat="37.36182" lon="-6.02756">
        <ele>0.0</ele>
        <time>2022-09-29T14:07:29.12Z</time>
      </trkpt>
      <trkpt lat="37.36182" lon="-6.02757">
        <ele>0.0</ele>
        <time>2022-09-29T14:07:29.3Z</time>
      </trkpt>
      <trkpt lat="37.36182" lon="-6.02758">
        <ele>0.0</ele>
        <time>2022-09-29T14:07:29.48Z</time>
      </trkpt>
      <trkpt lat="37.36181" lon="-6.02759">
        <ele>0.0</ele>
        <time>2022-09-29T14:07:29.74Z</time>
      </trkpt>
      <trkpt lat="37.36181" lon="-6.0276">
        <ele>0.0</ele>
        <time>2022-09-29T14:07:29.92Z</time>
      </trkpt>
      <trkpt lat="37.36181" lon="-6.02761">
        <ele>0.0</ele>
        <time>2022-09-29T14:07:30.1Z</time>
      </trkpt>
      <trkpt lat="37.3618" lon="-6.02761">
        <ele>0.0</ele>
        <time>2022-09-29T14:07:30.3Z</time>
      </trkpt>
      <trkpt lat="37.3618" lon="-6.02762">
        <ele>0.0</ele>
        <time>2022-09-29T14:07:30.48Z</time>
      </trkpt>
      <trkpt lat="37.36179" lon="-6.02763">
        <ele>0.0</ele>
        <time>2022-09-29T14:07:30.73Z</time>
      </trkpt>
      <trkpt lat="37.36179" lon="-6.02764">
        <ele>0.0</ele>
        <time>2022-09-29T14:07:30.91Z</time>
      </trkpt>
      <trkpt lat="37.36178" lon="-6.02764">
        <ele>0.0</ele>
        <time>2022-09-29T14:07:31.11Z</time>
      </trkpt>
      <trkpt lat="37.36178" lon="-6.02765">
        <ele>0.0</ele>
        <time>2022-09-29T14:07:31.29Z</time>
      </trkpt>
      <trkpt lat="37.36177" lon="-6.02765">
        <ele>0.0</ele>
        <time>2022-09-29T14:07:31.49Z</time>
      </trkpt>
      <trkpt lat="37.36176" lon="-6.02766">
        <ele>0.0</ele>
        <time>2022-09-29T14:07:31.75Z</time>
      </trkpt>
      <trkpt lat="37.36175" lon="-6.02766">
        <ele>0.0</ele>
        <time>2022-09-29T14:07:31.95Z</time>
      </trkpt>
      <trkpt lat="37.36175" lon="-6.02767">
        <ele>0.0</ele>
        <time>2022-09-29T14:07:32.13Z</time>
      </trkpt>
      <trkpt lat="37.36174" lon="-6.02767">
        <ele>0.0</ele>
        <time>2022-09-29T14:07:32.33Z</time>
      </trkpt>
      <trkpt lat="37.36173" lon="-6.02767">
        <ele>0.0</ele>
        <time>2022-09-29T14:07:32.53Z</time>
      </trkpt>
      <trkpt lat="37.36172" lon="-6.02767">
        <ele>0.0</ele>
        <time>2022-09-29T14:07:32.73Z</time>
      </trkpt>
      <trkpt lat="37.36171" lon="-6.02767">
        <ele>0.0</ele>
        <time>2022-09-29T14:07:32.93Z</time>
      </trkpt>
      <trkpt lat="37.36153" lon="-6.02797">
        <ele>0.0</ele>
        <time>2022-09-29T14:07:38.9Z</time>
      </trkpt>
      <trkpt lat="37.36147" lon="-6.02809">
        <ele>0.0</ele>
        <time>2022-09-29T14:07:41.16Z</time>
      </trkpt>
      <trkpt lat="37.36143" lon="-6.02815">
        <ele>0.0</ele>
        <time>2022-09-29T14:07:42.4Z</time>
      </trkpt>
      <trkpt lat="37.36137" lon="-6.02824">
        <ele>0.0</ele>
        <time>2022-09-29T14:07:44.27Z</time>
      </trkpt>
      <trkpt lat="37.36119" lon="-6.0285">
        <ele>0.0</ele>
        <time>2022-09-29T14:07:49.75Z</time>
      </trkpt>
      <trkpt lat="37.36114" lon="-6.02857">
        <ele>0.0</ele>
        <time>2022-09-29T14:07:51.24Z</time>
      </trkpt>
      <trkpt lat="37.36114" lon="-6.02858">
        <ele>0.0</ele>
        <time>2022-09-29T14:07:51.42Z</time>
      </trkpt>
      <trkpt lat="37.36109" lon="-6.02867">
        <ele>0.0</ele>
        <time>2022-09-29T14:07:53.17Z</time>
      </trkpt>
      <trkpt lat="37.36105" lon="-6.02876">
        <ele>0.0</ele>
        <time>2022-09-29T14:07:54.81Z</time>
      </trkpt>
      <trkpt lat="37.36096" lon="-6.02897">
        <ele>0.0</ele>
        <time>2022-09-29T14:07:58.6Z</time>
      </trkpt>
      <trkpt lat="37.36092" lon="-6.02907">
        <ele>0.0</ele>
        <time>2022-09-29T14:08:00.38Z</time>
      </trkpt>
      <trkpt lat="37.36092" lon="-6.02908">
        <ele>0.0</ele>
        <time>2022-09-29T14:08:00.56Z</time>
      </trkpt>
      <trkpt lat="37.36088" lon="-6.0292">
        <ele>0.0</ele>
        <time>2022-09-29T14:08:02.63Z</time>
      </trkpt>
      <trkpt lat="37.36087" lon="-6.02921">
        <ele>0.0</ele>
        <time>2022-09-29T14:08:02.89Z</time>
      </trkpt>
      <trkpt lat="37.36077" lon="-6.02949">
        <ele>0.0</ele>
        <time>2022-09-29T14:08:07.77Z</time>
      </trkpt>
      <trkpt lat="37.36074" lon="-6.02961">
        <ele>0.0</ele>
        <time>2022-09-29T14:08:09.77Z</time>
      </trkpt>
      <trkpt lat="37.36066" lon="-6.0299">
        <ele>0.0</ele>
        <time>2022-09-29T14:08:14.64Z</time>
      </trkpt>
      <trkpt lat="37.36063" lon="-6.02999">
        <ele>0.0</ele>
        <time>2022-09-29T14:08:16.2Z</time>
      </trkpt>
      <trkpt lat="37.360633" lon="-6.029985">
        <ele>0.0</ele>
        <time>2022-09-29T14:08:16.38Z</time>
      </trkpt>
      <trkpt lat="37.36058" lon="-6.03014">
        <ele>0.0</ele>
        <time>2022-09-29T14:08:19.05Z</time>
      </trkpt>
      <trkpt lat="37.36049" lon="-6.03043">
        <ele>0.0</ele>
        <time>2022-09-29T14:08:24Z</time>
      </trkpt>
      <trkpt lat="37.36012" lon="-6.03157">
        <ele>0.0</ele>
        <time>2022-09-29T14:08:43.58Z</time>
      </trkpt>
      <trkpt lat="37.3601" lon="-6.03161">
        <ele>0.0</ele>
        <time>2022-09-29T14:08:44.33Z</time>
      </trkpt>
      <trkpt lat="37.36001" lon="-6.03189">
        <ele>0.0</ele>
        <time>2022-09-29T14:08:49.13Z</time>
      </trkpt>
      <trkpt lat="37.35969" lon="-6.03292">
        <ele>0.0</ele>
        <time>2022-09-29T14:09:06.71Z</time>
      </trkpt>
      <trkpt lat="37.35961" lon="-6.03317">
        <ele>0.0</ele>
        <time>2022-09-29T14:09:10.99Z</time>
      </trkpt>
      <trkpt lat="37.3596" lon="-6.03322">
        <ele>0.0</ele>
        <time>2022-09-29T14:09:11.81Z</time>
      </trkpt>
      <trkpt lat="37.35938" lon="-6.03393">
        <ele>0.0</ele>
        <time>2022-09-29T14:09:23.93Z</time>
      </trkpt>
      <trkpt lat="37.35926" lon="-6.03432">
        <ele>0.0</ele>
        <time>2022-09-29T14:09:30.58Z</time>
      </trkpt>
      <trkpt lat="37.35919" lon="-6.03454">
        <ele>0.0</ele>
        <time>2022-09-29T14:09:34.34Z</time>
      </trkpt>
      <trkpt lat="37.35913" lon="-6.03469">
        <ele>0.0</ele>
        <time>2022-09-29T14:09:37.01Z</time>
      </trkpt>
      <trkpt lat="37.35908" lon="-6.03481">
        <ele>0.0</ele>
        <time>2022-09-29T14:09:39.17Z</time>
      </trkpt>
      <trkpt lat="37.35903" lon="-6.03488">
        <ele>0.0</ele>
        <time>2022-09-29T14:09:40.66Z</time>
      </trkpt>
      <trkpt lat="37.35893" lon="-6.0351">
        <ele>0.0</ele>
        <time>2022-09-29T14:09:44.69Z</time>
      </trkpt>
      <trkpt lat="37.35881" lon="-6.03533">
        <ele>0.0</ele>
        <time>2022-09-29T14:09:49.07Z</time>
      </trkpt>
      <trkpt lat="37.35877" lon="-6.03543">
        <ele>0.0</ele>
        <time>2022-09-29T14:09:50.85Z</time>
      </trkpt>
      <trkpt lat="37.358766" lon="-6.035426">
        <ele>0.0</ele>
        <time>2022-09-29T14:09:51.03Z</time>
      </trkpt>
      <trkpt lat="37.35873" lon="-6.03553">
        <ele>0.0</ele>
        <time>2022-09-29T14:09:52.83Z</time>
      </trkpt>
      <trkpt lat="37.35871" lon="-6.03559">
        <ele>0.0</ele>
        <time>2022-09-29T14:09:53.87Z</time>
      </trkpt>
      <trkpt lat="37.35865" lon="-6.03574">
        <ele>0.0</ele>
        <time>2022-09-29T14:09:56.54Z</time>
      </trkpt>
      <trkpt lat="37.35834" lon="-6.0363">
        <ele>0.0</ele>
        <time>2022-09-29T14:10:07.38Z</time>
      </trkpt>
      <trkpt lat="37.35824" lon="-6.03648">
        <ele>0.0</ele>
        <time>2022-09-29T14:10:10.88Z</time>
      </trkpt>
      <trkpt lat="37.35821" lon="-6.03654">
        <ele>0.0</ele>
        <time>2022-09-29T14:10:12Z</time>
      </trkpt>
      <trkpt lat="37.35812" lon="-6.0367">
        <ele>0.0</ele>
        <time>2022-09-29T14:10:15.12Z</time>
      </trkpt>
      <trkpt lat="37.35802" lon="-6.03684">
        <ele>0.0</ele>
        <time>2022-09-29T14:10:18.11Z</time>
      </trkpt>
      <trkpt lat="37.3579" lon="-6.037">
        <ele>0.0</ele>
        <time>2022-09-29T14:10:21.61Z</time>
      </trkpt>
      <trkpt lat="37.3579" lon="-6.03701">
        <ele>0.0</ele>
        <time>2022-09-29T14:10:21.79Z</time>
      </trkpt>
      <trkpt lat="37.35776" lon="-6.0372">
        <ele>0.0</ele>
        <time>2022-09-29T14:10:25.91Z</time>
      </trkpt>
      <trkpt lat="37.35765" lon="-6.03739">
        <ele>0.0</ele>
        <time>2022-09-29T14:10:29.64Z</time>
      </trkpt>
      <trkpt lat="37.35748" lon="-6.03769">
        <ele>0.0</ele>
        <time>2022-09-29T14:10:35.5Z</time>
      </trkpt>
      <trkpt lat="37.35747" lon="-6.03771">
        <ele>0.0</ele>
        <time>2022-09-29T14:10:35.88Z</time>
      </trkpt>
      <trkpt lat="37.3574" lon="-6.0379">
        <ele>0.0</ele>
        <time>2022-09-29T14:10:39.2Z</time>
      </trkpt>
      <trkpt lat="37.35736" lon="-6.03799">
        <ele>0.0</ele>
        <time>2022-09-29T14:10:40.84Z</time>
      </trkpt>
      <trkpt lat="37.35707" lon="-6.03872">
        <ele>0.0</ele>
        <time>2022-09-29T14:10:53.82Z</time>
      </trkpt>
      <trkpt lat="37.35699" lon="-6.0389">
        <ele>0.0</ele>
        <time>2022-09-29T14:10:57.1Z</time>
      </trkpt>
      <trkpt lat="37.35683" lon="-6.0393">
        <ele>0.0</ele>
        <time>2022-09-29T14:11:04.21Z</time>
      </trkpt>
      <trkpt lat="37.35662" lon="-6.03978">
        <ele>0.0</ele>
        <time>2022-09-29T14:11:12.93Z</time>
      </trkpt>
      <trkpt lat="37.35659" lon="-6.03986">
        <ele>0.0</ele>
        <time>2022-09-29T14:11:14.33Z</time>
      </trkpt>
      <trkpt lat="37.35645" lon="-6.04022">
        <ele>0.0</ele>
        <time>2022-09-29T14:11:20.7Z</time>
      </trkpt>
      <trkpt lat="37.35628" lon="-6.04063">
        <ele>0.0</ele>
        <time>2022-09-29T14:11:28.05Z</time>
      </trkpt>
      <trkpt lat="37.35626" lon="-6.04066">
        <ele>0.0</ele>
        <time>2022-09-29T14:11:28.68Z</time>
      </trkpt>
      <trkpt lat="37.35615" lon="-6.04087">
        <ele>0.0</ele>
        <time>2022-09-29T14:11:32.67Z</time>
      </trkpt>
      <trkpt lat="37.35607" lon="-6.04102">
        <ele>0.0</ele>
        <time>2022-09-29T14:11:35.55Z</time>
      </trkpt>
      <trkpt lat="37.35605" lon="-6.04105">
        <ele>0.0</ele>
        <time>2022-09-29T14:11:36.17Z</time>
      </trkpt>
      <trkpt lat="37.35593" lon="-6.0412">
        <ele>0.0</ele>
        <time>2022-09-29T14:11:39.55Z</time>
      </trkpt>
      <trkpt lat="37.35579" lon="-6.04145">
        <ele>0.0</ele>
        <time>2022-09-29T14:11:44.41Z</time>
      </trkpt>
      <trkpt lat="37.3557" lon="-6.04161">
        <ele>0.0</ele>
        <time>2022-09-29T14:11:47.53Z</time>
      </trkpt>
      <trkpt lat="37.35562" lon="-6.04177">
        <ele>0.0</ele>
        <time>2022-09-29T14:11:50.54Z</time>
      </trkpt>
      <trkpt lat="37.355617" lon="-6.041769">
        <ele>0.0</ele>
        <time>2022-09-29T14:11:50.72Z</time>
      </trkpt>
      <trkpt lat="37.3555" lon="-6.04201">
        <ele>0.0</ele>
        <time>2022-09-29T14:11:55.21Z</time>
      </trkpt>
      <trkpt lat="37.35528" lon="-6.04235">
        <ele>0.0</ele>
        <time>2022-09-29T14:12:02.18Z</time>
      </trkpt>
      <trkpt lat="37.35504" lon="-6.04265">
        <ele>0.0</ele>
        <time>2022-09-29T14:12:08.94Z</time>
      </trkpt>
      <trkpt lat="37.35488" lon="-6.04286">
        <ele>0.0</ele>
        <time>2022-09-29T14:12:13.57Z</time>
      </trkpt>
      <trkpt lat="37.35455" lon="-6.04324">
        <ele>0.0</ele>
        <time>2022-09-29T14:12:22.52Z</time>
      </trkpt>
      <trkpt lat="37.35415" lon="-6.04372">
        <ele>0.0</ele>
        <time>2022-09-29T14:12:33.57Z</time>
      </trkpt>
      <trkpt lat="37.35403" lon="-6.04395">
        <ele>0.0</ele>
        <time>2022-09-29T14:12:37.95Z</time>
      </trkpt>
      <trkpt lat="37.35369" lon="-6.04448">
        <ele>0.0</ele>
        <time>2022-09-29T14:12:48.77Z</time>
      </trkpt>
      <trkpt lat="37.35354" lon="-6.04472">
        <ele>0.0</ele>
        <time>2022-09-29T14:12:53.63Z</time>
      </trkpt>
      <trkpt lat="37.353536" lon="-6.044723">
        <ele>0.0</ele>
        <time>2022-09-29T14:12:53.81Z</time>
      </trkpt>
      <trkpt lat="37.35354" lon="-6.04473">
        <ele>0.0</ele>
        <time>2022-09-29T14:12:53.99Z</time>
      </trkpt>
      <trkpt lat="37.35355" lon="-6.04474">
        <ele>0.0</ele>
        <time>2022-09-29T14:12:54.24Z</time>
      </trkpt>
      <trkpt lat="37.35355" lon="-6.04475">
        <ele>0.0</ele>
        <time>2022-09-29T14:12:54.42Z</time>
      </trkpt>
      <trkpt lat="37.35356" lon="-6.04476">
        <ele>0.0</ele>
        <time>2022-09-29T14:12:54.68Z</time>
      </trkpt>
      <trkpt lat="37.35356" lon="-6.04477">
        <ele>0.0</ele>
        <time>2022-09-29T14:12:54.86Z</time>
      </trkpt>
      <trkpt lat="37.35357" lon="-6.04477">
        <ele>0.0</ele>
        <time>2022-09-29T14:12:55.06Z</time>
      </trkpt>
      <trkpt lat="37.35357" lon="-6.04478">
        <ele>0.0</ele>
        <time>2022-09-29T14:12:55.24Z</time>
      </trkpt>
      <trkpt lat="37.35357" lon="-6.04479">
        <ele>0.0</ele>
        <time>2022-09-29T14:12:55.42Z</time>
      </trkpt>
      <trkpt lat="37.35357" lon="-6.0448">
        <ele>0.0</ele>
        <time>2022-09-29T14:12:55.6Z</time>
      </trkpt>
      <trkpt lat="37.35357" lon="-6.04481">
        <ele>0.0</ele>
        <time>2022-09-29T14:12:55.78Z</time>
      </trkpt>
      <trkpt lat="37.35358" lon="-6.04482">
        <ele>0.0</ele>
        <time>2022-09-29T14:12:56.03Z</time>
      </trkpt>
      <trkpt lat="37.35358" lon="-6.04483">
        <ele>0.0</ele>
        <time>2022-09-29T14:12:56.21Z</time>
      </trkpt>
      <trkpt lat="37.35358" lon="-6.04484">
        <ele>0.0</ele>
        <time>2022-09-29T14:12:56.39Z</time>
      </trkpt>
      <trkpt lat="37.35358" lon="-6.04485">
        <ele>0.0</ele>
        <time>2022-09-29T14:12:56.57Z</time>
      </trkpt>
      <trkpt lat="37.35357" lon="-6.04486">
        <ele>0.0</ele>
        <time>2022-09-29T14:12:56.83Z</time>
      </trkpt>
      <trkpt lat="37.35357" lon="-6.04487">
        <ele>0.0</ele>
        <time>2022-09-29T14:12:57.01Z</time>
      </trkpt>
      <trkpt lat="37.35357" lon="-6.04488">
        <ele>0.0</ele>
        <time>2022-09-29T14:12:57.19Z</time>
      </trkpt>
      <trkpt lat="37.35357" lon="-6.04489">
        <ele>0.0</ele>
        <time>2022-09-29T14:12:57.37Z</time>
      </trkpt>
      <trkpt lat="37.35356" lon="-6.0449">
        <ele>0.0</ele>
        <time>2022-09-29T14:12:57.62Z</time>
      </trkpt>
      <trkpt lat="37.35356" lon="-6.04491">
        <ele>0.0</ele>
        <time>2022-09-29T14:12:57.8Z</time>
      </trkpt>
      <trkpt lat="37.35355" lon="-6.04492">
        <ele>0.0</ele>
        <time>2022-09-29T14:12:58.06Z</time>
      </trkpt>
      <trkpt lat="37.35355" lon="-6.04493">
        <ele>0.0</ele>
        <time>2022-09-29T14:12:58.24Z</time>
      </trkpt>
      <trkpt lat="37.35354" lon="-6.04494">
        <ele>0.0</ele>
        <time>2022-09-29T14:12:58.5Z</time>
      </trkpt>
      <trkpt lat="37.35353" lon="-6.04495">
        <ele>0.0</ele>
        <time>2022-09-29T14:12:58.75Z</time>
      </trkpt>
      <trkpt lat="37.35352" lon="-6.04495">
        <ele>0.0</ele>
        <time>2022-09-29T14:12:58.95Z</time>
      </trkpt>
      <trkpt lat="37.35352" lon="-6.04496">
        <ele>0.0</ele>
        <time>2022-09-29T14:12:59.13Z</time>
      </trkpt>
      <trkpt lat="37.35351" lon="-6.04496">
        <ele>0.0</ele>
        <time>2022-09-29T14:12:59.33Z</time>
      </trkpt>
      <trkpt lat="37.3535" lon="-6.04497">
        <ele>0.0</ele>
        <time>2022-09-29T14:12:59.59Z</time>
      </trkpt>
      <trkpt lat="37.35349" lon="-6.04497">
        <ele>0.0</ele>
        <time>2022-09-29T14:12:59.79Z</time>
      </trkpt>
      <trkpt lat="37.35348" lon="-6.04497">
        <ele>0.0</ele>
        <time>2022-09-29T14:12:59.99Z</time>
      </trkpt>
      <trkpt lat="37.35348" lon="-6.04498">
        <ele>0.0</ele>
        <time>2022-09-29T14:13:00.17Z</time>
      </trkpt>
      <trkpt lat="37.35347" lon="-6.04498">
        <ele>0.0</ele>
        <time>2022-09-29T14:13:00.37Z</time>
      </trkpt>
      <trkpt lat="37.35346" lon="-6.04498">
        <ele>0.0</ele>
        <time>2022-09-29T14:13:00.57Z</time>
      </trkpt>
      <trkpt lat="37.35345" lon="-6.04498">
        <ele>0.0</ele>
        <time>2022-09-29T14:13:00.77Z</time>
      </trkpt>
      <trkpt lat="37.35344" lon="-6.04497">
        <ele>0.0</ele>
        <time>2022-09-29T14:13:01.02Z</time>
      </trkpt>
      <trkpt lat="37.35343" lon="-6.04497">
        <ele>0.0</ele>
        <time>2022-09-29T14:13:01.22Z</time>
      </trkpt>
      <trkpt lat="37.35342" lon="-6.04497">
        <ele>0.0</ele>
        <time>2022-09-29T14:13:01.42Z</time>
      </trkpt>
      <trkpt lat="37.35341" lon="-6.04496">
        <ele>0.0</ele>
        <time>2022-09-29T14:13:01.68Z</time>
      </trkpt>
      <trkpt lat="37.3534" lon="-6.04496">
        <ele>0.0</ele>
        <time>2022-09-29T14:13:01.88Z</time>
      </trkpt>
      <trkpt lat="37.3534" lon="-6.04495">
        <ele>0.0</ele>
        <time>2022-09-29T14:13:02.06Z</time>
      </trkpt>
      <trkpt lat="37.35339" lon="-6.04495">
        <ele>0.0</ele>
        <time>2022-09-29T14:13:02.26Z</time>
      </trkpt>
      <trkpt lat="37.35339" lon="-6.04494">
        <ele>0.0</ele>
        <time>2022-09-29T14:13:02.44Z</time>
      </trkpt>
      <trkpt lat="37.35338" lon="-6.04494">
        <ele>0.0</ele>
        <time>2022-09-29T14:13:02.64Z</time>
      </trkpt>
      <trkpt lat="37.35338" lon="-6.04493">
        <ele>0.0</ele>
        <time>2022-09-29T14:13:02.82Z</time>
      </trkpt>
      <trkpt lat="37.35293" lon="-6.0455">
        <ele>0.0</ele>
        <time>2022-09-29T14:13:15.59Z</time>
      </trkpt>
      <trkpt lat="37.3529" lon="-6.04555">
        <ele>0.0</ele>
        <time>2022-09-29T14:13:16.58Z</time>
      </trkpt>
      <trkpt lat="37.35282" lon="-6.04567">
        <ele>0.0</ele>
        <time>2022-09-29T14:13:19.07Z</time>
      </trkpt>
      <trkpt lat="37.35263" lon="-6.04602">
        <ele>0.0</ele>
        <time>2022-09-29T14:13:25.81Z</time>
      </trkpt>
      <trkpt lat="37.35256" lon="-6.04614">
        <ele>0.0</ele>
        <time>2022-09-29T14:13:28.18Z</time>
      </trkpt>
      <trkpt lat="37.35235" lon="-6.04642">
        <ele>0.0</ele>
        <time>2022-09-29T14:13:34.3Z</time>
      </trkpt>
      <trkpt lat="37.35221" lon="-6.04659">
        <ele>0.0</ele>
        <time>2022-09-29T14:13:38.19Z</time>
      </trkpt>
      <trkpt lat="37.35198" lon="-6.0469">
        <ele>0.0</ele>
        <time>2022-09-29T14:13:44.93Z</time>
      </trkpt>
      <trkpt lat="37.35194" lon="-6.04694">
        <ele>0.0</ele>
        <time>2022-09-29T14:13:45.95Z</time>
      </trkpt>
      <trkpt lat="37.35181" lon="-6.04706">
        <ele>0.0</ele>
        <time>2022-09-29T14:13:49.18Z</time>
      </trkpt>
      <trkpt lat="37.35171" lon="-6.04744">
        <ele>0.0</ele>
        <time>2022-09-29T14:13:55.54Z</time>
      </trkpt>
      <trkpt lat="37.35171" lon="-6.047438">
        <ele>0.0</ele>
        <time>2022-09-29T14:13:55.72Z</time>
      </trkpt>
      <trkpt lat="37.35172" lon="-6.04746">
        <ele>0.0</ele>
        <time>2022-09-29T14:13:56.13Z</time>
      </trkpt>
      <trkpt lat="37.35173" lon="-6.04749">
        <ele>0.0</ele>
        <time>2022-09-29T14:13:56.65Z</time>
      </trkpt>
      <trkpt lat="37.35173" lon="-6.04751">
        <ele>0.0</ele>
        <time>2022-09-29T14:13:56.97Z</time>
      </trkpt>
      <trkpt lat="37.35174" lon="-6.04754">
        <ele>0.0</ele>
        <time>2022-09-29T14:13:57.48Z</time>
      </trkpt>
      <trkpt lat="37.35174" lon="-6.04756">
        <ele>0.0</ele>
        <time>2022-09-29T14:13:57.8Z</time>
      </trkpt>
      <trkpt lat="37.35174" lon="-6.04759">
        <ele>0.0</ele>
        <time>2022-09-29T14:13:58.28Z</time>
      </trkpt>
      <trkpt lat="37.35174" lon="-6.04761">
        <ele>0.0</ele>
        <time>2022-09-29T14:13:58.6Z</time>
      </trkpt>
      <trkpt lat="37.35174" lon="-6.04764">
        <ele>0.0</ele>
        <time>2022-09-29T14:13:59.07Z</time>
      </trkpt>
      <trkpt lat="37.35173" lon="-6.04767">
        <ele>0.0</ele>
        <time>2022-09-29T14:13:59.59Z</time>
      </trkpt>
      <trkpt lat="37.35173" lon="-6.0477">
        <ele>0.0</ele>
        <time>2022-09-29T14:14:00.07Z</time>
      </trkpt>
      <trkpt lat="37.35172" lon="-6.04773">
        <ele>0.0</ele>
        <time>2022-09-29T14:14:00.58Z</time>
      </trkpt>
      <trkpt lat="37.3517" lon="-6.04776">
        <ele>0.0</ele>
        <time>2022-09-29T14:14:01.21Z</time>
      </trkpt>
      <trkpt lat="37.35169" lon="-6.04778">
        <ele>0.0</ele>
        <time>2022-09-29T14:14:01.58Z</time>
      </trkpt>
      <trkpt lat="37.35167" lon="-6.04781">
        <ele>0.0</ele>
        <time>2022-09-29T14:14:02.2Z</time>
      </trkpt>
      <trkpt lat="37.35166" lon="-6.04783">
        <ele>0.0</ele>
        <time>2022-09-29T14:14:02.58Z</time>
      </trkpt>
      <trkpt lat="37.35164" lon="-6.04785">
        <ele>0.0</ele>
        <time>2022-09-29T14:14:03.09Z</time>
      </trkpt>
      <trkpt lat="37.35162" lon="-6.04787">
        <ele>0.0</ele>
        <time>2022-09-29T14:14:03.6Z</time>
      </trkpt>
      <trkpt lat="37.35159" lon="-6.04788">
        <ele>0.0</ele>
        <time>2022-09-29T14:14:04.22Z</time>
      </trkpt>
      <trkpt lat="37.35157" lon="-6.04789">
        <ele>0.0</ele>
        <time>2022-09-29T14:14:04.65Z</time>
      </trkpt>
      <trkpt lat="37.35155" lon="-6.0479">
        <ele>0.0</ele>
        <time>2022-09-29T14:14:05.08Z</time>
      </trkpt>
      <trkpt lat="37.35152" lon="-6.04791">
        <ele>0.0</ele>
        <time>2022-09-29T14:14:05.7Z</time>
      </trkpt>
      <trkpt lat="37.3515" lon="-6.04791">
        <ele>0.0</ele>
        <time>2022-09-29T14:14:06.1Z</time>
      </trkpt>
      <trkpt lat="37.35147" lon="-6.04791">
        <ele>0.0</ele>
        <time>2022-09-29T14:14:06.7Z</time>
      </trkpt>
      <trkpt lat="37.35144" lon="-6.0479">
        <ele>0.0</ele>
        <time>2022-09-29T14:14:07.33Z</time>
      </trkpt>
      <trkpt lat="37.35135" lon="-6.048">
        <ele>0.0</ele>
        <time>2022-09-29T14:14:09.73Z</time>
      </trkpt>
      <trkpt lat="37.3513" lon="-6.04806">
        <ele>0.0</ele>
        <time>2022-09-29T14:14:11.11Z</time>
      </trkpt>
      <trkpt lat="37.35127" lon="-6.0481">
        <ele>0.0</ele>
        <time>2022-09-29T14:14:11.98Z</time>
      </trkpt>
      <trkpt lat="37.3512" lon="-6.04821">
        <ele>0.0</ele>
        <time>2022-09-29T14:14:14.22Z</time>
      </trkpt>
      <trkpt lat="37.35099" lon="-6.04864">
        <ele>0.0</ele>
        <time>2022-09-29T14:14:22.25Z</time>
      </trkpt>
      <trkpt lat="37.35095" lon="-6.04871">
        <ele>0.0</ele>
        <time>2022-09-29T14:14:23.62Z</time>
      </trkpt>
      <trkpt lat="37.35094" lon="-6.04873">
        <ele>0.0</ele>
        <time>2022-09-29T14:14:23.99Z</time>
      </trkpt>
      <trkpt lat="37.35093" lon="-6.04874">
        <ele>0.0</ele>
        <time>2022-09-29T14:14:24.25Z</time>
      </trkpt>
      <trkpt lat="37.35057" lon="-6.04945">
        <ele>0.0</ele>
        <time>2022-09-29T14:14:37.64Z</time>
      </trkpt>
      <trkpt lat="37.35024" lon="-6.05008">
        <ele>0.0</ele>
        <time>2022-09-29T14:14:49.63Z</time>
      </trkpt>
      <trkpt lat="37.35011" lon="-6.05034">
        <ele>0.0</ele>
        <time>2022-09-29T14:14:54.52Z</time>
      </trkpt>
      <trkpt lat="37.34958" lon="-6.05137">
        <ele>0.0</ele>
        <time>2022-09-29T14:15:14.02Z</time>
      </trkpt>
      <trkpt lat="37.34945" lon="-6.05163">
        <ele>0.0</ele>
        <time>2022-09-29T14:15:18.91Z</time>
      </trkpt>
      <trkpt lat="37.34929" lon="-6.0521">
        <ele>0.0</ele>
        <time>2022-09-29T14:15:27.04Z</time>
      </trkpt>
      <trkpt lat="37.3489" lon="-6.05297">
        <ele>0.0</ele>
        <time>2022-09-29T14:15:42.92Z</time>
      </trkpt>
      <trkpt lat="37.348901" lon="-6.052973">
        <ele>0.0</ele>
        <time>2022-09-29T14:15:43.1Z</time>
      </trkpt>
      <trkpt lat="37.34891" lon="-6.05301">
        <ele>0.0</ele>
        <time>2022-09-29T14:15:43.71Z</time>
      </trkpt>
      <trkpt lat="37.34891" lon="-6.05305">
        <ele>0.0</ele>
        <time>2022-09-29T14:15:44.34Z</time>
      </trkpt>
      <trkpt lat="37.34891" lon="-6.0531">
        <ele>0.0</ele>
        <time>2022-09-29T14:15:45.14Z</time>
      </trkpt>
      <trkpt lat="37.3489" lon="-6.05313">
        <ele>0.0</ele>
        <time>2022-09-29T14:15:45.65Z</time>
      </trkpt>
      <trkpt lat="37.34884" lon="-6.05333">
        <ele>0.0</ele>
        <time>2022-09-29T14:15:49.05Z</time>
      </trkpt>
      <trkpt lat="37.3488" lon="-6.05347">
        <ele>0.0</ele>
        <time>2022-09-29T14:15:51.42Z</time>
      </trkpt>
      <trkpt lat="37.34875" lon="-6.05371">
        <ele>0.0</ele>
        <time>2022-09-29T14:15:55.36Z</time>
      </trkpt>
      <trkpt lat="37.34873" lon="-6.05387">
        <ele>0.0</ele>
        <time>2022-09-29T14:15:57.94Z</time>
      </trkpt>
      <trkpt lat="37.34872" lon="-6.0539">
        <ele>0.0</ele>
        <time>2022-09-29T14:15:58.46Z</time>
      </trkpt>
      <trkpt lat="37.3487" lon="-6.05392">
        <ele>0.0</ele>
        <time>2022-09-29T14:15:58.97Z</time>
      </trkpt>
      <trkpt lat="37.34868" lon="-6.05395">
        <ele>0.0</ele>
        <time>2022-09-29T14:15:59.59Z</time>
      </trkpt>
      <trkpt lat="37.34868" lon="-6.05405">
        <ele>0.0</ele>
        <time>2022-09-29T14:16:01.18Z</time>
      </trkpt>
      <trkpt lat="37.34864" lon="-6.05423">
        <ele>0.0</ele>
        <time>2022-09-29T14:16:04.15Z</time>
      </trkpt>
      <trkpt lat="37.34863" lon="-6.05441">
        <ele>0.0</ele>
        <time>2022-09-29T14:16:07.02Z</time>
      </trkpt>
      <trkpt lat="37.34864" lon="-6.05458">
        <ele>0.0</ele>
        <time>2022-09-29T14:16:09.73Z</time>
      </trkpt>
      <trkpt lat="37.3487" lon="-6.05531">
        <ele>0.0</ele>
        <time>2022-09-29T14:16:21.4Z</time>
      </trkpt>
      <trkpt lat="37.34871" lon="-6.05547">
        <ele>0.0</ele>
        <time>2022-09-29T14:16:23.95Z</time>
      </trkpt>
      <trkpt lat="37.34873" lon="-6.05566">
        <ele>0.0</ele>
        <time>2022-09-29T14:16:27Z</time>
      </trkpt>
      <trkpt lat="37.34874" lon="-6.05576">
        <ele>0.0</ele>
        <time>2022-09-29T14:16:28.6Z</time>
      </trkpt>
      <trkpt lat="37.34875" lon="-6.05592">
        <ele>0.0</ele>
        <time>2022-09-29T14:16:31.15Z</time>
      </trkpt>
      <trkpt lat="37.34877" lon="-6.05608">
        <ele>0.0</ele>
        <time>2022-09-29T14:16:33.73Z</time>
      </trkpt>
      <trkpt lat="37.34876" lon="-6.05621">
        <ele>0.0</ele>
        <time>2022-09-29T14:16:35.8Z</time>
      </trkpt>
      <trkpt lat="37.34876" lon="-6.05622">
        <ele>0.0</ele>
        <time>2022-09-29T14:16:35.98Z</time>
      </trkpt>
      <trkpt lat="37.34875" lon="-6.05643">
        <ele>0.0</ele>
        <time>2022-09-29T14:16:39.33Z</time>
      </trkpt>
      <trkpt lat="37.34872" lon="-6.05671">
        <ele>0.0</ele>
        <time>2022-09-29T14:16:43.82Z</time>
      </trkpt>
      <trkpt lat="37.34871" lon="-6.05682">
        <ele>0.0</ele>
        <time>2022-09-29T14:16:45.58Z</time>
      </trkpt>
      <trkpt lat="37.34871" lon="-6.05693">
        <ele>0.0</ele>
        <time>2022-09-29T14:16:47.33Z</time>
      </trkpt>
      <trkpt lat="37.34871" lon="-6.056927">
        <ele>0.0</ele>
        <time>2022-09-29T14:16:47.51Z</time>
      </trkpt>
      <trkpt lat="37.34872" lon="-6.05693">
        <ele>0.0</ele>
        <time>2022-09-29T14:16:47.71Z</time>
      </trkpt>
      <trkpt lat="37.34872" lon="-6.05694">
        <ele>0.0</ele>
        <time>2022-09-29T14:16:47.89Z</time>
      </trkpt>
      <trkpt lat="37.34873" lon="-6.05695">
        <ele>0.0</ele>
        <time>2022-09-29T14:16:48.15Z</time>
      </trkpt>
      <trkpt lat="37.34874" lon="-6.05695">
        <ele>0.0</ele>
        <time>2022-09-29T14:16:48.35Z</time>
      </trkpt>
      <trkpt lat="37.34874" lon="-6.05696">
        <ele>0.0</ele>
        <time>2022-09-29T14:16:48.53Z</time>
      </trkpt>
      <trkpt lat="37.34875" lon="-6.05697">
        <ele>0.0</ele>
        <time>2022-09-29T14:16:48.78Z</time>
      </trkpt>
      <trkpt lat="37.34876" lon="-6.05698">
        <ele>0.0</ele>
        <time>2022-09-29T14:16:49.04Z</time>
      </trkpt>
      <trkpt lat="37.34876" lon="-6.057">
        <ele>0.0</ele>
        <time>2022-09-29T14:16:49.36Z</time>
      </trkpt>
      <trkpt lat="37.34877" lon="-6.05701">
        <ele>0.0</ele>
        <time>2022-09-29T14:16:49.61Z</time>
      </trkpt>
      <trkpt lat="37.34878" lon="-6.05703">
        <ele>0.0</ele>
        <time>2022-09-29T14:16:49.99Z</time>
      </trkpt>
      <trkpt lat="37.34878" lon="-6.05704">
        <ele>0.0</ele>
        <time>2022-09-29T14:16:50.17Z</time>
      </trkpt>
      <trkpt lat="37.34879" lon="-6.05706">
        <ele>0.0</ele>
        <time>2022-09-29T14:16:50.54Z</time>
      </trkpt>
      <trkpt lat="37.34879" lon="-6.05708">
        <ele>0.0</ele>
        <time>2022-09-29T14:16:50.86Z</time>
      </trkpt>
      <trkpt lat="37.34879" lon="-6.0571">
        <ele>0.0</ele>
        <time>2022-09-29T14:16:51.18Z</time>
      </trkpt>
      <trkpt lat="37.34879" lon="-6.05711">
        <ele>0.0</ele>
        <time>2022-09-29T14:16:51.36Z</time>
      </trkpt>
      <trkpt lat="37.34879" lon="-6.05713">
        <ele>0.0</ele>
        <time>2022-09-29T14:16:51.68Z</time>
      </trkpt>
      <trkpt lat="37.34879" lon="-6.05715">
        <ele>0.0</ele>
        <time>2022-09-29T14:16:52Z</time>
      </trkpt>
      <trkpt lat="37.34879" lon="-6.05717">
        <ele>0.0</ele>
        <time>2022-09-29T14:16:52.31Z</time>
      </trkpt>
      <trkpt lat="37.34878" lon="-6.05719">
        <ele>0.0</ele>
        <time>2022-09-29T14:16:52.69Z</time>
      </trkpt>
      <trkpt lat="37.34878" lon="-6.05721">
        <ele>0.0</ele>
        <time>2022-09-29T14:16:53.01Z</time>
      </trkpt>
      <trkpt lat="37.34877" lon="-6.05722">
        <ele>0.0</ele>
        <time>2022-09-29T14:16:53.26Z</time>
      </trkpt>
      <trkpt lat="37.34876" lon="-6.05724">
        <ele>0.0</ele>
        <time>2022-09-29T14:16:53.64Z</time>
      </trkpt>
      <trkpt lat="37.34876" lon="-6.05725">
        <ele>0.0</ele>
        <time>2022-09-29T14:16:53.82Z</time>
      </trkpt>
      <trkpt lat="37.34875" lon="-6.05727">
        <ele>0.0</ele>
        <time>2022-09-29T14:16:54.19Z</time>
      </trkpt>
      <trkpt lat="37.34874" lon="-6.05728">
        <ele>0.0</ele>
        <time>2022-09-29T14:16:54.45Z</time>
      </trkpt>
      <trkpt lat="37.34872" lon="-6.0573">
        <ele>0.0</ele>
        <time>2022-09-29T14:16:54.96Z</time>
      </trkpt>
      <trkpt lat="37.34871" lon="-6.05731">
        <ele>0.0</ele>
        <time>2022-09-29T14:16:55.22Z</time>
      </trkpt>
      <trkpt lat="37.3487" lon="-6.05732">
        <ele>0.0</ele>
        <time>2022-09-29T14:16:55.47Z</time>
      </trkpt>
      <trkpt lat="37.34869" lon="-6.05733">
        <ele>0.0</ele>
        <time>2022-09-29T14:16:55.73Z</time>
      </trkpt>
      <trkpt lat="37.34866" lon="-6.05734">
        <ele>0.0</ele>
        <time>2022-09-29T14:16:56.35Z</time>
      </trkpt>
      <trkpt lat="37.34857" lon="-6.05767">
        <ele>0.0</ele>
        <time>2022-09-29T14:17:01.89Z</time>
      </trkpt>
      <trkpt lat="37.34851" lon="-6.05786">
        <ele>0.0</ele>
        <time>2022-09-29T14:17:05.15Z</time>
      </trkpt>
      <trkpt lat="37.34849" lon="-6.05792">
        <ele>0.0</ele>
        <time>2022-09-29T14:17:06.18Z</time>
      </trkpt>
      <trkpt lat="37.34838" lon="-6.05826">
        <ele>0.0</ele>
        <time>2022-09-29T14:17:12.02Z</time>
      </trkpt>
      <trkpt lat="37.34818" lon="-6.05889">
        <ele>0.0</ele>
        <time>2022-09-29T14:17:22.8Z</time>
      </trkpt>
      <trkpt lat="37.3481" lon="-6.0591">
        <ele>0.0</ele>
        <time>2022-09-29T14:17:26.5Z</time>
      </trkpt>
      <trkpt lat="37.34807" lon="-6.05915">
        <ele>0.0</ele>
        <time>2022-09-29T14:17:27.5Z</time>
      </trkpt>
      <trkpt lat="37.348" lon="-6.05932">
        <ele>0.0</ele>
        <time>2022-09-29T14:17:30.54Z</time>
      </trkpt>
      <trkpt lat="37.34782" lon="-6.05966">
        <ele>0.0</ele>
        <time>2022-09-29T14:17:37.04Z</time>
      </trkpt>
      <trkpt lat="37.34757" lon="-6.06002">
        <ele>0.0</ele>
        <time>2022-09-29T14:17:44.64Z</time>
      </trkpt>
      <trkpt lat="37.34748" lon="-6.06014">
        <ele>0.0</ele>
        <time>2022-09-29T14:17:47.26Z</time>
      </trkpt>
      <trkpt lat="37.34734" lon="-6.06028">
        <ele>0.0</ele>
        <time>2022-09-29T14:17:50.84Z</time>
      </trkpt>
      <trkpt lat="37.34729" lon="-6.06033">
        <ele>0.0</ele>
        <time>2022-09-29T14:17:52.12Z</time>
      </trkpt>
      <trkpt lat="37.3472" lon="-6.06042">
        <ele>0.0</ele>
        <time>2022-09-29T14:17:54.42Z</time>
      </trkpt>
      <trkpt lat="37.34712" lon="-6.0605">
        <ele>0.0</ele>
        <time>2022-09-29T14:17:56.46Z</time>
      </trkpt>
      <trkpt lat="37.34705" lon="-6.06056">
        <ele>0.0</ele>
        <time>2022-09-29T14:17:58.15Z</time>
      </trkpt>
      <trkpt lat="37.34681" lon="-6.0608">
        <ele>0.0</ele>
        <time>2022-09-29T14:18:04.29Z</time>
      </trkpt>
      <trkpt lat="37.34673" lon="-6.06087">
        <ele>0.0</ele>
        <time>2022-09-29T14:18:06.23Z</time>
      </trkpt>
      <trkpt lat="37.34644" lon="-6.06113">
        <ele>0.0</ele>
        <time>2022-09-29T14:18:13.36Z</time>
      </trkpt>
      <trkpt lat="37.34641" lon="-6.0612">
        <ele>0.0</ele>
        <time>2022-09-29T14:18:14.62Z</time>
      </trkpt>
      <trkpt lat="37.34639" lon="-6.06124">
        <ele>0.0</ele>
        <time>2022-09-29T14:18:15.37Z</time>
      </trkpt>
      <trkpt lat="37.34632" lon="-6.06132">
        <ele>0.0</ele>
        <time>2022-09-29T14:18:17.26Z</time>
      </trkpt>
      <trkpt lat="37.34623" lon="-6.06141">
        <ele>0.0</ele>
        <time>2022-09-29T14:18:19.56Z</time>
      </trkpt>
      <trkpt lat="37.34616" lon="-6.0615">
        <ele>0.0</ele>
        <time>2022-09-29T14:18:21.57Z</time>
      </trkpt>
      <trkpt lat="37.34609" lon="-6.06161">
        <ele>0.0</ele>
        <time>2022-09-29T14:18:23.81Z</time>
      </trkpt>
      <trkpt lat="37.34578" lon="-6.06218">
        <ele>0.0</ele>
        <time>2022-09-29T14:18:34.79Z</time>
      </trkpt>
      <trkpt lat="37.34571" lon="-6.06232">
        <ele>0.0</ele>
        <time>2022-09-29T14:18:37.42Z</time>
      </trkpt>
      <trkpt lat="37.34551" lon="-6.06269">
        <ele>0.0</ele>
        <time>2022-09-29T14:18:44.53Z</time>
      </trkpt>
      <trkpt lat="37.34537" lon="-6.06292">
        <ele>0.0</ele>
        <time>2022-09-29T14:18:49.14Z</time>
      </trkpt>
      <trkpt lat="37.34531" lon="-6.06301">
        <ele>0.0</ele>
        <time>2022-09-29T14:18:51Z</time>
      </trkpt>
      <trkpt lat="37.34504" lon="-6.06346">
        <ele>0.0</ele>
        <time>2022-09-29T14:18:59.97Z</time>
      </trkpt>
      <trkpt lat="37.3449" lon="-6.06369">
        <ele>0.0</ele>
        <time>2022-09-29T14:19:04.57Z</time>
      </trkpt>
      <trkpt lat="37.34481" lon="-6.06385">
        <ele>0.0</ele>
        <time>2022-09-29T14:19:07.69Z</time>
      </trkpt>
      <trkpt lat="37.34471" lon="-6.06408">
        <ele>0.0</ele>
        <time>2022-09-29T14:19:11.86Z</time>
      </trkpt>
      <trkpt lat="37.34464" lon="-6.06432">
        <ele>0.0</ele>
        <time>2022-09-29T14:19:15.92Z</time>
      </trkpt>
      <trkpt lat="37.3446" lon="-6.06448">
        <ele>0.0</ele>
        <time>2022-09-29T14:19:18.59Z</time>
      </trkpt>
      <trkpt lat="37.34459" lon="-6.06454">
        <ele>0.0</ele>
        <time>2022-09-29T14:19:19.56Z</time>
      </trkpt>
      <trkpt lat="37.34459" lon="-6.06455">
        <ele>0.0</ele>
        <time>2022-09-29T14:19:19.74Z</time>
      </trkpt>
      <trkpt lat="37.34452" lon="-6.06506">
        <ele>0.0</ele>
        <time>2022-09-29T14:19:27.97Z</time>
      </trkpt>
      <trkpt lat="37.34448" lon="-6.06526">
        <ele>0.0</ele>
        <time>2022-09-29T14:19:31.25Z</time>
      </trkpt>
      <trkpt lat="37.34438" lon="-6.06556">
        <ele>0.0</ele>
        <time>2022-09-29T14:19:36.42Z</time>
      </trkpt>
      <trkpt lat="37.34438" lon="-6.06557">
        <ele>0.0</ele>
        <time>2022-09-29T14:19:36.6Z</time>
      </trkpt>
      <trkpt lat="37.3443" lon="-6.06573">
        <ele>0.0</ele>
        <time>2022-09-29T14:19:39.61Z</time>
      </trkpt>
      <trkpt lat="37.34425" lon="-6.06581">
        <ele>0.0</ele>
        <time>2022-09-29T14:19:41.23Z</time>
      </trkpt>
      <trkpt lat="37.34417" lon="-6.06586">
        <ele>0.0</ele>
        <time>2022-09-29T14:19:43.01Z</time>
      </trkpt>
      <trkpt lat="37.34413" lon="-6.06589">
        <ele>0.0</ele>
        <time>2022-09-29T14:19:43.95Z</time>
      </trkpt>
      <trkpt lat="37.34411" lon="-6.06593">
        <ele>0.0</ele>
        <time>2022-09-29T14:19:44.7Z</time>
      </trkpt>
      <trkpt lat="37.34403" lon="-6.06616">
        <ele>0.0</ele>
        <time>2022-09-29T14:19:48.69Z</time>
      </trkpt>
      <trkpt lat="37.344" lon="-6.06624">
        <ele>0.0</ele>
        <time>2022-09-29T14:19:50.1Z</time>
      </trkpt>
      <trkpt lat="37.3439" lon="-6.06654">
        <ele>0.0</ele>
        <time>2022-09-29T14:19:55.27Z</time>
      </trkpt>
      <trkpt lat="37.34386" lon="-6.06661">
        <ele>0.0</ele>
        <time>2022-09-29T14:19:56.64Z</time>
      </trkpt>
      <trkpt lat="37.34383" lon="-6.06667">
        <ele>0.0</ele>
        <time>2022-09-29T14:19:57.77Z</time>
      </trkpt>
      <trkpt lat="37.34379" lon="-6.06671">
        <ele>0.0</ele>
        <time>2022-09-29T14:19:58.79Z</time>
      </trkpt>
      <trkpt lat="37.34375" lon="-6.06675">
        <ele>0.0</ele>
        <time>2022-09-29T14:19:59.81Z</time>
      </trkpt>
      <trkpt lat="37.343749" lon="-6.066747">
        <ele>0.0</ele>
        <time>2022-09-29T14:19:59.99Z</time>
      </trkpt>
      <trkpt lat="37.34378" lon="-6.06681">
        <ele>0.0</ele>
        <time>2022-09-29T14:20:01.17Z</time>
      </trkpt>
      <trkpt lat="37.34379" lon="-6.06729">
        <ele>0.0</ele>
        <time>2022-09-29T14:20:08.81Z</time>
      </trkpt>
      <trkpt lat="37.343791" lon="-6.067289">
        <ele>0.0</ele>
        <time>2022-09-29T14:20:08.99Z</time>
      </trkpt>
      <trkpt lat="37.34413" lon="-6.06728">
        <ele>0.0</ele>
        <time>2022-09-29T14:20:15.77Z</time>
      </trkpt>
      <trkpt lat="37.344128" lon="-6.067284">
        <ele>0.0</ele>
        <time>2022-09-29T14:20:15.95Z</time>
      </trkpt>
      <trkpt lat="37.34413" lon="-6.06774">
        <ele>0.0</ele>
        <time>2022-09-29T14:20:23.21Z</time>
      </trkpt>
      <trkpt lat="37.34414" lon="-6.06819">
        <ele>0.0</ele>
        <time>2022-09-29T14:20:30.36Z</time>
      </trkpt>
      <trkpt lat="37.34414" lon="-6.06878">
        <ele>0.0</ele>
        <time>2022-09-29T14:20:39.74Z</time>
      </trkpt>
      <trkpt lat="37.34414" lon="-6.06914">
        <ele>0.0</ele>
        <time>2022-09-29T14:20:45.47Z</time>
      </trkpt>
      <trkpt lat="37.344137" lon="-6.069135">
        <ele>0.0</ele>
        <time>2022-09-29T14:20:45.65Z</time>
      </trkpt>
      <trkpt lat="37.34449" lon="-6.06913">
        <ele>0.0</ele>
        <time>2022-09-29T14:20:52.72Z</time>
      </trkpt>
      <trkpt lat="37.34513" lon="-6.06913">
        <ele>0.0</ele>
        <time>2022-09-29T14:21:05.52Z</time>
      </trkpt>
      <trkpt lat="37.34535" lon="-6.06913">
        <ele>0.0</ele>
        <time>2022-09-29T14:21:09.92Z</time>
      </trkpt>
      <trkpt lat="37.34553" lon="-6.06916">
        <ele>0.0</ele>
        <time>2022-09-29T14:21:13.55Z</time>
      </trkpt>
      <trkpt lat="37.34564" lon="-6.06921">
        <ele>0.0</ele>
        <time>2022-09-29T14:21:15.89Z</time>
      </trkpt>
      <trkpt lat="37.34577" lon="-6.06927">
        <ele>0.0</ele>
        <time>2022-09-29T14:21:18.66Z</time>
      </trkpt>
      <trkpt lat="37.346" lon="-6.06941">
        <ele>0.0</ele>
        <time>2022-09-29T14:21:23.77Z</time>
      </trkpt>
      <trkpt lat="37.34629" lon="-6.06962">
        <ele>0.0</ele>
        <time>2022-09-29T14:21:30.46Z</time>
      </trkpt>
      <trkpt lat="37.34634" lon="-6.06965">
        <ele>0.0</ele>
        <time>2022-09-29T14:21:31.57Z</time>
      </trkpt>
      <trkpt lat="37.34672" lon="-6.06989">
        <ele>0.0</ele>
        <time>2022-09-29T14:21:40.07Z</time>
      </trkpt>
      <trkpt lat="37.34708" lon="-6.07012">
        <ele>0.0</ele>
        <time>2022-09-29T14:21:48.15Z</time>
      </trkpt>
      <trkpt lat="37.347081" lon="-6.070118">
        <ele>0.0</ele>
        <time>2022-09-29T14:21:48.33Z</time>
      </trkpt>
      <trkpt lat="37.34709" lon="-6.0701">
        <ele>0.0</ele>
        <time>2022-09-29T14:21:48.67Z</time>
      </trkpt>
      <trkpt lat="37.34709" lon="-6.07009">
        <ele>0.0</ele>
        <time>2022-09-29T14:21:48.85Z</time>
      </trkpt>
      <trkpt lat="37.3471" lon="-6.07008">
        <ele>0.0</ele>
        <time>2022-09-29T14:21:49.1Z</time>
      </trkpt>
      <trkpt lat="37.3471" lon="-6.07007">
        <ele>0.0</ele>
        <time>2022-09-29T14:21:49.28Z</time>
      </trkpt>
      <trkpt lat="37.34711" lon="-6.07006">
        <ele>0.0</ele>
        <time>2022-09-29T14:21:49.54Z</time>
      </trkpt>
      <trkpt lat="37.34712" lon="-6.07005">
        <ele>0.0</ele>
        <time>2022-09-29T14:21:49.79Z</time>
      </trkpt>
      <trkpt lat="37.34713" lon="-6.07004">
        <ele>0.0</ele>
        <time>2022-09-29T14:21:50.05Z</time>
      </trkpt>
      <trkpt lat="37.34714" lon="-6.07003">
        <ele>0.0</ele>
        <time>2022-09-29T14:21:50.3Z</time>
      </trkpt>
      <trkpt lat="37.34714" lon="-6.07002">
        <ele>0.0</ele>
        <time>2022-09-29T14:21:50.48Z</time>
      </trkpt>
      <trkpt lat="37.34715" lon="-6.07002">
        <ele>0.0</ele>
        <time>2022-09-29T14:21:50.68Z</time>
      </trkpt>
      <trkpt lat="37.34716" lon="-6.07001">
        <ele>0.0</ele>
        <time>2022-09-29T14:21:50.94Z</time>
      </trkpt>
      <trkpt lat="37.34717" lon="-6.07">
        <ele>0.0</ele>
        <time>2022-09-29T14:21:51.19Z</time>
      </trkpt>
      <trkpt lat="37.34718" lon="-6.07">
        <ele>0.0</ele>
        <time>2022-09-29T14:21:51.39Z</time>
      </trkpt>
      <trkpt lat="37.3472" lon="-6.07">
        <ele>0.0</ele>
        <time>2022-09-29T14:21:51.79Z</time>
      </trkpt>
      <trkpt lat="37.34721" lon="-6.06999">
        <ele>0.0</ele>
        <time>2022-09-29T14:21:52.05Z</time>
      </trkpt>
      <trkpt lat="37.34722" lon="-6.06999">
        <ele>0.0</ele>
        <time>2022-09-29T14:21:52.25Z</time>
      </trkpt>
      <trkpt lat="37.34723" lon="-6.06999">
        <ele>0.0</ele>
        <time>2022-09-29T14:21:52.45Z</time>
      </trkpt>
      <trkpt lat="37.34724" lon="-6.06999">
        <ele>0.0</ele>
        <time>2022-09-29T14:21:52.65Z</time>
      </trkpt>
      <trkpt lat="37.34725" lon="-6.06999">
        <ele>0.0</ele>
        <time>2022-09-29T14:21:52.85Z</time>
      </trkpt>
      <trkpt lat="37.34726" lon="-6.07">
        <ele>0.0</ele>
        <time>2022-09-29T14:21:53.11Z</time>
      </trkpt>
      <trkpt lat="37.34727" lon="-6.07">
        <ele>0.0</ele>
        <time>2022-09-29T14:21:53.31Z</time>
      </trkpt>
      <trkpt lat="37.34728" lon="-6.07">
        <ele>0.0</ele>
        <time>2022-09-29T14:21:53.51Z</time>
      </trkpt>
      <trkpt lat="37.34729" lon="-6.07001">
        <ele>0.0</ele>
        <time>2022-09-29T14:21:53.76Z</time>
      </trkpt>
      <trkpt lat="37.3473" lon="-6.07002">
        <ele>0.0</ele>
        <time>2022-09-29T14:21:54.02Z</time>
      </trkpt>
      <trkpt lat="37.34731" lon="-6.07002">
        <ele>0.0</ele>
        <time>2022-09-29T14:21:54.22Z</time>
      </trkpt>
      <trkpt lat="37.34732" lon="-6.07003">
        <ele>0.0</ele>
        <time>2022-09-29T14:21:54.47Z</time>
      </trkpt>
      <trkpt lat="37.34733" lon="-6.07004">
        <ele>0.0</ele>
        <time>2022-09-29T14:21:54.73Z</time>
      </trkpt>
      <trkpt lat="37.34734" lon="-6.07005">
        <ele>0.0</ele>
        <time>2022-09-29T14:21:54.98Z</time>
      </trkpt>
      <trkpt lat="37.34734" lon="-6.07006">
        <ele>0.0</ele>
        <time>2022-09-29T14:21:55.16Z</time>
      </trkpt>
      <trkpt lat="37.34735" lon="-6.07007">
        <ele>0.0</ele>
        <time>2022-09-29T14:21:55.42Z</time>
      </trkpt>
      <trkpt lat="37.34736" lon="-6.07008">
        <ele>0.0</ele>
        <time>2022-09-29T14:21:55.67Z</time>
      </trkpt>
      <trkpt lat="37.34737" lon="-6.0701">
        <ele>0.0</ele>
        <time>2022-09-29T14:21:56.05Z</time>
      </trkpt>
      <trkpt lat="37.34737" lon="-6.07011">
        <ele>0.0</ele>
        <time>2022-09-29T14:21:56.23Z</time>
      </trkpt>
      <trkpt lat="37.34738" lon="-6.07012">
        <ele>0.0</ele>
        <time>2022-09-29T14:21:56.49Z</time>
      </trkpt>
      <trkpt lat="37.34738" lon="-6.07013">
        <ele>0.0</ele>
        <time>2022-09-29T14:21:56.67Z</time>
      </trkpt>
      <trkpt lat="37.34738" lon="-6.07015">
        <ele>0.0</ele>
        <time>2022-09-29T14:21:56.98Z</time>
      </trkpt>
      <trkpt lat="37.34738" lon="-6.07016">
        <ele>0.0</ele>
        <time>2022-09-29T14:21:57.16Z</time>
      </trkpt>
      <trkpt lat="37.34738" lon="-6.07017">
        <ele>0.0</ele>
        <time>2022-09-29T14:21:57.34Z</time>
      </trkpt>
      <trkpt lat="37.34739" lon="-6.07019">
        <ele>0.0</ele>
        <time>2022-09-29T14:21:57.72Z</time>
      </trkpt>
      <trkpt lat="37.34739" lon="-6.0702">
        <ele>0.0</ele>
        <time>2022-09-29T14:21:57.9Z</time>
      </trkpt>
      <trkpt lat="37.34738" lon="-6.07022">
        <ele>0.0</ele>
        <time>2022-09-29T14:21:58.27Z</time>
      </trkpt>
      <trkpt lat="37.34738" lon="-6.07023">
        <ele>0.0</ele>
        <time>2022-09-29T14:21:58.45Z</time>
      </trkpt>
      <trkpt lat="37.34738" lon="-6.07024">
        <ele>0.0</ele>
        <time>2022-09-29T14:21:58.63Z</time>
      </trkpt>
      <trkpt lat="37.34738" lon="-6.07026">
        <ele>0.0</ele>
        <time>2022-09-29T14:21:58.95Z</time>
      </trkpt>
      <trkpt lat="37.34737" lon="-6.07027">
        <ele>0.0</ele>
        <time>2022-09-29T14:21:59.21Z</time>
      </trkpt>
      <trkpt lat="37.34737" lon="-6.07028">
        <ele>0.0</ele>
        <time>2022-09-29T14:21:59.39Z</time>
      </trkpt>
      <trkpt lat="37.34736" lon="-6.07029">
        <ele>0.0</ele>
        <time>2022-09-29T14:21:59.64Z</time>
      </trkpt>
      <trkpt lat="37.34736" lon="-6.0703">
        <ele>0.0</ele>
        <time>2022-09-29T14:21:59.82Z</time>
      </trkpt>
      <trkpt lat="37.34735" lon="-6.07032">
        <ele>0.0</ele>
        <time>2022-09-29T14:22:00.2Z</time>
      </trkpt>
      <trkpt lat="37.34734" lon="-6.07033">
        <ele>0.0</ele>
        <time>2022-09-29T14:22:00.45Z</time>
      </trkpt>
      <trkpt lat="37.34733" lon="-6.07034">
        <ele>0.0</ele>
        <time>2022-09-29T14:22:00.71Z</time>
      </trkpt>
      <trkpt lat="37.34732" lon="-6.07035">
        <ele>0.0</ele>
        <time>2022-09-29T14:22:00.97Z</time>
      </trkpt>
      <trkpt lat="37.34731" lon="-6.07036">
        <ele>0.0</ele>
        <time>2022-09-29T14:22:01.22Z</time>
      </trkpt>
      <trkpt lat="37.3473" lon="-6.07037">
        <ele>0.0</ele>
        <time>2022-09-29T14:22:01.48Z</time>
      </trkpt>
      <trkpt lat="37.34729" lon="-6.07037">
        <ele>0.0</ele>
        <time>2022-09-29T14:22:01.68Z</time>
      </trkpt>
      <trkpt lat="37.34728" lon="-6.07038">
        <ele>0.0</ele>
        <time>2022-09-29T14:22:01.93Z</time>
      </trkpt>
      <trkpt lat="37.34727" lon="-6.07038">
        <ele>0.0</ele>
        <time>2022-09-29T14:22:02.13Z</time>
      </trkpt>
      <trkpt lat="37.34726" lon="-6.07038">
        <ele>0.0</ele>
        <time>2022-09-29T14:22:02.33Z</time>
      </trkpt>
      <trkpt lat="37.34725" lon="-6.07039">
        <ele>0.0</ele>
        <time>2022-09-29T14:22:02.59Z</time>
      </trkpt>
      <trkpt lat="37.34724" lon="-6.07039">
        <ele>0.0</ele>
        <time>2022-09-29T14:22:02.79Z</time>
      </trkpt>
      <trkpt lat="37.34722" lon="-6.07039">
        <ele>0.0</ele>
        <time>2022-09-29T14:22:03.19Z</time>
      </trkpt>
      <trkpt lat="37.34721" lon="-6.07039">
        <ele>0.0</ele>
        <time>2022-09-29T14:22:03.39Z</time>
      </trkpt>
      <trkpt lat="37.34719" lon="-6.07038">
        <ele>0.0</ele>
        <time>2022-09-29T14:22:03.82Z</time>
      </trkpt>
      <trkpt lat="37.3471" lon="-6.07051">
        <ele>0.0</ele>
        <time>2022-09-29T14:22:06.56Z</time>
      </trkpt>
      <trkpt lat="37.34694" lon="-6.07083">
        <ele>0.0</ele>
        <time>2022-09-29T14:22:12.57Z</time>
      </trkpt>
      <trkpt lat="37.3467" lon="-6.07133">
        <ele>0.0</ele>
        <time>2022-09-29T14:22:21.86Z</time>
      </trkpt>
      <trkpt lat="37.34661" lon="-6.0715">
        <ele>0.0</ele>
        <time>2022-09-29T14:22:25.1Z</time>
      </trkpt>
      <trkpt lat="37.34661" lon="-6.07152">
        <ele>0.0</ele>
        <time>2022-09-29T14:22:25.42Z</time>
      </trkpt>
      <trkpt lat="37.34635" lon="-6.07211">
        <ele>0.0</ele>
        <time>2022-09-29T14:22:36.15Z</time>
      </trkpt>
      <trkpt lat="37.34606" lon="-6.0728">
        <ele>0.0</ele>
        <time>2022-09-29T14:22:48.56Z</time>
      </trkpt>
      <trkpt lat="37.34596" lon="-6.0731">
        <ele>0.0</ele>
        <time>2022-09-29T14:22:53.73Z</time>
      </trkpt>
      <trkpt lat="37.34562" lon="-6.07404">
        <ele>0.0</ele>
        <time>2022-09-29T14:23:10.15Z</time>
      </trkpt>
      <trkpt lat="37.34517" lon="-6.07519">
        <ele>0.0</ele>
        <time>2022-09-29T14:23:30.53Z</time>
      </trkpt>
      <trkpt lat="37.34494" lon="-6.07582">
        <ele>0.0</ele>
        <time>2022-09-29T14:23:41.55Z</time>
      </trkpt>
      <trkpt lat="37.34471" lon="-6.07644">
        <ele>0.0</ele>
        <time>2022-09-29T14:23:52.43Z</time>
      </trkpt>
      <trkpt lat="37.34466" lon="-6.07663">
        <ele>0.0</ele>
        <time>2022-09-29T14:23:55.61Z</time>
      </trkpt>
      <trkpt lat="37.34466" lon="-6.07664">
        <ele>0.0</ele>
        <time>2022-09-29T14:23:55.79Z</time>
      </trkpt>
      <trkpt lat="37.34467" lon="-6.07665">
        <ele>0.0</ele>
        <time>2022-09-29T14:23:56.05Z</time>
      </trkpt>
      <trkpt lat="37.34467" lon="-6.07666">
        <ele>0.0</ele>
        <time>2022-09-29T14:23:56.23Z</time>
      </trkpt>
      <trkpt lat="37.34467" lon="-6.07667">
        <ele>0.0</ele>
        <time>2022-09-29T14:23:56.41Z</time>
      </trkpt>
      <trkpt lat="37.34468" lon="-6.07668">
        <ele>0.0</ele>
        <time>2022-09-29T14:23:56.66Z</time>
      </trkpt>
      <trkpt lat="37.34468" lon="-6.07669">
        <ele>0.0</ele>
        <time>2022-09-29T14:23:56.84Z</time>
      </trkpt>
      <trkpt lat="37.34468" lon="-6.0767">
        <ele>0.0</ele>
        <time>2022-09-29T14:23:57.02Z</time>
      </trkpt>
      <trkpt lat="37.34468" lon="-6.07671">
        <ele>0.0</ele>
        <time>2022-09-29T14:23:57.2Z</time>
      </trkpt>
      <trkpt lat="37.34468" lon="-6.07672">
        <ele>0.0</ele>
        <time>2022-09-29T14:23:57.38Z</time>
      </trkpt>
      <trkpt lat="37.34468" lon="-6.07673">
        <ele>0.0</ele>
        <time>2022-09-29T14:23:57.56Z</time>
      </trkpt>
      <trkpt lat="37.34468" lon="-6.07674">
        <ele>0.0</ele>
        <time>2022-09-29T14:23:57.74Z</time>
      </trkpt>
      <trkpt lat="37.34468" lon="-6.07675">
        <ele>0.0</ele>
        <time>2022-09-29T14:23:57.92Z</time>
      </trkpt>
      <trkpt lat="37.34467" lon="-6.07676">
        <ele>0.0</ele>
        <time>2022-09-29T14:23:58.18Z</time>
      </trkpt>
      <trkpt lat="37.34467" lon="-6.07677">
        <ele>0.0</ele>
        <time>2022-09-29T14:23:58.36Z</time>
      </trkpt>
      <trkpt lat="37.34467" lon="-6.07678">
        <ele>0.0</ele>
        <time>2022-09-29T14:23:58.54Z</time>
      </trkpt>
      <trkpt lat="37.34466" lon="-6.07679">
        <ele>0.0</ele>
        <time>2022-09-29T14:23:58.79Z</time>
      </trkpt>
      <trkpt lat="37.34466" lon="-6.0768">
        <ele>0.0</ele>
        <time>2022-09-29T14:23:58.97Z</time>
      </trkpt>
      <trkpt lat="37.34466" lon="-6.07681">
        <ele>0.0</ele>
        <time>2022-09-29T14:23:59.15Z</time>
      </trkpt>
      <trkpt lat="37.34465" lon="-6.07681">
        <ele>0.0</ele>
        <time>2022-09-29T14:23:59.35Z</time>
      </trkpt>
      <trkpt lat="37.34465" lon="-6.07682">
        <ele>0.0</ele>
        <time>2022-09-29T14:23:59.53Z</time>
      </trkpt>
      <trkpt lat="37.34464" lon="-6.07682">
        <ele>0.0</ele>
        <time>2022-09-29T14:23:59.73Z</time>
      </trkpt>
      <trkpt lat="37.34464" lon="-6.07683">
        <ele>0.0</ele>
        <time>2022-09-29T14:23:59.91Z</time>
      </trkpt>
      <trkpt lat="37.34463" lon="-6.07684">
        <ele>0.0</ele>
        <time>2022-09-29T14:24:00.17Z</time>
      </trkpt>
      <trkpt lat="37.34462" lon="-6.07685">
        <ele>0.0</ele>
        <time>2022-09-29T14:24:00.43Z</time>
      </trkpt>
      <trkpt lat="37.34461" lon="-6.07685">
        <ele>0.0</ele>
        <time>2022-09-29T14:24:00.63Z</time>
      </trkpt>
      <trkpt lat="37.3446" lon="-6.07686">
        <ele>0.0</ele>
        <time>2022-09-29T14:24:00.88Z</time>
      </trkpt>
      <trkpt lat="37.34459" lon="-6.07686">
        <ele>0.0</ele>
        <time>2022-09-29T14:24:01.08Z</time>
      </trkpt>
      <trkpt lat="37.34459" lon="-6.07687">
        <ele>0.0</ele>
        <time>2022-09-29T14:24:01.26Z</time>
      </trkpt>
      <trkpt lat="37.34458" lon="-6.07687">
        <ele>0.0</ele>
        <time>2022-09-29T14:24:01.46Z</time>
      </trkpt>
      <trkpt lat="37.34457" lon="-6.07687">
        <ele>0.0</ele>
        <time>2022-09-29T14:24:01.66Z</time>
      </trkpt>
      <trkpt lat="37.34456" lon="-6.07687">
        <ele>0.0</ele>
        <time>2022-09-29T14:24:01.86Z</time>
      </trkpt>
      <trkpt lat="37.34443" lon="-6.07721">
        <ele>0.0</ele>
        <time>2022-09-29T14:24:07.86Z</time>
      </trkpt>
      <trkpt lat="37.34434" lon="-6.07752">
        <ele>0.0</ele>
        <time>2022-09-29T14:24:13.11Z</time>
      </trkpt>
      <trkpt lat="37.34426" lon="-6.07778">
        <ele>0.0</ele>
        <time>2022-09-29T14:24:17.54Z</time>
      </trkpt>
      <trkpt lat="37.34401" lon="-6.0788">
        <ele>0.0</ele>
        <time>2022-09-29T14:24:34.51Z</time>
      </trkpt>
      <trkpt lat="37.34398" lon="-6.079">
        <ele>0.0</ele>
        <time>2022-09-29T14:24:37.75Z</time>
      </trkpt>
      <trkpt lat="37.34394" lon="-6.0792">
        <ele>0.0</ele>
        <time>2022-09-29T14:24:41.03Z</time>
      </trkpt>
      <trkpt lat="37.34393" lon="-6.07937">
        <ele>0.0</ele>
        <time>2022-09-29T14:24:43.74Z</time>
      </trkpt>
      <trkpt lat="37.34394" lon="-6.07951">
        <ele>0.0</ele>
        <time>2022-09-29T14:24:45.97Z</time>
      </trkpt>
      <trkpt lat="37.34395" lon="-6.07962">
        <ele>0.0</ele>
        <time>2022-09-29T14:24:47.73Z</time>
      </trkpt>
      <trkpt lat="37.34399" lon="-6.07983">
        <ele>0.0</ele>
        <time>2022-09-29T14:24:51.17Z</time>
      </trkpt>
      <trkpt lat="37.344" lon="-6.07994">
        <ele>0.0</ele>
        <time>2022-09-29T14:24:52.93Z</time>
      </trkpt>
      <trkpt lat="37.344002" lon="-6.079937">
        <ele>0.0</ele>
        <time>2022-09-29T14:24:53.11Z</time>
      </trkpt>
      <trkpt lat="37.34402" lon="-6.07998">
        <ele>0.0</ele>
        <time>2022-09-29T14:24:53.87Z</time>
      </trkpt>
      <trkpt lat="37.34404" lon="-6.08003">
        <ele>0.0</ele>
        <time>2022-09-29T14:24:54.76Z</time>
      </trkpt>
      <trkpt lat="37.34406" lon="-6.08011">
        <ele>0.0</ele>
        <time>2022-09-29T14:24:56.1Z</time>
      </trkpt>
      <trkpt lat="37.34405" lon="-6.08016">
        <ele>0.0</ele>
        <time>2022-09-29T14:24:56.91Z</time>
      </trkpt>
      <trkpt lat="37.34405" lon="-6.08021">
        <ele>0.0</ele>
        <time>2022-09-29T14:24:57.71Z</time>
      </trkpt>
      <trkpt lat="37.34404" lon="-6.08026">
        <ele>0.0</ele>
        <time>2022-09-29T14:24:58.53Z</time>
      </trkpt>
      <trkpt lat="37.34403" lon="-6.0803">
        <ele>0.0</ele>
        <time>2022-09-29T14:24:59.2Z</time>
      </trkpt>
      <trkpt lat="37.34401" lon="-6.08034">
        <ele>0.0</ele>
        <time>2022-09-29T14:24:59.95Z</time>
      </trkpt>
      <trkpt lat="37.34399" lon="-6.08038">
        <ele>0.0</ele>
        <time>2022-09-29T14:25:00.7Z</time>
      </trkpt>
      <trkpt lat="37.34396" lon="-6.08042">
        <ele>0.0</ele>
        <time>2022-09-29T14:25:01.57Z</time>
      </trkpt>
      <trkpt lat="37.34393" lon="-6.08045">
        <ele>0.0</ele>
        <time>2022-09-29T14:25:02.34Z</time>
      </trkpt>
      <trkpt lat="37.3439" lon="-6.08047">
        <ele>0.0</ele>
        <time>2022-09-29T14:25:03.02Z</time>
      </trkpt>
      <trkpt lat="37.34386" lon="-6.08049">
        <ele>0.0</ele>
        <time>2022-09-29T14:25:03.88Z</time>
      </trkpt>
      <trkpt lat="37.34383" lon="-6.08051">
        <ele>0.0</ele>
        <time>2022-09-29T14:25:04.56Z</time>
      </trkpt>
      <trkpt lat="37.34377" lon="-6.08052">
        <ele>0.0</ele>
        <time>2022-09-29T14:25:05.77Z</time>
      </trkpt>
      <trkpt lat="37.34373" lon="-6.08052">
        <ele>0.0</ele>
        <time>2022-09-29T14:25:06.57Z</time>
      </trkpt>
      <trkpt lat="37.3437" lon="-6.08051">
        <ele>0.0</ele>
        <time>2022-09-29T14:25:07.19Z</time>
      </trkpt>
      <trkpt lat="37.34366" lon="-6.08049">
        <ele>0.0</ele>
        <time>2022-09-29T14:25:08.05Z</time>
      </trkpt>
      <trkpt lat="37.34362" lon="-6.08047">
        <ele>0.0</ele>
        <time>2022-09-29T14:25:08.91Z</time>
      </trkpt>
      <trkpt lat="37.3436" lon="-6.08046">
        <ele>0.0</ele>
        <time>2022-09-29T14:25:09.34Z</time>
      </trkpt>
      <trkpt lat="37.34359" lon="-6.08045">
        <ele>0.0</ele>
        <time>2022-09-29T14:25:09.6Z</time>
      </trkpt>
      <trkpt lat="37.34356" lon="-6.08042">
        <ele>0.0</ele>
        <time>2022-09-29T14:25:10.36Z</time>
      </trkpt>
      <trkpt lat="37.34353" lon="-6.08038">
        <ele>0.0</ele>
        <time>2022-09-29T14:25:11.24Z</time>
      </trkpt>
      <trkpt lat="37.34351" lon="-6.08034">
        <ele>0.0</ele>
        <time>2022-09-29T14:25:11.99Z</time>
      </trkpt>
      <trkpt lat="37.34349" lon="-6.0803">
        <ele>0.0</ele>
        <time>2022-09-29T14:25:12.74Z</time>
      </trkpt>
      <trkpt lat="37.34348" lon="-6.08026">
        <ele>0.0</ele>
        <time>2022-09-29T14:25:13.41Z</time>
      </trkpt>
      <trkpt lat="37.34347" lon="-6.08021">
        <ele>0.0</ele>
        <time>2022-09-29T14:25:14.23Z</time>
      </trkpt>
      <trkpt lat="37.34347" lon="-6.08016">
        <ele>0.0</ele>
        <time>2022-09-29T14:25:15.02Z</time>
      </trkpt>
      <trkpt lat="37.34347" lon="-6.08011">
        <ele>0.0</ele>
        <time>2022-09-29T14:25:15.82Z</time>
      </trkpt>
      <trkpt lat="37.34347" lon="-6.08007">
        <ele>0.0</ele>
        <time>2022-09-29T14:25:16.45Z</time>
      </trkpt>
      <trkpt lat="37.34348" lon="-6.08002">
        <ele>0.0</ele>
        <time>2022-09-29T14:25:17.27Z</time>
      </trkpt>
      <trkpt lat="37.34349" lon="-6.08001">
        <ele>0.0</ele>
        <time>2022-09-29T14:25:17.53Z</time>
      </trkpt>
      <trkpt lat="37.34345" lon="-6.07998">
        <ele>0.0</ele>
        <time>2022-09-29T14:25:18.46Z</time>
      </trkpt>
      <trkpt lat="37.34341" lon="-6.07996">
        <ele>0.0</ele>
        <time>2022-09-29T14:25:19.32Z</time>
      </trkpt>
      <trkpt lat="37.34338" lon="-6.07995">
        <ele>0.0</ele>
        <time>2022-09-29T14:25:19.94Z</time>
      </trkpt>
      <trkpt lat="37.343383" lon="-6.079953">
        <ele>0.0</ele>
        <time>2022-09-29T14:25:20.12Z</time>
      </trkpt>
      <trkpt lat="37.34335" lon="-6.07997">
        <ele>0.0</ele>
        <time>2022-09-29T14:25:20.84Z</time>
      </trkpt>
      <trkpt lat="37.34333" lon="-6.08001">
        <ele>0.0</ele>
        <time>2022-09-29T14:25:21.59Z</time>
      </trkpt>
      <trkpt lat="37.34332" lon="-6.08006">
        <ele>0.0</ele>
        <time>2022-09-29T14:25:22.41Z</time>
      </trkpt>
      <trkpt lat="37.34332" lon="-6.08007">
        <ele>0.0</ele>
        <time>2022-09-29T14:25:22.59Z</time>
      </trkpt>
      <trkpt lat="37.34331" lon="-6.08016">
        <ele>0.0</ele>
        <time>2022-09-29T14:25:24.03Z</time>
      </trkpt>
      <trkpt lat="37.34332" lon="-6.08027">
        <ele>0.0</ele>
        <time>2022-09-29T14:25:25.79Z</time>
      </trkpt>
      <trkpt lat="37.34336" lon="-6.08038">
        <ele>0.0</ele>
        <time>2022-09-29T14:25:27.72Z</time>
      </trkpt>
      <trkpt lat="37.3434" lon="-6.08047">
        <ele>0.0</ele>
        <time>2022-09-29T14:25:29.36Z</time>
      </trkpt>
      <trkpt lat="37.34343" lon="-6.0805">
        <ele>0.0</ele>
        <time>2022-09-29T14:25:30.12Z</time>
      </trkpt>
      <trkpt lat="37.34345" lon="-6.08052">
        <ele>0.0</ele>
        <time>2022-09-29T14:25:30.63Z</time>
      </trkpt>
      <trkpt lat="37.3435" lon="-6.08059">
        <ele>0.0</ele>
        <time>2022-09-29T14:25:32.13Z</time>
      </trkpt>
      <trkpt lat="37.34362" lon="-6.08066">
        <ele>0.0</ele>
        <time>2022-09-29T14:25:34.77Z</time>
      </trkpt>
      <trkpt lat="37.34371" lon="-6.0807">
        <ele>0.0</ele>
        <time>2022-09-29T14:25:36.68Z</time>
      </trkpt>
      <trkpt lat="37.34373" lon="-6.08073">
        <ele>0.0</ele>
        <time>2022-09-29T14:25:37.31Z</time>
      </trkpt>
      <trkpt lat="37.34375" lon="-6.08076">
        <ele>0.0</ele>
        <time>2022-09-29T14:25:37.93Z</time>
      </trkpt>
      <trkpt lat="37.34377" lon="-6.08081">
        <ele>0.0</ele>
        <time>2022-09-29T14:25:38.82Z</time>
      </trkpt>
      <trkpt lat="37.34377" lon="-6.08085">
        <ele>0.0</ele>
        <time>2022-09-29T14:25:39.45Z</time>
      </trkpt>
      <trkpt lat="37.34378" lon="-6.08092">
        <ele>0.0</ele>
        <time>2022-09-29T14:25:40.59Z</time>
      </trkpt>
      <trkpt lat="37.34379" lon="-6.08106">
        <ele>0.0</ele>
        <time>2022-09-29T14:25:42.82Z</time>
      </trkpt>
      <trkpt lat="37.34382" lon="-6.08122">
        <ele>0.0</ele>
        <time>2022-09-29T14:25:45.43Z</time>
      </trkpt>
      <trkpt lat="37.34386" lon="-6.08142">
        <ele>0.0</ele>
        <time>2022-09-29T14:25:48.71Z</time>
      </trkpt>
      <trkpt lat="37.34389" lon="-6.08151">
        <ele>0.0</ele>
        <time>2022-09-29T14:25:50.27Z</time>
      </trkpt>
      <trkpt lat="37.34401" lon="-6.08193">
        <ele>0.0</ele>
        <time>2022-09-29T14:25:57.36Z</time>
      </trkpt>
      <trkpt lat="37.34403" lon="-6.082">
        <ele>0.0</ele>
        <time>2022-09-29T14:25:58.54Z</time>
      </trkpt>
      <trkpt lat="37.34407" lon="-6.08215">
        <ele>0.0</ele>
        <time>2022-09-29T14:26:01.06Z</time>
      </trkpt>
      <trkpt lat="37.34411" lon="-6.08233">
        <ele>0.0</ele>
        <time>2022-09-29T14:26:04.03Z</time>
      </trkpt>
      <trkpt lat="37.34412" lon="-6.08237">
        <ele>0.0</ele>
        <time>2022-09-29T14:26:04.7Z</time>
      </trkpt>
      <trkpt lat="37.34417" lon="-6.08273">
        <ele>0.0</ele>
        <time>2022-09-29T14:26:10.51Z</time>
      </trkpt>
      <trkpt lat="37.34418" lon="-6.08275">
        <ele>0.0</ele>
        <time>2022-09-29T14:26:10.88Z</time>
      </trkpt>
      <trkpt lat="37.34419" lon="-6.08281">
        <ele>0.0</ele>
        <time>2022-09-29T14:26:11.86Z</time>
      </trkpt>
      <trkpt lat="37.34423" lon="-6.08307">
        <ele>0.0</ele>
        <time>2022-09-29T14:26:16.07Z</time>
      </trkpt>
      <trkpt lat="37.34426" lon="-6.08325">
        <ele>0.0</ele>
        <time>2022-09-29T14:26:18.99Z</time>
      </trkpt>
      <trkpt lat="37.34432" lon="-6.08352">
        <ele>0.0</ele>
        <time>2022-09-29T14:26:23.45Z</time>
      </trkpt>
      <trkpt lat="37.34432" lon="-6.08353">
        <ele>0.0</ele>
        <time>2022-09-29T14:26:23.63Z</time>
      </trkpt>
      <trkpt lat="37.34434" lon="-6.08365">
        <ele>0.0</ele>
        <time>2022-09-29T14:26:25.58Z</time>
      </trkpt>
      <trkpt lat="37.34436" lon="-6.08374">
        <ele>0.0</ele>
        <time>2022-09-29T14:26:27.07Z</time>
      </trkpt>
      <trkpt lat="37.34438" lon="-6.08383">
        <ele>0.0</ele>
        <time>2022-09-29T14:26:28.55Z</time>
      </trkpt>
      <trkpt lat="37.34442" lon="-6.08405">
        <ele>0.0</ele>
        <time>2022-09-29T14:26:32.14Z</time>
      </trkpt>
      <trkpt lat="37.34444" lon="-6.08428">
        <ele>0.0</ele>
        <time>2022-09-29T14:26:35.82Z</time>
      </trkpt>
      <trkpt lat="37.34445" lon="-6.08432">
        <ele>0.0</ele>
        <time>2022-09-29T14:26:36.49Z</time>
      </trkpt>
      <trkpt lat="37.34446" lon="-6.0845">
        <ele>0.0</ele>
        <time>2022-09-29T14:26:39.36Z</time>
      </trkpt>
      <trkpt lat="37.34447" lon="-6.08469">
        <ele>0.0</ele>
        <time>2022-09-29T14:26:42.38Z</time>
      </trkpt>
      <trkpt lat="37.3445" lon="-6.08512">
        <ele>0.0</ele>
        <time>2022-09-29T14:26:49.25Z</time>
      </trkpt>
      <trkpt lat="37.34451" lon="-6.0854">
        <ele>0.0</ele>
        <time>2022-09-29T14:26:53.7Z</time>
      </trkpt>
      <trkpt lat="37.34452" lon="-6.08553">
        <ele>0.0</ele>
        <time>2022-09-29T14:26:55.78Z</time>
      </trkpt>
      <trkpt lat="37.34452" lon="-6.08563">
        <ele>0.0</ele>
        <time>2022-09-29T14:26:57.37Z</time>
      </trkpt>
      <trkpt lat="37.34454" lon="-6.08607">
        <ele>0.0</ele>
        <time>2022-09-29T14:27:04.38Z</time>
      </trkpt>
      <trkpt lat="37.34455" lon="-6.08634">
        <ele>0.0</ele>
        <time>2022-09-29T14:27:08.68Z</time>
      </trkpt>
      <trkpt lat="37.34455" lon="-6.08654">
        <ele>0.0</ele>
        <time>2022-09-29T14:27:11.86Z</time>
      </trkpt>
      <trkpt lat="37.34456" lon="-6.08676">
        <ele>0.0</ele>
        <time>2022-09-29T14:27:15.36Z</time>
      </trkpt>
      <trkpt lat="37.34455" lon="-6.08698">
        <ele>0.0</ele>
        <time>2022-09-29T14:27:18.86Z</time>
      </trkpt>
      <trkpt lat="37.34455" lon="-6.08709">
        <ele>0.0</ele>
        <time>2022-09-29T14:27:20.61Z</time>
      </trkpt>
      <trkpt lat="37.3445" lon="-6.0877">
        <ele>0.0</ele>
        <time>2022-09-29T14:27:30.36Z</time>
      </trkpt>
      <trkpt lat="37.34449" lon="-6.08789">
        <ele>0.0</ele>
        <time>2022-09-29T14:27:33.39Z</time>
      </trkpt>
      <trkpt lat="37.34447" lon="-6.08811">
        <ele>0.0</ele>
        <time>2022-09-29T14:27:36.91Z</time>
      </trkpt>
      <trkpt lat="37.34447" lon="-6.08817">
        <ele>0.0</ele>
        <time>2022-09-29T14:27:37.86Z</time>
      </trkpt>
      <trkpt lat="37.34444" lon="-6.08847">
        <ele>0.0</ele>
        <time>2022-09-29T14:27:42.67Z</time>
      </trkpt>
      <trkpt lat="37.34443" lon="-6.08859">
        <ele>0.0</ele>
        <time>2022-09-29T14:27:44.59Z</time>
      </trkpt>
      <trkpt lat="37.34441" lon="-6.08894">
        <ele>0.0</ele>
        <time>2022-09-29T14:27:50.17Z</time>
      </trkpt>
      <trkpt lat="37.34441" lon="-6.08901">
        <ele>0.0</ele>
        <time>2022-09-29T14:27:51.28Z</time>
      </trkpt>
      <trkpt lat="37.34441" lon="-6.08938">
        <ele>0.0</ele>
        <time>2022-09-29T14:27:57.17Z</time>
      </trkpt>
      <trkpt lat="37.34441" lon="-6.08947">
        <ele>0.0</ele>
        <time>2022-09-29T14:27:58.6Z</time>
      </trkpt>
      <trkpt lat="37.34445" lon="-6.08962">
        <ele>0.0</ele>
        <time>2022-09-29T14:28:01.11Z</time>
      </trkpt>
      <trkpt lat="37.34446" lon="-6.08998">
        <ele>0.0</ele>
        <time>2022-09-29T14:28:06.84Z</time>
      </trkpt>
      <trkpt lat="37.34447" lon="-6.09">
        <ele>0.0</ele>
        <time>2022-09-29T14:28:07.22Z</time>
      </trkpt>
      <trkpt lat="37.34446" lon="-6.09044">
        <ele>0.0</ele>
        <time>2022-09-29T14:28:14.21Z</time>
      </trkpt>
      <trkpt lat="37.34449" lon="-6.09061">
        <ele>0.0</ele>
        <time>2022-09-29T14:28:16.98Z</time>
      </trkpt>
      <trkpt lat="37.34457" lon="-6.0909">
        <ele>0.0</ele>
        <time>2022-09-29T14:28:21.86Z</time>
      </trkpt>
      <trkpt lat="37.34471" lon="-6.09128">
        <ele>0.0</ele>
        <time>2022-09-29T14:28:28.52Z</time>
      </trkpt>
      <trkpt lat="37.34468" lon="-6.09143">
        <ele>0.0</ele>
        <time>2022-09-29T14:28:30.98Z</time>
      </trkpt>
      <trkpt lat="37.34461" lon="-6.09173">
        <ele>0.0</ele>
        <time>2022-09-29T14:28:35.95Z</time>
      </trkpt>
      <trkpt lat="37.3446" lon="-6.09177">
        <ele>0.0</ele>
        <time>2022-09-29T14:28:36.62Z</time>
      </trkpt>
      <trkpt lat="37.344596" lon="-6.091771">
        <ele>0.0</ele>
        <time>2022-09-29T14:28:36.8Z</time>
      </trkpt>
      <trkpt lat="37.344468" lon="-6.092069">
        <ele>40.11</ele>
        <time>2022-02-05T06:45:39Z</time>
      </trkpt>
      <trkpt lat="37.344400" lon="-6.092281">
        <ele>39.07</ele>
        <time>2022-02-05T06:45:43Z</time>
      </trkpt>
      <trkpt lat="37.344325" lon="-6.092513">
        <ele>40.35</ele>
        <time>2022-02-05T06:45:48Z</time>
      </trkpt>
      <trkpt lat="37.344234" lon="-6.092753">
        <ele>38.76</ele>
        <time>2022-02-05T06:45:52Z</time>
      </trkpt>
      <trkpt lat="37.344093" lon="-6.092940">
        <ele>39.54</ele>
        <time>2022-02-05T06:45:56Z</time>
      </trkpt>
      <trkpt lat="37.343948" lon="-6.093136">
        <ele>41.04</ele>
        <time>2022-02-05T06:46:01Z</time>
      </trkpt>
      <trkpt lat="37.343829" lon="-6.093328">
        <ele>43.99</ele>
        <time>2022-02-05T06:46:07Z</time>
      </trkpt>
      <trkpt lat="37.343707" lon="-6.093546">
        <ele>44.74</ele>
        <time>2022-02-05T06:46:13Z</time>
      </trkpt>
      <trkpt lat="37.343512" lon="-6.093648">
        <ele>45.06</ele>
        <time>2022-02-05T06:46:19Z</time>
      </trkpt>
      <trkpt lat="37.343308" lon="-6.093650">
        <ele>45.69</ele>
        <time>2022-02-05T06:46:24Z</time>
      </trkpt>
      <trkpt lat="37.343106" lon="-6.093762">
        <ele>46.44</ele>
        <time>2022-02-05T06:46:29Z</time>
      </trkpt>
      <trkpt lat="37.342930" lon="-6.093898">
        <ele>47.32</ele>
        <time>2022-02-05T06:46:34Z</time>
      </trkpt>
      <trkpt lat="37.342760" lon="-6.094054">
        <ele>48.22</ele>
        <time>2022-02-05T06:46:39Z</time>
      </trkpt>
      <trkpt lat="37.342583" lon="-6.094197">
        <ele>48.94</ele>
        <time>2022-02-05T06:46:44Z</time>
      </trkpt>
      <trkpt lat="37.342406" lon="-6.094353">
        <ele>49.85</ele>
        <time>2022-02-05T06:46:49Z</time>
      </trkpt>
      <trkpt lat="37.342239" lon="-6.094512">
        <ele>50.74</ele>
        <time>2022-02-05T06:46:54Z</time>
      </trkpt>
      <trkpt lat="37.342097" lon="-6.094700">
        <ele>51.61</ele>
        <time>2022-02-05T06:46:59Z</time>
      </trkpt>
      <trkpt lat="37.341957" lon="-6.094881">
        <ele>52.43</ele>
        <time>2022-02-05T06:47:04Z</time>
      </trkpt>
      <trkpt lat="37.341814" lon="-6.095072">
        <ele>52.93</ele>
        <time>2022-02-05T06:47:10Z</time>
      </trkpt>
      <trkpt lat="37.341690" lon="-6.095248">
        <ele>54.50</ele>
        <time>2022-02-05T06:47:15Z</time>
      </trkpt>
      <trkpt lat="37.341577" lon="-6.095425">
        <ele>54.39</ele>
        <time>2022-02-05T06:47:20Z</time>
      </trkpt>
      <trkpt lat="37.341466" lon="-6.095612">
        <ele>54.19</ele>
        <time>2022-02-05T06:47:25Z</time>
      </trkpt>
      <trkpt lat="37.341347" lon="-6.095805">
        <ele>54.09</ele>
        <time>2022-02-05T06:47:30Z</time>
      </trkpt>
      <trkpt lat="37.341217" lon="-6.095996">
        <ele>55.02</ele>
        <time>2022-02-05T06:47:35Z</time>
      </trkpt>
      <trkpt lat="37.341071" lon="-6.096187">
        <ele>56.15</ele>
        <time>2022-02-05T06:47:40Z</time>
      </trkpt>
      <trkpt lat="37.340932" lon="-6.096391">
        <ele>56.87</ele>
        <time>2022-02-05T06:47:45Z</time>
      </trkpt>
      <trkpt lat="37.340812" lon="-6.096612">
        <ele>56.08</ele>
        <time>2022-02-05T06:47:50Z</time>
      </trkpt>
      <trkpt lat="37.340693" lon="-6.096832">
        <ele>56.63</ele>
        <time>2022-02-05T06:47:55Z</time>
      </trkpt>
      <trkpt lat="37.340579" lon="-6.097047">
        <ele>56.89</ele>
        <time>2022-02-05T06:48:00Z</time>
      </trkpt>
      <trkpt lat="37.340462" lon="-6.097247">
        <ele>58.08</ele>
        <time>2022-02-05T06:48:05Z</time>
      </trkpt>
      <trkpt lat="37.340336" lon="-6.097462">
        <ele>58.43</ele>
        <time>2022-02-05T06:48:11Z</time>
      </trkpt>
      <trkpt lat="37.340227" lon="-6.097662">
        <ele>58.53</ele>
        <time>2022-02-05T06:48:17Z</time>
      </trkpt>
      <trkpt lat="37.340133" lon="-6.097859">
        <ele>58.52</ele>
        <time>2022-02-05T06:48:23Z</time>
      </trkpt>
      <trkpt lat="37.340022" lon="-6.098069">
        <ele>58.95</ele>
        <time>2022-02-05T06:48:29Z</time>
      </trkpt>
      <trkpt lat="37.339922" lon="-6.098258">
        <ele>59.13</ele>
        <time>2022-02-05T06:48:34Z</time>
      </trkpt>
      <trkpt lat="37.339816" lon="-6.098458">
        <ele>58.84</ele>
        <time>2022-02-05T06:48:39Z</time>
      </trkpt>
      <trkpt lat="37.339719" lon="-6.098673">
        <ele>58.79</ele>
        <time>2022-02-05T06:48:44Z</time>
      </trkpt>
      <trkpt lat="37.339629" lon="-6.098881">
        <ele>59.79</ele>
        <time>2022-02-05T06:48:49Z</time>
      </trkpt>
      <trkpt lat="37.339517" lon="-6.099077">
        <ele>60.10</ele>
        <time>2022-02-05T06:48:54Z</time>
      </trkpt>
      <trkpt lat="37.339387" lon="-6.099286">
        <ele>60.90</ele>
        <time>2022-02-05T06:48:59Z</time>
      </trkpt>
      <trkpt lat="37.339236" lon="-6.099471">
        <ele>61.88</ele>
        <time>2022-02-05T06:49:04Z</time>
      </trkpt>
      <trkpt lat="37.339099" lon="-6.099660">
        <ele>62.04</ele>
        <time>2022-02-05T06:49:09Z</time>
      </trkpt>
      <trkpt lat="37.338958" lon="-6.099852">
        <ele>63.30</ele>
        <time>2022-02-05T06:49:14Z</time>
      </trkpt>
      <trkpt lat="37.338816" lon="-6.100059">
        <ele>64.21</ele>
        <time>2022-02-05T06:49:19Z</time>
      </trkpt>
      <trkpt lat="37.338687" lon="-6.100279">
        <ele>64.04</ele>
        <time>2022-02-05T06:49:24Z</time>
      </trkpt>
      <trkpt lat="37.338588" lon="-6.100511">
        <ele>64.39</ele>
        <time>2022-02-05T06:49:29Z</time>
      </trkpt>
      <trkpt lat="37.338496" lon="-6.100751">
        <ele>64.68</ele>
        <time>2022-02-05T06:49:34Z</time>
      </trkpt>
      <trkpt lat="37.338399" lon="-6.100987">
        <ele>65.14</ele>
        <time>2022-02-05T06:49:39Z</time>
      </trkpt>
      <trkpt lat="37.338315" lon="-6.101201">
        <ele>65.46</ele>
        <time>2022-02-05T06:49:44Z</time>
      </trkpt>
      <trkpt lat="37.338228" lon="-6.101452">
        <ele>64.91</ele>
        <time>2022-02-05T06:49:49Z</time>
      </trkpt>
      <trkpt lat="37.338163" lon="-6.101668">
        <ele>65.01</ele>
        <time>2022-02-05T06:49:53Z</time>
      </trkpt>
      <trkpt lat="37.338094" lon="-6.101941">
        <ele>64.45</ele>
        <time>2022-02-05T06:49:58Z</time>
      </trkpt>
      <trkpt lat="37.338047" lon="-6.102169">
        <ele>63.76</ele>
        <time>2022-02-05T06:50:02Z</time>
      </trkpt>
      <trkpt lat="37.337999" lon="-6.102405">
        <ele>64.27</ele>
        <time>2022-02-05T06:50:06Z</time>
      </trkpt>
      <trkpt lat="37.337944" lon="-6.102644">
        <ele>63.64</ele>
        <time>2022-02-05T06:50:10Z</time>
      </trkpt>
      <trkpt lat="37.337898" lon="-6.102884">
        <ele>64.16</ele>
        <time>2022-02-05T06:50:14Z</time>
      </trkpt>
      <trkpt lat="37.337854" lon="-6.103117">
        <ele>64.42</ele>
        <time>2022-02-05T06:50:18Z</time>
      </trkpt>
      <trkpt lat="37.337800" lon="-6.103347">
        <ele>64.61</ele>
        <time>2022-02-05T06:50:22Z</time>
      </trkpt>
      <trkpt lat="37.337736" lon="-6.103579">
        <ele>64.36</ele>
        <time>2022-02-05T06:50:26Z</time>
      </trkpt>
      <trkpt lat="37.337668" lon="-6.103839">
        <ele>64.15</ele>
        <time>2022-02-05T06:50:31Z</time>
      </trkpt>
      <trkpt lat="37.337603" lon="-6.104096">
        <ele>63.83</ele>
        <time>2022-02-05T06:50:36Z</time>
      </trkpt>
      <trkpt lat="37.337530" lon="-6.104314">
        <ele>63.51</ele>
        <time>2022-02-05T06:50:40Z</time>
      </trkpt>
      <trkpt lat="37.337444" lon="-6.104523">
        <ele>63.62</ele>
        <time>2022-02-05T06:50:44Z</time>
      </trkpt>
      <trkpt lat="37.337359" lon="-6.104743">
        <ele>63.42</ele>
        <time>2022-02-05T06:50:48Z</time>
      </trkpt>
      <trkpt lat="37.337276" lon="-6.104958">
        <ele>63.10</ele>
        <time>2022-02-05T06:50:52Z</time>
      </trkpt>
      <trkpt lat="37.337183" lon="-6.105197">
        <ele>63.63</ele>
        <time>2022-02-05T06:50:57Z</time>
      </trkpt>
      <trkpt lat="37.337025" lon="-6.105358">
        <ele>63.96</ele>
        <time>2022-02-05T06:51:04Z</time>
      </trkpt>
      <trkpt lat="37.336875" lon="-6.105491">
        <ele>64.58</ele>
        <time>2022-02-05T06:51:10Z</time>
      </trkpt>
      <trkpt lat="37.336761" lon="-6.105707">
        <ele>64.60</ele>
        <time>2022-02-05T06:51:16Z</time>
      </trkpt>
      <trkpt lat="37.336686" lon="-6.105915">
        <ele>65.03</ele>
        <time>2022-02-05T06:51:21Z</time>
      </trkpt>
      <trkpt lat="37.336599" lon="-6.106125">
        <ele>65.62</ele>
        <time>2022-02-05T06:51:26Z</time>
      </trkpt>
      <trkpt lat="37.336509" lon="-6.106332">
        <ele>65.77</ele>
        <time>2022-02-05T06:51:31Z</time>
      </trkpt>
      <trkpt lat="37.336425" lon="-6.106560">
        <ele>66.17</ele>
        <time>2022-02-05T06:51:36Z</time>
      </trkpt>
      <trkpt lat="37.336330" lon="-6.106803">
        <ele>66.25</ele>
        <time>2022-02-05T06:51:41Z</time>
      </trkpt>
      <trkpt lat="37.336236" lon="-6.107037">
        <ele>66.17</ele>
        <time>2022-02-05T06:51:46Z</time>
      </trkpt>
      <trkpt lat="37.336140" lon="-6.107286">
        <ele>66.29</ele>
        <time>2022-02-05T06:51:51Z</time>
      </trkpt>
      <trkpt lat="37.336029" lon="-6.107515">
        <ele>65.87</ele>
        <time>2022-02-05T06:51:56Z</time>
      </trkpt>
      <trkpt lat="37.335860" lon="-6.107701">
        <ele>65.46</ele>
        <time>2022-02-05T06:52:01Z</time>
      </trkpt>
      <trkpt lat="37.335668" lon="-6.107828">
        <ele>66.10</ele>
        <time>2022-02-05T06:52:06Z</time>
      </trkpt>
      <trkpt lat="37.335473" lon="-6.107921">
        <ele>66.79</ele>
        <time>2022-02-05T06:52:11Z</time>
      </trkpt>
      <trkpt lat="37.335274" lon="-6.107983">
        <ele>67.88</ele>
        <time>2022-02-05T06:52:16Z</time>
      </trkpt>
      <trkpt lat="37.335081" lon="-6.108055">
        <ele>69.43</ele>
        <time>2022-02-05T06:52:21Z</time>
      </trkpt>
      <trkpt lat="37.334897" lon="-6.108122">
        <ele>71.01</ele>
        <time>2022-02-05T06:52:26Z</time>
      </trkpt>
      <trkpt lat="37.334704" lon="-6.108193">
        <ele>71.90</ele>
        <time>2022-02-05T06:52:31Z</time>
      </trkpt>
      <trkpt lat="37.334504" lon="-6.108275">
        <ele>72.97</ele>
        <time>2022-02-05T06:52:36Z</time>
      </trkpt>
      <trkpt lat="37.334321" lon="-6.108394">
        <ele>74.21</ele>
        <time>2022-02-05T06:52:42Z</time>
      </trkpt>
      <trkpt lat="37.334179" lon="-6.108549">
        <ele>76.40</ele>
        <time>2022-02-05T06:52:48Z</time>
      </trkpt>
      <trkpt lat="37.334072" lon="-6.108775">
        <ele>77.01</ele>
        <time>2022-02-05T06:52:55Z</time>
      </trkpt>
      <trkpt lat="37.334004" lon="-6.108985">
        <ele>78.24</ele>
        <time>2022-02-05T06:53:01Z</time>
      </trkpt>
      <trkpt lat="37.333984" lon="-6.109212">
        <ele>78.33</ele>
        <time>2022-02-05T06:53:07Z</time>
      </trkpt>
      <trkpt lat="37.333960" lon="-6.109456">
        <ele>79.35</ele>
        <time>2022-02-05T06:53:13Z</time>
      </trkpt>
      <trkpt lat="37.333944" lon="-6.109685">
        <ele>79.10</ele>
        <time>2022-02-05T06:53:18Z</time>
      </trkpt>
      <trkpt lat="37.333940" lon="-6.109935">
        <ele>78.62</ele>
        <time>2022-02-05T06:53:23Z</time>
      </trkpt>
      <trkpt lat="37.333912" lon="-6.110203">
        <ele>77.16</ele>
        <time>2022-02-05T06:53:28Z</time>
      </trkpt>
      <trkpt lat="37.333887" lon="-6.110446">
        <ele>75.55</ele>
        <time>2022-02-05T06:53:32Z</time>
      </trkpt>
      <trkpt lat="37.333790" lon="-6.110670">
        <ele>73.29</ele>
        <time>2022-02-05T06:53:36Z</time>
      </trkpt>
      <trkpt lat="37.333578" lon="-6.110812">
        <ele>71.00</ele>
        <time>2022-02-05T06:53:40Z</time>
      </trkpt>
      <trkpt lat="37.333376" lon="-6.110886">
        <ele>69.42</ele>
        <time>2022-02-05T06:53:43Z</time>
      </trkpt>
      <trkpt lat="37.333167" lon="-6.110939">
        <ele>68.16</ele>
        <time>2022-02-05T06:53:46Z</time>
      </trkpt>
      <trkpt lat="37.332969" lon="-6.110991">
        <ele>68.31</ele>
        <time>2022-02-05T06:53:49Z</time>
      </trkpt>
      <trkpt lat="37.332782" lon="-6.111014">
        <ele>69.16</ele>
        <time>2022-02-05T06:53:52Z</time>
      </trkpt>
      <trkpt lat="37.332598" lon="-6.111036">
        <ele>69.26</ele>
        <time>2022-02-05T06:53:55Z</time>
      </trkpt>
      <trkpt lat="37.332416" lon="-6.111044">
        <ele>69.54</ele>
        <time>2022-02-05T06:53:58Z</time>
      </trkpt>
      <trkpt lat="37.332187" lon="-6.111069">
        <ele>69.79</ele>
        <time>2022-02-05T06:54:02Z</time>
      </trkpt>
      <trkpt lat="37.331983" lon="-6.111145">
        <ele>70.47</ele>
        <time>2022-02-05T06:54:06Z</time>
      </trkpt>
      <trkpt lat="37.331807" lon="-6.111236">
        <ele>70.54</ele>
        <time>2022-02-05T06:54:10Z</time>
      </trkpt>
      <trkpt lat="37.331644" lon="-6.111340">
        <ele>70.51</ele>
        <time>2022-02-05T06:54:14Z</time>
      </trkpt>
      <trkpt lat="37.331483" lon="-6.111492">
        <ele>70.69</ele>
        <time>2022-02-05T06:54:18Z</time>
      </trkpt>
      <trkpt lat="37.331295" lon="-6.111672">
        <ele>69.90</ele>
        <time>2022-02-05T06:54:22Z</time>
      </trkpt>
      <trkpt lat="37.331111" lon="-6.111805">
        <ele>70.75</ele>
        <time>2022-02-05T06:54:26Z</time>
      </trkpt>
      <trkpt lat="37.330962" lon="-6.111935">
        <ele>70.58</ele>
        <time>2022-02-05T06:54:29Z</time>
      </trkpt>
      <trkpt lat="37.330806" lon="-6.112052">
        <ele>70.30</ele>
        <time>2022-02-05T06:54:32Z</time>
      </trkpt>
      <trkpt lat="37.330626" lon="-6.112222">
        <ele>70.50</ele>
        <time>2022-02-05T06:54:36Z</time>
      </trkpt>
      <trkpt lat="37.330467" lon="-6.112398">
        <ele>70.17</ele>
        <time>2022-02-05T06:54:40Z</time>
      </trkpt>
      <trkpt lat="37.330302" lon="-6.112575">
        <ele>69.65</ele>
        <time>2022-02-05T06:54:44Z</time>
      </trkpt>
      <trkpt lat="37.330154" lon="-6.112780">
        <ele>69.09</ele>
        <time>2022-02-05T06:54:48Z</time>
      </trkpt>
      <trkpt lat="37.330026" lon="-6.113011">
        <ele>68.27</ele>
        <time>2022-02-05T06:54:52Z</time>
      </trkpt>
      <trkpt lat="37.329861" lon="-6.113210">
        <ele>67.84</ele>
        <time>2022-02-05T06:54:56Z</time>
      </trkpt>
      <trkpt lat="37.329701" lon="-6.113411">
        <ele>67.67</ele>
        <time>2022-02-05T06:55:00Z</time>
      </trkpt>
      <trkpt lat="37.329536" lon="-6.113595">
        <ele>66.26</ele>
        <time>2022-02-05T06:55:04Z</time>
      </trkpt>
      <trkpt lat="37.329384" lon="-6.113787">
        <ele>65.63</ele>
        <time>2022-02-05T06:55:08Z</time>
      </trkpt>
      <trkpt lat="37.329230" lon="-6.113968">
        <ele>65.37</ele>
        <time>2022-02-05T06:55:12Z</time>
      </trkpt>
      <trkpt lat="37.329089" lon="-6.114162">
        <ele>64.93</ele>
        <time>2022-02-05T06:55:16Z</time>
      </trkpt>
      <trkpt lat="37.328961" lon="-6.114356">
        <ele>64.85</ele>
        <time>2022-02-05T06:55:20Z</time>
      </trkpt>
      <trkpt lat="37.328818" lon="-6.114555">
        <ele>64.67</ele>
        <time>2022-02-05T06:55:24Z</time>
      </trkpt>
      <trkpt lat="37.328660" lon="-6.114739">
        <ele>64.68</ele>
        <time>2022-02-05T06:55:28Z</time>
      </trkpt>
      <trkpt lat="37.328503" lon="-6.114914">
        <ele>65.01</ele>
        <time>2022-02-05T06:55:32Z</time>
      </trkpt>
      <trkpt lat="37.328360" lon="-6.115111">
        <ele>64.87</ele>
        <time>2022-02-05T06:55:36Z</time>
      </trkpt>
      <trkpt lat="37.328213" lon="-6.115298">
        <ele>64.39</ele>
        <time>2022-02-05T06:55:40Z</time>
      </trkpt>
      <trkpt lat="37.328091" lon="-6.115497">
        <ele>64.50</ele>
        <time>2022-02-05T06:55:44Z</time>
      </trkpt>
      <trkpt lat="37.327914" lon="-6.115676">
        <ele>64.57</ele>
        <time>2022-02-05T06:55:49Z</time>
      </trkpt>
      <trkpt lat="37.327774" lon="-6.115845">
        <ele>64.57</ele>
        <time>2022-02-05T06:55:53Z</time>
      </trkpt>
      <trkpt lat="37.327640" lon="-6.116022">
        <ele>63.99</ele>
        <time>2022-02-05T06:55:57Z</time>
      </trkpt>
      <trkpt lat="37.327507" lon="-6.116187">
        <ele>63.57</ele>
        <time>2022-02-05T06:56:01Z</time>
      </trkpt>
      <trkpt lat="37.327355" lon="-6.116365">
        <ele>64.11</ele>
        <time>2022-02-05T06:56:05Z</time>
      </trkpt>
      <trkpt lat="37.327191" lon="-6.116553">
        <ele>63.65</ele>
        <time>2022-02-05T06:56:09Z</time>
      </trkpt>
      <trkpt lat="37.327031" lon="-6.116744">
        <ele>63.24</ele>
        <time>2022-02-05T06:56:13Z</time>
      </trkpt>
      <trkpt lat="37.326895" lon="-6.116945">
        <ele>63.01</ele>
        <time>2022-02-05T06:56:17Z</time>
      </trkpt>
      <trkpt lat="37.326755" lon="-6.117147">
        <ele>62.78</ele>
        <time>2022-02-05T06:56:21Z</time>
      </trkpt>
      <trkpt lat="37.326638" lon="-6.117377">
        <ele>62.52</ele>
        <time>2022-02-05T06:56:25Z</time>
      </trkpt>
      <trkpt lat="37.326485" lon="-6.117573">
        <ele>62.81</ele>
        <time>2022-02-05T06:56:29Z</time>
      </trkpt>
      <trkpt lat="37.326331" lon="-6.117771">
        <ele>63.10</ele>
        <time>2022-02-05T06:56:33Z</time>
      </trkpt>
      <trkpt lat="37.326174" lon="-6.117982">
        <ele>63.27</ele>
        <time>2022-02-05T06:56:37Z</time>
      </trkpt>
      <trkpt lat="37.326041" lon="-6.118198">
        <ele>62.18</ele>
        <time>2022-02-05T06:56:41Z</time>
      </trkpt>
      <trkpt lat="37.325903" lon="-6.118438">
        <ele>60.79</ele>
        <time>2022-02-05T06:56:45Z</time>
      </trkpt>
      <trkpt lat="37.325789" lon="-6.118626">
        <ele>59.71</ele>
        <time>2022-02-05T06:56:48Z</time>
      </trkpt>
      <trkpt lat="37.325683" lon="-6.118819">
        <ele>58.79</ele>
        <time>2022-02-05T06:56:51Z</time>
      </trkpt>
      <trkpt lat="37.325582" lon="-6.119019">
        <ele>57.97</ele>
        <time>2022-02-05T06:56:54Z</time>
      </trkpt>
      <trkpt lat="37.325501" lon="-6.119227">
        <ele>57.44</ele>
        <time>2022-02-05T06:56:57Z</time>
      </trkpt>
      <trkpt lat="37.325424" lon="-6.119440">
        <ele>56.73</ele>
        <time>2022-02-05T06:57:00Z</time>
      </trkpt>
      <trkpt lat="37.325281" lon="-6.119675">
        <ele>56.19</ele>
        <time>2022-02-05T06:57:04Z</time>
      </trkpt>
      <trkpt lat="37.325176" lon="-6.119917">
        <ele>56.11</ele>
        <time>2022-02-05T06:57:08Z</time>
      </trkpt>
      <trkpt lat="37.325104" lon="-6.120176">
        <ele>56.85</ele>
        <time>2022-02-05T06:57:12Z</time>
      </trkpt>
      <trkpt lat="37.325024" lon="-6.120418">
        <ele>57.04</ele>
        <time>2022-02-05T06:57:16Z</time>
      </trkpt>
      <trkpt lat="37.324957" lon="-6.120670">
        <ele>57.34</ele>
        <time>2022-02-05T06:57:20Z</time>
      </trkpt>
      <trkpt lat="37.324886" lon="-6.120900">
        <ele>59.18</ele>
        <time>2022-02-05T06:57:24Z</time>
      </trkpt>
      <trkpt lat="37.324822" lon="-6.121116">
        <ele>60.48</ele>
        <time>2022-02-05T06:57:28Z</time>
      </trkpt>
      <trkpt lat="37.324724" lon="-6.121351">
        <ele>61.49</ele>
        <time>2022-02-05T06:57:33Z</time>
      </trkpt>
      <trkpt lat="37.324640" lon="-6.121592">
        <ele>62.38</ele>
        <time>2022-02-05T06:57:38Z</time>
      </trkpt>
      <trkpt lat="37.324579" lon="-6.121861">
        <ele>62.81</ele>
        <time>2022-02-05T06:57:43Z</time>
      </trkpt>
      <trkpt lat="37.324532" lon="-6.122085">
        <ele>62.33</ele>
        <time>2022-02-05T06:57:47Z</time>
      </trkpt>
      <trkpt lat="37.324483" lon="-6.122304">
        <ele>62.31</ele>
        <time>2022-02-05T06:57:51Z</time>
      </trkpt>
      <trkpt lat="37.324422" lon="-6.122570">
        <ele>61.79</ele>
        <time>2022-02-05T06:57:56Z</time>
      </trkpt>
      <trkpt lat="37.324368" lon="-6.122826">
        <ele>61.78</ele>
        <time>2022-02-05T06:58:01Z</time>
      </trkpt>
      <trkpt lat="37.324317" lon="-6.123044">
        <ele>61.84</ele>
        <time>2022-02-05T06:58:05Z</time>
      </trkpt>
      <trkpt lat="37.324236" lon="-6.123280">
        <ele>61.75</ele>
        <time>2022-02-05T06:58:09Z</time>
      </trkpt>
      <trkpt lat="37.324154" lon="-6.123508">
        <ele>61.50</ele>
        <time>2022-02-05T06:58:13Z</time>
      </trkpt>
      <trkpt lat="37.324080" lon="-6.123736">
        <ele>62.20</ele>
        <time>2022-02-05T06:58:17Z</time>
      </trkpt>
      <trkpt lat="37.324024" lon="-6.123984">
        <ele>61.86</ele>
        <time>2022-02-05T06:58:21Z</time>
      </trkpt>
      <trkpt lat="37.323971" lon="-6.124223">
        <ele>62.62</ele>
        <time>2022-02-05T06:58:25Z</time>
      </trkpt>
      <trkpt lat="37.323924" lon="-6.124462">
        <ele>62.26</ele>
        <time>2022-02-05T06:58:29Z</time>
      </trkpt>
      <trkpt lat="37.323870" lon="-6.124705">
        <ele>61.27</ele>
        <time>2022-02-05T06:58:33Z</time>
      </trkpt>
      <trkpt lat="37.323811" lon="-6.124943">
        <ele>60.41</ele>
        <time>2022-02-05T06:58:37Z</time>
      </trkpt>
      <trkpt lat="37.323752" lon="-6.125182">
        <ele>60.26</ele>
        <time>2022-02-05T06:58:41Z</time>
      </trkpt>
      <trkpt lat="37.323695" lon="-6.125411">
        <ele>60.36</ele>
        <time>2022-02-05T06:58:45Z</time>
      </trkpt>
      <trkpt lat="37.323616" lon="-6.125624">
        <ele>60.07</ele>
        <time>2022-02-05T06:58:49Z</time>
      </trkpt>
      <trkpt lat="37.323534" lon="-6.125832">
        <ele>60.26</ele>
        <time>2022-02-05T06:58:53Z</time>
      </trkpt>
      <trkpt lat="37.323430" lon="-6.126081">
        <ele>61.57</ele>
        <time>2022-02-05T06:58:58Z</time>
      </trkpt>
      <trkpt lat="37.323327" lon="-6.126323">
        <ele>61.94</ele>
        <time>2022-02-05T06:59:03Z</time>
      </trkpt>
      <trkpt lat="37.323226" lon="-6.126553">
        <ele>61.39</ele>
        <time>2022-02-05T06:59:08Z</time>
      </trkpt>
      <trkpt lat="37.323117" lon="-6.126739">
        <ele>61.69</ele>
        <time>2022-02-05T06:59:13Z</time>
      </trkpt>
      <trkpt lat="37.322986" lon="-6.126898">
        <ele>62.28</ele>
        <time>2022-02-05T06:59:19Z</time>
      </trkpt>
      <trkpt lat="37.322863" lon="-6.127091">
        <ele>62.26</ele>
        <time>2022-02-05T06:59:24Z</time>
      </trkpt>
      <trkpt lat="37.322724" lon="-6.127298">
        <ele>63.19</ele>
        <time>2022-02-05T06:59:29Z</time>
      </trkpt>
      <trkpt lat="37.322597" lon="-6.127503">
        <ele>63.29</ele>
        <time>2022-02-05T06:59:34Z</time>
      </trkpt>
      <trkpt lat="37.322479" lon="-6.127720">
        <ele>63.28</ele>
        <time>2022-02-05T06:59:39Z</time>
      </trkpt>
      <trkpt lat="37.322372" lon="-6.127943">
        <ele>63.01</ele>
        <time>2022-02-05T06:59:44Z</time>
      </trkpt>
      <trkpt lat="37.322270" lon="-6.128176">
        <ele>62.95</ele>
        <time>2022-02-05T06:59:49Z</time>
      </trkpt>
      <trkpt lat="37.322161" lon="-6.128410">
        <ele>63.28</ele>
        <time>2022-02-05T06:59:54Z</time>
      </trkpt>
      <trkpt lat="37.322040" lon="-6.128636">
        <ele>63.38</ele>
        <time>2022-02-05T06:59:59Z</time>
      </trkpt>
      <trkpt lat="37.321909" lon="-6.128855">
        <ele>63.64</ele>
        <time>2022-02-05T07:00:04Z</time>
      </trkpt>
      <trkpt lat="37.321802" lon="-6.129038">
        <ele>63.63</ele>
        <time>2022-02-05T07:00:08Z</time>
      </trkpt>
      <trkpt lat="37.321690" lon="-6.129227">
        <ele>63.91</ele>
        <time>2022-02-05T07:00:12Z</time>
      </trkpt>
      <trkpt lat="37.321591" lon="-6.129427">
        <ele>63.60</ele>
        <time>2022-02-05T07:00:16Z</time>
      </trkpt>
      <trkpt lat="37.321490" lon="-6.129623">
        <ele>64.91</ele>
        <time>2022-02-05T07:00:20Z</time>
      </trkpt>
      <trkpt lat="37.321367" lon="-6.129803">
        <ele>64.73</ele>
        <time>2022-02-05T07:00:24Z</time>
      </trkpt>
      <trkpt lat="37.321258" lon="-6.129984">
        <ele>64.79</ele>
        <time>2022-02-05T07:00:28Z</time>
      </trkpt>
      <trkpt lat="37.321142" lon="-6.130183">
        <ele>64.96</ele>
        <time>2022-02-05T07:00:32Z</time>
      </trkpt>
      <trkpt lat="37.321045" lon="-6.130388">
        <ele>65.43</ele>
        <time>2022-02-05T07:00:36Z</time>
      </trkpt>
      <trkpt lat="37.320947" lon="-6.130594">
        <ele>66.65</ele>
        <time>2022-02-05T07:00:40Z</time>
      </trkpt>
      <trkpt lat="37.320845" lon="-6.130792">
        <ele>67.04</ele>
        <time>2022-02-05T07:00:44Z</time>
      </trkpt>
      <trkpt lat="37.320759" lon="-6.130991">
        <ele>67.68</ele>
        <time>2022-02-05T07:00:48Z</time>
      </trkpt>
      <trkpt lat="37.320676" lon="-6.131211">
        <ele>66.77</ele>
        <time>2022-02-05T07:00:52Z</time>
      </trkpt>
      <trkpt lat="37.320594" lon="-6.131415">
        <ele>67.30</ele>
        <time>2022-02-05T07:00:56Z</time>
      </trkpt>
      <trkpt lat="37.320481" lon="-6.131604">
        <ele>67.11</ele>
        <time>2022-02-05T07:01:00Z</time>
      </trkpt>
      <trkpt lat="37.320353" lon="-6.131835">
        <ele>66.76</ele>
        <time>2022-02-05T07:01:05Z</time>
      </trkpt>
      <trkpt lat="37.320264" lon="-6.132036">
        <ele>66.41</ele>
        <time>2022-02-05T07:01:09Z</time>
      </trkpt>
      <trkpt lat="37.320150" lon="-6.132223">
        <ele>65.83</ele>
        <time>2022-02-05T07:01:13Z</time>
      </trkpt>
      <trkpt lat="37.320012" lon="-6.132416">
        <ele>66.02</ele>
        <time>2022-02-05T07:01:17Z</time>
      </trkpt>
      <trkpt lat="37.319853" lon="-6.132579">
        <ele>66.21</ele>
        <time>2022-02-05T07:01:21Z</time>
      </trkpt>
      <trkpt lat="37.319678" lon="-6.132686">
        <ele>66.97</ele>
        <time>2022-02-05T07:01:25Z</time>
      </trkpt>
      <trkpt lat="37.319493" lon="-6.132743">
        <ele>67.36</ele>
        <time>2022-02-05T07:01:29Z</time>
      </trkpt>
      <trkpt lat="37.319297" lon="-6.132835">
        <ele>67.61</ele>
        <time>2022-02-05T07:01:34Z</time>
      </trkpt>
      <trkpt lat="37.319129" lon="-6.132921">
        <ele>67.23</ele>
        <time>2022-02-05T07:01:38Z</time>
      </trkpt>
      <trkpt lat="37.318930" lon="-6.133060">
        <ele>67.60</ele>
        <time>2022-02-05T07:01:43Z</time>
      </trkpt>
      <trkpt lat="37.318741" lon="-6.133193">
        <ele>67.13</ele>
        <time>2022-02-05T07:01:47Z</time>
      </trkpt>
      <trkpt lat="37.318569" lon="-6.133341">
        <ele>67.16</ele>
        <time>2022-02-05T07:01:51Z</time>
      </trkpt>
      <trkpt lat="37.318409" lon="-6.133507">
        <ele>66.83</ele>
        <time>2022-02-05T07:01:55Z</time>
      </trkpt>
      <trkpt lat="37.318270" lon="-6.133685">
        <ele>66.93</ele>
        <time>2022-02-05T07:01:59Z</time>
      </trkpt>
      <trkpt lat="37.318139" lon="-6.133883">
        <ele>66.23</ele>
        <time>2022-02-05T07:02:03Z</time>
      </trkpt>
      <trkpt lat="37.317992" lon="-6.134063">
        <ele>65.67</ele>
        <time>2022-02-05T07:02:07Z</time>
      </trkpt>
      <trkpt lat="37.317841" lon="-6.134211">
        <ele>66.48</ele>
        <time>2022-02-05T07:02:11Z</time>
      </trkpt>
      <trkpt lat="37.317669" lon="-6.134342">
        <ele>66.36</ele>
        <time>2022-02-05T07:02:15Z</time>
      </trkpt>
      <trkpt lat="37.317491" lon="-6.134451">
        <ele>66.26</ele>
        <time>2022-02-05T07:02:19Z</time>
      </trkpt>
      <trkpt lat="37.317300" lon="-6.134543">
        <ele>65.68</ele>
        <time>2022-02-05T07:02:23Z</time>
      </trkpt>
      <trkpt lat="37.317093" lon="-6.134637">
        <ele>64.82</ele>
        <time>2022-02-05T07:02:27Z</time>
      </trkpt>
      <trkpt lat="37.316899" lon="-6.134773">
        <ele>63.97</ele>
        <time>2022-02-05T07:02:31Z</time>
      </trkpt>
      <trkpt lat="37.316707" lon="-6.134933">
        <ele>63.99</ele>
        <time>2022-02-05T07:02:35Z</time>
      </trkpt>
      <trkpt lat="37.316545" lon="-6.135124">
        <ele>62.77</ele>
        <time>2022-02-05T07:02:39Z</time>
      </trkpt>
      <trkpt lat="37.316391" lon="-6.135346">
        <ele>62.18</ele>
        <time>2022-02-05T07:02:43Z</time>
      </trkpt>
      <trkpt lat="37.316233" lon="-6.135563">
        <ele>62.30</ele>
        <time>2022-02-05T07:02:47Z</time>
      </trkpt>
      <trkpt lat="37.316077" lon="-6.135780">
        <ele>62.76</ele>
        <time>2022-02-05T07:02:51Z</time>
      </trkpt>
      <trkpt lat="37.315923" lon="-6.135986">
        <ele>62.85</ele>
        <time>2022-02-05T07:02:55Z</time>
      </trkpt>
      <trkpt lat="37.315758" lon="-6.136175">
        <ele>62.63</ele>
        <time>2022-02-05T07:02:59Z</time>
      </trkpt>
      <trkpt lat="37.315577" lon="-6.136351">
        <ele>62.51</ele>
        <time>2022-02-05T07:03:03Z</time>
      </trkpt>
      <trkpt lat="37.315400" lon="-6.136520">
        <ele>62.85</ele>
        <time>2022-02-05T07:03:07Z</time>
      </trkpt>
      <trkpt lat="37.315244" lon="-6.136690">
        <ele>63.28</ele>
        <time>2022-02-05T07:03:11Z</time>
      </trkpt>
      <trkpt lat="37.315088" lon="-6.136869">
        <ele>63.23</ele>
        <time>2022-02-05T07:03:15Z</time>
      </trkpt>
      <trkpt lat="37.314941" lon="-6.137057">
        <ele>63.46</ele>
        <time>2022-02-05T07:03:19Z</time>
      </trkpt>
      <trkpt lat="37.314812" lon="-6.137261">
        <ele>62.93</ele>
        <time>2022-02-05T07:03:23Z</time>
      </trkpt>
      <trkpt lat="37.314674" lon="-6.137448">
        <ele>63.22</ele>
        <time>2022-02-05T07:03:27Z</time>
      </trkpt>
      <trkpt lat="37.314522" lon="-6.137636">
        <ele>63.45</ele>
        <time>2022-02-05T07:03:31Z</time>
      </trkpt>
      <trkpt lat="37.314371" lon="-6.137842">
        <ele>63.21</ele>
        <time>2022-02-05T07:03:35Z</time>
      </trkpt>
      <trkpt lat="37.314218" lon="-6.138053">
        <ele>62.89</ele>
        <time>2022-02-05T07:03:39Z</time>
      </trkpt>
      <trkpt lat="37.314074" lon="-6.138277">
        <ele>62.93</ele>
        <time>2022-02-05T07:03:43Z</time>
      </trkpt>
      <trkpt lat="37.313927" lon="-6.138486">
        <ele>62.58</ele>
        <time>2022-02-05T07:03:47Z</time>
      </trkpt>
      <trkpt lat="37.313761" lon="-6.138673">
        <ele>62.32</ele>
        <time>2022-02-05T07:03:51Z</time>
      </trkpt>
      <trkpt lat="37.313580" lon="-6.138863">
        <ele>61.82</ele>
        <time>2022-02-05T07:03:55Z</time>
      </trkpt>
      <trkpt lat="37.313438" lon="-6.139015">
        <ele>61.57</ele>
        <time>2022-02-05T07:03:58Z</time>
      </trkpt>
      <trkpt lat="37.313298" lon="-6.139170">
        <ele>61.15</ele>
        <time>2022-02-05T07:04:01Z</time>
      </trkpt>
      <trkpt lat="37.313158" lon="-6.139320">
        <ele>61.02</ele>
        <time>2022-02-05T07:04:04Z</time>
      </trkpt>
      <trkpt lat="37.313017" lon="-6.139481">
        <ele>60.66</ele>
        <time>2022-02-05T07:04:07Z</time>
      </trkpt>
      <trkpt lat="37.312870" lon="-6.139641">
        <ele>60.15</ele>
        <time>2022-02-05T07:04:10Z</time>
      </trkpt>
      <trkpt lat="37.312726" lon="-6.139799">
        <ele>60.20</ele>
        <time>2022-02-05T07:04:13Z</time>
      </trkpt>
      <trkpt lat="37.312584" lon="-6.139959">
        <ele>59.65</ele>
        <time>2022-02-05T07:04:16Z</time>
      </trkpt>
      <trkpt lat="37.312444" lon="-6.140114">
        <ele>59.18</ele>
        <time>2022-02-05T07:04:19Z</time>
      </trkpt>
      <trkpt lat="37.312296" lon="-6.140265">
        <ele>59.40</ele>
        <time>2022-02-05T07:04:22Z</time>
      </trkpt>
      <trkpt lat="37.312160" lon="-6.140423">
        <ele>59.75</ele>
        <time>2022-02-05T07:04:25Z</time>
      </trkpt>
      <trkpt lat="37.312003" lon="-6.140641">
        <ele>59.54</ele>
        <time>2022-02-05T07:04:29Z</time>
      </trkpt>
      <trkpt lat="37.311872" lon="-6.140800">
        <ele>58.98</ele>
        <time>2022-02-05T07:04:32Z</time>
      </trkpt>
      <trkpt lat="37.311734" lon="-6.141028">
        <ele>59.66</ele>
        <time>2022-02-05T07:04:36Z</time>
      </trkpt>
      <trkpt lat="37.311620" lon="-6.141267">
        <ele>59.56</ele>
        <time>2022-02-05T07:04:40Z</time>
      </trkpt>
      <trkpt lat="37.311507" lon="-6.141497">
        <ele>59.69</ele>
        <time>2022-02-05T07:04:44Z</time>
      </trkpt>
      <trkpt lat="37.311396" lon="-6.141722">
        <ele>60.22</ele>
        <time>2022-02-05T07:04:48Z</time>
      </trkpt>
      <trkpt lat="37.311284" lon="-6.141934">
        <ele>60.56</ele>
        <time>2022-02-05T07:04:52Z</time>
      </trkpt>
      <trkpt lat="37.311177" lon="-6.142135">
        <ele>60.89</ele>
        <time>2022-02-05T07:04:56Z</time>
      </trkpt>
      <trkpt lat="37.311075" lon="-6.142343">
        <ele>61.37</ele>
        <time>2022-02-05T07:05:00Z</time>
      </trkpt>
      <trkpt lat="37.310972" lon="-6.142572">
        <ele>61.40</ele>
        <time>2022-02-05T07:05:04Z</time>
      </trkpt>
      <trkpt lat="37.310863" lon="-6.142787">
        <ele>61.02</ele>
        <time>2022-02-05T07:05:08Z</time>
      </trkpt>
      <trkpt lat="37.310747" lon="-6.143005">
        <ele>60.43</ele>
        <time>2022-02-05T07:05:12Z</time>
      </trkpt>
      <trkpt lat="37.310632" lon="-6.143226">
        <ele>60.14</ele>
        <time>2022-02-05T07:05:16Z</time>
      </trkpt>
      <trkpt lat="37.310506" lon="-6.143456">
        <ele>60.07</ele>
        <time>2022-02-05T07:05:20Z</time>
      </trkpt>
      <trkpt lat="37.310400" lon="-6.143694">
        <ele>59.84</ele>
        <time>2022-02-05T07:05:24Z</time>
      </trkpt>
      <trkpt lat="37.310317" lon="-6.143941">
        <ele>59.59</ele>
        <time>2022-02-05T07:05:28Z</time>
      </trkpt>
      <trkpt lat="37.310263" lon="-6.144176">
        <ele>59.39</ele>
        <time>2022-02-05T07:05:32Z</time>
      </trkpt>
      <trkpt lat="37.310195" lon="-6.144396">
        <ele>58.75</ele>
        <time>2022-02-05T07:05:36Z</time>
      </trkpt>
      <trkpt lat="37.310091" lon="-6.144629">
        <ele>57.95</ele>
        <time>2022-02-05T07:05:40Z</time>
      </trkpt>
      <trkpt lat="37.309974" lon="-6.144864">
        <ele>57.35</ele>
        <time>2022-02-05T07:05:44Z</time>
      </trkpt>
      <trkpt lat="37.309838" lon="-6.145088">
        <ele>56.57</ele>
        <time>2022-02-05T07:05:48Z</time>
      </trkpt>
      <trkpt lat="37.309705" lon="-6.145320">
        <ele>56.23</ele>
        <time>2022-02-05T07:05:52Z</time>
      </trkpt>
      <trkpt lat="37.309601" lon="-6.145507">
        <ele>56.21</ele>
        <time>2022-02-05T07:05:55Z</time>
      </trkpt>
      <trkpt lat="37.309463" lon="-6.145749">
        <ele>56.31</ele>
        <time>2022-02-05T07:05:59Z</time>
      </trkpt>
      <trkpt lat="37.309367" lon="-6.145941">
        <ele>56.41</ele>
        <time>2022-02-05T07:06:02Z</time>
      </trkpt>
      <trkpt lat="37.309266" lon="-6.146128">
        <ele>56.83</ele>
        <time>2022-02-05T07:06:05Z</time>
      </trkpt>
      <trkpt lat="37.309132" lon="-6.146357">
        <ele>57.19</ele>
        <time>2022-02-05T07:06:09Z</time>
      </trkpt>
      <trkpt lat="37.308996" lon="-6.146576">
        <ele>57.79</ele>
        <time>2022-02-05T07:06:13Z</time>
      </trkpt>
      <trkpt lat="37.308864" lon="-6.146776">
        <ele>58.87</ele>
        <time>2022-02-05T07:06:17Z</time>
      </trkpt>
      <trkpt lat="37.308742" lon="-6.146956">
        <ele>59.57</ele>
        <time>2022-02-05T07:06:21Z</time>
      </trkpt>
      <trkpt lat="37.308619" lon="-6.147170">
        <ele>60.15</ele>
        <time>2022-02-05T07:06:26Z</time>
      </trkpt>
      <trkpt lat="37.308501" lon="-6.147353">
        <ele>59.54</ele>
        <time>2022-02-05T07:06:30Z</time>
      </trkpt>
      <trkpt lat="37.308369" lon="-6.147536">
        <ele>58.96</ele>
        <time>2022-02-05T07:06:34Z</time>
      </trkpt>
      <trkpt lat="37.308228" lon="-6.147716">
        <ele>58.81</ele>
        <time>2022-02-05T07:06:38Z</time>
      </trkpt>
      <trkpt lat="37.308074" lon="-6.147879">
        <ele>59.76</ele>
        <time>2022-02-05T07:06:42Z</time>
      </trkpt>
      <trkpt lat="37.307920" lon="-6.148025">
        <ele>60.70</ele>
        <time>2022-02-05T07:06:46Z</time>
      </trkpt>
      <trkpt lat="37.307764" lon="-6.148178">
        <ele>60.98</ele>
        <time>2022-02-05T07:06:50Z</time>
      </trkpt>
      <trkpt lat="37.307603" lon="-6.148335">
        <ele>60.51</ele>
        <time>2022-02-05T07:06:54Z</time>
      </trkpt>
      <trkpt lat="37.307424" lon="-6.148493">
        <ele>59.16</ele>
        <time>2022-02-05T07:06:58Z</time>
      </trkpt>
      <trkpt lat="37.307230" lon="-6.148644">
        <ele>58.58</ele>
        <time>2022-02-05T07:07:02Z</time>
      </trkpt>
      <trkpt lat="37.307071" lon="-6.148754">
        <ele>57.75</ele>
        <time>2022-02-05T07:07:05Z</time>
      </trkpt>
      <trkpt lat="37.306863" lon="-6.148895">
        <ele>57.27</ele>
        <time>2022-02-05T07:07:09Z</time>
      </trkpt>
      <trkpt lat="37.306698" lon="-6.149004">
        <ele>56.73</ele>
        <time>2022-02-05T07:07:12Z</time>
      </trkpt>
      <trkpt lat="37.306527" lon="-6.149104">
        <ele>56.02</ele>
        <time>2022-02-05T07:07:15Z</time>
      </trkpt>
      <trkpt lat="37.306346" lon="-6.149220">
        <ele>54.62</ele>
        <time>2022-02-05T07:07:18Z</time>
      </trkpt>
      <trkpt lat="37.306149" lon="-6.149324">
        <ele>52.65</ele>
        <time>2022-02-05T07:07:21Z</time>
      </trkpt>
      <trkpt lat="37.305953" lon="-6.149434">
        <ele>50.74</ele>
        <time>2022-02-05T07:07:24Z</time>
      </trkpt>
      <trkpt lat="37.305764" lon="-6.149528">
        <ele>49.68</ele>
        <time>2022-02-05T07:07:27Z</time>
      </trkpt>
      <trkpt lat="37.305573" lon="-6.149632">
        <ele>49.58</ele>
        <time>2022-02-05T07:07:30Z</time>
      </trkpt>
      <trkpt lat="37.305378" lon="-6.149735">
        <ele>49.25</ele>
        <time>2022-02-05T07:07:33Z</time>
      </trkpt>
      <trkpt lat="37.305181" lon="-6.149832">
        <ele>49.12</ele>
        <time>2022-02-05T07:07:36Z</time>
      </trkpt>
      <trkpt lat="37.304989" lon="-6.149911">
        <ele>49.59</ele>
        <time>2022-02-05T07:07:39Z</time>
      </trkpt>
      <trkpt lat="37.304815" lon="-6.149994">
        <ele>49.68</ele>
        <time>2022-02-05T07:07:42Z</time>
      </trkpt>
      <trkpt lat="37.304650" lon="-6.150099">
        <ele>49.15</ele>
        <time>2022-02-05T07:07:45Z</time>
      </trkpt>
      <trkpt lat="37.304495" lon="-6.150214">
        <ele>48.50</ele>
        <time>2022-02-05T07:07:48Z</time>
      </trkpt>
      <trkpt lat="37.304285" lon="-6.150346">
        <ele>47.79</ele>
        <time>2022-02-05T07:07:52Z</time>
      </trkpt>
      <trkpt lat="37.304093" lon="-6.150480">
        <ele>47.99</ele>
        <time>2022-02-05T07:07:56Z</time>
      </trkpt>
      <trkpt lat="37.303940" lon="-6.150679">
        <ele>47.58</ele>
        <time>2022-02-05T07:08:00Z</time>
      </trkpt>
      <trkpt lat="37.303857" lon="-6.150946">
        <ele>47.93</ele>
        <time>2022-02-05T07:08:04Z</time>
      </trkpt>
      <trkpt lat="37.303807" lon="-6.151217">
        <ele>47.84</ele>
        <time>2022-02-05T07:08:08Z</time>
      </trkpt>
      <trkpt lat="37.303776" lon="-6.151508">
        <ele>46.03</ele>
        <time>2022-02-05T07:08:12Z</time>
      </trkpt>
      <trkpt lat="37.303776" lon="-6.151789">
        <ele>43.97</ele>
        <time>2022-02-05T07:08:16Z</time>
      </trkpt>
      <trkpt lat="37.303815" lon="-6.152052">
        <ele>42.80</ele>
        <time>2022-02-05T07:08:20Z</time>
      </trkpt>
      <trkpt lat="37.303907" lon="-6.152327">
        <ele>41.22</ele>
        <time>2022-02-05T07:08:24Z</time>
      </trkpt>
      <trkpt lat="37.303911" lon="-6.152561">
        <ele>41.51</ele>
        <time>2022-02-05T07:08:28Z</time>
      </trkpt>
      <trkpt lat="37.303854" lon="-6.152700">
        <ele>40.18</ele>
        <time>2022-02-05T07:08:50.01Z</time>
      </trkpt>
      <trkpt lat="37.303844" lon="-6.152723">
        <ele>39.96</ele>
        <time>2022-02-05T07:08:53.73Z</time>
      </trkpt>
      <trkpt lat="37.303820" lon="-6.152782">
        <ele>39.40</ele>
        <time>2022-02-05T07:09:03Z</time>
      </trkpt>
      <trkpt lat="37.303823" lon="-6.152771">
        <ele>38.24</ele>
        <time>2022-02-05T07:09:38Z</time>
      </trkpt>
      <trkpt lat="37.303826" lon="-6.152779">
        <ele>38.71</ele>
        <time>2022-02-05T07:10:18Z</time>
      </trkpt>
      <trkpt lat="37.303817" lon="-6.152819">
        <ele>38.48</ele>
        <time>2022-02-05T07:10:21.22Z</time>
      </trkpt>
      <trkpt lat="37.303811" lon="-6.152844">
        <ele>38.33</ele>
        <time>2022-02-05T07:10:23.29Z</time>
      </trkpt>
      <trkpt lat="37.303797" lon="-6.152902">
        <ele>37.98</ele>
        <time>2022-02-05T07:10:27.98Z</time>
      </trkpt>
      <trkpt lat="37.303763" lon="-6.153050">
        <ele>37.11</ele>
        <time>2022-02-05T07:10:40Z</time>
      </trkpt>
      <trkpt lat="37.303748" lon="-6.153056">
        <ele>35.93</ele>
        <time>2022-02-05T07:11:25Z</time>
      </trkpt>
      <trkpt lat="37.303737" lon="-6.153087">
        <ele>35.12</ele>
        <time>2022-02-05T07:12:37Z</time>
      </trkpt>
      <trkpt lat="37.303707" lon="-6.153205">
        <ele>37.19</ele>
        <time>2022-02-05T07:13:10.50Z</time>
      </trkpt>
      <trkpt lat="37.303692" lon="-6.153263">
        <ele>38.20</ele>
        <time>2022-02-05T07:13:26.98Z</time>
      </trkpt>
      <trkpt lat="37.303689" lon="-6.153274">
        <ele>38.38</ele>
        <time>2022-02-05T07:13:29.89Z</time>
      </trkpt>
      <trkpt lat="37.303682" lon="-6.153302">
        <ele>38.88</ele>
        <time>2022-02-05T07:13:38Z</time>
      </trkpt>
      <trkpt lat="37.303678" lon="-6.153316">
        <ele>39.51</ele>
        <time>2022-02-05T07:14:22Z</time>
      </trkpt>
      <trkpt lat="37.303688" lon="-6.153324">
        <ele>39.55</ele>
        <time>2022-02-05T07:14:22.58Z</time>
      </trkpt>
      <trkpt lat="37.303710" lon="-6.153340">
        <ele>39.63</ele>
        <time>2022-02-05T07:14:23.81Z</time>
      </trkpt>
      <trkpt lat="37.303715" lon="-6.153344">
        <ele>39.64</ele>
        <time>2022-02-05T07:14:24.09Z</time>
      </trkpt>
      <trkpt lat="37.303848" lon="-6.153461">
        <ele>40.40</ele>
        <time>2022-02-05T07:14:36Z</time>
      </trkpt>
      <trkpt lat="37.303974" lon="-6.153638">
        <ele>40.28</ele>
        <time>2022-02-05T07:14:44Z</time>
      </trkpt>
      <trkpt lat="37.303991" lon="-6.153871">
        <ele>41.10</ele>
        <time>2022-02-05T07:14:52Z</time>
      </trkpt>
      <trkpt lat="37.304047" lon="-6.154096">
        <ele>41.88</ele>
        <time>2022-02-05T07:14:59Z</time>
      </trkpt>
      <trkpt lat="37.304113" lon="-6.154329">
        <ele>42.37</ele>
        <time>2022-02-05T07:15:06Z</time>
      </trkpt>
      <trkpt lat="37.304180" lon="-6.154543">
        <ele>42.88</ele>
        <time>2022-02-05T07:15:12Z</time>
      </trkpt>
      <trkpt lat="37.304262" lon="-6.154776">
        <ele>43.46</ele>
        <time>2022-02-05T07:15:18Z</time>
      </trkpt>
      <trkpt lat="37.304339" lon="-6.155005">
        <ele>43.73</ele>
        <time>2022-02-05T07:15:24Z</time>
      </trkpt>
      <trkpt lat="37.304405" lon="-6.155252">
        <ele>44.80</ele>
        <time>2022-02-05T07:15:30Z</time>
      </trkpt>
      <trkpt lat="37.304425" lon="-6.155478">
        <ele>45.37</ele>
        <time>2022-02-05T07:15:35Z</time>
      </trkpt>
      <trkpt lat="37.304413" lon="-6.155716">
        <ele>45.60</ele>
        <time>2022-02-05T07:15:40Z</time>
      </trkpt>
      <trkpt lat="37.304360" lon="-6.155941">
        <ele>45.87</ele>
        <time>2022-02-05T07:15:45Z</time>
      </trkpt>
      <trkpt lat="37.304259" lon="-6.156153">
        <ele>46.54</ele>
        <time>2022-02-05T07:15:50Z</time>
      </trkpt>
      <trkpt lat="37.304145" lon="-6.156349">
        <ele>46.78</ele>
        <time>2022-02-05T07:15:55Z</time>
      </trkpt>
      <trkpt lat="37.304039" lon="-6.156576">
        <ele>47.21</ele>
        <time>2022-02-05T07:16:00Z</time>
      </trkpt>
      <trkpt lat="37.303886" lon="-6.156771">
        <ele>47.54</ele>
        <time>2022-02-05T07:16:05Z</time>
      </trkpt>
      <trkpt lat="37.303727" lon="-6.156966">
        <ele>47.33</ele>
        <time>2022-02-05T07:16:10Z</time>
      </trkpt>
      <trkpt lat="37.303561" lon="-6.157094">
        <ele>48.04</ele>
        <time>2022-02-05T07:16:14Z</time>
      </trkpt>
      <trkpt lat="37.303398" lon="-6.157223">
        <ele>48.21</ele>
        <time>2022-02-05T07:16:18Z</time>
      </trkpt>
      <trkpt lat="37.303248" lon="-6.157403">
        <ele>48.49</ele>
        <time>2022-02-05T07:16:22Z</time>
      </trkpt>
      <trkpt lat="37.303085" lon="-6.157546">
        <ele>48.47</ele>
        <time>2022-02-05T07:16:26Z</time>
      </trkpt>
      <trkpt lat="37.302926" lon="-6.157685">
        <ele>48.67</ele>
        <time>2022-02-05T07:16:30Z</time>
      </trkpt>
      <trkpt lat="37.302772" lon="-6.157831">
        <ele>49.22</ele>
        <time>2022-02-05T07:16:34Z</time>
      </trkpt>
      <trkpt lat="37.302613" lon="-6.157981">
        <ele>49.32</ele>
        <time>2022-02-05T07:16:38Z</time>
      </trkpt>
      <trkpt lat="37.302462" lon="-6.158140">
        <ele>48.41</ele>
        <time>2022-02-05T07:16:42Z</time>
      </trkpt>
      <trkpt lat="37.302316" lon="-6.158307">
        <ele>47.87</ele>
        <time>2022-02-05T07:16:46Z</time>
      </trkpt>
      <trkpt lat="37.302166" lon="-6.158499">
        <ele>47.07</ele>
        <time>2022-02-05T07:16:50Z</time>
      </trkpt>
      <trkpt lat="37.302022" lon="-6.158687">
        <ele>46.00</ele>
        <time>2022-02-05T07:16:54Z</time>
      </trkpt>
      <trkpt lat="37.301881" lon="-6.158872">
        <ele>46.15</ele>
        <time>2022-02-05T07:16:58Z</time>
      </trkpt>
      <trkpt lat="37.301744" lon="-6.159044">
        <ele>46.14</ele>
        <time>2022-02-05T07:17:02Z</time>
      </trkpt>
      <trkpt lat="37.301612" lon="-6.159222">
        <ele>46.30</ele>
        <time>2022-02-05T07:17:06Z</time>
      </trkpt>
      <trkpt lat="37.301440" lon="-6.159340">
        <ele>46.80</ele>
        <time>2022-02-05T07:17:10Z</time>
      </trkpt>
      <trkpt lat="37.301290" lon="-6.159470">
        <ele>47.37</ele>
        <time>2022-02-05T07:17:14Z</time>
      </trkpt>
      <trkpt lat="37.301115" lon="-6.159606">
        <ele>48.26</ele>
        <time>2022-02-05T07:17:19Z</time>
      </trkpt>
      <trkpt lat="37.300942" lon="-6.159762">
        <ele>49.27</ele>
        <time>2022-02-05T07:17:24Z</time>
      </trkpt>
      <trkpt lat="37.300782" lon="-6.159934">
        <ele>49.42</ele>
        <time>2022-02-05T07:17:29Z</time>
      </trkpt>
      <trkpt lat="37.300619" lon="-6.160124">
        <ele>49.26</ele>
        <time>2022-02-05T07:17:34Z</time>
      </trkpt>
      <trkpt lat="37.300481" lon="-6.160287">
        <ele>49.12</ele>
        <time>2022-02-05T07:17:38Z</time>
      </trkpt>
      <trkpt lat="37.300324" lon="-6.160437">
        <ele>49.23</ele>
        <time>2022-02-05T07:17:42Z</time>
      </trkpt>
      <trkpt lat="37.300165" lon="-6.160575">
        <ele>49.73</ele>
        <time>2022-02-05T07:17:46Z</time>
      </trkpt>
      <trkpt lat="37.300013" lon="-6.160711">
        <ele>50.57</ele>
        <time>2022-02-05T07:17:50Z</time>
      </trkpt>
      <trkpt lat="37.299862" lon="-6.160843">
        <ele>51.06</ele>
        <time>2022-02-05T07:17:54Z</time>
      </trkpt>
      <trkpt lat="37.299711" lon="-6.160969">
        <ele>51.10</ele>
        <time>2022-02-05T07:17:58Z</time>
      </trkpt>
      <trkpt lat="37.299562" lon="-6.161114">
        <ele>50.58</ele>
        <time>2022-02-05T07:18:02Z</time>
      </trkpt>
      <trkpt lat="37.299417" lon="-6.161271">
        <ele>50.04</ele>
        <time>2022-02-05T07:18:06Z</time>
      </trkpt>
      <trkpt lat="37.299267" lon="-6.161440">
        <ele>49.15</ele>
        <time>2022-02-05T07:18:10Z</time>
      </trkpt>
      <trkpt lat="37.299124" lon="-6.161631">
        <ele>48.16</ele>
        <time>2022-02-05T07:18:14Z</time>
      </trkpt>
      <trkpt lat="37.298980" lon="-6.161846">
        <ele>46.93</ele>
        <time>2022-02-05T07:18:18Z</time>
      </trkpt>
      <trkpt lat="37.298832" lon="-6.162075">
        <ele>46.37</ele>
        <time>2022-02-05T07:18:22Z</time>
      </trkpt>
      <trkpt lat="37.298692" lon="-6.162304">
        <ele>45.98</ele>
        <time>2022-02-05T07:18:26Z</time>
      </trkpt>
      <trkpt lat="37.298559" lon="-6.162532">
        <ele>45.56</ele>
        <time>2022-02-05T07:18:30Z</time>
      </trkpt>
      <trkpt lat="37.298423" lon="-6.162760">
        <ele>45.11</ele>
        <time>2022-02-05T07:18:34Z</time>
      </trkpt>
      <trkpt lat="37.298329" lon="-6.163005">
        <ele>45.63</ele>
        <time>2022-02-05T07:18:38Z</time>
      </trkpt>
      <trkpt lat="37.298258" lon="-6.163255">
        <ele>45.46</ele>
        <time>2022-02-05T07:18:42Z</time>
      </trkpt>
      <trkpt lat="37.298179" lon="-6.163495">
        <ele>45.63</ele>
        <time>2022-02-05T07:18:46Z</time>
      </trkpt>
      <trkpt lat="37.298094" lon="-6.163727">
        <ele>45.69</ele>
        <time>2022-02-05T07:18:50Z</time>
      </trkpt>
      <trkpt lat="37.298033" lon="-6.163952">
        <ele>46.33</ele>
        <time>2022-02-05T07:18:54Z</time>
      </trkpt>
      <trkpt lat="37.297986" lon="-6.164180">
        <ele>46.60</ele>
        <time>2022-02-05T07:18:58Z</time>
      </trkpt>
      <trkpt lat="37.297973" lon="-6.164420">
        <ele>47.04</ele>
        <time>2022-02-05T07:19:02Z</time>
      </trkpt>
      <trkpt lat="37.298011" lon="-6.164655">
        <ele>47.36</ele>
        <time>2022-02-05T07:19:06Z</time>
      </trkpt>
      <trkpt lat="37.298005" lon="-6.164887">
        <ele>47.26</ele>
        <time>2022-02-05T07:19:10Z</time>
      </trkpt>
      <trkpt lat="37.297975" lon="-6.165115">
        <ele>47.19</ele>
        <time>2022-02-05T07:19:14Z</time>
      </trkpt>
      <trkpt lat="37.297880" lon="-6.165322">
        <ele>47.52</ele>
        <time>2022-02-05T07:19:18Z</time>
      </trkpt>
      <trkpt lat="37.297802" lon="-6.165542">
        <ele>47.66</ele>
        <time>2022-02-05T07:19:22Z</time>
      </trkpt>
      <trkpt lat="37.297727" lon="-6.165804">
        <ele>47.56</ele>
        <time>2022-02-05T07:19:27Z</time>
      </trkpt>
      <trkpt lat="37.297655" lon="-6.166013">
        <ele>47.37</ele>
        <time>2022-02-05T07:19:31Z</time>
      </trkpt>
      <trkpt lat="37.297583" lon="-6.166249">
        <ele>47.52</ele>
        <time>2022-02-05T07:19:35Z</time>
      </trkpt>
      <trkpt lat="37.297492" lon="-6.166483">
        <ele>47.82</ele>
        <time>2022-02-05T07:19:39Z</time>
      </trkpt>
      <trkpt lat="37.297404" lon="-6.166710">
        <ele>48.11</ele>
        <time>2022-02-05T07:19:43Z</time>
      </trkpt>
      <trkpt lat="37.297309" lon="-6.166921">
        <ele>47.75</ele>
        <time>2022-02-05T07:19:47Z</time>
      </trkpt>
      <trkpt lat="37.297202" lon="-6.167114">
        <ele>47.38</ele>
        <time>2022-02-05T07:19:51Z</time>
      </trkpt>
      <trkpt lat="37.297106" lon="-6.167361">
        <ele>46.80</ele>
        <time>2022-02-05T07:19:55Z</time>
      </trkpt>
      <trkpt lat="37.297076" lon="-6.167612">
        <ele>46.66</ele>
        <time>2022-02-05T07:19:59Z</time>
      </trkpt>
      <trkpt lat="37.296993" lon="-6.167850">
        <ele>46.48</ele>
        <time>2022-02-05T07:20:03Z</time>
      </trkpt>
      <trkpt lat="37.296887" lon="-6.168084">
        <ele>45.62</ele>
        <time>2022-02-05T07:20:07Z</time>
      </trkpt>
      <trkpt lat="37.296766" lon="-6.168310">
        <ele>45.49</ele>
        <time>2022-02-05T07:20:11Z</time>
      </trkpt>
      <trkpt lat="37.296651" lon="-6.168556">
        <ele>45.19</ele>
        <time>2022-02-05T07:20:15Z</time>
      </trkpt>
      <trkpt lat="37.296541" lon="-6.168772">
        <ele>45.44</ele>
        <time>2022-02-05T07:20:19Z</time>
      </trkpt>
      <trkpt lat="37.296456" lon="-6.168978">
        <ele>45.93</ele>
        <time>2022-02-05T07:20:23Z</time>
      </trkpt>
      <trkpt lat="37.296350" lon="-6.169168">
        <ele>46.28</ele>
        <time>2022-02-05T07:20:27Z</time>
      </trkpt>
      <trkpt lat="37.296242" lon="-6.169366">
        <ele>46.88</ele>
        <time>2022-02-05T07:20:31Z</time>
      </trkpt>
      <trkpt lat="37.296112" lon="-6.169551">
        <ele>46.90</ele>
        <time>2022-02-05T07:20:35Z</time>
      </trkpt>
      <trkpt lat="37.296001" lon="-6.169743">
        <ele>47.17</ele>
        <time>2022-02-05T07:20:39Z</time>
      </trkpt>
      <trkpt lat="37.295890" lon="-6.169928">
        <ele>47.54</ele>
        <time>2022-02-05T07:20:43Z</time>
      </trkpt>
      <trkpt lat="37.295762" lon="-6.170156">
        <ele>48.23</ele>
        <time>2022-02-05T07:20:48Z</time>
      </trkpt>
      <trkpt lat="37.295657" lon="-6.170376">
        <ele>49.24</ele>
        <time>2022-02-05T07:20:53Z</time>
      </trkpt>
      <trkpt lat="37.295572" lon="-6.170622">
        <ele>49.77</ele>
        <time>2022-02-05T07:20:59Z</time>
      </trkpt>
      <trkpt lat="37.295471" lon="-6.170852">
        <ele>49.52</ele>
        <time>2022-02-05T07:21:04Z</time>
      </trkpt>
      <trkpt lat="37.295384" lon="-6.171112">
        <ele>48.76</ele>
        <time>2022-02-05T07:21:09Z</time>
      </trkpt>
      <trkpt lat="37.295314" lon="-6.171326">
        <ele>47.93</ele>
        <time>2022-02-05T07:21:13Z</time>
      </trkpt>
      <trkpt lat="37.295272" lon="-6.171569">
        <ele>47.63</ele>
        <time>2022-02-05T07:21:17Z</time>
      </trkpt>
      <trkpt lat="37.295249" lon="-6.171843">
        <ele>47.05</ele>
        <time>2022-02-05T07:21:21Z</time>
      </trkpt>
      <trkpt lat="37.295225" lon="-6.172126">
        <ele>46.36</ele>
        <time>2022-02-05T07:21:25Z</time>
      </trkpt>
      <trkpt lat="37.295209" lon="-6.172402">
        <ele>45.68</ele>
        <time>2022-02-05T07:21:29Z</time>
      </trkpt>
      <trkpt lat="37.295188" lon="-6.172691">
        <ele>46.06</ele>
        <time>2022-02-05T07:21:33Z</time>
      </trkpt>
      <trkpt lat="37.295185" lon="-6.172980">
        <ele>46.03</ele>
        <time>2022-02-05T07:21:37Z</time>
      </trkpt>
      <trkpt lat="37.295194" lon="-6.173247">
        <ele>46.70</ele>
        <time>2022-02-05T07:21:41Z</time>
      </trkpt>
      <trkpt lat="37.295197" lon="-6.173500">
        <ele>47.00</ele>
        <time>2022-02-05T07:21:45Z</time>
      </trkpt>
      <trkpt lat="37.295215" lon="-6.173753">
        <ele>46.94</ele>
        <time>2022-02-05T07:21:49Z</time>
      </trkpt>
      <trkpt lat="37.295215" lon="-6.174011">
        <ele>47.17</ele>
        <time>2022-02-05T07:21:53Z</time>
      </trkpt>
      <trkpt lat="37.295222" lon="-6.174258">
        <ele>47.75</ele>
        <time>2022-02-05T07:21:57Z</time>
      </trkpt>
      <trkpt lat="37.295214" lon="-6.174541">
        <ele>48.89</ele>
        <time>2022-02-05T07:22:02Z</time>
      </trkpt>
      <trkpt lat="37.295210" lon="-6.174772">
        <ele>48.13</ele>
        <time>2022-02-05T07:22:06Z</time>
      </trkpt>
      <trkpt lat="37.295185" lon="-6.175011">
        <ele>47.52</ele>
        <time>2022-02-05T07:22:10Z</time>
      </trkpt>
      <trkpt lat="37.295158" lon="-6.175260">
        <ele>46.95</ele>
        <time>2022-02-05T07:22:14Z</time>
      </trkpt>
      <trkpt lat="37.295125" lon="-6.175489">
        <ele>46.85</ele>
        <time>2022-02-05T07:22:18Z</time>
      </trkpt>
      <trkpt lat="37.295122" lon="-6.175734">
        <ele>46.45</ele>
        <time>2022-02-05T07:22:22Z</time>
      </trkpt>
      <trkpt lat="37.295173" lon="-6.175980">
        <ele>46.27</ele>
        <time>2022-02-05T07:22:26Z</time>
      </trkpt>
      <trkpt lat="37.295204" lon="-6.176211">
        <ele>45.79</ele>
        <time>2022-02-05T07:22:30Z</time>
      </trkpt>
      <trkpt lat="37.295264" lon="-6.176431">
        <ele>45.73</ele>
        <time>2022-02-05T07:22:34Z</time>
      </trkpt>
      <trkpt lat="37.295342" lon="-6.176652">
        <ele>45.64</ele>
        <time>2022-02-05T07:22:38Z</time>
      </trkpt>
      <trkpt lat="37.295440" lon="-6.176869">
        <ele>45.39</ele>
        <time>2022-02-05T07:22:42Z</time>
      </trkpt>
      <trkpt lat="37.295528" lon="-6.177075">
        <ele>45.12</ele>
        <time>2022-02-05T07:22:46Z</time>
      </trkpt>
      <trkpt lat="37.295576" lon="-6.177355">
        <ele>44.82</ele>
        <time>2022-02-05T07:22:51Z</time>
      </trkpt>
      <trkpt lat="37.295627" lon="-6.177574">
        <ele>44.92</ele>
        <time>2022-02-05T07:22:55Z</time>
      </trkpt>
      <trkpt lat="37.295675" lon="-6.177842">
        <ele>44.48</ele>
        <time>2022-02-05T07:23:00Z</time>
      </trkpt>
      <trkpt lat="37.295695" lon="-6.178117">
        <ele>44.66</ele>
        <time>2022-02-05T07:23:05Z</time>
      </trkpt>
      <trkpt lat="37.295678" lon="-6.178376">
        <ele>46.19</ele>
        <time>2022-02-05T07:23:10Z</time>
      </trkpt>
      <trkpt lat="37.295655" lon="-6.178613">
        <ele>47.31</ele>
        <time>2022-02-05T07:23:15Z</time>
      </trkpt>
      <trkpt lat="37.295599" lon="-6.178868">
        <ele>47.09</ele>
        <time>2022-02-05T07:23:20Z</time>
      </trkpt>
      <trkpt lat="37.295565" lon="-6.179100">
        <ele>46.64</ele>
        <time>2022-02-05T07:23:24Z</time>
      </trkpt>
      <trkpt lat="37.295532" lon="-6.179330">
        <ele>45.88</ele>
        <time>2022-02-05T07:23:28Z</time>
      </trkpt>
      <trkpt lat="37.295496" lon="-6.179552">
        <ele>45.72</ele>
        <time>2022-02-05T07:23:32Z</time>
      </trkpt>
      <trkpt lat="37.295453" lon="-6.179790">
        <ele>45.09</ele>
        <time>2022-02-05T07:23:36Z</time>
      </trkpt>
      <trkpt lat="37.295400" lon="-6.180051">
        <ele>45.03</ele>
        <time>2022-02-05T07:23:40Z</time>
      </trkpt>
      <trkpt lat="37.295335" lon="-6.180293">
        <ele>44.71</ele>
        <time>2022-02-05T07:23:44Z</time>
      </trkpt>
      <trkpt lat="37.295259" lon="-6.180550">
        <ele>43.65</ele>
        <time>2022-02-05T07:23:48Z</time>
      </trkpt>
      <trkpt lat="37.295172" lon="-6.180809">
        <ele>42.71</ele>
        <time>2022-02-05T07:23:52Z</time>
      </trkpt>
      <trkpt lat="37.295082" lon="-6.181016">
        <ele>42.06</ele>
        <time>2022-02-05T07:23:55Z</time>
      </trkpt>
      <trkpt lat="37.294987" lon="-6.181212">
        <ele>41.41</ele>
        <time>2022-02-05T07:23:58Z</time>
      </trkpt>
      <trkpt lat="37.294882" lon="-6.181401">
        <ele>40.42</ele>
        <time>2022-02-05T07:24:01Z</time>
      </trkpt>
      <trkpt lat="37.294770" lon="-6.181578">
        <ele>39.41</ele>
        <time>2022-02-05T07:24:04Z</time>
      </trkpt>
      <trkpt lat="37.294651" lon="-6.181772">
        <ele>38.47</ele>
        <time>2022-02-05T07:24:07Z</time>
      </trkpt>
      <trkpt lat="37.294534" lon="-6.181982">
        <ele>37.81</ele>
        <time>2022-02-05T07:24:10Z</time>
      </trkpt>
      <trkpt lat="37.294413" lon="-6.182185">
        <ele>37.38</ele>
        <time>2022-02-05T07:24:13Z</time>
      </trkpt>
      <trkpt lat="37.294298" lon="-6.182391">
        <ele>36.73</ele>
        <time>2022-02-05T07:24:16Z</time>
      </trkpt>
      <trkpt lat="37.294188" lon="-6.182591">
        <ele>36.50</ele>
        <time>2022-02-05T07:24:19Z</time>
      </trkpt>
      <trkpt lat="37.294080" lon="-6.182803">
        <ele>35.98</ele>
        <time>2022-02-05T07:24:22Z</time>
      </trkpt>
      <trkpt lat="37.293972" lon="-6.183011">
        <ele>35.20</ele>
        <time>2022-02-05T07:24:25Z</time>
      </trkpt>
      <trkpt lat="37.293864" lon="-6.183216">
        <ele>34.64</ele>
        <time>2022-02-05T07:24:28Z</time>
      </trkpt>
      <trkpt lat="37.293769" lon="-6.183415">
        <ele>34.74</ele>
        <time>2022-02-05T07:24:31Z</time>
      </trkpt>
      <trkpt lat="37.293693" lon="-6.183635">
        <ele>33.22</ele>
        <time>2022-02-05T07:24:34Z</time>
      </trkpt>
      <trkpt lat="37.293623" lon="-6.183886">
        <ele>33.64</ele>
        <time>2022-02-05T07:24:38Z</time>
      </trkpt>
      <trkpt lat="37.293577" lon="-6.184111">
        <ele>33.68</ele>
        <time>2022-02-05T07:24:42Z</time>
      </trkpt>
      <trkpt lat="37.293510" lon="-6.184370">
        <ele>34.62</ele>
        <time>2022-02-05T07:24:47Z</time>
      </trkpt>
      <trkpt lat="37.293452" lon="-6.184614">
        <ele>35.02</ele>
        <time>2022-02-05T07:24:52Z</time>
      </trkpt>
      <trkpt lat="37.293394" lon="-6.184843">
        <ele>35.78</ele>
        <time>2022-02-05T07:24:57Z</time>
      </trkpt>
      <trkpt lat="37.293344" lon="-6.185099">
        <ele>37.55</ele>
        <time>2022-02-05T07:25:03Z</time>
      </trkpt>
      <trkpt lat="37.293321" lon="-6.185328">
        <ele>38.23</ele>
        <time>2022-02-05T07:25:08Z</time>
      </trkpt>
      <trkpt lat="37.293298" lon="-6.185572">
        <ele>39.10</ele>
        <time>2022-02-05T07:25:13Z</time>
      </trkpt>
      <trkpt lat="37.293276" lon="-6.185824">
        <ele>40.50</ele>
        <time>2022-02-05T07:25:18Z</time>
      </trkpt>
      <trkpt lat="37.293252" lon="-6.186083">
        <ele>41.51</ele>
        <time>2022-02-05T07:25:23Z</time>
      </trkpt>
      <trkpt lat="37.293255" lon="-6.186356">
        <ele>41.93</ele>
        <time>2022-02-05T07:25:28Z</time>
      </trkpt>
      <trkpt lat="37.293256" lon="-6.186614">
        <ele>42.67</ele>
        <time>2022-02-05T07:25:33Z</time>
      </trkpt>
      <trkpt lat="37.293237" lon="-6.186886">
        <ele>42.29</ele>
        <time>2022-02-05T07:25:38Z</time>
      </trkpt>
      <trkpt lat="37.293218" lon="-6.187113">
        <ele>42.28</ele>
        <time>2022-02-05T07:25:42Z</time>
      </trkpt>
      <trkpt lat="37.293200" lon="-6.187347">
        <ele>41.99</ele>
        <time>2022-02-05T07:25:46Z</time>
      </trkpt>
      <trkpt lat="37.293159" lon="-6.187622">
        <ele>41.47</ele>
        <time>2022-02-05T07:25:51Z</time>
      </trkpt>
      <trkpt lat="37.293126" lon="-6.187847">
        <ele>41.76</ele>
        <time>2022-02-05T07:25:55Z</time>
      </trkpt>
      <trkpt lat="37.293093" lon="-6.188085">
        <ele>41.73</ele>
        <time>2022-02-05T07:25:59Z</time>
      </trkpt>
      <trkpt lat="37.293070" lon="-6.188332">
        <ele>41.86</ele>
        <time>2022-02-05T07:26:03Z</time>
      </trkpt>
      <trkpt lat="37.293044" lon="-6.188578">
        <ele>41.79</ele>
        <time>2022-02-05T07:26:07Z</time>
      </trkpt>
      <trkpt lat="37.293039" lon="-6.188831">
        <ele>41.66</ele>
        <time>2022-02-05T07:26:11Z</time>
      </trkpt>
      <trkpt lat="37.293034" lon="-6.189069">
        <ele>42.16</ele>
        <time>2022-02-05T07:26:15Z</time>
      </trkpt>
      <trkpt lat="37.293014" lon="-6.189316">
        <ele>42.27</ele>
        <time>2022-02-05T07:26:19Z</time>
      </trkpt>
      <trkpt lat="37.292998" lon="-6.189556">
        <ele>42.09</ele>
        <time>2022-02-05T07:26:23Z</time>
      </trkpt>
      <trkpt lat="37.292985" lon="-6.189803">
        <ele>42.40</ele>
        <time>2022-02-05T07:26:27Z</time>
      </trkpt>
      <trkpt lat="37.292971" lon="-6.190044">
        <ele>43.03</ele>
        <time>2022-02-05T07:26:31Z</time>
      </trkpt>
      <trkpt lat="37.292954" lon="-6.190289">
        <ele>42.54</ele>
        <time>2022-02-05T07:26:35Z</time>
      </trkpt>
      <trkpt lat="37.292941" lon="-6.190527">
        <ele>43.24</ele>
        <time>2022-02-05T07:26:39Z</time>
      </trkpt>
      <trkpt lat="37.292911" lon="-6.190751">
        <ele>43.47</ele>
        <time>2022-02-05T07:26:43Z</time>
      </trkpt>
      <trkpt lat="37.292891" lon="-6.191029">
        <ele>44.26</ele>
        <time>2022-02-05T07:26:48Z</time>
      </trkpt>
      <trkpt lat="37.292867" lon="-6.191308">
        <ele>44.91</ele>
        <time>2022-02-05T07:26:53Z</time>
      </trkpt>
      <trkpt lat="37.292845" lon="-6.191537">
        <ele>45.08</ele>
        <time>2022-02-05T07:26:57Z</time>
      </trkpt>
      <trkpt lat="37.292823" lon="-6.191773">
        <ele>45.54</ele>
        <time>2022-02-05T07:27:01Z</time>
      </trkpt>
      <trkpt lat="37.292809" lon="-6.192016">
        <ele>45.82</ele>
        <time>2022-02-05T07:27:05Z</time>
      </trkpt>
      <trkpt lat="37.292792" lon="-6.192262">
        <ele>46.18</ele>
        <time>2022-02-05T07:27:09Z</time>
      </trkpt>
      <trkpt lat="37.292778" lon="-6.192494">
        <ele>46.27</ele>
        <time>2022-02-05T07:27:13Z</time>
      </trkpt>
      <trkpt lat="37.292758" lon="-6.192724">
        <ele>46.13</ele>
        <time>2022-02-05T07:27:17Z</time>
      </trkpt>
      <trkpt lat="37.292751" lon="-6.192970">
        <ele>45.59</ele>
        <time>2022-02-05T07:27:21Z</time>
      </trkpt>
      <trkpt lat="37.292787" lon="-6.193208">
        <ele>45.67</ele>
        <time>2022-02-05T07:27:25Z</time>
      </trkpt>
      <trkpt lat="37.292880" lon="-6.193441">
        <ele>45.42</ele>
        <time>2022-02-05T07:27:29Z</time>
      </trkpt>
      <trkpt lat="37.292984" lon="-6.193630">
        <ele>45.49</ele>
        <time>2022-02-05T07:27:33Z</time>
      </trkpt>
      <trkpt lat="37.293103" lon="-6.193824">
        <ele>44.95</ele>
        <time>2022-02-05T07:27:37Z</time>
      </trkpt>
      <trkpt lat="37.293237" lon="-6.193996">
        <ele>45.06</ele>
        <time>2022-02-05T07:27:41Z</time>
      </trkpt>
      <trkpt lat="37.293395" lon="-6.194156">
        <ele>44.32</ele>
        <time>2022-02-05T07:27:45Z</time>
      </trkpt>
      <trkpt lat="37.293548" lon="-6.194315">
        <ele>43.61</ele>
        <time>2022-02-05T07:27:49Z</time>
      </trkpt>
      <trkpt lat="37.293681" lon="-6.194474">
        <ele>43.81</ele>
        <time>2022-02-05T07:27:53Z</time>
      </trkpt>
      <trkpt lat="37.293807" lon="-6.194645">
        <ele>43.79</ele>
        <time>2022-02-05T07:27:57Z</time>
      </trkpt>
      <trkpt lat="37.293948" lon="-6.194847">
        <ele>43.43</ele>
        <time>2022-02-05T07:28:02Z</time>
      </trkpt>
      <trkpt lat="37.294089" lon="-6.195026">
        <ele>43.32</ele>
        <time>2022-02-05T07:28:07Z</time>
      </trkpt>
      <trkpt lat="37.294228" lon="-6.195231">
        <ele>43.48</ele>
        <time>2022-02-05T07:28:12Z</time>
      </trkpt>
      <trkpt lat="37.294304" lon="-6.195471">
        <ele>44.24</ele>
        <time>2022-02-05T07:28:17Z</time>
      </trkpt>
      <trkpt lat="37.294303" lon="-6.195729">
        <ele>45.19</ele>
        <time>2022-02-05T07:28:22Z</time>
      </trkpt>
      <trkpt lat="37.294257" lon="-6.195963">
        <ele>44.48</ele>
        <time>2022-02-05T07:28:27Z</time>
      </trkpt>
      <trkpt lat="37.294220" lon="-6.196223">
        <ele>44.43</ele>
        <time>2022-02-05T07:28:33Z</time>
      </trkpt>
      <trkpt lat="37.294198" lon="-6.196456">
        <ele>43.64</ele>
        <time>2022-02-05T07:28:38Z</time>
      </trkpt>
      <trkpt lat="37.294173" lon="-6.196687">
        <ele>43.37</ele>
        <time>2022-02-05T07:28:43Z</time>
      </trkpt>
      <trkpt lat="37.294162" lon="-6.196931">
        <ele>43.42</ele>
        <time>2022-02-05T07:28:48Z</time>
      </trkpt>
      <trkpt lat="37.294101" lon="-6.197198">
        <ele>43.15</ele>
        <time>2022-02-05T07:28:53Z</time>
      </trkpt>
      <trkpt lat="37.294043" lon="-6.197462">
        <ele>43.60</ele>
        <time>2022-02-05T07:28:58Z</time>
      </trkpt>
      <trkpt lat="37.293986" lon="-6.197727">
        <ele>43.70</ele>
        <time>2022-02-05T07:29:03Z</time>
      </trkpt>
      <trkpt lat="37.293931" lon="-6.197978">
        <ele>44.29</ele>
        <time>2022-02-05T07:29:08Z</time>
      </trkpt>
      <trkpt lat="37.293892" lon="-6.198236">
        <ele>45.39</ele>
        <time>2022-02-05T07:29:13Z</time>
      </trkpt>
      <trkpt lat="37.293844" lon="-6.198512">
        <ele>45.55</ele>
        <time>2022-02-05T07:29:18Z</time>
      </trkpt>
      <trkpt lat="37.293793" lon="-6.198781">
        <ele>45.91</ele>
        <time>2022-02-05T07:29:23Z</time>
      </trkpt>
      <trkpt lat="37.293743" lon="-6.199035">
        <ele>46.49</ele>
        <time>2022-02-05T07:29:28Z</time>
      </trkpt>
      <trkpt lat="37.293697" lon="-6.199301">
        <ele>45.30</ele>
        <time>2022-02-05T07:29:33Z</time>
      </trkpt>
      <trkpt lat="37.293657" lon="-6.199533">
        <ele>45.04</ele>
        <time>2022-02-05T07:29:37Z</time>
      </trkpt>
      <trkpt lat="37.293610" lon="-6.199777">
        <ele>44.64</ele>
        <time>2022-02-05T07:29:41Z</time>
      </trkpt>
      <trkpt lat="37.293578" lon="-6.200022">
        <ele>44.51</ele>
        <time>2022-02-05T07:29:45Z</time>
      </trkpt>
      <trkpt lat="37.293540" lon="-6.200270">
        <ele>44.53</ele>
        <time>2022-02-05T07:29:49Z</time>
      </trkpt>
      <trkpt lat="37.293494" lon="-6.200506">
        <ele>44.33</ele>
        <time>2022-02-05T07:29:53Z</time>
      </trkpt>
      <trkpt lat="37.293449" lon="-6.200743">
        <ele>44.34</ele>
        <time>2022-02-05T07:29:57Z</time>
      </trkpt>
      <trkpt lat="37.293396" lon="-6.200984">
        <ele>43.83</ele>
        <time>2022-02-05T07:30:01Z</time>
      </trkpt>
      <trkpt lat="37.293347" lon="-6.201214">
        <ele>44.76</ele>
        <time>2022-02-05T07:30:05Z</time>
      </trkpt>
      <trkpt lat="37.293301" lon="-6.201438">
        <ele>46.59</ele>
        <time>2022-02-05T07:30:09Z</time>
      </trkpt>
      <trkpt lat="37.293261" lon="-6.201663">
        <ele>47.08</ele>
        <time>2022-02-05T07:30:13Z</time>
      </trkpt>
      <trkpt lat="37.293237" lon="-6.201920">
        <ele>46.01</ele>
        <time>2022-02-05T07:30:17Z</time>
      </trkpt>
      <trkpt lat="37.293205" lon="-6.202143">
        <ele>45.54</ele>
        <time>2022-02-05T07:30:20Z</time>
      </trkpt>
      <trkpt lat="37.293163" lon="-6.202369">
        <ele>44.75</ele>
        <time>2022-02-05T07:30:23Z</time>
      </trkpt>
      <trkpt lat="37.293128" lon="-6.202652">
        <ele>44.32</ele>
        <time>2022-02-05T07:30:27Z</time>
      </trkpt>
      <trkpt lat="37.293093" lon="-6.202877">
        <ele>44.49</ele>
        <time>2022-02-05T07:30:32Z</time>
      </trkpt>
      <trkpt lat="37.293025" lon="-6.203115">
        <ele>44.28</ele>
        <time>2022-02-05T07:30:38Z</time>
      </trkpt>
      <trkpt lat="37.292975" lon="-6.203381">
        <ele>44.68</ele>
        <time>2022-02-05T07:30:43Z</time>
      </trkpt>
      <trkpt lat="37.292950" lon="-6.203607">
        <ele>44.85</ele>
        <time>2022-02-05T07:30:47Z</time>
      </trkpt>
      <trkpt lat="37.292918" lon="-6.203837">
        <ele>44.83</ele>
        <time>2022-02-05T07:30:51Z</time>
      </trkpt>
      <trkpt lat="37.292871" lon="-6.204065">
        <ele>45.17</ele>
        <time>2022-02-05T07:30:55Z</time>
      </trkpt>
      <trkpt lat="37.292822" lon="-6.204336">
        <ele>45.49</ele>
        <time>2022-02-05T07:31:00Z</time>
      </trkpt>
      <trkpt lat="37.292778" lon="-6.204602">
        <ele>45.01</ele>
        <time>2022-02-05T07:31:05Z</time>
      </trkpt>
      <trkpt lat="37.292743" lon="-6.204828">
        <ele>44.36</ele>
        <time>2022-02-05T07:31:09Z</time>
      </trkpt>
      <trkpt lat="37.292702" lon="-6.205094">
        <ele>43.70</ele>
        <time>2022-02-05T07:31:14Z</time>
      </trkpt>
      <trkpt lat="37.292699" lon="-6.205324">
        <ele>44.39</ele>
        <time>2022-02-05T07:31:18Z</time>
      </trkpt>
      <trkpt lat="37.292682" lon="-6.205558">
        <ele>44.00</ele>
        <time>2022-02-05T07:31:22Z</time>
      </trkpt>
      <trkpt lat="37.292642" lon="-6.205782">
        <ele>43.59</ele>
        <time>2022-02-05T07:31:26Z</time>
      </trkpt>
      <trkpt lat="37.292552" lon="-6.205994">
        <ele>42.72</ele>
        <time>2022-02-05T07:31:30Z</time>
      </trkpt>
      <trkpt lat="37.292473" lon="-6.206233">
        <ele>42.25</ele>
        <time>2022-02-05T07:31:34Z</time>
      </trkpt>
      <trkpt lat="37.292471" lon="-6.206477">
        <ele>43.35</ele>
        <time>2022-02-05T07:31:38Z</time>
      </trkpt>
      <trkpt lat="37.292430" lon="-6.206740">
        <ele>44.20</ele>
        <time>2022-02-05T07:31:43Z</time>
      </trkpt>
      <trkpt lat="37.292324" lon="-6.206985">
        <ele>44.85</ele>
        <time>2022-02-05T07:31:48Z</time>
      </trkpt>
      <trkpt lat="37.292238" lon="-6.207189">
        <ele>45.72</ele>
        <time>2022-02-05T07:31:52Z</time>
      </trkpt>
      <trkpt lat="37.292178" lon="-6.207406">
        <ele>45.93</ele>
        <time>2022-02-05T07:31:56Z</time>
      </trkpt>
      <trkpt lat="37.292108" lon="-6.207618">
        <ele>46.04</ele>
        <time>2022-02-05T07:32:00Z</time>
      </trkpt>
      <trkpt lat="37.292030" lon="-6.207845">
        <ele>45.92</ele>
        <time>2022-02-05T07:32:04Z</time>
      </trkpt>
      <trkpt lat="37.291956" lon="-6.208095">
        <ele>44.62</ele>
        <time>2022-02-05T07:32:08Z</time>
      </trkpt>
      <trkpt lat="37.291901" lon="-6.208348">
        <ele>44.40</ele>
        <time>2022-02-05T07:32:12Z</time>
      </trkpt>
      <trkpt lat="37.291856" lon="-6.208583">
        <ele>44.22</ele>
        <time>2022-02-05T07:32:16Z</time>
      </trkpt>
      <trkpt lat="37.291819" lon="-6.208821">
        <ele>43.72</ele>
        <time>2022-02-05T07:32:20Z</time>
      </trkpt>
      <trkpt lat="37.291736" lon="-6.209051">
        <ele>44.01</ele>
        <time>2022-02-05T07:32:24Z</time>
      </trkpt>
      <trkpt lat="37.291663" lon="-6.209262">
        <ele>44.70</ele>
        <time>2022-02-05T07:32:28Z</time>
      </trkpt>
      <trkpt lat="37.291612" lon="-6.209535">
        <ele>44.52</ele>
        <time>2022-02-05T07:32:33Z</time>
      </trkpt>
      <trkpt lat="37.291564" lon="-6.209791">
        <ele>44.25</ele>
        <time>2022-02-05T07:32:38Z</time>
      </trkpt>
      <trkpt lat="37.291491" lon="-6.210035">
        <ele>44.59</ele>
        <time>2022-02-05T07:32:44Z</time>
      </trkpt>
      <trkpt lat="37.291396" lon="-6.210234">
        <ele>45.12</ele>
        <time>2022-02-05T07:32:49Z</time>
      </trkpt>
      <trkpt lat="37.291303" lon="-6.210427">
        <ele>46.07</ele>
        <time>2022-02-05T07:32:54Z</time>
      </trkpt>
      <trkpt lat="37.291217" lon="-6.210654">
        <ele>46.33</ele>
        <time>2022-02-05T07:32:59Z</time>
      </trkpt>
      <trkpt lat="37.291153" lon="-6.210896">
        <ele>45.60</ele>
        <time>2022-02-05T07:33:04Z</time>
      </trkpt>
      <trkpt lat="37.291093" lon="-6.211115">
        <ele>44.99</ele>
        <time>2022-02-05T07:33:09Z</time>
      </trkpt>
      <trkpt lat="37.291000" lon="-6.211333">
        <ele>44.78</ele>
        <time>2022-02-05T07:33:15Z</time>
      </trkpt>
      <trkpt lat="37.290919" lon="-6.211546">
        <ele>44.76</ele>
        <time>2022-02-05T07:33:20Z</time>
      </trkpt>
      <trkpt lat="37.290836" lon="-6.211774">
        <ele>45.15</ele>
        <time>2022-02-05T07:33:25Z</time>
      </trkpt>
      <trkpt lat="37.290742" lon="-6.212004">
        <ele>45.37</ele>
        <time>2022-02-05T07:33:30Z</time>
      </trkpt>
      <trkpt lat="37.290666" lon="-6.212253">
        <ele>45.66</ele>
        <time>2022-02-05T07:33:35Z</time>
      </trkpt>
      <trkpt lat="37.290580" lon="-6.212485">
        <ele>46.31</ele>
        <time>2022-02-05T07:33:40Z</time>
      </trkpt>
      <trkpt lat="37.290486" lon="-6.212713">
        <ele>47.45</ele>
        <time>2022-02-05T07:33:45Z</time>
      </trkpt>
      <trkpt lat="37.290391" lon="-6.212936">
        <ele>47.70</ele>
        <time>2022-02-05T07:33:50Z</time>
      </trkpt>
      <trkpt lat="37.290298" lon="-6.213158">
        <ele>48.15</ele>
        <time>2022-02-05T07:33:55Z</time>
      </trkpt>
      <trkpt lat="37.290211" lon="-6.213387">
        <ele>48.02</ele>
        <time>2022-02-05T07:34:00Z</time>
      </trkpt>
      <trkpt lat="37.290132" lon="-6.213629">
        <ele>47.62</ele>
        <time>2022-02-05T07:34:05Z</time>
      </trkpt>
      <trkpt lat="37.290072" lon="-6.213866">
        <ele>48.02</ele>
        <time>2022-02-05T07:34:10Z</time>
      </trkpt>
      <trkpt lat="37.290033" lon="-6.214104">
        <ele>48.01</ele>
        <time>2022-02-05T07:34:15Z</time>
      </trkpt>
      <trkpt lat="37.290018" lon="-6.214362">
        <ele>47.99</ele>
        <time>2022-02-05T07:34:20Z</time>
      </trkpt>
      <trkpt lat="37.290047" lon="-6.214590">
        <ele>48.14</ele>
        <time>2022-02-05T07:34:24Z</time>
      </trkpt>
      <trkpt lat="37.290093" lon="-6.214848">
        <ele>48.70</ele>
        <time>2022-02-05T07:34:29Z</time>
      </trkpt>
      <trkpt lat="37.290125" lon="-6.215081">
        <ele>47.98</ele>
        <time>2022-02-05T07:34:35Z</time>
      </trkpt>
      <trkpt lat="37.290174" lon="-6.215345">
        <ele>48.28</ele>
        <time>2022-02-05T07:34:41Z</time>
      </trkpt>
      <trkpt lat="37.290223" lon="-6.215575">
        <ele>49.25</ele>
        <time>2022-02-05T07:34:46Z</time>
      </trkpt>
      <trkpt lat="37.290284" lon="-6.215791">
        <ele>50.43</ele>
        <time>2022-02-05T07:34:51Z</time>
      </trkpt>
      <trkpt lat="37.290356" lon="-6.216023">
        <ele>50.45</ele>
        <time>2022-02-05T07:34:56Z</time>
      </trkpt>
      <trkpt lat="37.290427" lon="-6.216244">
        <ele>49.74</ele>
        <time>2022-02-05T07:35:01Z</time>
      </trkpt>
      <trkpt lat="37.290465" lon="-6.216470">
        <ele>49.34</ele>
        <time>2022-02-05T07:35:06Z</time>
      </trkpt>
      <trkpt lat="37.290457" lon="-6.216711">
        <ele>47.26</ele>
        <time>2022-02-05T07:35:11Z</time>
      </trkpt>
      <trkpt lat="37.290488" lon="-6.216984">
        <ele>45.96</ele>
        <time>2022-02-05T07:35:16Z</time>
      </trkpt>
      <trkpt lat="37.290538" lon="-6.217232">
        <ele>45.38</ele>
        <time>2022-02-05T07:35:20Z</time>
      </trkpt>
      <trkpt lat="37.290593" lon="-6.217460">
        <ele>44.28</ele>
        <time>2022-02-05T07:35:24Z</time>
      </trkpt>
      <trkpt lat="37.290589" lon="-6.217729">
        <ele>42.32</ele>
        <time>2022-02-05T07:35:30Z</time>
      </trkpt>
      <trkpt lat="37.290587" lon="-6.217971">
        <ele>42.04</ele>
        <time>2022-02-05T07:35:34Z</time>
      </trkpt>
      <trkpt lat="37.290599" lon="-6.218218">
        <ele>42.56</ele>
        <time>2022-02-05T07:35:38Z</time>
      </trkpt>
      <trkpt lat="37.290549" lon="-6.218475">
        <ele>42.32</ele>
        <time>2022-02-05T07:35:43Z</time>
      </trkpt>
      <trkpt lat="37.290405" lon="-6.218683">
        <ele>42.99</ele>
        <time>2022-02-05T07:35:48Z</time>
      </trkpt>
      <trkpt lat="37.290234" lon="-6.218761">
        <ele>42.05</ele>
        <time>2022-02-05T07:35:52Z</time>
      </trkpt>
      <trkpt lat="37.290015" lon="-6.218822">
        <ele>41.91</ele>
        <time>2022-02-05T07:35:57Z</time>
      </trkpt>
      <trkpt lat="37.289835" lon="-6.218864">
        <ele>41.91</ele>
        <time>2022-02-05T07:36:01Z</time>
      </trkpt>
      <trkpt lat="37.289617" lon="-6.218917">
        <ele>39.20</ele>
        <time>2022-02-05T07:36:06Z</time>
      </trkpt>
      <trkpt lat="37.289440" lon="-6.218957">
        <ele>37.51</ele>
        <time>2022-02-05T07:36:10Z</time>
      </trkpt>
      <trkpt lat="37.289242" lon="-6.219019">
        <ele>40.47</ele>
        <time>2022-02-05T07:36:15Z</time>
      </trkpt>
      <trkpt lat="37.289057" lon="-6.219112">
        <ele>41.27</ele>
        <time>2022-02-05T07:36:20Z</time>
      </trkpt>
      <trkpt lat="37.288884" lon="-6.219220">
        <ele>40.07</ele>
        <time>2022-02-05T07:36:25Z</time>
      </trkpt>
      <trkpt lat="37.288720" lon="-6.219365">
        <ele>41.24</ele>
        <time>2022-02-05T07:36:30Z</time>
      </trkpt>
      <trkpt lat="37.288538" lon="-6.219474">
        <ele>41.08</ele>
        <time>2022-02-05T07:36:35Z</time>
      </trkpt>
      <trkpt lat="37.288336" lon="-6.219510">
        <ele>41.27</ele>
        <time>2022-02-05T07:36:40Z</time>
      </trkpt>
      <trkpt lat="37.288135" lon="-6.219522">
        <ele>39.51</ele>
        <time>2022-02-05T07:36:45Z</time>
      </trkpt>
      <trkpt lat="37.287946" lon="-6.219470">
        <ele>39.30</ele>
        <time>2022-02-05T07:36:50Z</time>
      </trkpt>
      <trkpt lat="37.287747" lon="-6.219486">
        <ele>37.44</ele>
        <time>2022-02-05T07:36:55Z</time>
      </trkpt>
      <trkpt lat="37.287554" lon="-6.219512">
        <ele>33.99</ele>
        <time>2022-02-05T07:37:00Z</time>
      </trkpt>
      <trkpt lat="37.287354" lon="-6.219524">
        <ele>33.26</ele>
        <time>2022-02-05T07:37:05Z</time>
      </trkpt>
      <trkpt lat="37.287154" lon="-6.219602">
        <ele>34.67</ele>
        <time>2022-02-05T07:37:10Z</time>
      </trkpt>
      <trkpt lat="37.286977" lon="-6.219674">
        <ele>35.54</ele>
        <time>2022-02-05T07:37:14Z</time>
      </trkpt>
      <trkpt lat="37.286795" lon="-6.219825">
        <ele>35.95</ele>
        <time>2022-02-05T07:37:19Z</time>
      </trkpt>
      <trkpt lat="37.286700" lon="-6.219899">
        <ele>36.69</ele>
        <time>2022-02-05T07:41:12Z</time>
      </trkpt>
      <trkpt lat="37.286545" lon="-6.220027">
        <ele>37.74</ele>
        <time>2022-02-05T07:41:31Z</time>
      </trkpt>
      <trkpt lat="37.286383" lon="-6.220138">
        <ele>36.53</ele>
        <time>2022-02-05T07:41:39Z</time>
      </trkpt>
      <trkpt lat="37.286194" lon="-6.220212">
        <ele>35.19</ele>
        <time>2022-02-05T07:41:46Z</time>
      </trkpt>
      <trkpt lat="37.285979" lon="-6.220191">
        <ele>36.32</ele>
        <time>2022-02-05T07:41:52Z</time>
      </trkpt>
      <trkpt lat="37.285799" lon="-6.220204">
        <ele>35.28</ele>
        <time>2022-02-05T07:41:57Z</time>
      </trkpt>
      <trkpt lat="37.285613" lon="-6.220206">
        <ele>35.20</ele>
        <time>2022-02-05T07:42:03Z</time>
      </trkpt>
      <trkpt lat="37.285432" lon="-6.220228">
        <ele>34.05</ele>
        <time>2022-02-05T07:42:09Z</time>
      </trkpt>
      <trkpt lat="37.285231" lon="-6.220281">
        <ele>34.24</ele>
        <time>2022-02-05T07:42:15Z</time>
      </trkpt>
      <trkpt lat="37.285050" lon="-6.220381">
        <ele>33.72</ele>
        <time>2022-02-05T07:42:21Z</time>
      </trkpt>
      <trkpt lat="37.284891" lon="-6.220489">
        <ele>35.01</ele>
        <time>2022-02-05T07:42:29Z</time>
      </trkpt>
      <trkpt lat="37.284719" lon="-6.220625">
        <ele>35.30</ele>
        <time>2022-02-05T07:42:35Z</time>
      </trkpt>
      <trkpt lat="37.284575" lon="-6.220826">
        <ele>36.05</ele>
        <time>2022-02-05T07:42:41Z</time>
      </trkpt>
      <trkpt lat="37.284458" lon="-6.221008">
        <ele>37.34</ele>
        <time>2022-02-05T07:42:46Z</time>
      </trkpt>
      <trkpt lat="37.284317" lon="-6.221218">
        <ele>37.92</ele>
        <time>2022-02-05T07:42:52Z</time>
      </trkpt>
      <trkpt lat="37.284176" lon="-6.221422">
        <ele>39.66</ele>
        <time>2022-02-05T07:42:58Z</time>
      </trkpt>
      <trkpt lat="37.284038" lon="-6.221582">
        <ele>40.35</ele>
        <time>2022-02-05T07:43:03Z</time>
      </trkpt>
      <trkpt lat="37.283911" lon="-6.221755">
        <ele>40.44</ele>
        <time>2022-02-05T07:43:09Z</time>
      </trkpt>
      <trkpt lat="37.283788" lon="-6.221940">
        <ele>40.80</ele>
        <time>2022-02-05T07:43:15Z</time>
      </trkpt>
      <trkpt lat="37.283648" lon="-6.222126">
        <ele>39.62</ele>
        <time>2022-02-05T07:43:21Z</time>
      </trkpt>
      <trkpt lat="37.283521" lon="-6.222299">
        <ele>39.94</ele>
        <time>2022-02-05T07:43:26Z</time>
      </trkpt>
      <trkpt lat="37.283397" lon="-6.222466">
        <ele>39.20</ele>
        <time>2022-02-05T07:43:31Z</time>
      </trkpt>
      <trkpt lat="37.283250" lon="-6.222640">
        <ele>38.02</ele>
        <time>2022-02-05T07:43:36Z</time>
      </trkpt>
      <trkpt lat="37.283127" lon="-6.222825">
        <ele>37.48</ele>
        <time>2022-02-05T07:43:40Z</time>
      </trkpt>
      <trkpt lat="37.282997" lon="-6.223020">
        <ele>37.12</ele>
        <time>2022-02-05T07:43:45Z</time>
      </trkpt>
      <trkpt lat="37.282869" lon="-6.223203">
        <ele>37.18</ele>
        <time>2022-02-05T07:43:50Z</time>
      </trkpt>
      <trkpt lat="37.282765" lon="-6.223389">
        <ele>36.31</ele>
        <time>2022-02-05T07:43:54Z</time>
      </trkpt>
      <trkpt lat="37.282683" lon="-6.223602">
        <ele>35.63</ele>
        <time>2022-02-05T07:43:58Z</time>
      </trkpt>
      <trkpt lat="37.282626" lon="-6.223846">
        <ele>34.05</ele>
        <time>2022-02-05T07:44:02Z</time>
      </trkpt>
      <trkpt lat="37.282595" lon="-6.224073">
        <ele>33.19</ele>
        <time>2022-02-05T07:44:06Z</time>
      </trkpt>
      <trkpt lat="37.282565" lon="-6.224344">
        <ele>31.92</ele>
        <time>2022-02-05T07:44:10Z</time>
      </trkpt>
      <trkpt lat="37.282526" lon="-6.224615">
        <ele>31.22</ele>
        <time>2022-02-05T07:44:14Z</time>
      </trkpt>
      <trkpt lat="37.282480" lon="-6.224888">
        <ele>30.46</ele>
        <time>2022-02-05T07:44:18Z</time>
      </trkpt>
      <trkpt lat="37.282402" lon="-6.225092">
        <ele>30.76</ele>
        <time>2022-02-05T07:44:22Z</time>
      </trkpt>
      <trkpt lat="37.282196" lon="-6.225136">
        <ele>29.53</ele>
        <time>2022-02-05T07:44:27Z</time>
      </trkpt>
      <trkpt lat="37.282000" lon="-6.225104">
        <ele>29.20</ele>
        <time>2022-02-05T07:44:31Z</time>
      </trkpt>
      <trkpt lat="37.281809" lon="-6.225122">
        <ele>30.14</ele>
        <time>2022-02-05T07:44:35Z</time>
      </trkpt>
      <trkpt lat="37.281611" lon="-6.225139">
        <ele>28.68</ele>
        <time>2022-02-05T07:44:40Z</time>
      </trkpt>
      <trkpt lat="37.281408" lon="-6.225182">
        <ele>29.73</ele>
        <time>2022-02-05T07:44:45Z</time>
      </trkpt>
      <trkpt lat="37.281197" lon="-6.225154">
        <ele>29.74</ele>
        <time>2022-02-05T07:44:50Z</time>
      </trkpt>
      <trkpt lat="37.281009" lon="-6.225129">
        <ele>28.73</ele>
        <time>2022-02-05T07:44:54Z</time>
      </trkpt>
      <trkpt lat="37.280820" lon="-6.225082">
        <ele>29.34</ele>
        <time>2022-02-05T07:44:58Z</time>
      </trkpt>
      <trkpt lat="37.280627" lon="-6.225115">
        <ele>27.36</ele>
        <time>2022-02-05T07:45:02Z</time>
      </trkpt>
      <trkpt lat="37.280441" lon="-6.225252">
        <ele>28.82</ele>
        <time>2022-02-05T07:45:07Z</time>
      </trkpt>
      <trkpt lat="37.280359" lon="-6.225482">
        <ele>28.51</ele>
        <time>2022-02-05T07:45:12Z</time>
      </trkpt>
      <trkpt lat="37.280320" lon="-6.225710">
        <ele>30.65</ele>
        <time>2022-02-05T07:45:17Z</time>
      </trkpt>
      <trkpt lat="37.280290" lon="-6.225955">
        <ele>31.07</ele>
        <time>2022-02-05T07:45:22Z</time>
      </trkpt>
      <trkpt lat="37.280236" lon="-6.226209">
        <ele>31.97</ele>
        <time>2022-02-05T07:45:27Z</time>
      </trkpt>
      <trkpt lat="37.280196" lon="-6.226472">
        <ele>32.46</ele>
        <time>2022-02-05T07:45:32Z</time>
      </trkpt>
      <trkpt lat="37.280184" lon="-6.226730">
        <ele>28.43</ele>
        <time>2022-02-05T07:45:37Z</time>
      </trkpt>
      <trkpt lat="37.280132" lon="-6.226973">
        <ele>28.45</ele>
        <time>2022-02-05T07:45:42Z</time>
      </trkpt>
      <trkpt lat="37.280101" lon="-6.227242">
        <ele>27.10</ele>
        <time>2022-02-05T07:45:47Z</time>
      </trkpt>
      <trkpt lat="37.280078" lon="-6.227507">
        <ele>25.30</ele>
        <time>2022-02-05T07:45:51Z</time>
      </trkpt>
      <trkpt lat="37.280048" lon="-6.227753">
        <ele>25.38</ele>
        <time>2022-02-05T07:45:55Z</time>
      </trkpt>
      <trkpt lat="37.280032" lon="-6.228002">
        <ele>25.04</ele>
        <time>2022-02-05T07:45:59Z</time>
      </trkpt>
      <trkpt lat="37.280014" lon="-6.228245">
        <ele>27.27</ele>
        <time>2022-02-05T07:46:03Z</time>
      </trkpt>
      <trkpt lat="37.279976" lon="-6.228508">
        <ele>27.69</ele>
        <time>2022-02-05T07:46:08Z</time>
      </trkpt>
      <trkpt lat="37.279955" lon="-6.228772">
        <ele>29.64</ele>
        <time>2022-02-05T07:46:13Z</time>
      </trkpt>
      <trkpt lat="37.279963" lon="-6.228999">
        <ele>30.35</ele>
        <time>2022-02-05T07:46:18Z</time>
      </trkpt>
      <trkpt lat="37.279921" lon="-6.229260">
        <ele>30.53</ele>
        <time>2022-02-05T07:46:24Z</time>
      </trkpt>
      <trkpt lat="37.279882" lon="-6.229510">
        <ele>28.32</ele>
        <time>2022-02-05T07:46:29Z</time>
      </trkpt>
      <trkpt lat="37.279869" lon="-6.229760">
        <ele>26.69</ele>
        <time>2022-02-05T07:46:34Z</time>
      </trkpt>
      <trkpt lat="37.279818" lon="-6.229995">
        <ele>27.89</ele>
        <time>2022-02-05T07:46:39Z</time>
      </trkpt>
      <trkpt lat="37.279787" lon="-6.230230">
        <ele>29.78</ele>
        <time>2022-02-05T07:46:44Z</time>
      </trkpt>
      <trkpt lat="37.279769" lon="-6.230464">
        <ele>30.30</ele>
        <time>2022-02-05T07:46:49Z</time>
      </trkpt>
      <trkpt lat="37.279760" lon="-6.230714">
        <ele>29.17</ele>
        <time>2022-02-05T07:46:54Z</time>
      </trkpt>
      <trkpt lat="37.279713" lon="-6.230950">
        <ele>30.71</ele>
        <time>2022-02-05T07:46:58Z</time>
      </trkpt>
      <trkpt lat="37.279638" lon="-6.231198">
        <ele>29.99</ele>
        <time>2022-02-05T07:47:03Z</time>
      </trkpt>
      <trkpt lat="37.279580" lon="-6.231429">
        <ele>29.60</ele>
        <time>2022-02-05T07:47:07Z</time>
      </trkpt>
      <trkpt lat="37.279520" lon="-6.231676">
        <ele>28.92</ele>
        <time>2022-02-05T07:47:12Z</time>
      </trkpt>
      <trkpt lat="37.279501" lon="-6.231905">
        <ele>28.23</ele>
        <time>2022-02-05T07:47:17Z</time>
      </trkpt>
      <trkpt lat="37.279471" lon="-6.232166">
        <ele>28.85</ele>
        <time>2022-02-05T07:47:23Z</time>
      </trkpt>
      <trkpt lat="37.279442" lon="-6.232418">
        <ele>28.72</ele>
        <time>2022-02-05T07:47:28Z</time>
      </trkpt>
      <trkpt lat="37.279416" lon="-6.232647">
        <ele>27.95</ele>
        <time>2022-02-05T07:47:32Z</time>
      </trkpt>
      <trkpt lat="37.279390" lon="-6.232901">
        <ele>26.90</ele>
        <time>2022-02-05T07:47:36Z</time>
      </trkpt>
      <trkpt lat="37.279344" lon="-6.233172">
        <ele>27.15</ele>
        <time>2022-02-05T07:47:40Z</time>
      </trkpt>
      <trkpt lat="37.279278" lon="-6.233448">
        <ele>25.90</ele>
        <time>2022-02-05T07:47:44Z</time>
      </trkpt>
      <trkpt lat="37.279243" lon="-6.233717">
        <ele>24.12</ele>
        <time>2022-02-05T07:47:49Z</time>
      </trkpt>
      <trkpt lat="37.279192" lon="-6.233959">
        <ele>24.46</ele>
        <time>2022-02-05T07:47:54Z</time>
      </trkpt>
      <trkpt lat="37.279150" lon="-6.234188">
        <ele>23.32</ele>
        <time>2022-02-05T07:47:58Z</time>
      </trkpt>
      <trkpt lat="37.279099" lon="-6.234419">
        <ele>23.44</ele>
        <time>2022-02-05T07:48:02Z</time>
      </trkpt>
      <trkpt lat="37.278975" lon="-6.234610">
        <ele>25.28</ele>
        <time>2022-02-05T07:48:07Z</time>
      </trkpt>
      <trkpt lat="37.278780" lon="-6.234709">
        <ele>25.84</ele>
        <time>2022-02-05T07:48:12Z</time>
      </trkpt>
      <trkpt lat="37.278612" lon="-6.234800">
        <ele>26.79</ele>
        <time>2022-02-05T07:48:16Z</time>
      </trkpt>
      <trkpt lat="37.278407" lon="-6.234865">
        <ele>22.45</ele>
        <time>2022-02-05T07:48:21Z</time>
      </trkpt>
      <trkpt lat="37.278226" lon="-6.234895">
        <ele>21.50</ele>
        <time>2022-02-05T07:48:25Z</time>
      </trkpt>
      <trkpt lat="37.278051" lon="-6.235069">
        <ele>20.46</ele>
        <time>2022-02-05T07:48:30Z</time>
      </trkpt>
      <trkpt lat="37.277924" lon="-6.235278">
        <ele>20.40</ele>
        <time>2022-02-05T07:48:35Z</time>
      </trkpt>
      <trkpt lat="37.277760" lon="-6.235376">
        <ele>22.23</ele>
        <time>2022-02-05T07:48:40Z</time>
      </trkpt>
      <trkpt lat="37.277560" lon="-6.235372">
        <ele>22.10</ele>
        <time>2022-02-05T07:48:45Z</time>
      </trkpt>
      <trkpt lat="37.277409" lon="-6.235230">
        <ele>20.83</ele>
        <time>2022-02-05T07:48:50Z</time>
      </trkpt>
      <trkpt lat="37.277259" lon="-6.235035">
        <ele>20.85</ele>
        <time>2022-02-05T07:48:55Z</time>
      </trkpt>
      <trkpt lat="37.277119" lon="-6.234876">
        <ele>22.64</ele>
        <time>2022-02-05T07:48:59Z</time>
      </trkpt>
      <trkpt lat="37.276975" lon="-6.234690">
        <ele>22.89</ele>
        <time>2022-02-05T07:49:04Z</time>
      </trkpt>
      <trkpt lat="37.276827" lon="-6.234504">
        <ele>22.72</ele>
        <time>2022-02-05T07:49:09Z</time>
      </trkpt>
      <trkpt lat="37.276679" lon="-6.234369">
        <ele>22.20</ele>
        <time>2022-02-05T07:49:13Z</time>
      </trkpt>
      <trkpt lat="37.276550" lon="-6.234209">
        <ele>23.52</ele>
        <time>2022-02-05T07:49:17Z</time>
      </trkpt>
      <trkpt lat="37.276387" lon="-6.234054">
        <ele>23.96</ele>
        <time>2022-02-05T07:49:22Z</time>
      </trkpt>
      <trkpt lat="37.276205" lon="-6.233905">
        <ele>23.97</ele>
        <time>2022-02-05T07:49:27Z</time>
      </trkpt>
      <trkpt lat="37.276023" lon="-6.233753">
        <ele>24.37</ele>
        <time>2022-02-05T07:49:32Z</time>
      </trkpt>
      <trkpt lat="37.275867" lon="-6.233634">
        <ele>25.27</ele>
        <time>2022-02-05T07:49:36Z</time>
      </trkpt>
      <trkpt lat="37.275681" lon="-6.233477">
        <ele>26.57</ele>
        <time>2022-02-05T07:49:41Z</time>
      </trkpt>
      <trkpt lat="37.275506" lon="-6.233307">
        <ele>27.61</ele>
        <time>2022-02-05T07:49:46Z</time>
      </trkpt>
      <trkpt lat="37.275337" lon="-6.233144">
        <ele>28.17</ele>
        <time>2022-02-05T07:49:51Z</time>
      </trkpt>
      <trkpt lat="37.275185" lon="-6.232990">
        <ele>29.13</ele>
        <time>2022-02-05T07:49:56Z</time>
      </trkpt>
      <trkpt lat="37.275042" lon="-6.232830">
        <ele>29.40</ele>
        <time>2022-02-05T07:50:01Z</time>
      </trkpt>
      <trkpt lat="37.274902" lon="-6.232670">
        <ele>30.62</ele>
        <time>2022-02-05T07:50:06Z</time>
      </trkpt>
      <trkpt lat="37.274762" lon="-6.232526">
        <ele>31.15</ele>
        <time>2022-02-05T07:50:11Z</time>
      </trkpt>
      <trkpt lat="37.274597" lon="-6.232362">
        <ele>31.10</ele>
        <time>2022-02-05T07:50:17Z</time>
      </trkpt>
      <trkpt lat="37.274413" lon="-6.232378">
        <ele>30.81</ele>
        <time>2022-02-05T07:50:23Z</time>
      </trkpt>
      <trkpt lat="37.274280" lon="-6.232594">
        <ele>31.81</ele>
        <time>2022-02-05T07:50:29Z</time>
      </trkpt>
      <trkpt lat="37.274180" lon="-6.232801">
        <ele>32.46</ele>
        <time>2022-02-05T07:50:34Z</time>
      </trkpt>
      <trkpt lat="37.274098" lon="-6.233041">
        <ele>32.18</ele>
        <time>2022-02-05T07:50:40Z</time>
      </trkpt>
      <trkpt lat="37.274054" lon="-6.233264">
        <ele>32.92</ele>
        <time>2022-02-05T07:50:45Z</time>
      </trkpt>
      <trkpt lat="37.274022" lon="-6.233503">
        <ele>32.35</ele>
        <time>2022-02-05T07:50:50Z</time>
      </trkpt>
      <trkpt lat="37.273913" lon="-6.233710">
        <ele>32.15</ele>
        <time>2022-02-05T07:50:55Z</time>
      </trkpt>
      <trkpt lat="37.273842" lon="-6.233935">
        <ele>31.79</ele>
        <time>2022-02-05T07:50:59Z</time>
      </trkpt>
      <trkpt lat="37.273803" lon="-6.234176">
        <ele>30.47</ele>
        <time>2022-02-05T07:51:03Z</time>
      </trkpt>
      <trkpt lat="37.273743" lon="-6.234395">
        <ele>31.48</ele>
        <time>2022-02-05T07:51:07Z</time>
      </trkpt>
      <trkpt lat="37.273706" lon="-6.234637">
        <ele>32.13</ele>
        <time>2022-02-05T07:51:11Z</time>
      </trkpt>
      <trkpt lat="37.273665" lon="-6.234891">
        <ele>32.42</ele>
        <time>2022-02-05T07:51:15Z</time>
      </trkpt>
      <trkpt lat="37.273627" lon="-6.235166">
        <ele>32.28</ele>
        <time>2022-02-05T07:51:19Z</time>
      </trkpt>
      <trkpt lat="37.273593" lon="-6.235453">
        <ele>31.50</ele>
        <time>2022-02-05T07:51:23Z</time>
      </trkpt>
      <trkpt lat="37.273576" lon="-6.235727">
        <ele>32.07</ele>
        <time>2022-02-05T07:51:27Z</time>
      </trkpt>
      <trkpt lat="37.273568" lon="-6.236017">
        <ele>31.13</ele>
        <time>2022-02-05T07:51:31Z</time>
      </trkpt>
      <trkpt lat="37.273553" lon="-6.236308">
        <ele>30.66</ele>
        <time>2022-02-05T07:51:35Z</time>
      </trkpt>
      <trkpt lat="37.273542" lon="-6.236587">
        <ele>30.68</ele>
        <time>2022-02-05T07:51:39Z</time>
      </trkpt>
      <trkpt lat="37.273495" lon="-6.236852">
        <ele>30.87</ele>
        <time>2022-02-05T07:51:43Z</time>
      </trkpt>
      <trkpt lat="37.273423" lon="-6.237104">
        <ele>30.99</ele>
        <time>2022-02-05T07:51:47Z</time>
      </trkpt>
      <trkpt lat="37.273347" lon="-6.237367">
        <ele>31.46</ele>
        <time>2022-02-05T07:51:51Z</time>
      </trkpt>
      <trkpt lat="37.273261" lon="-6.237623">
        <ele>30.65</ele>
        <time>2022-02-05T07:51:55Z</time>
      </trkpt>
      <trkpt lat="37.273174" lon="-6.237887">
        <ele>30.73</ele>
        <time>2022-02-05T07:51:59Z</time>
      </trkpt>
      <trkpt lat="37.273065" lon="-6.238148">
        <ele>31.62</ele>
        <time>2022-02-05T07:52:03Z</time>
      </trkpt>
      <trkpt lat="37.272974" lon="-6.238415">
        <ele>32.16</ele>
        <time>2022-02-05T07:52:07Z</time>
      </trkpt>
      <trkpt lat="37.272898" lon="-6.238679">
        <ele>32.80</ele>
        <time>2022-02-05T07:52:11Z</time>
      </trkpt>
      <trkpt lat="37.272841" lon="-6.238942">
        <ele>33.23</ele>
        <time>2022-02-05T07:52:15Z</time>
      </trkpt>
      <trkpt lat="37.272730" lon="-6.239188">
        <ele>31.14</ele>
        <time>2022-02-05T07:52:19Z</time>
      </trkpt>
      <trkpt lat="37.272599" lon="-6.239361">
        <ele>30.84</ele>
        <time>2022-02-05T07:52:22Z</time>
      </trkpt>
      <trkpt lat="37.272453" lon="-6.239508">
        <ele>30.87</ele>
        <time>2022-02-05T07:52:25Z</time>
      </trkpt>
      <trkpt lat="37.272300" lon="-6.239669">
        <ele>31.12</ele>
        <time>2022-02-05T07:52:28Z</time>
      </trkpt>
      <trkpt lat="37.272148" lon="-6.239804">
        <ele>30.75</ele>
        <time>2022-02-05T07:52:31Z</time>
      </trkpt>
      <trkpt lat="37.272003" lon="-6.239947">
        <ele>30.40</ele>
        <time>2022-02-05T07:52:34Z</time>
      </trkpt>
      <trkpt lat="37.271818" lon="-6.240146">
        <ele>29.18</ele>
        <time>2022-02-05T07:52:38Z</time>
      </trkpt>
      <trkpt lat="37.271664" lon="-6.240306">
        <ele>28.83</ele>
        <time>2022-02-05T07:52:41Z</time>
      </trkpt>
      <trkpt lat="37.271508" lon="-6.240457">
        <ele>28.34</ele>
        <time>2022-02-05T07:52:44Z</time>
      </trkpt>
      <trkpt lat="37.271358" lon="-6.240613">
        <ele>27.81</ele>
        <time>2022-02-05T07:52:47Z</time>
      </trkpt>
      <trkpt lat="37.271197" lon="-6.240762">
        <ele>27.99</ele>
        <time>2022-02-05T07:52:50Z</time>
      </trkpt>
      <trkpt lat="37.271012" lon="-6.240923">
        <ele>28.82</ele>
        <time>2022-02-05T07:52:54Z</time>
      </trkpt>
      <trkpt lat="37.270846" lon="-6.241096">
        <ele>29.85</ele>
        <time>2022-02-05T07:52:58Z</time>
      </trkpt>
      <trkpt lat="37.270675" lon="-6.241249">
        <ele>30.26</ele>
        <time>2022-02-05T07:53:02Z</time>
      </trkpt>
      <trkpt lat="37.270499" lon="-6.241416">
        <ele>30.03</ele>
        <time>2022-02-05T07:53:06Z</time>
      </trkpt>
      <trkpt lat="37.270338" lon="-6.241567">
        <ele>29.76</ele>
        <time>2022-02-05T07:53:10Z</time>
      </trkpt>
      <trkpt lat="37.270175" lon="-6.241675">
        <ele>29.15</ele>
        <time>2022-02-05T07:53:14Z</time>
      </trkpt>
      <trkpt lat="37.270007" lon="-6.241787">
        <ele>28.23</ele>
        <time>2022-02-05T07:53:18Z</time>
      </trkpt>
      <trkpt lat="37.269828" lon="-6.241946">
        <ele>28.12</ele>
        <time>2022-02-05T07:53:23Z</time>
      </trkpt>
      <trkpt lat="37.269661" lon="-6.242094">
        <ele>27.96</ele>
        <time>2022-02-05T07:53:28Z</time>
      </trkpt>
      <trkpt lat="37.269494" lon="-6.242233">
        <ele>27.68</ele>
        <time>2022-02-05T07:53:33Z</time>
      </trkpt>
      <trkpt lat="37.269346" lon="-6.242373">
        <ele>27.84</ele>
        <time>2022-02-05T07:53:38Z</time>
      </trkpt>
      <trkpt lat="37.269199" lon="-6.242513">
        <ele>27.51</ele>
        <time>2022-02-05T07:53:42Z</time>
      </trkpt>
      <trkpt lat="37.269042" lon="-6.242654">
        <ele>27.45</ele>
        <time>2022-02-05T07:53:46Z</time>
      </trkpt>
      <trkpt lat="37.268873" lon="-6.242802">
        <ele>27.52</ele>
        <time>2022-02-05T07:53:50Z</time>
      </trkpt>
      <trkpt lat="37.268715" lon="-6.242953">
        <ele>26.67</ele>
        <time>2022-02-05T07:53:54Z</time>
      </trkpt>
      <trkpt lat="37.268556" lon="-6.243066">
        <ele>25.83</ele>
        <time>2022-02-05T07:53:58Z</time>
      </trkpt>
      <trkpt lat="37.268410" lon="-6.243202">
        <ele>27.15</ele>
        <time>2022-02-05T07:54:02Z</time>
      </trkpt>
      <trkpt lat="37.268250" lon="-6.243331">
        <ele>26.92</ele>
        <time>2022-02-05T07:54:06Z</time>
      </trkpt>
      <trkpt lat="37.268088" lon="-6.243452">
        <ele>27.09</ele>
        <time>2022-02-05T07:54:10Z</time>
      </trkpt>
      <trkpt lat="37.267914" lon="-6.243594">
        <ele>27.99</ele>
        <time>2022-02-05T07:54:15Z</time>
      </trkpt>
      <trkpt lat="37.267744" lon="-6.243731">
        <ele>28.64</ele>
        <time>2022-02-05T07:54:20Z</time>
      </trkpt>
      <trkpt lat="37.267580" lon="-6.243862">
        <ele>28.46</ele>
        <time>2022-02-05T07:54:25Z</time>
      </trkpt>
      <trkpt lat="37.267395" lon="-6.243997">
        <ele>29.78</ele>
        <time>2022-02-05T07:54:31Z</time>
      </trkpt>
      <trkpt lat="37.267218" lon="-6.244139">
        <ele>28.29</ele>
        <time>2022-02-05T07:54:37Z</time>
      </trkpt>
      <trkpt lat="37.267093" lon="-6.244335">
        <ele>29.86</ele>
        <time>2022-02-05T07:54:45Z</time>
      </trkpt>
      <trkpt lat="37.266958" lon="-6.244528">
        <ele>30.25</ele>
        <time>2022-02-05T07:54:51Z</time>
      </trkpt>
      <trkpt lat="37.266817" lon="-6.244675">
        <ele>30.30</ele>
        <time>2022-02-05T07:54:56Z</time>
      </trkpt>
      <trkpt lat="37.266652" lon="-6.244825">
        <ele>29.50</ele>
        <time>2022-02-05T07:55:01Z</time>
      </trkpt>
      <trkpt lat="37.266465" lon="-6.244978">
        <ele>29.36</ele>
        <time>2022-02-05T07:55:06Z</time>
      </trkpt>
      <trkpt lat="37.266309" lon="-6.245098">
        <ele>28.95</ele>
        <time>2022-02-05T07:55:10Z</time>
      </trkpt>
      <trkpt lat="37.266145" lon="-6.245234">
        <ele>29.19</ele>
        <time>2022-02-05T07:55:14Z</time>
      </trkpt>
      <trkpt lat="37.265997" lon="-6.245397">
        <ele>30.15</ele>
        <time>2022-02-05T07:55:18Z</time>
      </trkpt>
      <trkpt lat="37.265831" lon="-6.245585">
        <ele>29.53</ele>
        <time>2022-02-05T07:55:23Z</time>
      </trkpt>
      <trkpt lat="37.265659" lon="-6.245755">
        <ele>28.96</ele>
        <time>2022-02-05T07:55:27Z</time>
      </trkpt>
      <trkpt lat="37.265502" lon="-6.245964">
        <ele>29.15</ele>
        <time>2022-02-05T07:55:31Z</time>
      </trkpt>
      <trkpt lat="37.265371" lon="-6.246153">
        <ele>26.44</ele>
        <time>2022-02-05T07:55:34Z</time>
      </trkpt>
      <trkpt lat="37.265262" lon="-6.246370">
        <ele>25.85</ele>
        <time>2022-02-05T07:55:37Z</time>
      </trkpt>
      <trkpt lat="37.265174" lon="-6.246596">
        <ele>25.32</ele>
        <time>2022-02-05T07:55:40Z</time>
      </trkpt>
      <trkpt lat="37.265105" lon="-6.246853">
        <ele>24.81</ele>
        <time>2022-02-05T07:55:43Z</time>
      </trkpt>
      <trkpt lat="37.265051" lon="-6.247082">
        <ele>24.86</ele>
        <time>2022-02-05T07:55:46Z</time>
      </trkpt>
      <trkpt lat="37.265006" lon="-6.247318">
        <ele>24.06</ele>
        <time>2022-02-05T07:55:49Z</time>
      </trkpt>
      <trkpt lat="37.264945" lon="-6.247557">
        <ele>22.78</ele>
        <time>2022-02-05T07:55:52Z</time>
      </trkpt>
      <trkpt lat="37.264892" lon="-6.247781">
        <ele>23.56</ele>
        <time>2022-02-05T07:55:55Z</time>
      </trkpt>
      <trkpt lat="37.264818" lon="-6.247994">
        <ele>23.31</ele>
        <time>2022-02-05T07:55:58Z</time>
      </trkpt>
      <trkpt lat="37.264714" lon="-6.248184">
        <ele>22.93</ele>
        <time>2022-02-05T07:56:01Z</time>
      </trkpt>
      <trkpt lat="37.264606" lon="-6.248368">
        <ele>23.13</ele>
        <time>2022-02-05T07:56:04Z</time>
      </trkpt>
      <trkpt lat="37.264499" lon="-6.248553">
        <ele>22.38</ele>
        <time>2022-02-05T07:56:07Z</time>
      </trkpt>
      <trkpt lat="37.264358" lon="-6.248781">
        <ele>22.46</ele>
        <time>2022-02-05T07:56:11Z</time>
      </trkpt>
      <trkpt lat="37.264210" lon="-6.248972">
        <ele>22.88</ele>
        <time>2022-02-05T07:56:15Z</time>
      </trkpt>
      <trkpt lat="37.264069" lon="-6.249132">
        <ele>24.68</ele>
        <time>2022-02-05T07:56:19Z</time>
      </trkpt>
      <trkpt lat="37.263910" lon="-6.249270">
        <ele>25.27</ele>
        <time>2022-02-05T07:56:23Z</time>
      </trkpt>
      <trkpt lat="37.263748" lon="-6.249433">
        <ele>25.19</ele>
        <time>2022-02-05T07:56:28Z</time>
      </trkpt>
      <trkpt lat="37.263598" lon="-6.249581">
        <ele>23.88</ele>
        <time>2022-02-05T07:56:32Z</time>
      </trkpt>
      <trkpt lat="37.263431" lon="-6.249752">
        <ele>23.46</ele>
        <time>2022-02-05T07:56:36Z</time>
      </trkpt>
      <trkpt lat="37.263262" lon="-6.249911">
        <ele>24.71</ele>
        <time>2022-02-05T07:56:40Z</time>
      </trkpt>
      <trkpt lat="37.263085" lon="-6.250078">
        <ele>24.34</ele>
        <time>2022-02-05T07:56:44Z</time>
      </trkpt>
      <trkpt lat="37.262929" lon="-6.250252">
        <ele>23.41</ele>
        <time>2022-02-05T07:56:48Z</time>
      </trkpt>
      <trkpt lat="37.262776" lon="-6.250391">
        <ele>24.48</ele>
        <time>2022-02-05T07:56:52Z</time>
      </trkpt>
      <trkpt lat="37.262607" lon="-6.250536">
        <ele>23.70</ele>
        <time>2022-02-05T07:56:56Z</time>
      </trkpt>
      <trkpt lat="37.262428" lon="-6.250727">
        <ele>23.89</ele>
        <time>2022-02-05T07:57:00Z</time>
      </trkpt>
      <trkpt lat="37.262281" lon="-6.250879">
        <ele>23.24</ele>
        <time>2022-02-05T07:57:03Z</time>
      </trkpt>
      <trkpt lat="37.262116" lon="-6.251101">
        <ele>22.89</ele>
        <time>2022-02-05T07:57:07Z</time>
      </trkpt>
      <trkpt lat="37.262004" lon="-6.251289">
        <ele>23.77</ele>
        <time>2022-02-05T07:57:10Z</time>
      </trkpt>
      <trkpt lat="37.261887" lon="-6.251463">
        <ele>25.09</ele>
        <time>2022-02-05T07:57:13Z</time>
      </trkpt>
      <trkpt lat="37.261772" lon="-6.251682">
        <ele>26.80</ele>
        <time>2022-02-05T07:57:17Z</time>
      </trkpt>
      <trkpt lat="37.261670" lon="-6.251915">
        <ele>27.14</ele>
        <time>2022-02-05T07:57:22Z</time>
      </trkpt>
      <trkpt lat="37.261570" lon="-6.252136">
        <ele>26.91</ele>
        <time>2022-02-05T07:57:27Z</time>
      </trkpt>
      <trkpt lat="37.261477" lon="-6.252354">
        <ele>26.32</ele>
        <time>2022-02-05T07:57:32Z</time>
      </trkpt>
      <trkpt lat="37.261374" lon="-6.252561">
        <ele>26.91</ele>
        <time>2022-02-05T07:57:37Z</time>
      </trkpt>
      <trkpt lat="37.261250" lon="-6.252771">
        <ele>27.00</ele>
        <time>2022-02-05T07:57:42Z</time>
      </trkpt>
      <trkpt lat="37.261112" lon="-6.252997">
        <ele>26.81</ele>
        <time>2022-02-05T07:57:47Z</time>
      </trkpt>
      <trkpt lat="37.260995" lon="-6.253216">
        <ele>26.09</ele>
        <time>2022-02-05T07:57:51Z</time>
      </trkpt>
      <trkpt lat="37.260886" lon="-6.253454">
        <ele>26.49</ele>
        <time>2022-02-05T07:57:55Z</time>
      </trkpt>
      <trkpt lat="37.260770" lon="-6.253688">
        <ele>26.56</ele>
        <time>2022-02-05T07:57:59Z</time>
      </trkpt>
      <trkpt lat="37.260654" lon="-6.253949">
        <ele>25.87</ele>
        <time>2022-02-05T07:58:03Z</time>
      </trkpt>
      <trkpt lat="37.260564" lon="-6.254163">
        <ele>24.87</ele>
        <time>2022-02-05T07:58:06Z</time>
      </trkpt>
      <trkpt lat="37.260459" lon="-6.254386">
        <ele>23.95</ele>
        <time>2022-02-05T07:58:09Z</time>
      </trkpt>
      <trkpt lat="37.260329" lon="-6.254611">
        <ele>22.70</ele>
        <time>2022-02-05T07:58:12Z</time>
      </trkpt>
      <trkpt lat="37.260191" lon="-6.254836">
        <ele>21.69</ele>
        <time>2022-02-05T07:58:15Z</time>
      </trkpt>
      <trkpt lat="37.260052" lon="-6.255056">
        <ele>21.04</ele>
        <time>2022-02-05T07:58:18Z</time>
      </trkpt>
      <trkpt lat="37.259920" lon="-6.255279">
        <ele>20.84</ele>
        <time>2022-02-05T07:58:21Z</time>
      </trkpt>
      <trkpt lat="37.259794" lon="-6.255498">
        <ele>20.50</ele>
        <time>2022-02-05T07:58:24Z</time>
      </trkpt>
      <trkpt lat="37.259666" lon="-6.255708">
        <ele>20.54</ele>
        <time>2022-02-05T07:58:27Z</time>
      </trkpt>
      <trkpt lat="37.259525" lon="-6.255901">
        <ele>20.29</ele>
        <time>2022-02-05T07:58:30Z</time>
      </trkpt>
      <trkpt lat="37.259370" lon="-6.256074">
        <ele>20.11</ele>
        <time>2022-02-05T07:58:33Z</time>
      </trkpt>
      <trkpt lat="37.259220" lon="-6.256232">
        <ele>19.75</ele>
        <time>2022-02-05T07:58:36Z</time>
      </trkpt>
      <trkpt lat="37.259085" lon="-6.256396">
        <ele>19.43</ele>
        <time>2022-02-05T07:58:39Z</time>
      </trkpt>
      <trkpt lat="37.258938" lon="-6.256549">
        <ele>18.96</ele>
        <time>2022-02-05T07:58:42Z</time>
      </trkpt>
      <trkpt lat="37.258792" lon="-6.256697">
        <ele>18.91</ele>
        <time>2022-02-05T07:58:45Z</time>
      </trkpt>
      <trkpt lat="37.258647" lon="-6.256843">
        <ele>19.02</ele>
        <time>2022-02-05T07:58:48Z</time>
      </trkpt>
      <trkpt lat="37.258465" lon="-6.257028">
        <ele>19.80</ele>
        <time>2022-02-05T07:58:52Z</time>
      </trkpt>
      <trkpt lat="37.258269" lon="-6.257184">
        <ele>20.38</ele>
        <time>2022-02-05T07:58:56Z</time>
      </trkpt>
      <trkpt lat="37.258067" lon="-6.257316">
        <ele>20.59</ele>
        <time>2022-02-05T07:59:00Z</time>
      </trkpt>
      <trkpt lat="37.257868" lon="-6.257431">
        <ele>20.18</ele>
        <time>2022-02-05T07:59:04Z</time>
      </trkpt>
      <trkpt lat="37.257661" lon="-6.257564">
        <ele>19.43</ele>
        <time>2022-02-05T07:59:08Z</time>
      </trkpt>
      <trkpt lat="37.257476" lon="-6.257644">
        <ele>18.37</ele>
        <time>2022-02-05T07:59:11Z</time>
      </trkpt>
      <trkpt lat="37.257288" lon="-6.257731">
        <ele>17.25</ele>
        <time>2022-02-05T07:59:14Z</time>
      </trkpt>
      <trkpt lat="37.257091" lon="-6.257809">
        <ele>16.70</ele>
        <time>2022-02-05T07:59:17Z</time>
      </trkpt>
      <trkpt lat="37.256895" lon="-6.257894">
        <ele>16.05</ele>
        <time>2022-02-05T07:59:20Z</time>
      </trkpt>
      <trkpt lat="37.256701" lon="-6.257984">
        <ele>15.38</ele>
        <time>2022-02-05T07:59:23Z</time>
      </trkpt>
      <trkpt lat="37.256511" lon="-6.258076">
        <ele>15.05</ele>
        <time>2022-02-05T07:59:26Z</time>
      </trkpt>
      <trkpt lat="37.256335" lon="-6.258165">
        <ele>14.24</ele>
        <time>2022-02-05T07:59:29Z</time>
      </trkpt>
      <trkpt lat="37.256155" lon="-6.258235">
        <ele>14.22</ele>
        <time>2022-02-05T07:59:32Z</time>
      </trkpt>
      <trkpt lat="37.255977" lon="-6.258308">
        <ele>14.00</ele>
        <time>2022-02-05T07:59:35Z</time>
      </trkpt>
      <trkpt lat="37.255803" lon="-6.258375">
        <ele>14.21</ele>
        <time>2022-02-05T07:59:38Z</time>
      </trkpt>
      <trkpt lat="37.255626" lon="-6.258430">
        <ele>13.67</ele>
        <time>2022-02-05T07:59:41Z</time>
      </trkpt>
      <trkpt lat="37.255450" lon="-6.258508">
        <ele>13.63</ele>
        <time>2022-02-05T07:59:44Z</time>
      </trkpt>
      <trkpt lat="37.255275" lon="-6.258563">
        <ele>12.89</ele>
        <time>2022-02-05T07:59:47Z</time>
      </trkpt>
      <trkpt lat="37.255104" lon="-6.258647">
        <ele>12.89</ele>
        <time>2022-02-05T07:59:50Z</time>
      </trkpt>
      <trkpt lat="37.254902" lon="-6.258793">
        <ele>13.25</ele>
        <time>2022-02-05T07:59:54Z</time>
      </trkpt>
      <trkpt lat="37.254742" lon="-6.258924">
        <ele>14.68</ele>
        <time>2022-02-05T07:59:58Z</time>
      </trkpt>
      <trkpt lat="37.254567" lon="-6.259079">
        <ele>14.23</ele>
        <time>2022-02-05T08:00:02Z</time>
      </trkpt>
      <trkpt lat="37.254410" lon="-6.259199">
        <ele>13.58</ele>
        <time>2022-02-05T08:00:05Z</time>
      </trkpt>
      <trkpt lat="37.254226" lon="-6.259283">
        <ele>13.35</ele>
        <time>2022-02-05T08:00:08Z</time>
      </trkpt>
      <trkpt lat="37.254047" lon="-6.259351">
        <ele>13.11</ele>
        <time>2022-02-05T08:00:11Z</time>
      </trkpt>
      <trkpt lat="37.253825" lon="-6.259453">
        <ele>13.12</ele>
        <time>2022-02-05T08:00:15Z</time>
      </trkpt>
      <trkpt lat="37.253607" lon="-6.259505">
        <ele>13.88</ele>
        <time>2022-02-05T08:00:19Z</time>
      </trkpt>
      <trkpt lat="37.253393" lon="-6.259553">
        <ele>13.52</ele>
        <time>2022-02-05T08:00:23Z</time>
      </trkpt>
      <trkpt lat="37.253185" lon="-6.259608">
        <ele>12.80</ele>
        <time>2022-02-05T08:00:27Z</time>
      </trkpt>
      <trkpt lat="37.252984" lon="-6.259666">
        <ele>13.39</ele>
        <time>2022-02-05T08:00:31Z</time>
      </trkpt>
      <trkpt lat="37.252795" lon="-6.259720">
        <ele>15.10</ele>
        <time>2022-02-05T08:00:35Z</time>
      </trkpt>
      <trkpt lat="37.252606" lon="-6.259786">
        <ele>15.94</ele>
        <time>2022-02-05T08:00:39Z</time>
      </trkpt>
      <trkpt lat="37.252432" lon="-6.259851">
        <ele>16.45</ele>
        <time>2022-02-05T08:00:43Z</time>
      </trkpt>
      <trkpt lat="37.252255" lon="-6.259913">
        <ele>16.22</ele>
        <time>2022-02-05T08:00:47Z</time>
      </trkpt>
      <trkpt lat="37.252091" lon="-6.260007">
        <ele>15.95</ele>
        <time>2022-02-05T08:00:51Z</time>
      </trkpt>
      <trkpt lat="37.251909" lon="-6.260142">
        <ele>13.68</ele>
        <time>2022-02-05T08:00:55Z</time>
      </trkpt>
      <trkpt lat="37.251721" lon="-6.260268">
        <ele>11.83</ele>
        <time>2022-02-05T08:00:58Z</time>
      </trkpt>
      <trkpt lat="37.251534" lon="-6.260432">
        <ele>10.60</ele>
        <time>2022-02-05T08:01:01Z</time>
      </trkpt>
      <trkpt lat="37.251335" lon="-6.260599">
        <ele>10.23</ele>
        <time>2022-02-05T08:01:04Z</time>
      </trkpt>
      <trkpt lat="37.251128" lon="-6.260747">
        <ele>10.31</ele>
        <time>2022-02-05T08:01:07Z</time>
      </trkpt>
      <trkpt lat="37.250935" lon="-6.260878">
        <ele>9.84</ele>
        <time>2022-02-05T08:01:10Z</time>
      </trkpt>
      <trkpt lat="37.250761" lon="-6.261019">
        <ele>9.33</ele>
        <time>2022-02-05T08:01:13Z</time>
      </trkpt>
      <trkpt lat="37.250572" lon="-6.261142">
        <ele>8.76</ele>
        <time>2022-02-05T08:01:16Z</time>
      </trkpt>
      <trkpt lat="37.250388" lon="-6.261284">
        <ele>7.82</ele>
        <time>2022-02-05T08:01:19Z</time>
      </trkpt>
      <trkpt lat="37.250208" lon="-6.261418">
        <ele>7.28</ele>
        <time>2022-02-05T08:01:22Z</time>
      </trkpt>
      <trkpt lat="37.250033" lon="-6.261542">
        <ele>6.61</ele>
        <time>2022-02-05T08:01:25Z</time>
      </trkpt>
      <trkpt lat="37.249857" lon="-6.261675">
        <ele>8.13</ele>
        <time>2022-02-05T08:01:28Z</time>
      </trkpt>
      <trkpt lat="37.249687" lon="-6.261813">
        <ele>7.65</ele>
        <time>2022-02-05T08:01:31Z</time>
      </trkpt>
      <trkpt lat="37.249520" lon="-6.261960">
        <ele>6.81</ele>
        <time>2022-02-05T08:01:34Z</time>
      </trkpt>
      <trkpt lat="37.249381" lon="-6.262111">
        <ele>7.21</ele>
        <time>2022-02-05T08:01:37Z</time>
      </trkpt>
      <trkpt lat="37.249230" lon="-6.262237">
        <ele>6.81</ele>
        <time>2022-02-05T08:01:40Z</time>
      </trkpt>
      <trkpt lat="37.249038" lon="-6.262386">
        <ele>7.03</ele>
        <time>2022-02-05T08:01:44Z</time>
      </trkpt>
      <trkpt lat="37.248877" lon="-6.262531">
        <ele>7.29</ele>
        <time>2022-02-05T08:01:48Z</time>
      </trkpt>
      <trkpt lat="37.248706" lon="-6.262631">
        <ele>7.85</ele>
        <time>2022-02-05T08:01:52Z</time>
      </trkpt>
      <trkpt lat="37.248528" lon="-6.262722">
        <ele>7.74</ele>
        <time>2022-02-05T08:01:56Z</time>
      </trkpt>
      <trkpt lat="37.248331" lon="-6.262784">
        <ele>5.83</ele>
        <time>2022-02-05T08:02:00Z</time>
      </trkpt>
      <trkpt lat="37.248137" lon="-6.262852">
        <ele>5.77</ele>
        <time>2022-02-05T08:02:05Z</time>
      </trkpt>
      <trkpt lat="37.247964" lon="-6.262927">
        <ele>4.38</ele>
        <time>2022-02-05T08:02:09Z</time>
      </trkpt>
      <trkpt lat="37.247776" lon="-6.263013">
        <ele>6.44</ele>
        <time>2022-02-05T08:02:13Z</time>
      </trkpt>
      <trkpt lat="37.247586" lon="-6.263091">
        <ele>6.75</ele>
        <time>2022-02-05T08:02:17Z</time>
      </trkpt>
      <trkpt lat="37.247385" lon="-6.263144">
        <ele>6.23</ele>
        <time>2022-02-05T08:02:21Z</time>
      </trkpt>
      <trkpt lat="37.247183" lon="-6.263259">
        <ele>6.76</ele>
        <time>2022-02-05T08:02:25Z</time>
      </trkpt>
      <trkpt lat="37.246963" lon="-6.263388">
        <ele>6.61</ele>
        <time>2022-02-05T08:02:29Z</time>
      </trkpt>
      <trkpt lat="37.246751" lon="-6.263499">
        <ele>6.59</ele>
        <time>2022-02-05T08:02:33Z</time>
      </trkpt>
      <trkpt lat="37.246545" lon="-6.263593">
        <ele>4.53</ele>
        <time>2022-02-05T08:02:38Z</time>
      </trkpt>
      <trkpt lat="37.246371" lon="-6.263658">
        <ele>3.66</ele>
        <time>2022-02-05T08:02:42Z</time>
      </trkpt>
      <trkpt lat="37.246160" lon="-6.263765">
        <ele>3.95</ele>
        <time>2022-02-05T08:02:46Z</time>
      </trkpt>
      <trkpt lat="37.245958" lon="-6.263892">
        <ele>3.54</ele>
        <time>2022-02-05T08:02:50Z</time>
      </trkpt>
      <trkpt lat="37.245777" lon="-6.264029">
        <ele>4.81</ele>
        <time>2022-02-05T08:02:55Z</time>
      </trkpt>
      <trkpt lat="37.245589" lon="-6.264103">
        <ele>4.20</ele>
        <time>2022-02-05T08:03:00Z</time>
      </trkpt>
      <trkpt lat="37.245422" lon="-6.264212">
        <ele>3.50</ele>
        <time>2022-02-05T08:03:05Z</time>
      </trkpt>
      <trkpt lat="37.245256" lon="-6.264347">
        <ele>4.61</ele>
        <time>2022-02-05T08:03:12Z</time>
      </trkpt>
      <trkpt lat="37.245104" lon="-6.264515">
        <ele>4.84</ele>
        <time>2022-02-05T08:03:20Z</time>
      </trkpt>
      <trkpt lat="37.245006" lon="-6.264713">
        <ele>4.09</ele>
        <time>2022-02-05T08:03:31Z</time>
      </trkpt>
      <trkpt lat="37.245205" lon="-6.264756">
        <ele>3.30</ele>
        <time>2022-02-05T08:03:41Z</time>
      </trkpt>
      <trkpt lat="37.245399" lon="-6.264652">
        <ele>2.00</ele>
        <time>2022-02-05T08:03:47Z</time>
      </trkpt>
      <trkpt lat="37.245593" lon="-6.264563">
        <ele>2.84</ele>
        <time>2022-02-05T08:03:53Z</time>
      </trkpt>
      <trkpt lat="37.245800" lon="-6.264595">
        <ele>4.74</ele>
        <time>2022-02-05T08:03:59Z</time>
      </trkpt>
      <trkpt lat="37.245825" lon="-6.264826">
        <ele>6.49</ele>
        <time>2022-02-05T08:04:05Z</time>
      </trkpt>
      <trkpt lat="37.245954" lon="-6.265009">
        <ele>6.99</ele>
        <time>2022-02-05T08:04:12Z</time>
      </trkpt>
      <trkpt lat="37.246030" lon="-6.265218">
        <ele>6.26</ele>
        <time>2022-02-05T08:04:17Z</time>
      </trkpt>
      <trkpt lat="37.246065" lon="-6.265465">
        <ele>6.07</ele>
        <time>2022-02-05T08:04:22Z</time>
      </trkpt>
      <trkpt lat="37.246098" lon="-6.265737">
        <ele>6.50</ele>
        <time>2022-02-05T08:04:27Z</time>
      </trkpt>
      <trkpt lat="37.246118" lon="-6.265968">
        <ele>6.41</ele>
        <time>2022-02-05T08:04:31Z</time>
      </trkpt>
      <trkpt lat="37.246147" lon="-6.266205">
        <ele>6.51</ele>
        <time>2022-02-05T08:04:35Z</time>
      </trkpt>
      <trkpt lat="37.246184" lon="-6.266435">
        <ele>6.21</ele>
        <time>2022-02-05T08:04:39Z</time>
      </trkpt>
      <trkpt lat="37.246208" lon="-6.266678">
        <ele>7.08</ele>
        <time>2022-02-05T08:04:44Z</time>
      </trkpt>
      <trkpt lat="37.246199" lon="-6.266948">
        <ele>8.75</ele>
        <time>2022-02-05T08:04:50Z</time>
      </trkpt>
      <trkpt lat="37.246129" lon="-6.267168">
        <ele>9.36</ele>
        <time>2022-02-05T08:04:55Z</time>
      </trkpt>
      <trkpt lat="37.246009" lon="-6.267356">
        <ele>9.49</ele>
        <time>2022-02-05T08:05:00Z</time>
      </trkpt>
      <trkpt lat="37.245883" lon="-6.267566">
        <ele>9.45</ele>
        <time>2022-02-05T08:05:05Z</time>
      </trkpt>
      <trkpt lat="37.245757" lon="-6.267765">
        <ele>8.75</ele>
        <time>2022-02-05T08:05:11Z</time>
      </trkpt>
      <trkpt lat="37.245677" lon="-6.267984">
        <ele>8.06</ele>
        <time>2022-02-05T08:05:18Z</time>
      </trkpt>
      <trkpt lat="37.245727" lon="-6.268218">
        <ele>7.75</ele>
        <time>2022-02-05T08:05:22Z</time>
      </trkpt>
      <trkpt lat="37.245791" lon="-6.268462">
        <ele>7.71</ele>
        <time>2022-02-05T08:05:26Z</time>
      </trkpt>
      <trkpt lat="37.245874" lon="-6.268711">
        <ele>7.58</ele>
        <time>2022-02-05T08:05:30Z</time>
      </trkpt>
      <trkpt lat="37.245972" lon="-6.268965">
        <ele>8.09</ele>
        <time>2022-02-05T08:05:34Z</time>
      </trkpt>
      <trkpt lat="37.246072" lon="-6.269220">
        <ele>8.14</ele>
        <time>2022-02-05T08:05:38Z</time>
      </trkpt>
      <trkpt lat="37.246164" lon="-6.269457">
        <ele>7.55</ele>
        <time>2022-02-05T08:05:42Z</time>
      </trkpt>
      <trkpt lat="37.246255" lon="-6.269692">
        <ele>7.13</ele>
        <time>2022-02-05T08:05:46Z</time>
      </trkpt>
      <trkpt lat="37.246337" lon="-6.269930">
        <ele>7.50</ele>
        <time>2022-02-05T08:05:50Z</time>
      </trkpt>
      <trkpt lat="37.246424" lon="-6.270170">
        <ele>7.69</ele>
        <time>2022-02-05T08:05:54Z</time>
      </trkpt>
      <trkpt lat="37.246502" lon="-6.270414">
        <ele>7.61</ele>
        <time>2022-02-05T08:05:58Z</time>
      </trkpt>
      <trkpt lat="37.246564" lon="-6.270670">
        <ele>7.54</ele>
        <time>2022-02-05T08:06:02Z</time>
      </trkpt>
      <trkpt lat="37.246611" lon="-6.270930">
        <ele>7.77</ele>
        <time>2022-02-05T08:06:06Z</time>
      </trkpt>
      <trkpt lat="37.246670" lon="-6.271183">
        <ele>7.48</ele>
        <time>2022-02-05T08:06:10Z</time>
      </trkpt>
      <trkpt lat="37.246724" lon="-6.271432">
        <ele>7.76</ele>
        <time>2022-02-05T08:06:14Z</time>
      </trkpt>
      <trkpt lat="37.246759" lon="-6.271693">
        <ele>8.20</ele>
        <time>2022-02-05T08:06:18Z</time>
      </trkpt>
      <trkpt lat="37.246788" lon="-6.271945">
        <ele>8.12</ele>
        <time>2022-02-05T08:06:22Z</time>
      </trkpt>
      <trkpt lat="37.246832" lon="-6.272198">
        <ele>8.52</ele>
        <time>2022-02-05T08:06:26Z</time>
      </trkpt>
      <trkpt lat="37.246869" lon="-6.272450">
        <ele>8.93</ele>
        <time>2022-02-05T08:06:30Z</time>
      </trkpt>
      <trkpt lat="37.246891" lon="-6.272689">
        <ele>10.47</ele>
        <time>2022-02-05T08:06:34Z</time>
      </trkpt>
      <trkpt lat="37.246893" lon="-6.272956">
        <ele>11.12</ele>
        <time>2022-02-05T08:06:39Z</time>
      </trkpt>
      <trkpt lat="37.246924" lon="-6.273206">
        <ele>11.76</ele>
        <time>2022-02-05T08:06:44Z</time>
      </trkpt>
      <trkpt lat="37.247025" lon="-6.273462">
        <ele>12.21</ele>
        <time>2022-02-05T08:06:49Z</time>
      </trkpt>
      <trkpt lat="37.247110" lon="-6.273668">
        <ele>11.94</ele>
        <time>2022-02-05T08:06:53Z</time>
      </trkpt>
      <trkpt lat="37.247176" lon="-6.273892">
        <ele>11.99</ele>
        <time>2022-02-05T08:06:57Z</time>
      </trkpt>
      <trkpt lat="37.247233" lon="-6.274109">
        <ele>12.14</ele>
        <time>2022-02-05T08:07:01Z</time>
      </trkpt>
      <trkpt lat="37.247290" lon="-6.274375">
        <ele>12.90</ele>
        <time>2022-02-05T08:07:06Z</time>
      </trkpt>
      <trkpt lat="37.247317" lon="-6.274615">
        <ele>13.65</ele>
        <time>2022-02-05T08:07:11Z</time>
      </trkpt>
      <trkpt lat="37.247315" lon="-6.274856">
        <ele>13.45</ele>
        <time>2022-02-05T08:07:16Z</time>
      </trkpt>
      <trkpt lat="37.247310" lon="-6.275136">
        <ele>13.60</ele>
        <time>2022-02-05T08:07:21Z</time>
      </trkpt>
      <trkpt lat="37.247275" lon="-6.275373">
        <ele>14.15</ele>
        <time>2022-02-05T08:07:25Z</time>
      </trkpt>
      <trkpt lat="37.247232" lon="-6.275613">
        <ele>14.21</ele>
        <time>2022-02-05T08:07:29Z</time>
      </trkpt>
      <trkpt lat="37.247222" lon="-6.275871">
        <ele>14.08</ele>
        <time>2022-02-05T08:07:33Z</time>
      </trkpt>
      <trkpt lat="37.247216" lon="-6.276128">
        <ele>14.40</ele>
        <time>2022-02-05T08:07:37Z</time>
      </trkpt>
      <trkpt lat="37.247229" lon="-6.276380">
        <ele>15.01</ele>
        <time>2022-02-05T08:07:41Z</time>
      </trkpt>
      <trkpt lat="37.247234" lon="-6.276617">
        <ele>15.50</ele>
        <time>2022-02-05T08:07:45Z</time>
      </trkpt>
      <trkpt lat="37.247245" lon="-6.276854">
        <ele>15.40</ele>
        <time>2022-02-05T08:07:49Z</time>
      </trkpt>
      <trkpt lat="37.247249" lon="-6.277088">
        <ele>16.06</ele>
        <time>2022-02-05T08:07:53Z</time>
      </trkpt>
      <trkpt lat="37.247252" lon="-6.277362">
        <ele>17.06</ele>
        <time>2022-02-05T08:07:58Z</time>
      </trkpt>
      <trkpt lat="37.247273" lon="-6.277625">
        <ele>17.10</ele>
        <time>2022-02-05T08:08:03Z</time>
      </trkpt>
      <trkpt lat="37.247290" lon="-6.277885">
        <ele>17.47</ele>
        <time>2022-02-05T08:08:08Z</time>
      </trkpt>
      <trkpt lat="37.247313" lon="-6.278150">
        <ele>17.16</ele>
        <time>2022-02-05T08:08:13Z</time>
      </trkpt>
      <trkpt lat="37.247321" lon="-6.278391">
        <ele>16.72</ele>
        <time>2022-02-05T08:08:17Z</time>
      </trkpt>
      <trkpt lat="37.247344" lon="-6.278634">
        <ele>16.35</ele>
        <time>2022-02-05T08:08:21Z</time>
      </trkpt>
      <trkpt lat="37.247358" lon="-6.278884">
        <ele>15.71</ele>
        <time>2022-02-05T08:08:25Z</time>
      </trkpt>
      <trkpt lat="37.247355" lon="-6.279124">
        <ele>15.44</ele>
        <time>2022-02-05T08:08:29Z</time>
      </trkpt>
      <trkpt lat="37.247330" lon="-6.279366">
        <ele>15.85</ele>
        <time>2022-02-05T08:08:33Z</time>
      </trkpt>
      <trkpt lat="37.247350" lon="-6.279592">
        <ele>15.62</ele>
        <time>2022-02-05T08:08:37Z</time>
      </trkpt>
      <trkpt lat="37.247358" lon="-6.279868">
        <ele>16.19</ele>
        <time>2022-02-05T08:08:42Z</time>
      </trkpt>
      <trkpt lat="37.247371" lon="-6.280130">
        <ele>16.92</ele>
        <time>2022-02-05T08:08:47Z</time>
      </trkpt>
      <trkpt lat="37.247410" lon="-6.280399">
        <ele>17.03</ele>
        <time>2022-02-05T08:08:52Z</time>
      </trkpt>
      <trkpt lat="37.247468" lon="-6.280655">
        <ele>18.14</ele>
        <time>2022-02-05T08:08:57Z</time>
      </trkpt>
      <trkpt lat="37.247510" lon="-6.280921">
        <ele>18.21</ele>
        <time>2022-02-05T08:09:02Z</time>
      </trkpt>
      <trkpt lat="37.247507" lon="-6.281185">
        <ele>18.08</ele>
        <time>2022-02-05T08:09:07Z</time>
      </trkpt>
      <trkpt lat="37.247498" lon="-6.281439">
        <ele>17.40</ele>
        <time>2022-02-05T08:09:12Z</time>
      </trkpt>
      <trkpt lat="37.247503" lon="-6.281686">
        <ele>17.63</ele>
        <time>2022-02-05T08:09:17Z</time>
      </trkpt>
      <trkpt lat="37.247539" lon="-6.281916">
        <ele>20.27</ele>
        <time>2022-02-05T08:09:22Z</time>
      </trkpt>
      <trkpt lat="37.247630" lon="-6.282117">
        <ele>21.89</ele>
        <time>2022-02-05T08:09:27Z</time>
      </trkpt>
      <trkpt lat="37.247740" lon="-6.282321">
        <ele>21.28</ele>
        <time>2022-02-05T08:09:32Z</time>
      </trkpt>
      <trkpt lat="37.247834" lon="-6.282565">
        <ele>21.14</ele>
        <time>2022-02-05T08:09:37Z</time>
      </trkpt>
      <trkpt lat="37.247924" lon="-6.282816">
        <ele>20.97</ele>
        <time>2022-02-05T08:09:42Z</time>
      </trkpt>
      <trkpt lat="37.248027" lon="-6.283005">
        <ele>21.07</ele>
        <time>2022-02-05T08:09:46Z</time>
      </trkpt>
      <trkpt lat="37.248111" lon="-6.283224">
        <ele>20.34</ele>
        <time>2022-02-05T08:09:50Z</time>
      </trkpt>
      <trkpt lat="37.248185" lon="-6.283433">
        <ele>20.62</ele>
        <time>2022-02-05T08:09:54Z</time>
      </trkpt>
      <trkpt lat="37.248233" lon="-6.283655">
        <ele>20.21</ele>
        <time>2022-02-05T08:09:59Z</time>
      </trkpt>
      <trkpt lat="37.248259" lon="-6.283893">
        <ele>19.42</ele>
        <time>2022-02-05T08:10:06Z</time>
      </trkpt>
      <trkpt lat="37.248328" lon="-6.284134">
        <ele>19.58</ele>
        <time>2022-02-05T08:10:14Z</time>
      </trkpt>
      <trkpt lat="37.248442" lon="-6.284314">
        <ele>20.77</ele>
        <time>2022-02-05T08:10:20Z</time>
      </trkpt>
      <trkpt lat="37.248530" lon="-6.284515">
        <ele>20.97</ele>
        <time>2022-02-05T08:10:26Z</time>
      </trkpt>
      <trkpt lat="37.248616" lon="-6.284730">
        <ele>20.60</ele>
        <time>2022-02-05T08:10:32Z</time>
      </trkpt>
      <trkpt lat="37.248709" lon="-6.284967">
        <ele>20.01</ele>
        <time>2022-02-05T08:10:38Z</time>
      </trkpt>
      <trkpt lat="37.248787" lon="-6.285190">
        <ele>20.35</ele>
        <time>2022-02-05T08:10:43Z</time>
      </trkpt>
      <trkpt lat="37.248854" lon="-6.285410">
        <ele>20.47</ele>
        <time>2022-02-05T08:10:48Z</time>
      </trkpt>
      <trkpt lat="37.248945" lon="-6.285612">
        <ele>20.52</ele>
        <time>2022-02-05T08:10:53Z</time>
      </trkpt>
      <trkpt lat="37.249054" lon="-6.285830">
        <ele>21.18</ele>
        <time>2022-02-05T08:10:58Z</time>
      </trkpt>
      <trkpt lat="37.249127" lon="-6.286063">
        <ele>21.10</ele>
        <time>2022-02-05T08:11:03Z</time>
      </trkpt>
      <trkpt lat="37.249178" lon="-6.286305">
        <ele>20.10</ele>
        <time>2022-02-05T08:11:08Z</time>
      </trkpt>
      <trkpt lat="37.249268" lon="-6.286512">
        <ele>19.92</ele>
        <time>2022-02-05T08:11:13Z</time>
      </trkpt>
      <trkpt lat="37.249322" lon="-6.286758">
        <ele>20.25</ele>
        <time>2022-02-05T08:11:18Z</time>
      </trkpt>
      <trkpt lat="37.249361" lon="-6.287009">
        <ele>20.79</ele>
        <time>2022-02-05T08:11:23Z</time>
      </trkpt>
      <trkpt lat="37.249384" lon="-6.287258">
        <ele>20.26</ele>
        <time>2022-02-05T08:11:28Z</time>
      </trkpt>
      <trkpt lat="37.249397" lon="-6.287503">
        <ele>20.59</ele>
        <time>2022-02-05T08:11:33Z</time>
      </trkpt>
      <trkpt lat="37.249403" lon="-6.287754">
        <ele>21.10</ele>
        <time>2022-02-05T08:11:38Z</time>
      </trkpt>
      <trkpt lat="37.249403" lon="-6.288025">
        <ele>22.82</ele>
        <time>2022-02-05T08:11:44Z</time>
      </trkpt>
      <trkpt lat="37.249427" lon="-6.288271">
        <ele>22.91</ele>
        <time>2022-02-05T08:11:49Z</time>
      </trkpt>
      <trkpt lat="37.249458" lon="-6.288521">
        <ele>23.54</ele>
        <time>2022-02-05T08:11:54Z</time>
      </trkpt>
      <trkpt lat="37.249495" lon="-6.288764">
        <ele>23.65</ele>
        <time>2022-02-05T08:11:59Z</time>
      </trkpt>
      <trkpt lat="37.249518" lon="-6.289017">
        <ele>24.95</ele>
        <time>2022-02-05T08:12:04Z</time>
      </trkpt>
      <trkpt lat="37.249527" lon="-6.289258">
        <ele>25.32</ele>
        <time>2022-02-05T08:12:09Z</time>
      </trkpt>
      <trkpt lat="37.249522" lon="-6.289517">
        <ele>25.72</ele>
        <time>2022-02-05T08:12:15Z</time>
      </trkpt>
      <trkpt lat="37.249514" lon="-6.289748">
        <ele>26.02</ele>
        <time>2022-02-05T08:12:20Z</time>
      </trkpt>
      <trkpt lat="37.249506" lon="-6.289974">
        <ele>26.39</ele>
        <time>2022-02-05T08:12:25Z</time>
      </trkpt>
      <trkpt lat="37.249489" lon="-6.290234">
        <ele>27.65</ele>
        <time>2022-02-05T08:12:31Z</time>
      </trkpt>
      <trkpt lat="37.249491" lon="-6.290502">
        <ele>28.40</ele>
        <time>2022-02-05T08:12:37Z</time>
      </trkpt>
      <trkpt lat="37.249492" lon="-6.290755">
        <ele>29.63</ele>
        <time>2022-02-05T08:12:43Z</time>
      </trkpt>
      <trkpt lat="37.249495" lon="-6.291010">
        <ele>30.03</ele>
        <time>2022-02-05T08:12:49Z</time>
      </trkpt>
      <trkpt lat="37.249470" lon="-6.291257">
        <ele>30.67</ele>
        <time>2022-02-05T08:12:55Z</time>
      </trkpt>
      <trkpt lat="37.249401" lon="-6.291473">
        <ele>31.09</ele>
        <time>2022-02-05T08:13:00Z</time>
      </trkpt>
      <trkpt lat="37.249308" lon="-6.291679">
        <ele>30.85</ele>
        <time>2022-02-05T08:13:05Z</time>
      </trkpt>
      <trkpt lat="37.249190" lon="-6.291887">
        <ele>31.36</ele>
        <time>2022-02-05T08:13:11Z</time>
      </trkpt>
      <trkpt lat="37.249073" lon="-6.292061">
        <ele>32.39</ele>
        <time>2022-02-05T08:13:17Z</time>
      </trkpt>
      <trkpt lat="37.248934" lon="-6.292259">
        <ele>31.62</ele>
        <time>2022-02-05T08:13:23Z</time>
      </trkpt>
      <trkpt lat="37.248789" lon="-6.292475">
        <ele>31.26</ele>
        <time>2022-02-05T08:13:28Z</time>
      </trkpt>
      <trkpt lat="37.248673" lon="-6.292648">
        <ele>31.14</ele>
        <time>2022-02-05T08:13:32Z</time>
      </trkpt>
      <trkpt lat="37.248613" lon="-6.292905">
        <ele>29.99</ele>
        <time>2022-02-05T08:13:37Z</time>
      </trkpt>
      <trkpt lat="37.248586" lon="-6.293157">
        <ele>28.70</ele>
        <time>2022-02-05T08:13:41Z</time>
      </trkpt>
      <trkpt lat="37.248544" lon="-6.293436">
        <ele>28.22</ele>
        <time>2022-02-05T08:13:45Z</time>
      </trkpt>
      <trkpt lat="37.248453" lon="-6.293700">
        <ele>27.96</ele>
        <time>2022-02-05T08:13:49Z</time>
      </trkpt>
      <trkpt lat="37.248349" lon="-6.293940">
        <ele>28.06</ele>
        <time>2022-02-05T08:13:53Z</time>
      </trkpt>
      <trkpt lat="37.248239" lon="-6.294187">
        <ele>27.63</ele>
        <time>2022-02-05T08:13:57Z</time>
      </trkpt>
      <trkpt lat="37.248158" lon="-6.294443">
        <ele>27.41</ele>
        <time>2022-02-05T08:14:01Z</time>
      </trkpt>
      <trkpt lat="37.248087" lon="-6.294695">
        <ele>27.42</ele>
        <time>2022-02-05T08:14:05Z</time>
      </trkpt>
      <trkpt lat="37.248035" lon="-6.294960">
        <ele>26.51</ele>
        <time>2022-02-05T08:14:09Z</time>
      </trkpt>
      <trkpt lat="37.248007" lon="-6.295226">
        <ele>26.93</ele>
        <time>2022-02-05T08:14:13Z</time>
      </trkpt>
      <trkpt lat="37.247976" lon="-6.295483">
        <ele>25.99</ele>
        <time>2022-02-05T08:14:17Z</time>
      </trkpt>
      <trkpt lat="37.247947" lon="-6.295747">
        <ele>25.99</ele>
        <time>2022-02-05T08:14:21Z</time>
      </trkpt>
      <trkpt lat="37.247905" lon="-6.295994">
        <ele>26.26</ele>
        <time>2022-02-05T08:14:25Z</time>
      </trkpt>
      <trkpt lat="37.247874" lon="-6.296241">
        <ele>26.66</ele>
        <time>2022-02-05T08:14:29Z</time>
      </trkpt>
      <trkpt lat="37.247837" lon="-6.296467">
        <ele>26.49</ele>
        <time>2022-02-05T08:14:33Z</time>
      </trkpt>
      <trkpt lat="37.247807" lon="-6.296698">
        <ele>26.41</ele>
        <time>2022-02-05T08:14:37Z</time>
      </trkpt>
      <trkpt lat="37.247779" lon="-6.296948">
        <ele>26.67</ele>
        <time>2022-02-05T08:14:41Z</time>
      </trkpt>
      <trkpt lat="37.247768" lon="-6.297197">
        <ele>26.83</ele>
        <time>2022-02-05T08:14:45Z</time>
      </trkpt>
      <trkpt lat="37.247758" lon="-6.297454">
        <ele>26.41</ele>
        <time>2022-02-05T08:14:49Z</time>
      </trkpt>
      <trkpt lat="37.247743" lon="-6.297715">
        <ele>25.87</ele>
        <time>2022-02-05T08:14:53Z</time>
      </trkpt>
      <trkpt lat="37.247723" lon="-6.297962">
        <ele>25.94</ele>
        <time>2022-02-05T08:14:57Z</time>
      </trkpt>
      <trkpt lat="37.247700" lon="-6.298205">
        <ele>26.41</ele>
        <time>2022-02-05T08:15:01Z</time>
      </trkpt>
      <trkpt lat="37.247661" lon="-6.298437">
        <ele>26.17</ele>
        <time>2022-02-05T08:15:05Z</time>
      </trkpt>
      <trkpt lat="37.247626" lon="-6.298662">
        <ele>26.18</ele>
        <time>2022-02-05T08:15:09Z</time>
      </trkpt>
      <trkpt lat="37.247588" lon="-6.298933">
        <ele>26.52</ele>
        <time>2022-02-05T08:15:14Z</time>
      </trkpt>
      <trkpt lat="37.247550" lon="-6.299195">
        <ele>27.01</ele>
        <time>2022-02-05T08:15:19Z</time>
      </trkpt>
      <trkpt lat="37.247507" lon="-6.299441">
        <ele>26.90</ele>
        <time>2022-02-05T08:15:24Z</time>
      </trkpt>
      <trkpt lat="37.247462" lon="-6.299673">
        <ele>26.77</ele>
        <time>2022-02-05T08:15:29Z</time>
      </trkpt>
      <trkpt lat="37.247423" lon="-6.299916">
        <ele>27.19</ele>
        <time>2022-02-05T08:15:35Z</time>
      </trkpt>
      <trkpt lat="37.247418" lon="-6.300148">
        <ele>27.73</ele>
        <time>2022-02-05T08:15:40Z</time>
      </trkpt>
      <trkpt lat="37.247451" lon="-6.300429">
        <ele>26.84</ele>
        <time>2022-02-05T08:15:45Z</time>
      </trkpt>
      <trkpt lat="37.247476" lon="-6.300663">
        <ele>27.24</ele>
        <time>2022-02-05T08:15:49Z</time>
      </trkpt>
      <trkpt lat="37.247529" lon="-6.300896">
        <ele>26.79</ele>
        <time>2022-02-05T08:15:53Z</time>
      </trkpt>
      <trkpt lat="37.247568" lon="-6.301138">
        <ele>26.53</ele>
        <time>2022-02-05T08:15:57Z</time>
      </trkpt>
      <trkpt lat="37.247615" lon="-6.301380">
        <ele>26.83</ele>
        <time>2022-02-05T08:16:01Z</time>
      </trkpt>
      <trkpt lat="37.247660" lon="-6.301619">
        <ele>27.13</ele>
        <time>2022-02-05T08:16:05Z</time>
      </trkpt>
      <trkpt lat="37.247705" lon="-6.301857">
        <ele>27.47</ele>
        <time>2022-02-05T08:16:09Z</time>
      </trkpt>
      <trkpt lat="37.247755" lon="-6.302116">
        <ele>28.08</ele>
        <time>2022-02-05T08:16:14Z</time>
      </trkpt>
      <trkpt lat="37.247793" lon="-6.302345">
        <ele>26.87</ele>
        <time>2022-02-05T08:16:19Z</time>
      </trkpt>
      <trkpt lat="37.247902" lon="-6.302560">
        <ele>27.13</ele>
        <time>2022-02-05T08:16:26Z</time>
      </trkpt>
      <trkpt lat="37.247991" lon="-6.302770">
        <ele>26.04</ele>
        <time>2022-02-05T08:16:35Z</time>
      </trkpt>
      <trkpt lat="37.247808" lon="-6.302896">
        <ele>25.55</ele>
        <time>2022-02-05T08:16:39Z</time>
      </trkpt>
      <trkpt lat="37.247644" lon="-6.303031">
        <ele>24.78</ele>
        <time>2022-02-05T08:16:43Z</time>
      </trkpt>
      <trkpt lat="37.247480" lon="-6.303161">
        <ele>24.57</ele>
        <time>2022-02-05T08:16:47Z</time>
      </trkpt>
      <trkpt lat="37.247318" lon="-6.303307">
        <ele>24.96</ele>
        <time>2022-02-05T08:16:51Z</time>
      </trkpt>
      <trkpt lat="37.247166" lon="-6.303442">
        <ele>24.16</ele>
        <time>2022-02-05T08:16:55Z</time>
      </trkpt>
      <trkpt lat="37.247048" lon="-6.303616">
        <ele>24.08</ele>
        <time>2022-02-05T08:16:59Z</time>
      </trkpt>
      <trkpt lat="37.246939" lon="-6.303844">
        <ele>24.91</ele>
        <time>2022-02-05T08:17:04Z</time>
      </trkpt>
      <trkpt lat="37.246857" lon="-6.304106">
        <ele>23.74</ele>
        <time>2022-02-05T08:17:09Z</time>
      </trkpt>
      <trkpt lat="37.246762" lon="-6.304347">
        <ele>22.14</ele>
        <time>2022-02-05T08:17:14Z</time>
      </trkpt>
      <trkpt lat="37.246673" lon="-6.304583">
        <ele>23.18</ele>
        <time>2022-02-05T08:17:19Z</time>
      </trkpt>
      <trkpt lat="37.246599" lon="-6.304819">
        <ele>24.30</ele>
        <time>2022-02-05T08:17:24Z</time>
      </trkpt>
      <trkpt lat="37.246528" lon="-6.305033">
        <ele>28.94</ele>
        <time>2022-02-05T08:17:29Z</time>
      </trkpt>
      <trkpt lat="37.246491" lon="-6.305263">
        <ele>27.97</ele>
        <time>2022-02-05T08:17:34Z</time>
      </trkpt>
      <trkpt lat="37.246541" lon="-6.305503">
        <ele>29.16</ele>
        <time>2022-02-05T08:17:39Z</time>
      </trkpt>
      <trkpt lat="37.246573" lon="-6.305733">
        <ele>29.90</ele>
        <time>2022-02-05T08:17:44Z</time>
      </trkpt>
      <trkpt lat="37.246593" lon="-6.306001">
        <ele>29.61</ele>
        <time>2022-02-05T08:17:50Z</time>
      </trkpt>
      <trkpt lat="37.246566" lon="-6.306255">
        <ele>32.21</ele>
        <time>2022-02-05T08:17:56Z</time>
      </trkpt>
      <trkpt lat="37.246505" lon="-6.306518">
        <ele>31.85</ele>
        <time>2022-02-05T08:18:02Z</time>
      </trkpt>
      <trkpt lat="37.246352" lon="-6.306670">
        <ele>31.46</ele>
        <time>2022-02-05T08:18:08Z</time>
      </trkpt>
      <trkpt lat="37.246204" lon="-6.306801">
        <ele>30.35</ele>
        <time>2022-02-05T08:18:14Z</time>
      </trkpt>
      <trkpt lat="37.246075" lon="-6.306986">
        <ele>30.47</ele>
        <time>2022-02-05T08:18:20Z</time>
      </trkpt>
      <trkpt lat="37.245894" lon="-6.306991">
        <ele>29.99</ele>
        <time>2022-02-05T08:18:26Z</time>
      </trkpt>
      <trkpt lat="37.245700" lon="-6.306884">
        <ele>26.65</ele>
        <time>2022-02-05T08:18:32Z</time>
      </trkpt>
      <trkpt lat="37.245617" lon="-6.306869">
        <ele>27.04</ele>
        <time>2022-02-05T08:18:34.15Z</time>
      </trkpt>
      <trkpt lat="37.245508" lon="-6.306850">
        <ele>27.55</ele>
        <time>2022-02-05T08:18:37Z</time>
      </trkpt>
      <trkpt lat="37.245398" lon="-6.306843">
        <ele>27.31</ele>
        <time>2022-02-05T08:18:40.23Z</time>
      </trkpt>
      <trkpt lat="37.245304" lon="-6.306837">
        <ele>27.10</ele>
        <time>2022-02-05T08:18:43Z</time>
      </trkpt>
      <trkpt lat="37.245231" lon="-6.306823">
        <ele>26.45</ele>
        <time>2022-02-05T08:18:44.68Z</time>
      </trkpt>
      <trkpt lat="37.245202" lon="-6.306818">
        <ele>26.19</ele>
        <time>2022-02-05T08:18:45.36Z</time>
      </trkpt>
      <trkpt lat="37.245089" lon="-6.306796">
        <ele>25.17</ele>
        <time>2022-02-05T08:18:48Z</time>
      </trkpt>
      <trkpt lat="37.245001" lon="-6.306803">
        <ele>25.71</ele>
        <time>2022-02-05T08:18:49.70Z</time>
      </trkpt>
      <trkpt lat="37.244968" lon="-6.306805">
        <ele>25.91</ele>
        <time>2022-02-05T08:18:50.35Z</time>
      </trkpt>
      <trkpt lat="37.244883" lon="-6.306812">
        <ele>26.43</ele>
        <time>2022-02-05T08:18:52Z</time>
      </trkpt>
      <trkpt lat="37.244822" lon="-6.306817">
        <ele>26.85</ele>
        <time>2022-02-05T08:18:52.72Z</time>
      </trkpt>
      <trkpt lat="37.244756" lon="-6.306823">
        <ele>27.31</ele>
        <time>2022-02-05T08:18:53.52Z</time>
      </trkpt>
      <trkpt lat="37.244654" lon="-6.306831">
        <ele>28.00</ele>
        <time>2022-02-05T08:18:54.73Z</time>
      </trkpt>
      <trkpt lat="37.244548" lon="-6.306840">
        <ele>28.73</ele>
        <time>2022-02-05T08:18:56Z</time>
      </trkpt>
      <trkpt lat="37.244585" lon="-6.306928">
        <ele>28.77</ele>
        <time>2022-02-05T08:18:59.59Z</time>
      </trkpt>
      <trkpt lat="37.244602" lon="-6.306967">
        <ele>28.79</ele>
        <time>2022-02-05T08:19:01.21Z</time>
      </trkpt>
      <trkpt lat="37.244641" lon="-6.307059">
        <ele>28.83</ele>
        <time>2022-02-05T08:19:05Z</time>
      </trkpt>
      <trkpt lat="37.244734" lon="-6.307278">
        <ele>28.28</ele>
        <time>2022-02-05T08:19:10Z</time>
      </trkpt>
      <trkpt lat="37.244815" lon="-6.307507">
        <ele>28.00</ele>
        <time>2022-02-05T08:19:15Z</time>
      </trkpt>
      <trkpt lat="37.244911" lon="-6.307736">
        <ele>27.04</ele>
        <time>2022-02-05T08:19:20Z</time>
      </trkpt>
      <trkpt lat="37.245036" lon="-6.307924">
        <ele>26.86</ele>
        <time>2022-02-05T08:19:24Z</time>
      </trkpt>
      <trkpt lat="37.245204" lon="-6.308111">
        <ele>27.06</ele>
        <time>2022-02-05T08:19:29Z</time>
      </trkpt>
      <trkpt lat="37.245367" lon="-6.308279">
        <ele>26.52</ele>
        <time>2022-02-05T08:19:34Z</time>
      </trkpt>
      <trkpt lat="37.245501" lon="-6.308433">
        <ele>26.80</ele>
        <time>2022-02-05T08:19:38Z</time>
      </trkpt>
      <trkpt lat="37.245618" lon="-6.308671">
        <ele>26.71</ele>
        <time>2022-02-05T08:19:43Z</time>
      </trkpt>
      <trkpt lat="37.245686" lon="-6.308939">
        <ele>26.21</ele>
        <time>2022-02-05T08:19:48Z</time>
      </trkpt>
      <trkpt lat="37.245769" lon="-6.309196">
        <ele>27.82</ele>
        <time>2022-02-05T08:19:53Z</time>
      </trkpt>
      <trkpt lat="37.245845" lon="-6.309449">
        <ele>28.16</ele>
        <time>2022-02-05T08:19:58Z</time>
      </trkpt>
      <trkpt lat="37.245917" lon="-6.309683">
        <ele>27.91</ele>
        <time>2022-02-05T08:20:02Z</time>
      </trkpt>
      <trkpt lat="37.245955" lon="-6.309920">
        <ele>26.95</ele>
        <time>2022-02-05T08:20:06Z</time>
      </trkpt>
      <trkpt lat="37.246018" lon="-6.310133">
        <ele>28.34</ele>
        <time>2022-02-05T08:20:10Z</time>
      </trkpt>
      <trkpt lat="37.246090" lon="-6.310341">
        <ele>28.20</ele>
        <time>2022-02-05T08:20:14Z</time>
      </trkpt>
      <trkpt lat="37.246154" lon="-6.310566">
        <ele>28.69</ele>
        <time>2022-02-05T08:20:18Z</time>
      </trkpt>
      <trkpt lat="37.246186" lon="-6.310807">
        <ele>29.36</ele>
        <time>2022-02-05T08:20:22Z</time>
      </trkpt>
      <trkpt lat="37.246179" lon="-6.311051">
        <ele>28.49</ele>
        <time>2022-02-05T08:20:26Z</time>
      </trkpt>
      <trkpt lat="37.246158" lon="-6.311299">
        <ele>28.36</ele>
        <time>2022-02-05T08:20:30Z</time>
      </trkpt>
      <trkpt lat="37.246139" lon="-6.311535">
        <ele>28.27</ele>
        <time>2022-02-05T08:20:34Z</time>
      </trkpt>
      <trkpt lat="37.246131" lon="-6.311779">
        <ele>28.60</ele>
        <time>2022-02-05T08:20:38Z</time>
      </trkpt>
      <trkpt lat="37.246123" lon="-6.312027">
        <ele>28.31</ele>
        <time>2022-02-05T08:20:42Z</time>
      </trkpt>
      <trkpt lat="37.246141" lon="-6.312268">
        <ele>28.45</ele>
        <time>2022-02-05T08:20:46Z</time>
      </trkpt>
      <trkpt lat="37.246167" lon="-6.312515">
        <ele>29.13</ele>
        <time>2022-02-05T08:20:50Z</time>
      </trkpt>
      <trkpt lat="37.246186" lon="-6.312760">
        <ele>29.76</ele>
        <time>2022-02-05T08:20:54Z</time>
      </trkpt>
      <trkpt lat="37.246218" lon="-6.313013">
        <ele>29.46</ele>
        <time>2022-02-05T08:20:58Z</time>
      </trkpt>
      <trkpt lat="37.246241" lon="-6.313262">
        <ele>28.70</ele>
        <time>2022-02-05T08:21:02Z</time>
      </trkpt>
      <trkpt lat="37.246265" lon="-6.313527">
        <ele>28.15</ele>
        <time>2022-02-05T08:21:06Z</time>
      </trkpt>
      <trkpt lat="37.246287" lon="-6.313810">
        <ele>28.23</ele>
        <time>2022-02-05T08:21:10Z</time>
      </trkpt>
      <trkpt lat="37.246313" lon="-6.314083">
        <ele>27.21</ele>
        <time>2022-02-05T08:21:14Z</time>
      </trkpt>
      <trkpt lat="37.246341" lon="-6.314347">
        <ele>27.14</ele>
        <time>2022-02-05T08:21:18Z</time>
      </trkpt>
      <trkpt lat="37.246370" lon="-6.314610">
        <ele>27.22</ele>
        <time>2022-02-05T08:21:22Z</time>
      </trkpt>
      <trkpt lat="37.246396" lon="-6.314848">
        <ele>26.97</ele>
        <time>2022-02-05T08:21:26Z</time>
      </trkpt>
      <trkpt lat="37.246467" lon="-6.315060">
        <ele>26.84</ele>
        <time>2022-02-05T08:21:34Z</time>
      </trkpt>
      <trkpt lat="37.246585" lon="-6.315238">
        <ele>27.74</ele>
        <time>2022-02-05T08:21:40Z</time>
      </trkpt>
      <trkpt lat="37.246709" lon="-6.315410">
        <ele>28.29</ele>
        <time>2022-02-05T08:21:46Z</time>
      </trkpt>
      <trkpt lat="37.246774" lon="-6.315650">
        <ele>28.05</ele>
        <time>2022-02-05T08:21:51Z</time>
      </trkpt>
      <trkpt lat="37.246865" lon="-6.315874">
        <ele>27.97</ele>
        <time>2022-02-05T08:21:56Z</time>
      </trkpt>
      <trkpt lat="37.246961" lon="-6.316110">
        <ele>28.10</ele>
        <time>2022-02-05T08:22:02Z</time>
      </trkpt>
      <trkpt lat="37.247152" lon="-6.316130">
        <ele>28.75</ele>
        <time>2022-02-05T08:22:10Z</time>
      </trkpt>
      <trkpt lat="37.247300" lon="-6.316009">
        <ele>25.29</ele>
        <time>2022-02-05T08:48:05Z</time>
      </trkpt>
      <trkpt lat="37.247292" lon="-6.315969">
        <ele>28.40</ele>
        <time>2022-02-05T08:50:38Z</time>
      </trkpt>
      <trkpt lat="37.247289" lon="-6.315994">
        <ele>28.91</ele>
        <time>2022-02-05T08:52:38Z</time>
      </trkpt>
      <trkpt lat="37.247251" lon="-6.316014">
        <ele>28.67</ele>
        <time>2022-02-05T08:53:21Z</time>
      </trkpt>
      <trkpt lat="37.247070" lon="-6.316112">
        <ele>29.62</ele>
        <time>2022-02-05T08:53:47Z</time>
      </trkpt>
      <trkpt lat="37.246910" lon="-6.316231">
        <ele>29.46</ele>
        <time>2022-02-05T08:53:58Z</time>
      </trkpt>
      <trkpt lat="37.246723" lon="-6.316322">
        <ele>29.50</ele>
        <time>2022-02-05T08:54:07Z</time>
      </trkpt>
      <trkpt lat="37.246611" lon="-6.316514">
        <ele>28.89</ele>
        <time>2022-02-05T08:54:13Z</time>
      </trkpt>
      <trkpt lat="37.246475" lon="-6.316681">
        <ele>29.69</ele>
        <time>2022-02-05T08:54:19Z</time>
      </trkpt>
      <trkpt lat="37.246324" lon="-6.316817">
        <ele>29.17</ele>
        <time>2022-02-05T08:54:25Z</time>
      </trkpt>
      <trkpt lat="37.246137" lon="-6.316916">
        <ele>28.74</ele>
        <time>2022-02-05T08:54:31Z</time>
      </trkpt>
      <trkpt lat="37.245937" lon="-6.317006">
        <ele>28.57</ele>
        <time>2022-02-05T08:54:37Z</time>
      </trkpt>
      <trkpt lat="37.245734" lon="-6.317084">
        <ele>26.79</ele>
        <time>2022-02-05T08:54:43Z</time>
      </trkpt>
      <trkpt lat="37.245543" lon="-6.317167">
        <ele>27.45</ele>
        <time>2022-02-05T08:54:48Z</time>
      </trkpt>
      <trkpt lat="37.245337" lon="-6.317244">
        <ele>27.66</ele>
        <time>2022-02-05T08:54:53Z</time>
      </trkpt>
      <trkpt lat="37.245124" lon="-6.317314">
        <ele>27.68</ele>
        <time>2022-02-05T08:54:58Z</time>
      </trkpt>
      <trkpt lat="37.244947" lon="-6.317393">
        <ele>28.17</ele>
        <time>2022-02-05T08:55:02Z</time>
      </trkpt>
      <trkpt lat="37.244770" lon="-6.317466">
        <ele>28.67</ele>
        <time>2022-02-05T08:55:06Z</time>
      </trkpt>
      <trkpt lat="37.244584" lon="-6.317538">
        <ele>28.85</ele>
        <time>2022-02-05T08:55:10Z</time>
      </trkpt>
      <trkpt lat="37.244398" lon="-6.317607">
        <ele>28.24</ele>
        <time>2022-02-05T08:55:14Z</time>
      </trkpt>
      <trkpt lat="37.244209" lon="-6.317677">
        <ele>28.32</ele>
        <time>2022-02-05T08:55:18Z</time>
      </trkpt>
      <trkpt lat="37.244025" lon="-6.317736">
        <ele>28.38</ele>
        <time>2022-02-05T08:55:22Z</time>
      </trkpt>
      <trkpt lat="37.243838" lon="-6.317818">
        <ele>27.59</ele>
        <time>2022-02-05T08:55:26Z</time>
      </trkpt>
      <trkpt lat="37.243654" lon="-6.317884">
        <ele>27.60</ele>
        <time>2022-02-05T08:55:30Z</time>
      </trkpt>
      <trkpt lat="37.243470" lon="-6.317974">
        <ele>26.76</ele>
        <time>2022-02-05T08:55:34Z</time>
      </trkpt>
      <trkpt lat="37.243275" lon="-6.318037">
        <ele>25.98</ele>
        <time>2022-02-05T08:55:38Z</time>
      </trkpt>
      <trkpt lat="37.243090" lon="-6.318111">
        <ele>25.74</ele>
        <time>2022-02-05T08:55:42Z</time>
      </trkpt>
      <trkpt lat="37.242905" lon="-6.318178">
        <ele>25.72</ele>
        <time>2022-02-05T08:55:46Z</time>
      </trkpt>
      <trkpt lat="37.242717" lon="-6.318237">
        <ele>25.12</ele>
        <time>2022-02-05T08:55:51Z</time>
      </trkpt>
      <trkpt lat="37.242515" lon="-6.318331">
        <ele>25.09</ele>
        <time>2022-02-05T08:55:57Z</time>
      </trkpt>
      <trkpt lat="37.242319" lon="-6.318416">
        <ele>24.82</ele>
        <time>2022-02-05T08:56:02Z</time>
      </trkpt>
      <trkpt lat="37.241914" lon="-6.318633">
        <ele>24.39</ele>
        <time>2022-02-05T08:56:12Z</time>
      </trkpt>
      <trkpt lat="37.241716" lon="-6.318767">
        <ele>24.84</ele>
        <time>2022-02-05T08:56:17Z</time>
      </trkpt>
      <trkpt lat="37.241550" lon="-6.318882">
        <ele>24.70</ele>
        <time>2022-02-05T08:56:21Z</time>
      </trkpt>
      <trkpt lat="37.241374" lon="-6.318998">
        <ele>24.44</ele>
        <time>2022-02-05T08:56:25Z</time>
      </trkpt>
      <trkpt lat="37.241197" lon="-6.319131">
        <ele>24.20</ele>
        <time>2022-02-05T08:56:29Z</time>
      </trkpt>
      <trkpt lat="37.241014" lon="-6.319251">
        <ele>24.25</ele>
        <time>2022-02-05T08:56:33Z</time>
      </trkpt>
      <trkpt lat="37.240833" lon="-6.319377">
        <ele>24.34</ele>
        <time>2022-02-05T08:56:37Z</time>
      </trkpt>
      <trkpt lat="37.240655" lon="-6.319520">
        <ele>24.49</ele>
        <time>2022-02-05T08:56:41Z</time>
      </trkpt>
      <trkpt lat="37.240475" lon="-6.319664">
        <ele>24.81</ele>
        <time>2022-02-05T08:56:45Z</time>
      </trkpt>
      <trkpt lat="37.240304" lon="-6.319823">
        <ele>23.96</ele>
        <time>2022-02-05T08:56:49Z</time>
      </trkpt>
      <trkpt lat="37.240130" lon="-6.319993">
        <ele>23.27</ele>
        <time>2022-02-05T08:56:53Z</time>
      </trkpt>
      <trkpt lat="37.239959" lon="-6.320160">
        <ele>22.75</ele>
        <time>2022-02-05T08:56:57Z</time>
      </trkpt>
      <trkpt lat="37.239792" lon="-6.320322">
        <ele>22.26</ele>
        <time>2022-02-05T08:57:01Z</time>
      </trkpt>
      <trkpt lat="37.239622" lon="-6.320492">
        <ele>22.52</ele>
        <time>2022-02-05T08:57:05Z</time>
      </trkpt>
      <trkpt lat="37.239456" lon="-6.320666">
        <ele>22.62</ele>
        <time>2022-02-05T08:57:09Z</time>
      </trkpt>
      <trkpt lat="37.239288" lon="-6.320831">
        <ele>22.54</ele>
        <time>2022-02-05T08:57:13Z</time>
      </trkpt>
      <trkpt lat="37.239125" lon="-6.320996">
        <ele>22.08</ele>
        <time>2022-02-05T08:57:17Z</time>
      </trkpt>
      <trkpt lat="37.238956" lon="-6.321155">
        <ele>22.42</ele>
        <time>2022-02-05T08:57:21Z</time>
      </trkpt>
      <trkpt lat="37.238792" lon="-6.321316">
        <ele>22.38</ele>
        <time>2022-02-05T08:57:25Z</time>
      </trkpt>
      <trkpt lat="37.238621" lon="-6.321488">
        <ele>21.94</ele>
        <time>2022-02-05T08:57:29Z</time>
      </trkpt>
      <trkpt lat="37.238446" lon="-6.321652">
        <ele>22.83</ele>
        <time>2022-02-05T08:57:33Z</time>
      </trkpt>
      <trkpt lat="37.238275" lon="-6.321820">
        <ele>22.87</ele>
        <time>2022-02-05T08:57:37Z</time>
      </trkpt>
      <trkpt lat="37.238102" lon="-6.321982">
        <ele>22.92</ele>
        <time>2022-02-05T08:57:41Z</time>
      </trkpt>
      <trkpt lat="37.237922" lon="-6.322148">
        <ele>23.55</ele>
        <time>2022-02-05T08:57:45Z</time>
      </trkpt>
      <trkpt lat="37.237750" lon="-6.322317">
        <ele>24.46</ele>
        <time>2022-02-05T08:57:49Z</time>
      </trkpt>
      <trkpt lat="37.237590" lon="-6.322494">
        <ele>24.81</ele>
        <time>2022-02-05T08:57:53Z</time>
      </trkpt>
      <trkpt lat="37.237398" lon="-6.322624">
        <ele>24.53</ele>
        <time>2022-02-05T08:57:57Z</time>
      </trkpt>
      <trkpt lat="37.237231" lon="-6.322779">
        <ele>23.57</ele>
        <time>2022-02-05T08:58:01Z</time>
      </trkpt>
      <trkpt lat="37.237066" lon="-6.322929">
        <ele>23.46</ele>
        <time>2022-02-05T08:58:05Z</time>
      </trkpt>
      <trkpt lat="37.236881" lon="-6.323073">
        <ele>23.38</ele>
        <time>2022-02-05T08:58:09Z</time>
      </trkpt>
      <trkpt lat="37.236708" lon="-6.323225">
        <ele>23.18</ele>
        <time>2022-02-05T08:58:13Z</time>
      </trkpt>
      <trkpt lat="37.236531" lon="-6.323366">
        <ele>23.06</ele>
        <time>2022-02-05T08:58:17Z</time>
      </trkpt>
      <trkpt lat="37.236352" lon="-6.323508">
        <ele>22.79</ele>
        <time>2022-02-05T08:58:21Z</time>
      </trkpt>
      <trkpt lat="37.236183" lon="-6.323672">
        <ele>23.48</ele>
        <time>2022-02-05T08:58:25Z</time>
      </trkpt>
      <trkpt lat="37.236018" lon="-6.323843">
        <ele>23.81</ele>
        <time>2022-02-05T08:58:29Z</time>
      </trkpt>
      <trkpt lat="37.235867" lon="-6.324020">
        <ele>24.40</ele>
        <time>2022-02-05T08:58:33Z</time>
      </trkpt>
      <trkpt lat="37.235757" lon="-6.324229">
        <ele>25.50</ele>
        <time>2022-02-05T08:58:37Z</time>
      </trkpt>
      <trkpt lat="37.235645" lon="-6.324446">
        <ele>25.20</ele>
        <time>2022-02-05T08:58:41Z</time>
      </trkpt>
      <trkpt lat="37.235543" lon="-6.324683">
        <ele>25.03</ele>
        <time>2022-02-05T08:58:45Z</time>
      </trkpt>
      <trkpt lat="37.235452" lon="-6.324922">
        <ele>25.19</ele>
        <time>2022-02-05T08:58:49Z</time>
      </trkpt>
      <trkpt lat="37.235356" lon="-6.325155">
        <ele>25.17</ele>
        <time>2022-02-05T08:58:53Z</time>
      </trkpt>
      <trkpt lat="37.235256" lon="-6.325374">
        <ele>25.42</ele>
        <time>2022-02-05T08:58:57Z</time>
      </trkpt>
      <trkpt lat="37.235152" lon="-6.325608">
        <ele>25.14</ele>
        <time>2022-02-05T08:59:01Z</time>
      </trkpt>
      <trkpt lat="37.235034" lon="-6.325819">
        <ele>25.37</ele>
        <time>2022-02-05T08:59:05Z</time>
      </trkpt>
      <trkpt lat="37.234918" lon="-6.326013">
        <ele>26.30</ele>
        <time>2022-02-05T08:59:09Z</time>
      </trkpt>
      <trkpt lat="37.234794" lon="-6.326193">
        <ele>26.65</ele>
        <time>2022-02-05T08:59:13Z</time>
      </trkpt>
      <trkpt lat="37.234664" lon="-6.326358">
        <ele>27.80</ele>
        <time>2022-02-05T08:59:17Z</time>
      </trkpt>
      <trkpt lat="37.234504" lon="-6.326543">
        <ele>29.96</ele>
        <time>2022-02-05T08:59:22Z</time>
      </trkpt>
      <trkpt lat="37.234338" lon="-6.326716">
        <ele>31.93</ele>
        <time>2022-02-05T08:59:27Z</time>
      </trkpt>
      <trkpt lat="37.234176" lon="-6.326870">
        <ele>33.34</ele>
        <time>2022-02-05T08:59:32Z</time>
      </trkpt>
      <trkpt lat="37.234015" lon="-6.327051">
        <ele>34.56</ele>
        <time>2022-02-05T08:59:38Z</time>
      </trkpt>
      <trkpt lat="37.233853" lon="-6.327225">
        <ele>36.68</ele>
        <time>2022-02-05T08:59:44Z</time>
      </trkpt>
      <trkpt lat="37.233705" lon="-6.327410">
        <ele>37.73</ele>
        <time>2022-02-05T08:59:50Z</time>
      </trkpt>
      <trkpt lat="37.233561" lon="-6.327605">
        <ele>38.56</ele>
        <time>2022-02-05T08:59:56Z</time>
      </trkpt>
      <trkpt lat="37.233412" lon="-6.327801">
        <ele>39.02</ele>
        <time>2022-02-05T09:00:02Z</time>
      </trkpt>
      <trkpt lat="37.233277" lon="-6.327997">
        <ele>39.86</ele>
        <time>2022-02-05T09:00:07Z</time>
      </trkpt>
      <trkpt lat="37.233130" lon="-6.328203">
        <ele>40.32</ele>
        <time>2022-02-05T09:00:12Z</time>
      </trkpt>
      <trkpt lat="37.232982" lon="-6.328413">
        <ele>41.45</ele>
        <time>2022-02-05T09:00:17Z</time>
      </trkpt>
      <trkpt lat="37.232859" lon="-6.328580">
        <ele>41.33</ele>
        <time>2022-02-05T09:00:21Z</time>
      </trkpt>
      <trkpt lat="37.232731" lon="-6.328755">
        <ele>41.19</ele>
        <time>2022-02-05T09:00:25Z</time>
      </trkpt>
      <trkpt lat="37.232604" lon="-6.328924">
        <ele>41.49</ele>
        <time>2022-02-05T09:00:29Z</time>
      </trkpt>
      <trkpt lat="37.232473" lon="-6.329101">
        <ele>41.87</ele>
        <time>2022-02-05T09:00:33Z</time>
      </trkpt>
      <trkpt lat="37.232340" lon="-6.329291">
        <ele>41.79</ele>
        <time>2022-02-05T09:00:37Z</time>
      </trkpt>
      <trkpt lat="37.232191" lon="-6.329491">
        <ele>41.67</ele>
        <time>2022-02-05T09:00:41Z</time>
      </trkpt>
      <trkpt lat="37.232037" lon="-6.329706">
        <ele>41.43</ele>
        <time>2022-02-05T09:00:45Z</time>
      </trkpt>
      <trkpt lat="37.231913" lon="-6.329878">
        <ele>41.48</ele>
        <time>2022-02-05T09:00:48Z</time>
      </trkpt>
      <trkpt lat="37.231781" lon="-6.330060">
        <ele>40.92</ele>
        <time>2022-02-05T09:00:51Z</time>
      </trkpt>
      <trkpt lat="37.231653" lon="-6.330252">
        <ele>40.13</ele>
        <time>2022-02-05T09:00:54Z</time>
      </trkpt>
      <trkpt lat="37.231523" lon="-6.330424">
        <ele>38.92</ele>
        <time>2022-02-05T09:00:57Z</time>
      </trkpt>
      <trkpt lat="37.231396" lon="-6.330596">
        <ele>37.81</ele>
        <time>2022-02-05T09:01:00Z</time>
      </trkpt>
      <trkpt lat="37.231267" lon="-6.330782">
        <ele>37.00</ele>
        <time>2022-02-05T09:01:03Z</time>
      </trkpt>
      <trkpt lat="37.231124" lon="-6.330968">
        <ele>34.52</ele>
        <time>2022-02-05T09:01:06Z</time>
      </trkpt>
      <trkpt lat="37.230995" lon="-6.331156">
        <ele>32.78</ele>
        <time>2022-02-05T09:01:09Z</time>
      </trkpt>
      <trkpt lat="37.230854" lon="-6.331354">
        <ele>32.21</ele>
        <time>2022-02-05T09:01:12Z</time>
      </trkpt>
      <trkpt lat="37.230700" lon="-6.331553">
        <ele>32.10</ele>
        <time>2022-02-05T09:01:15Z</time>
      </trkpt>
      <trkpt lat="37.230542" lon="-6.331753">
        <ele>31.57</ele>
        <time>2022-02-05T09:01:18Z</time>
      </trkpt>
      <trkpt lat="37.230384" lon="-6.331957">
        <ele>31.01</ele>
        <time>2022-02-05T09:01:21Z</time>
      </trkpt>
      <trkpt lat="37.230215" lon="-6.332153">
        <ele>31.04</ele>
        <time>2022-02-05T09:01:24Z</time>
      </trkpt>
      <trkpt lat="37.230042" lon="-6.332344">
        <ele>30.85</ele>
        <time>2022-02-05T09:01:27Z</time>
      </trkpt>
      <trkpt lat="37.229858" lon="-6.332517">
        <ele>31.22</ele>
        <time>2022-02-05T09:01:30Z</time>
      </trkpt>
      <trkpt lat="37.229665" lon="-6.332687">
        <ele>30.81</ele>
        <time>2022-02-05T09:01:33Z</time>
      </trkpt>
      <trkpt lat="37.229464" lon="-6.332844">
        <ele>30.70</ele>
        <time>2022-02-05T09:01:36Z</time>
      </trkpt>
      <trkpt lat="37.229257" lon="-6.332987">
        <ele>30.30</ele>
        <time>2022-02-05T09:01:39Z</time>
      </trkpt>
      <trkpt lat="37.229047" lon="-6.333129">
        <ele>30.26</ele>
        <time>2022-02-05T09:01:42Z</time>
      </trkpt>
      <trkpt lat="37.228844" lon="-6.333268">
        <ele>30.32</ele>
        <time>2022-02-05T09:01:45Z</time>
      </trkpt>
      <trkpt lat="37.228638" lon="-6.333401">
        <ele>29.90</ele>
        <time>2022-02-05T09:01:48Z</time>
      </trkpt>
      <trkpt lat="37.228440" lon="-6.333540">
        <ele>29.31</ele>
        <time>2022-02-05T09:01:51Z</time>
      </trkpt>
      <trkpt lat="37.228234" lon="-6.333659">
        <ele>29.19</ele>
        <time>2022-02-05T09:01:54Z</time>
      </trkpt>
      <trkpt lat="37.228027" lon="-6.333770">
        <ele>28.46</ele>
        <time>2022-02-05T09:01:57Z</time>
      </trkpt>
      <trkpt lat="37.227821" lon="-6.333896">
        <ele>28.46</ele>
        <time>2022-02-05T09:02:00Z</time>
      </trkpt>
      <trkpt lat="37.227609" lon="-6.334011">
        <ele>27.33</ele>
        <time>2022-02-05T09:02:03Z</time>
      </trkpt>
      <trkpt lat="37.227398" lon="-6.334133">
        <ele>27.05</ele>
        <time>2022-02-05T09:02:06Z</time>
      </trkpt>
      <trkpt lat="37.227191" lon="-6.334259">
        <ele>26.80</ele>
        <time>2022-02-05T09:02:09Z</time>
      </trkpt>
      <trkpt lat="37.226980" lon="-6.334382">
        <ele>26.69</ele>
        <time>2022-02-05T09:02:12Z</time>
      </trkpt>
      <trkpt lat="37.226782" lon="-6.334496">
        <ele>25.73</ele>
        <time>2022-02-05T09:02:15Z</time>
      </trkpt>
      <trkpt lat="37.226579" lon="-6.334599">
        <ele>25.82</ele>
        <time>2022-02-05T09:02:18Z</time>
      </trkpt>
      <trkpt lat="37.226401" lon="-6.334714">
        <ele>26.65</ele>
        <time>2022-02-05T09:02:21Z</time>
      </trkpt>
      <trkpt lat="37.226238" lon="-6.334813">
        <ele>25.38</ele>
        <time>2022-02-05T09:02:24Z</time>
      </trkpt>
      <trkpt lat="37.226036" lon="-6.334939">
        <ele>25.92</ele>
        <time>2022-02-05T09:02:28Z</time>
      </trkpt>
      <trkpt lat="37.225837" lon="-6.335038">
        <ele>25.04</ele>
        <time>2022-02-05T09:02:32Z</time>
      </trkpt>
      <trkpt lat="37.225651" lon="-6.335156">
        <ele>25.18</ele>
        <time>2022-02-05T09:02:36Z</time>
      </trkpt>
      <trkpt lat="37.225474" lon="-6.335249">
        <ele>24.68</ele>
        <time>2022-02-05T09:02:40Z</time>
      </trkpt>
      <trkpt lat="37.225305" lon="-6.335351">
        <ele>25.85</ele>
        <time>2022-02-05T09:02:44Z</time>
      </trkpt>
      <trkpt lat="37.225127" lon="-6.335468">
        <ele>25.46</ele>
        <time>2022-02-05T09:02:48Z</time>
      </trkpt>
      <trkpt lat="37.224929" lon="-6.335592">
        <ele>26.95</ele>
        <time>2022-02-05T09:02:53Z</time>
      </trkpt>
      <trkpt lat="37.224739" lon="-6.335750">
        <ele>27.27</ele>
        <time>2022-02-05T09:02:58Z</time>
      </trkpt>
      <trkpt lat="37.224580" lon="-6.335883">
        <ele>28.42</ele>
        <time>2022-02-05T09:03:02Z</time>
      </trkpt>
      <trkpt lat="37.224392" lon="-6.336029">
        <ele>28.60</ele>
        <time>2022-02-05T09:03:07Z</time>
      </trkpt>
      <trkpt lat="37.224223" lon="-6.336159">
        <ele>29.58</ele>
        <time>2022-02-05T09:03:12Z</time>
      </trkpt>
      <trkpt lat="37.224075" lon="-6.336296">
        <ele>29.43</ele>
        <time>2022-02-05T09:03:17Z</time>
      </trkpt>
      <trkpt lat="37.223914" lon="-6.336441">
        <ele>28.99</ele>
        <time>2022-02-05T09:03:22Z</time>
      </trkpt>
      <trkpt lat="37.223766" lon="-6.336605">
        <ele>28.63</ele>
        <time>2022-02-05T09:03:26Z</time>
      </trkpt>
      <trkpt lat="37.223621" lon="-6.336766">
        <ele>29.15</ele>
        <time>2022-02-05T09:03:30Z</time>
      </trkpt>
      <trkpt lat="37.223458" lon="-6.336938">
        <ele>29.65</ele>
        <time>2022-02-05T09:03:34Z</time>
      </trkpt>
      <trkpt lat="37.223304" lon="-6.337143">
        <ele>29.73</ele>
        <time>2022-02-05T09:03:38Z</time>
      </trkpt>
      <trkpt lat="37.223146" lon="-6.337337">
        <ele>29.54</ele>
        <time>2022-02-05T09:03:42Z</time>
      </trkpt>
      <trkpt lat="37.222991" lon="-6.337533">
        <ele>29.31</ele>
        <time>2022-02-05T09:03:46Z</time>
      </trkpt>
      <trkpt lat="37.222840" lon="-6.337735">
        <ele>29.50</ele>
        <time>2022-02-05T09:03:50Z</time>
      </trkpt>
      <trkpt lat="37.222688" lon="-6.337941">
        <ele>30.94</ele>
        <time>2022-02-05T09:03:54Z</time>
      </trkpt>
      <trkpt lat="37.222546" lon="-6.338158">
        <ele>30.78</ele>
        <time>2022-02-05T09:03:58Z</time>
      </trkpt>
      <trkpt lat="37.222408" lon="-6.338379">
        <ele>30.61</ele>
        <time>2022-02-05T09:04:02Z</time>
      </trkpt>
      <trkpt lat="37.222270" lon="-6.338594">
        <ele>31.64</ele>
        <time>2022-02-05T09:04:06Z</time>
      </trkpt>
      <trkpt lat="37.222135" lon="-6.338799">
        <ele>31.72</ele>
        <time>2022-02-05T09:04:10Z</time>
      </trkpt>
      <trkpt lat="37.222004" lon="-6.339016">
        <ele>31.59</ele>
        <time>2022-02-05T09:04:14Z</time>
      </trkpt>
      <trkpt lat="37.221871" lon="-6.339235">
        <ele>32.57</ele>
        <time>2022-02-05T09:04:18Z</time>
      </trkpt>
      <trkpt lat="37.221727" lon="-6.339440">
        <ele>32.55</ele>
        <time>2022-02-05T09:04:22Z</time>
      </trkpt>
      <trkpt lat="37.221596" lon="-6.339642">
        <ele>32.40</ele>
        <time>2022-02-05T09:04:26Z</time>
      </trkpt>
      <trkpt lat="37.221464" lon="-6.339846">
        <ele>32.59</ele>
        <time>2022-02-05T09:04:30Z</time>
      </trkpt>
      <trkpt lat="37.221325" lon="-6.340058">
        <ele>32.64</ele>
        <time>2022-02-05T09:04:34Z</time>
      </trkpt>
      <trkpt lat="37.221190" lon="-6.340282">
        <ele>33.01</ele>
        <time>2022-02-05T09:04:38Z</time>
      </trkpt>
      <trkpt lat="37.221051" lon="-6.340503">
        <ele>32.99</ele>
        <time>2022-02-05T09:04:42Z</time>
      </trkpt>
      <trkpt lat="37.220912" lon="-6.340725">
        <ele>33.68</ele>
        <time>2022-02-05T09:04:46Z</time>
      </trkpt>
      <trkpt lat="37.220767" lon="-6.340949">
        <ele>33.17</ele>
        <time>2022-02-05T09:04:50Z</time>
      </trkpt>
      <trkpt lat="37.220656" lon="-6.341132">
        <ele>32.92</ele>
        <time>2022-02-05T09:04:53Z</time>
      </trkpt>
      <trkpt lat="37.220510" lon="-6.341372">
        <ele>33.09</ele>
        <time>2022-02-05T09:04:57Z</time>
      </trkpt>
      <trkpt lat="37.220389" lon="-6.341553">
        <ele>33.50</ele>
        <time>2022-02-05T09:05:00Z</time>
      </trkpt>
      <trkpt lat="37.220271" lon="-6.341728">
        <ele>32.96</ele>
        <time>2022-02-05T09:05:03Z</time>
      </trkpt>
      <trkpt lat="37.220149" lon="-6.341906">
        <ele>32.89</ele>
        <time>2022-02-05T09:05:06Z</time>
      </trkpt>
      <trkpt lat="37.220034" lon="-6.342084">
        <ele>33.21</ele>
        <time>2022-02-05T09:05:09Z</time>
      </trkpt>
      <trkpt lat="37.219916" lon="-6.342267">
        <ele>33.07</ele>
        <time>2022-02-05T09:05:12Z</time>
      </trkpt>
      <trkpt lat="37.219803" lon="-6.342459">
        <ele>32.35</ele>
        <time>2022-02-05T09:05:15Z</time>
      </trkpt>
      <trkpt lat="37.219685" lon="-6.342645">
        <ele>32.14</ele>
        <time>2022-02-05T09:05:18Z</time>
      </trkpt>
      <trkpt lat="37.219560" lon="-6.342840">
        <ele>31.49</ele>
        <time>2022-02-05T09:05:21Z</time>
      </trkpt>
      <trkpt lat="37.219437" lon="-6.343033">
        <ele>31.02</ele>
        <time>2022-02-05T09:05:24Z</time>
      </trkpt>
      <trkpt lat="37.219324" lon="-6.343220">
        <ele>29.86</ele>
        <time>2022-02-05T09:05:27Z</time>
      </trkpt>
      <trkpt lat="37.219216" lon="-6.343410">
        <ele>31.28</ele>
        <time>2022-02-05T09:05:30Z</time>
      </trkpt>
      <trkpt lat="37.219096" lon="-6.343597">
        <ele>30.54</ele>
        <time>2022-02-05T09:05:33Z</time>
      </trkpt>
      <trkpt lat="37.219013" lon="-6.343803">
        <ele>29.53</ele>
        <time>2022-02-05T09:05:36Z</time>
      </trkpt>
      <trkpt lat="37.218887" lon="-6.343970">
        <ele>29.63</ele>
        <time>2022-02-05T09:05:39Z</time>
      </trkpt>
      <trkpt lat="37.218734" lon="-6.344091">
        <ele>26.70</ele>
        <time>2022-02-05T09:05:42Z</time>
      </trkpt>
      <trkpt lat="37.218590" lon="-6.344235">
        <ele>26.51</ele>
        <time>2022-02-05T09:05:45Z</time>
      </trkpt>
      <trkpt lat="37.218441" lon="-6.344367">
        <ele>25.33</ele>
        <time>2022-02-05T09:05:48Z</time>
      </trkpt>
      <trkpt lat="37.218291" lon="-6.344499">
        <ele>24.48</ele>
        <time>2022-02-05T09:05:51Z</time>
      </trkpt>
      <trkpt lat="37.218137" lon="-6.344625">
        <ele>23.87</ele>
        <time>2022-02-05T09:05:54Z</time>
      </trkpt>
      <trkpt lat="37.217982" lon="-6.344742">
        <ele>24.55</ele>
        <time>2022-02-05T09:05:57Z</time>
      </trkpt>
      <trkpt lat="37.217781" lon="-6.344909">
        <ele>25.47</ele>
        <time>2022-02-05T09:06:01Z</time>
      </trkpt>
      <trkpt lat="37.217614" lon="-6.345013">
        <ele>25.85</ele>
        <time>2022-02-05T09:06:04Z</time>
      </trkpt>
      <trkpt lat="37.217443" lon="-6.345101">
        <ele>25.99</ele>
        <time>2022-02-05T09:06:07Z</time>
      </trkpt>
      <trkpt lat="37.217212" lon="-6.345188">
        <ele>26.40</ele>
        <time>2022-02-05T09:06:11Z</time>
      </trkpt>
      <trkpt lat="37.217028" lon="-6.345226">
        <ele>25.44</ele>
        <time>2022-02-05T09:06:14Z</time>
      </trkpt>
      <trkpt lat="37.216841" lon="-6.345259">
        <ele>24.45</ele>
        <time>2022-02-05T09:06:17Z</time>
      </trkpt>
      <trkpt lat="37.216648" lon="-6.345288">
        <ele>24.33</ele>
        <time>2022-02-05T09:06:20Z</time>
      </trkpt>
      <trkpt lat="37.216461" lon="-6.345314">
        <ele>23.94</ele>
        <time>2022-02-05T09:06:23Z</time>
      </trkpt>
      <trkpt lat="37.216276" lon="-6.345339">
        <ele>23.71</ele>
        <time>2022-02-05T09:06:26Z</time>
      </trkpt>
      <trkpt lat="37.216096" lon="-6.345366">
        <ele>23.63</ele>
        <time>2022-02-05T09:06:29Z</time>
      </trkpt>
      <trkpt lat="37.215916" lon="-6.345385">
        <ele>23.31</ele>
        <time>2022-02-05T09:06:32Z</time>
      </trkpt>
      <trkpt lat="37.215724" lon="-6.345417">
        <ele>22.75</ele>
        <time>2022-02-05T09:06:35Z</time>
      </trkpt>
      <trkpt lat="37.215540" lon="-6.345458">
        <ele>22.14</ele>
        <time>2022-02-05T09:06:38Z</time>
      </trkpt>
      <trkpt lat="37.215361" lon="-6.345503">
        <ele>22.20</ele>
        <time>2022-02-05T09:06:41Z</time>
      </trkpt>
      <trkpt lat="37.215182" lon="-6.345560">
        <ele>22.53</ele>
        <time>2022-02-05T09:06:44Z</time>
      </trkpt>
      <trkpt lat="37.215007" lon="-6.345640">
        <ele>21.98</ele>
        <time>2022-02-05T09:06:47Z</time>
      </trkpt>
      <trkpt lat="37.214831" lon="-6.345719">
        <ele>22.41</ele>
        <time>2022-02-05T09:06:50Z</time>
      </trkpt>
      <trkpt lat="37.214655" lon="-6.345799">
        <ele>22.74</ele>
        <time>2022-02-05T09:06:53Z</time>
      </trkpt>
      <trkpt lat="37.214480" lon="-6.345895">
        <ele>22.97</ele>
        <time>2022-02-05T09:06:56Z</time>
      </trkpt>
      <trkpt lat="37.214314" lon="-6.346004">
        <ele>23.67</ele>
        <time>2022-02-05T09:06:59Z</time>
      </trkpt>
      <trkpt lat="37.214144" lon="-6.346123">
        <ele>23.82</ele>
        <time>2022-02-05T09:07:02Z</time>
      </trkpt>
      <trkpt lat="37.213987" lon="-6.346253">
        <ele>22.53</ele>
        <time>2022-02-05T09:07:05Z</time>
      </trkpt>
      <trkpt lat="37.213831" lon="-6.346398">
        <ele>22.81</ele>
        <time>2022-02-05T09:07:08Z</time>
      </trkpt>
      <trkpt lat="37.213668" lon="-6.346536">
        <ele>21.79</ele>
        <time>2022-02-05T09:07:11Z</time>
      </trkpt>
      <trkpt lat="37.213502" lon="-6.346647">
        <ele>21.75</ele>
        <time>2022-02-05T09:07:14Z</time>
      </trkpt>
      <trkpt lat="37.213339" lon="-6.346769">
        <ele>21.88</ele>
        <time>2022-02-05T09:07:17Z</time>
      </trkpt>
      <trkpt lat="37.213172" lon="-6.346888">
        <ele>21.55</ele>
        <time>2022-02-05T09:07:20Z</time>
      </trkpt>
      <trkpt lat="37.212968" lon="-6.347013">
        <ele>21.05</ele>
        <time>2022-02-05T09:07:24Z</time>
      </trkpt>
      <trkpt lat="37.212757" lon="-6.347101">
        <ele>22.52</ele>
        <time>2022-02-05T09:07:28Z</time>
      </trkpt>
      <trkpt lat="37.212549" lon="-6.347196">
        <ele>22.70</ele>
        <time>2022-02-05T09:07:32Z</time>
      </trkpt>
      <trkpt lat="37.212326" lon="-6.347293">
        <ele>23.65</ele>
        <time>2022-02-05T09:07:36Z</time>
      </trkpt>
      <trkpt lat="37.212102" lon="-6.347384">
        <ele>25.15</ele>
        <time>2022-02-05T09:07:40Z</time>
      </trkpt>
      <trkpt lat="37.211870" lon="-6.347445">
        <ele>24.97</ele>
        <time>2022-02-05T09:07:44Z</time>
      </trkpt>
      <trkpt lat="37.211640" lon="-6.347506">
        <ele>24.40</ele>
        <time>2022-02-05T09:07:48Z</time>
      </trkpt>
      <trkpt lat="37.211406" lon="-6.347574">
        <ele>24.38</ele>
        <time>2022-02-05T09:07:52Z</time>
      </trkpt>
      <trkpt lat="37.211231" lon="-6.347645">
        <ele>24.90</ele>
        <time>2022-02-05T09:07:55Z</time>
      </trkpt>
      <trkpt lat="37.211062" lon="-6.347725">
        <ele>24.78</ele>
        <time>2022-02-05T09:07:58Z</time>
      </trkpt>
      <trkpt lat="37.210856" lon="-6.347878">
        <ele>23.45</ele>
        <time>2022-02-05T09:08:02Z</time>
      </trkpt>
      <trkpt lat="37.210650" lon="-6.348012">
        <ele>23.22</ele>
        <time>2022-02-05T09:08:06Z</time>
      </trkpt>
      <trkpt lat="37.210452" lon="-6.348154">
        <ele>21.35</ele>
        <time>2022-02-05T09:08:10Z</time>
      </trkpt>
      <trkpt lat="37.210277" lon="-6.348307">
        <ele>21.04</ele>
        <time>2022-02-05T09:08:14Z</time>
      </trkpt>
      <trkpt lat="37.210116" lon="-6.348456">
        <ele>21.33</ele>
        <time>2022-02-05T09:08:18Z</time>
      </trkpt>
      <trkpt lat="37.209958" lon="-6.348646">
        <ele>22.14</ele>
        <time>2022-02-05T09:08:22Z</time>
      </trkpt>
      <trkpt lat="37.209798" lon="-6.348860">
        <ele>21.84</ele>
        <time>2022-02-05T09:08:26Z</time>
      </trkpt>
      <trkpt lat="37.209656" lon="-6.349081">
        <ele>21.35</ele>
        <time>2022-02-05T09:08:30Z</time>
      </trkpt>
      <trkpt lat="37.209521" lon="-6.349311">
        <ele>21.56</ele>
        <time>2022-02-05T09:08:34Z</time>
      </trkpt>
      <trkpt lat="37.209401" lon="-6.349549">
        <ele>21.46</ele>
        <time>2022-02-05T09:08:38Z</time>
      </trkpt>
      <trkpt lat="37.209294" lon="-6.349784">
        <ele>22.01</ele>
        <time>2022-02-05T09:08:42Z</time>
      </trkpt>
      <trkpt lat="37.209201" lon="-6.350043">
        <ele>21.96</ele>
        <time>2022-02-05T09:08:46Z</time>
      </trkpt>
      <trkpt lat="37.209114" lon="-6.350316">
        <ele>21.80</ele>
        <time>2022-02-05T09:08:50Z</time>
      </trkpt>
      <trkpt lat="37.209035" lon="-6.350592">
        <ele>21.62</ele>
        <time>2022-02-05T09:08:54Z</time>
      </trkpt>
      <trkpt lat="37.208957" lon="-6.350864">
        <ele>21.76</ele>
        <time>2022-02-05T09:08:58Z</time>
      </trkpt>
      <trkpt lat="37.208881" lon="-6.351131">
        <ele>20.83</ele>
        <time>2022-02-05T09:09:02Z</time>
      </trkpt>
      <trkpt lat="37.208807" lon="-6.351405">
        <ele>20.33</ele>
        <time>2022-02-05T09:09:06Z</time>
      </trkpt>
      <trkpt lat="37.208722" lon="-6.351674">
        <ele>20.07</ele>
        <time>2022-02-05T09:09:10Z</time>
      </trkpt>
      <trkpt lat="37.208648" lon="-6.351947">
        <ele>20.22</ele>
        <time>2022-02-05T09:09:14Z</time>
      </trkpt>
      <trkpt lat="37.208570" lon="-6.352215">
        <ele>20.34</ele>
        <time>2022-02-05T09:09:18Z</time>
      </trkpt>
      <trkpt lat="37.208488" lon="-6.352490">
        <ele>20.25</ele>
        <time>2022-02-05T09:09:22Z</time>
      </trkpt>
      <trkpt lat="37.208412" lon="-6.352768">
        <ele>20.75</ele>
        <time>2022-02-05T09:09:26Z</time>
      </trkpt>
      <trkpt lat="37.208327" lon="-6.353045">
        <ele>20.69</ele>
        <time>2022-02-05T09:09:30Z</time>
      </trkpt>
      <trkpt lat="37.208249" lon="-6.353320">
        <ele>20.35</ele>
        <time>2022-02-05T09:09:34Z</time>
      </trkpt>
      <trkpt lat="37.208171" lon="-6.353602">
        <ele>19.21</ele>
        <time>2022-02-05T09:09:38Z</time>
      </trkpt>
      <trkpt lat="37.208110" lon="-6.353819">
        <ele>19.24</ele>
        <time>2022-02-05T09:09:41Z</time>
      </trkpt>
      <trkpt lat="37.208036" lon="-6.354093">
        <ele>19.07</ele>
        <time>2022-02-05T09:09:45Z</time>
      </trkpt>
      <trkpt lat="37.207952" lon="-6.354363">
        <ele>19.11</ele>
        <time>2022-02-05T09:09:49Z</time>
      </trkpt>
      <trkpt lat="37.207870" lon="-6.354631">
        <ele>19.15</ele>
        <time>2022-02-05T09:09:53Z</time>
      </trkpt>
      <trkpt lat="37.207794" lon="-6.354903">
        <ele>18.97</ele>
        <time>2022-02-05T09:09:57Z</time>
      </trkpt>
      <trkpt lat="37.207722" lon="-6.355169">
        <ele>19.49</ele>
        <time>2022-02-05T09:10:01Z</time>
      </trkpt>
      <trkpt lat="37.207652" lon="-6.355413">
        <ele>20.27</ele>
        <time>2022-02-05T09:10:05Z</time>
      </trkpt>
      <trkpt lat="37.207590" lon="-6.355644">
        <ele>20.30</ele>
        <time>2022-02-05T09:10:09Z</time>
      </trkpt>
      <trkpt lat="37.207521" lon="-6.355893">
        <ele>20.83</ele>
        <time>2022-02-05T09:10:14Z</time>
      </trkpt>
      <trkpt lat="37.207449" lon="-6.356126">
        <ele>22.65</ele>
        <time>2022-02-05T09:10:19Z</time>
      </trkpt>
      <trkpt lat="37.207442" lon="-6.355968">
        <ele>18.02</ele>
        <time>2022-02-05T12:52:41Z</time>
      </trkpt>
      <trkpt lat="37.207513" lon="-6.355714">
        <ele>17.88</ele>
        <time>2022-02-05T12:52:45Z</time>
      </trkpt>
      <trkpt lat="37.207590" lon="-6.355446">
        <ele>18.03</ele>
        <time>2022-02-05T12:52:49Z</time>
      </trkpt>
      <trkpt lat="37.207663" lon="-6.355172">
        <ele>17.40</ele>
        <time>2022-02-05T12:52:53Z</time>
      </trkpt>
      <trkpt lat="37.207738" lon="-6.354910">
        <ele>17.17</ele>
        <time>2022-02-05T12:52:57Z</time>
      </trkpt>
      <trkpt lat="37.207817" lon="-6.354640">
        <ele>17.14</ele>
        <time>2022-02-05T12:53:01Z</time>
      </trkpt>
      <trkpt lat="37.207893" lon="-6.354385">
        <ele>17.99</ele>
        <time>2022-02-05T12:53:05Z</time>
      </trkpt>
      <trkpt lat="37.207972" lon="-6.354129">
        <ele>18.06</ele>
        <time>2022-02-05T12:53:09Z</time>
      </trkpt>
      <trkpt lat="37.208052" lon="-6.353872">
        <ele>17.61</ele>
        <time>2022-02-05T12:53:13Z</time>
      </trkpt>
      <trkpt lat="37.208126" lon="-6.353608">
        <ele>17.23</ele>
        <time>2022-02-05T12:53:17Z</time>
      </trkpt>
      <trkpt lat="37.208198" lon="-6.353334">
        <ele>17.54</ele>
        <time>2022-02-05T12:53:21Z</time>
      </trkpt>
      <trkpt lat="37.208280" lon="-6.353053">
        <ele>17.81</ele>
        <time>2022-02-05T12:53:25Z</time>
      </trkpt>
      <trkpt lat="37.208357" lon="-6.352774">
        <ele>17.49</ele>
        <time>2022-02-05T12:53:29Z</time>
      </trkpt>
      <trkpt lat="37.208433" lon="-6.352502">
        <ele>17.22</ele>
        <time>2022-02-05T12:53:33Z</time>
      </trkpt>
      <trkpt lat="37.208514" lon="-6.352235">
        <ele>17.26</ele>
        <time>2022-02-05T12:53:37Z</time>
      </trkpt>
      <trkpt lat="37.208592" lon="-6.351951">
        <ele>17.10</ele>
        <time>2022-02-05T12:53:41Z</time>
      </trkpt>
      <trkpt lat="37.208661" lon="-6.351740">
        <ele>17.09</ele>
        <time>2022-02-05T12:53:44Z</time>
      </trkpt>
      <trkpt lat="37.208722" lon="-6.351527">
        <ele>16.74</ele>
        <time>2022-02-05T12:53:47Z</time>
      </trkpt>
      <trkpt lat="37.208805" lon="-6.351258">
        <ele>16.66</ele>
        <time>2022-02-05T12:53:51Z</time>
      </trkpt>
      <trkpt lat="37.208885" lon="-6.350978">
        <ele>16.76</ele>
        <time>2022-02-05T12:53:55Z</time>
      </trkpt>
      <trkpt lat="37.208959" lon="-6.350705">
        <ele>16.66</ele>
        <time>2022-02-05T12:53:59Z</time>
      </trkpt>
      <trkpt lat="37.209044" lon="-6.350441">
        <ele>16.15</ele>
        <time>2022-02-05T12:54:03Z</time>
      </trkpt>
      <trkpt lat="37.209129" lon="-6.350172">
        <ele>16.56</ele>
        <time>2022-02-05T12:54:07Z</time>
      </trkpt>
      <trkpt lat="37.209208" lon="-6.349920">
        <ele>16.87</ele>
        <time>2022-02-05T12:54:11Z</time>
      </trkpt>
      <trkpt lat="37.209311" lon="-6.349675">
        <ele>17.27</ele>
        <time>2022-02-05T12:54:15Z</time>
      </trkpt>
      <trkpt lat="37.209413" lon="-6.349445">
        <ele>17.52</ele>
        <time>2022-02-05T12:54:19Z</time>
      </trkpt>
      <trkpt lat="37.209534" lon="-6.349226">
        <ele>17.98</ele>
        <time>2022-02-05T12:54:23Z</time>
      </trkpt>
      <trkpt lat="37.209653" lon="-6.349018">
        <ele>18.41</ele>
        <time>2022-02-05T12:54:27Z</time>
      </trkpt>
      <trkpt lat="37.209780" lon="-6.348822">
        <ele>18.81</ele>
        <time>2022-02-05T12:54:31Z</time>
      </trkpt>
      <trkpt lat="37.209921" lon="-6.348645">
        <ele>18.67</ele>
        <time>2022-02-05T12:54:35Z</time>
      </trkpt>
      <trkpt lat="37.210053" lon="-6.348475">
        <ele>19.36</ele>
        <time>2022-02-05T12:54:39Z</time>
      </trkpt>
      <trkpt lat="37.210200" lon="-6.348325">
        <ele>18.74</ele>
        <time>2022-02-05T12:54:43Z</time>
      </trkpt>
      <trkpt lat="37.210366" lon="-6.348162">
        <ele>18.26</ele>
        <time>2022-02-05T12:54:47Z</time>
      </trkpt>
      <trkpt lat="37.210555" lon="-6.348026">
        <ele>18.39</ele>
        <time>2022-02-05T12:54:51Z</time>
      </trkpt>
      <trkpt lat="37.210739" lon="-6.347887">
        <ele>16.94</ele>
        <time>2022-02-05T12:54:55Z</time>
      </trkpt>
      <trkpt lat="37.210921" lon="-6.347761">
        <ele>16.80</ele>
        <time>2022-02-05T12:54:59Z</time>
      </trkpt>
      <trkpt lat="37.211114" lon="-6.347652">
        <ele>16.98</ele>
        <time>2022-02-05T12:55:03Z</time>
      </trkpt>
      <trkpt lat="37.211321" lon="-6.347555">
        <ele>17.13</ele>
        <time>2022-02-05T12:55:07Z</time>
      </trkpt>
      <trkpt lat="37.211532" lon="-6.347485">
        <ele>17.19</ele>
        <time>2022-02-05T12:55:11Z</time>
      </trkpt>
      <trkpt lat="37.211739" lon="-6.347423">
        <ele>17.01</ele>
        <time>2022-02-05T12:55:15Z</time>
      </trkpt>
      <trkpt lat="37.211951" lon="-6.347367">
        <ele>17.76</ele>
        <time>2022-02-05T12:55:19Z</time>
      </trkpt>
      <trkpt lat="37.212162" lon="-6.347310">
        <ele>17.61</ele>
        <time>2022-02-05T12:55:23Z</time>
      </trkpt>
      <trkpt lat="37.212366" lon="-6.347243">
        <ele>18.09</ele>
        <time>2022-02-05T12:55:27Z</time>
      </trkpt>
      <trkpt lat="37.212579" lon="-6.347155">
        <ele>17.77</ele>
        <time>2022-02-05T12:55:31Z</time>
      </trkpt>
      <trkpt lat="37.212794" lon="-6.347057">
        <ele>17.21</ele>
        <time>2022-02-05T12:55:35Z</time>
      </trkpt>
      <trkpt lat="37.212995" lon="-6.346955">
        <ele>17.61</ele>
        <time>2022-02-05T12:55:39Z</time>
      </trkpt>
      <trkpt lat="37.213189" lon="-6.346831">
        <ele>17.95</ele>
        <time>2022-02-05T12:55:43Z</time>
      </trkpt>
      <trkpt lat="37.213372" lon="-6.346700">
        <ele>17.54</ele>
        <time>2022-02-05T12:55:47Z</time>
      </trkpt>
      <trkpt lat="37.213552" lon="-6.346561">
        <ele>17.79</ele>
        <time>2022-02-05T12:55:51Z</time>
      </trkpt>
      <trkpt lat="37.213722" lon="-6.346410">
        <ele>17.76</ele>
        <time>2022-02-05T12:55:55Z</time>
      </trkpt>
      <trkpt lat="37.213899" lon="-6.346267">
        <ele>17.91</ele>
        <time>2022-02-05T12:55:59Z</time>
      </trkpt>
      <trkpt lat="37.214076" lon="-6.346122">
        <ele>17.08</ele>
        <time>2022-02-05T12:56:03Z</time>
      </trkpt>
      <trkpt lat="37.214259" lon="-6.345988">
        <ele>17.22</ele>
        <time>2022-02-05T12:56:07Z</time>
      </trkpt>
      <trkpt lat="37.214444" lon="-6.345865">
        <ele>17.93</ele>
        <time>2022-02-05T12:56:11Z</time>
      </trkpt>
      <trkpt lat="37.214638" lon="-6.345756">
        <ele>18.56</ele>
        <time>2022-02-05T12:56:15Z</time>
      </trkpt>
      <trkpt lat="37.214837" lon="-6.345675">
        <ele>18.72</ele>
        <time>2022-02-05T12:56:19Z</time>
      </trkpt>
      <trkpt lat="37.215039" lon="-6.345583">
        <ele>18.89</ele>
        <time>2022-02-05T12:56:23Z</time>
      </trkpt>
      <trkpt lat="37.215233" lon="-6.345506">
        <ele>19.60</ele>
        <time>2022-02-05T12:56:27Z</time>
      </trkpt>
      <trkpt lat="37.215425" lon="-6.345444">
        <ele>19.18</ele>
        <time>2022-02-05T12:56:31Z</time>
      </trkpt>
      <trkpt lat="37.215637" lon="-6.345402">
        <ele>19.31</ele>
        <time>2022-02-05T12:56:35Z</time>
      </trkpt>
      <trkpt lat="37.215849" lon="-6.345366">
        <ele>19.31</ele>
        <time>2022-02-05T12:56:39Z</time>
      </trkpt>
      <trkpt lat="37.216054" lon="-6.345325">
        <ele>20.06</ele>
        <time>2022-02-05T12:56:43Z</time>
      </trkpt>
      <trkpt lat="37.216259" lon="-6.345304">
        <ele>19.88</ele>
        <time>2022-02-05T12:56:47Z</time>
      </trkpt>
      <trkpt lat="37.216479" lon="-6.345276">
        <ele>19.97</ele>
        <time>2022-02-05T12:56:51Z</time>
      </trkpt>
      <trkpt lat="37.216689" lon="-6.345239">
        <ele>19.41</ele>
        <time>2022-02-05T12:56:55Z</time>
      </trkpt>
      <trkpt lat="37.216901" lon="-6.345207">
        <ele>20.31</ele>
        <time>2022-02-05T12:56:59Z</time>
      </trkpt>
      <trkpt lat="37.217102" lon="-6.345165">
        <ele>20.75</ele>
        <time>2022-02-05T12:57:03Z</time>
      </trkpt>
      <trkpt lat="37.217298" lon="-6.345116">
        <ele>20.77</ele>
        <time>2022-02-05T12:57:07Z</time>
      </trkpt>
      <trkpt lat="37.217489" lon="-6.345040">
        <ele>20.12</ele>
        <time>2022-02-05T12:57:11Z</time>
      </trkpt>
      <trkpt lat="37.217681" lon="-6.344926">
        <ele>19.91</ele>
        <time>2022-02-05T12:57:15Z</time>
      </trkpt>
      <trkpt lat="37.217864" lon="-6.344806">
        <ele>20.26</ele>
        <time>2022-02-05T12:57:19Z</time>
      </trkpt>
      <trkpt lat="37.218035" lon="-6.344661">
        <ele>20.28</ele>
        <time>2022-02-05T12:57:23Z</time>
      </trkpt>
      <trkpt lat="37.218196" lon="-6.344523">
        <ele>20.21</ele>
        <time>2022-02-05T12:57:27Z</time>
      </trkpt>
      <trkpt lat="37.218354" lon="-6.344404">
        <ele>20.67</ele>
        <time>2022-02-05T12:57:31Z</time>
      </trkpt>
      <trkpt lat="37.218534" lon="-6.344246">
        <ele>21.76</ele>
        <time>2022-02-05T12:57:36Z</time>
      </trkpt>
      <trkpt lat="37.218683" lon="-6.344080">
        <ele>22.22</ele>
        <time>2022-02-05T12:57:41Z</time>
      </trkpt>
      <trkpt lat="37.218781" lon="-6.343855">
        <ele>22.34</ele>
        <time>2022-02-05T12:57:47Z</time>
      </trkpt>
      <trkpt lat="37.218899" lon="-6.343662">
        <ele>23.32</ele>
        <time>2022-02-05T12:57:54Z</time>
      </trkpt>
      <trkpt lat="37.219063" lon="-6.343563">
        <ele>24.06</ele>
        <time>2022-02-05T12:58:01Z</time>
      </trkpt>
      <trkpt lat="37.219106" lon="-6.343490">
        <ele>23.38</ele>
        <time>2022-02-05T12:58:58Z</time>
      </trkpt>
      <trkpt lat="37.219220" lon="-6.343308">
        <ele>24.41</ele>
        <time>2022-02-05T12:59:06Z</time>
      </trkpt>
      <trkpt lat="37.219330" lon="-6.343110">
        <ele>25.21</ele>
        <time>2022-02-05T12:59:12Z</time>
      </trkpt>
      <trkpt lat="37.219451" lon="-6.342920">
        <ele>25.76</ele>
        <time>2022-02-05T12:59:17Z</time>
      </trkpt>
      <trkpt lat="37.219578" lon="-6.342717">
        <ele>26.76</ele>
        <time>2022-02-05T12:59:22Z</time>
      </trkpt>
      <trkpt lat="37.219710" lon="-6.342503">
        <ele>27.69</ele>
        <time>2022-02-05T12:59:27Z</time>
      </trkpt>
      <trkpt lat="37.219853" lon="-6.342286">
        <ele>27.93</ele>
        <time>2022-02-05T12:59:32Z</time>
      </trkpt>
      <trkpt lat="37.219969" lon="-6.342108">
        <ele>27.89</ele>
        <time>2022-02-05T12:59:36Z</time>
      </trkpt>
      <trkpt lat="37.220090" lon="-6.341921">
        <ele>28.25</ele>
        <time>2022-02-05T12:59:40Z</time>
      </trkpt>
      <trkpt lat="37.220210" lon="-6.341735">
        <ele>28.60</ele>
        <time>2022-02-05T12:59:44Z</time>
      </trkpt>
      <trkpt lat="37.220328" lon="-6.341544">
        <ele>28.75</ele>
        <time>2022-02-05T12:59:48Z</time>
      </trkpt>
      <trkpt lat="37.220448" lon="-6.341357">
        <ele>28.80</ele>
        <time>2022-02-05T12:59:52Z</time>
      </trkpt>
      <trkpt lat="37.220570" lon="-6.341170">
        <ele>29.09</ele>
        <time>2022-02-05T12:59:56Z</time>
      </trkpt>
      <trkpt lat="37.220696" lon="-6.340984">
        <ele>29.40</ele>
        <time>2022-02-05T13:00:00Z</time>
      </trkpt>
      <trkpt lat="37.220817" lon="-6.340786">
        <ele>29.68</ele>
        <time>2022-02-05T13:00:04Z</time>
      </trkpt>
      <trkpt lat="37.220943" lon="-6.340592">
        <ele>29.89</ele>
        <time>2022-02-05T13:00:08Z</time>
      </trkpt>
      <trkpt lat="37.221067" lon="-6.340389">
        <ele>29.80</ele>
        <time>2022-02-05T13:00:12Z</time>
      </trkpt>
      <trkpt lat="37.221193" lon="-6.340182">
        <ele>29.89</ele>
        <time>2022-02-05T13:00:16Z</time>
      </trkpt>
      <trkpt lat="37.221324" lon="-6.339969">
        <ele>29.79</ele>
        <time>2022-02-05T13:00:20Z</time>
      </trkpt>
      <trkpt lat="37.221457" lon="-6.339767">
        <ele>29.34</ele>
        <time>2022-02-05T13:00:24Z</time>
      </trkpt>
      <trkpt lat="37.221593" lon="-6.339545">
        <ele>28.97</ele>
        <time>2022-02-05T13:00:28Z</time>
      </trkpt>
      <trkpt lat="37.221725" lon="-6.339343">
        <ele>28.78</ele>
        <time>2022-02-05T13:00:32Z</time>
      </trkpt>
      <trkpt lat="37.221840" lon="-6.339163">
        <ele>28.34</ele>
        <time>2022-02-05T13:00:36Z</time>
      </trkpt>
      <trkpt lat="37.221956" lon="-6.338982">
        <ele>28.51</ele>
        <time>2022-02-05T13:00:40Z</time>
      </trkpt>
      <trkpt lat="37.222080" lon="-6.338788">
        <ele>28.74</ele>
        <time>2022-02-05T13:00:44Z</time>
      </trkpt>
      <trkpt lat="37.222213" lon="-6.338585">
        <ele>28.62</ele>
        <time>2022-02-05T13:00:48Z</time>
      </trkpt>
      <trkpt lat="37.222349" lon="-6.338378">
        <ele>28.69</ele>
        <time>2022-02-05T13:00:52Z</time>
      </trkpt>
      <trkpt lat="37.222495" lon="-6.338161">
        <ele>28.41</ele>
        <time>2022-02-05T13:00:56Z</time>
      </trkpt>
      <trkpt lat="37.222643" lon="-6.337944">
        <ele>28.30</ele>
        <time>2022-02-05T13:01:00Z</time>
      </trkpt>
      <trkpt lat="37.222794" lon="-6.337734">
        <ele>28.28</ele>
        <time>2022-02-05T13:01:04Z</time>
      </trkpt>
      <trkpt lat="37.222929" lon="-6.337547">
        <ele>27.50</ele>
        <time>2022-02-05T13:01:08Z</time>
      </trkpt>
      <trkpt lat="37.223061" lon="-6.337372">
        <ele>27.18</ele>
        <time>2022-02-05T13:01:12Z</time>
      </trkpt>
      <trkpt lat="37.223203" lon="-6.337192">
        <ele>27.29</ele>
        <time>2022-02-05T13:01:16Z</time>
      </trkpt>
      <trkpt lat="37.223356" lon="-6.337009">
        <ele>27.25</ele>
        <time>2022-02-05T13:01:20Z</time>
      </trkpt>
      <trkpt lat="37.223522" lon="-6.336823">
        <ele>27.01</ele>
        <time>2022-02-05T13:01:24Z</time>
      </trkpt>
      <trkpt lat="37.223686" lon="-6.336627">
        <ele>26.43</ele>
        <time>2022-02-05T13:01:28Z</time>
      </trkpt>
      <trkpt lat="37.223859" lon="-6.336445">
        <ele>26.77</ele>
        <time>2022-02-05T13:01:32Z</time>
      </trkpt>
      <trkpt lat="37.224020" lon="-6.336273">
        <ele>27.16</ele>
        <time>2022-02-05T13:01:36Z</time>
      </trkpt>
      <trkpt lat="37.224171" lon="-6.336126">
        <ele>26.96</ele>
        <time>2022-02-05T13:01:40Z</time>
      </trkpt>
      <trkpt lat="37.224335" lon="-6.336010">
        <ele>26.31</ele>
        <time>2022-02-05T13:01:44Z</time>
      </trkpt>
      <trkpt lat="37.224495" lon="-6.335870">
        <ele>26.16</ele>
        <time>2022-02-05T13:01:48Z</time>
      </trkpt>
      <trkpt lat="37.224670" lon="-6.335733">
        <ele>26.10</ele>
        <time>2022-02-05T13:01:52Z</time>
      </trkpt>
      <trkpt lat="37.224850" lon="-6.335607">
        <ele>25.81</ele>
        <time>2022-02-05T13:01:56Z</time>
      </trkpt>
      <trkpt lat="37.225030" lon="-6.335470">
        <ele>25.72</ele>
        <time>2022-02-05T13:02:00Z</time>
      </trkpt>
      <trkpt lat="37.225219" lon="-6.335345">
        <ele>25.06</ele>
        <time>2022-02-05T13:02:04Z</time>
      </trkpt>
      <trkpt lat="37.225407" lon="-6.335232">
        <ele>25.00</ele>
        <time>2022-02-05T13:02:08Z</time>
      </trkpt>
      <trkpt lat="37.225604" lon="-6.335105">
        <ele>25.22</ele>
        <time>2022-02-05T13:02:12Z</time>
      </trkpt>
      <trkpt lat="37.225781" lon="-6.335001">
        <ele>25.24</ele>
        <time>2022-02-05T13:02:16Z</time>
      </trkpt>
      <trkpt lat="37.225964" lon="-6.334909">
        <ele>25.32</ele>
        <time>2022-02-05T13:02:20Z</time>
      </trkpt>
      <trkpt lat="37.226151" lon="-6.334798">
        <ele>25.05</ele>
        <time>2022-02-05T13:02:24Z</time>
      </trkpt>
      <trkpt lat="37.226335" lon="-6.334674">
        <ele>24.67</ele>
        <time>2022-02-05T13:02:28Z</time>
      </trkpt>
      <trkpt lat="37.226524" lon="-6.334570">
        <ele>24.39</ele>
        <time>2022-02-05T13:02:32Z</time>
      </trkpt>
      <trkpt lat="37.226710" lon="-6.334470">
        <ele>24.71</ele>
        <time>2022-02-05T13:02:36Z</time>
      </trkpt>
      <trkpt lat="37.226899" lon="-6.334361">
        <ele>24.52</ele>
        <time>2022-02-05T13:02:40Z</time>
      </trkpt>
      <trkpt lat="37.227086" lon="-6.334256">
        <ele>24.89</ele>
        <time>2022-02-05T13:02:44Z</time>
      </trkpt>
      <trkpt lat="37.227265" lon="-6.334147">
        <ele>25.05</ele>
        <time>2022-02-05T13:02:48Z</time>
      </trkpt>
      <trkpt lat="37.227452" lon="-6.334043">
        <ele>25.73</ele>
        <time>2022-02-05T13:02:52Z</time>
      </trkpt>
      <trkpt lat="37.227632" lon="-6.333938">
        <ele>25.63</ele>
        <time>2022-02-05T13:02:56Z</time>
      </trkpt>
      <trkpt lat="37.227804" lon="-6.333830">
        <ele>25.27</ele>
        <time>2022-02-05T13:03:00Z</time>
      </trkpt>
      <trkpt lat="37.228007" lon="-6.333712">
        <ele>25.55</ele>
        <time>2022-02-05T13:03:05Z</time>
      </trkpt>
      <trkpt lat="37.228199" lon="-6.333585">
        <ele>26.18</ele>
        <time>2022-02-05T13:03:10Z</time>
      </trkpt>
      <trkpt lat="37.228398" lon="-6.333469">
        <ele>26.65</ele>
        <time>2022-02-05T13:03:15Z</time>
      </trkpt>
      <trkpt lat="37.228606" lon="-6.333356">
        <ele>27.11</ele>
        <time>2022-02-05T13:03:20Z</time>
      </trkpt>
      <trkpt lat="37.228773" lon="-6.333259">
        <ele>27.24</ele>
        <time>2022-02-05T13:03:24Z</time>
      </trkpt>
      <trkpt lat="37.228932" lon="-6.333139">
        <ele>27.22</ele>
        <time>2022-02-05T13:03:28Z</time>
      </trkpt>
      <trkpt lat="37.229094" lon="-6.333041">
        <ele>27.81</ele>
        <time>2022-02-05T13:03:32Z</time>
      </trkpt>
      <trkpt lat="37.229256" lon="-6.332937">
        <ele>28.59</ele>
        <time>2022-02-05T13:03:36Z</time>
      </trkpt>
      <trkpt lat="37.229412" lon="-6.332825">
        <ele>28.84</ele>
        <time>2022-02-05T13:03:40Z</time>
      </trkpt>
      <trkpt lat="37.229566" lon="-6.332707">
        <ele>29.46</ele>
        <time>2022-02-05T13:03:44Z</time>
      </trkpt>
      <trkpt lat="37.229724" lon="-6.332588">
        <ele>29.78</ele>
        <time>2022-02-05T13:03:48Z</time>
      </trkpt>
      <trkpt lat="37.229875" lon="-6.332453">
        <ele>30.15</ele>
        <time>2022-02-05T13:03:52Z</time>
      </trkpt>
      <trkpt lat="37.230046" lon="-6.332275">
        <ele>30.29</ele>
        <time>2022-02-05T13:03:57Z</time>
      </trkpt>
      <trkpt lat="37.230213" lon="-6.332090">
        <ele>30.93</ele>
        <time>2022-02-05T13:04:02Z</time>
      </trkpt>
      <trkpt lat="37.230377" lon="-6.331916">
        <ele>31.59</ele>
        <time>2022-02-05T13:04:07Z</time>
      </trkpt>
      <trkpt lat="37.230530" lon="-6.331716">
        <ele>31.53</ele>
        <time>2022-02-05T13:04:12Z</time>
      </trkpt>
      <trkpt lat="37.230685" lon="-6.331516">
        <ele>31.49</ele>
        <time>2022-02-05T13:04:17Z</time>
      </trkpt>
      <trkpt lat="37.230827" lon="-6.331306">
        <ele>32.25</ele>
        <time>2022-02-05T13:04:22Z</time>
      </trkpt>
      <trkpt lat="37.230965" lon="-6.331107">
        <ele>33.47</ele>
        <time>2022-02-05T13:04:27Z</time>
      </trkpt>
      <trkpt lat="37.231103" lon="-6.330916">
        <ele>33.90</ele>
        <time>2022-02-05T13:04:32Z</time>
      </trkpt>
      <trkpt lat="37.231231" lon="-6.330738">
        <ele>34.49</ele>
        <time>2022-02-05T13:04:37Z</time>
      </trkpt>
      <trkpt lat="37.231373" lon="-6.330538">
        <ele>35.39</ele>
        <time>2022-02-05T13:04:43Z</time>
      </trkpt>
      <trkpt lat="37.231510" lon="-6.330354">
        <ele>34.93</ele>
        <time>2022-02-05T13:04:48Z</time>
      </trkpt>
      <trkpt lat="37.231654" lon="-6.330165">
        <ele>35.74</ele>
        <time>2022-02-05T13:04:53Z</time>
      </trkpt>
      <trkpt lat="37.231782" lon="-6.329977">
        <ele>36.65</ele>
        <time>2022-02-05T13:04:58Z</time>
      </trkpt>
      <trkpt lat="37.231932" lon="-6.329786">
        <ele>37.80</ele>
        <time>2022-02-05T13:05:04Z</time>
      </trkpt>
      <trkpt lat="37.232057" lon="-6.329620">
        <ele>38.50</ele>
        <time>2022-02-05T13:05:09Z</time>
      </trkpt>
      <trkpt lat="37.232185" lon="-6.329451">
        <ele>39.14</ele>
        <time>2022-02-05T13:05:14Z</time>
      </trkpt>
      <trkpt lat="37.232321" lon="-6.329268">
        <ele>39.55</ele>
        <time>2022-02-05T13:05:19Z</time>
      </trkpt>
      <trkpt lat="37.232458" lon="-6.329066">
        <ele>39.56</ele>
        <time>2022-02-05T13:05:24Z</time>
      </trkpt>
      <trkpt lat="37.232608" lon="-6.328865">
        <ele>39.36</ele>
        <time>2022-02-05T13:05:29Z</time>
      </trkpt>
      <trkpt lat="37.232739" lon="-6.328700">
        <ele>39.23</ele>
        <time>2022-02-05T13:05:33Z</time>
      </trkpt>
      <trkpt lat="37.232867" lon="-6.328524">
        <ele>39.24</ele>
        <time>2022-02-05T13:05:37Z</time>
      </trkpt>
      <trkpt lat="37.233001" lon="-6.328346">
        <ele>38.90</ele>
        <time>2022-02-05T13:05:41Z</time>
      </trkpt>
      <trkpt lat="37.233122" lon="-6.328168">
        <ele>38.14</ele>
        <time>2022-02-05T13:05:45Z</time>
      </trkpt>
      <trkpt lat="37.233240" lon="-6.327997">
        <ele>37.87</ele>
        <time>2022-02-05T13:05:49Z</time>
      </trkpt>
      <trkpt lat="37.233359" lon="-6.327827">
        <ele>37.14</ele>
        <time>2022-02-05T13:05:53Z</time>
      </trkpt>
      <trkpt lat="37.233489" lon="-6.327644">
        <ele>36.37</ele>
        <time>2022-02-05T13:05:57Z</time>
      </trkpt>
      <trkpt lat="37.233626" lon="-6.327455">
        <ele>35.68</ele>
        <time>2022-02-05T13:06:01Z</time>
      </trkpt>
      <trkpt lat="37.233786" lon="-6.327240">
        <ele>35.06</ele>
        <time>2022-02-05T13:06:05Z</time>
      </trkpt>
      <trkpt lat="37.233934" lon="-6.327083">
        <ele>33.64</ele>
        <time>2022-02-05T13:06:08Z</time>
      </trkpt>
      <trkpt lat="37.234108" lon="-6.326911">
        <ele>32.36</ele>
        <time>2022-02-05T13:06:11Z</time>
      </trkpt>
      <trkpt lat="37.234296" lon="-6.326711">
        <ele>30.69</ele>
        <time>2022-02-05T13:06:14Z</time>
      </trkpt>
      <trkpt lat="37.234491" lon="-6.326492">
        <ele>28.53</ele>
        <time>2022-02-05T13:06:17Z</time>
      </trkpt>
      <trkpt lat="37.234623" lon="-6.326338">
        <ele>27.31</ele>
        <time>2022-02-05T13:06:19Z</time>
      </trkpt>
      <trkpt lat="37.234759" lon="-6.326169">
        <ele>26.07</ele>
        <time>2022-02-05T13:06:21Z</time>
      </trkpt>
      <trkpt lat="37.234886" lon="-6.325994">
        <ele>25.29</ele>
        <time>2022-02-05T13:06:23Z</time>
      </trkpt>
      <trkpt lat="37.234998" lon="-6.325806">
        <ele>24.76</ele>
        <time>2022-02-05T13:06:25Z</time>
      </trkpt>
      <trkpt lat="37.235097" lon="-6.325616">
        <ele>24.29</ele>
        <time>2022-02-05T13:06:27Z</time>
      </trkpt>
      <trkpt lat="37.235228" lon="-6.325336">
        <ele>23.36</ele>
        <time>2022-02-05T13:06:30Z</time>
      </trkpt>
      <trkpt lat="37.235342" lon="-6.325066">
        <ele>22.50</ele>
        <time>2022-02-05T13:06:33Z</time>
      </trkpt>
      <trkpt lat="37.235444" lon="-6.324817">
        <ele>22.20</ele>
        <time>2022-02-05T13:06:36Z</time>
      </trkpt>
      <trkpt lat="37.235546" lon="-6.324586">
        <ele>22.02</ele>
        <time>2022-02-05T13:06:39Z</time>
      </trkpt>
      <trkpt lat="37.235630" lon="-6.324376">
        <ele>22.34</ele>
        <time>2022-02-05T13:06:42Z</time>
      </trkpt>
      <trkpt lat="37.235685" lon="-6.324115">
        <ele>22.35</ele>
        <time>2022-02-05T13:06:46Z</time>
      </trkpt>
      <trkpt lat="37.235819" lon="-6.323951">
        <ele>22.42</ele>
        <time>2022-02-05T13:06:52Z</time>
      </trkpt>
      <trkpt lat="37.235984" lon="-6.323810">
        <ele>23.08</ele>
        <time>2022-02-05T13:06:59Z</time>
      </trkpt>
      <trkpt lat="37.236160" lon="-6.323635">
        <ele>22.72</ele>
        <time>2022-02-05T13:07:04Z</time>
      </trkpt>
      <trkpt lat="37.236344" lon="-6.323478">
        <ele>22.09</ele>
        <time>2022-02-05T13:07:09Z</time>
      </trkpt>
      <trkpt lat="37.236494" lon="-6.323342">
        <ele>21.53</ele>
        <time>2022-02-05T13:07:13Z</time>
      </trkpt>
      <trkpt lat="37.236661" lon="-6.323200">
        <ele>21.12</ele>
        <time>2022-02-05T13:07:17Z</time>
      </trkpt>
      <trkpt lat="37.236838" lon="-6.323064">
        <ele>20.78</ele>
        <time>2022-02-05T13:07:21Z</time>
      </trkpt>
      <trkpt lat="37.237017" lon="-6.322918">
        <ele>21.25</ele>
        <time>2022-02-05T13:07:25Z</time>
      </trkpt>
      <trkpt lat="37.237197" lon="-6.322767">
        <ele>21.11</ele>
        <time>2022-02-05T13:07:29Z</time>
      </trkpt>
      <trkpt lat="37.237376" lon="-6.322609">
        <ele>20.45</ele>
        <time>2022-02-05T13:07:33Z</time>
      </trkpt>
      <trkpt lat="37.237530" lon="-6.322427">
        <ele>21.05</ele>
        <time>2022-02-05T13:07:37Z</time>
      </trkpt>
      <trkpt lat="37.237717" lon="-6.322269">
        <ele>20.84</ele>
        <time>2022-02-05T13:07:41Z</time>
      </trkpt>
      <trkpt lat="37.237910" lon="-6.322108">
        <ele>21.00</ele>
        <time>2022-02-05T13:07:45Z</time>
      </trkpt>
      <trkpt lat="37.238085" lon="-6.321939">
        <ele>21.06</ele>
        <time>2022-02-05T13:07:49Z</time>
      </trkpt>
      <trkpt lat="37.238262" lon="-6.321785">
        <ele>21.20</ele>
        <time>2022-02-05T13:07:53Z</time>
      </trkpt>
      <trkpt lat="37.238427" lon="-6.321615">
        <ele>21.09</ele>
        <time>2022-02-05T13:07:57Z</time>
      </trkpt>
      <trkpt lat="37.238595" lon="-6.321446">
        <ele>21.50</ele>
        <time>2022-02-05T13:08:01Z</time>
      </trkpt>
      <trkpt lat="37.238768" lon="-6.321279">
        <ele>21.67</ele>
        <time>2022-02-05T13:08:05Z</time>
      </trkpt>
      <trkpt lat="37.238935" lon="-6.321113">
        <ele>21.70</ele>
        <time>2022-02-05T13:08:09Z</time>
      </trkpt>
      <trkpt lat="37.239109" lon="-6.320950">
        <ele>22.20</ele>
        <time>2022-02-05T13:08:13Z</time>
      </trkpt>
      <trkpt lat="37.239270" lon="-6.320788">
        <ele>21.99</ele>
        <time>2022-02-05T13:08:17Z</time>
      </trkpt>
      <trkpt lat="37.239431" lon="-6.320621">
        <ele>22.21</ele>
        <time>2022-02-05T13:08:21Z</time>
      </trkpt>
      <trkpt lat="37.239592" lon="-6.320458">
        <ele>22.30</ele>
        <time>2022-02-05T13:08:25Z</time>
      </trkpt>
      <trkpt lat="37.239749" lon="-6.320299">
        <ele>22.23</ele>
        <time>2022-02-05T13:08:29Z</time>
      </trkpt>
      <trkpt lat="37.239908" lon="-6.320144">
        <ele>22.53</ele>
        <time>2022-02-05T13:08:33Z</time>
      </trkpt>
      <trkpt lat="37.240066" lon="-6.319986">
        <ele>22.88</ele>
        <time>2022-02-05T13:08:37Z</time>
      </trkpt>
      <trkpt lat="37.240227" lon="-6.319841">
        <ele>23.20</ele>
        <time>2022-02-05T13:08:41Z</time>
      </trkpt>
      <trkpt lat="37.240390" lon="-6.319700">
        <ele>23.76</ele>
        <time>2022-02-05T13:08:45Z</time>
      </trkpt>
      <trkpt lat="37.240541" lon="-6.319568">
        <ele>23.92</ele>
        <time>2022-02-05T13:08:49Z</time>
      </trkpt>
      <trkpt lat="37.240701" lon="-6.319434">
        <ele>24.11</ele>
        <time>2022-02-05T13:08:53Z</time>
      </trkpt>
      <trkpt lat="37.240861" lon="-6.319313">
        <ele>23.65</ele>
        <time>2022-02-05T13:08:57Z</time>
      </trkpt>
      <trkpt lat="37.241030" lon="-6.319187">
        <ele>23.80</ele>
        <time>2022-02-05T13:09:01Z</time>
      </trkpt>
      <trkpt lat="37.241200" lon="-6.319057">
        <ele>23.68</ele>
        <time>2022-02-05T13:09:05Z</time>
      </trkpt>
      <trkpt lat="37.241228" lon="-6.318630">
        <ele>23.11</ele>
        <time>2022-02-05T13:09:10Z</time>
      </trkpt>
      <trkpt lat="37.241566" lon="-6.318112">
        <ele>22.75</ele>
        <time>2022-02-05T13:09:14Z</time>
      </trkpt>
      <trkpt lat="37.241955" lon="-6.316311">
        <ele>22.48</ele>
        <time>2022-02-05T13:09:18Z</time>
      </trkpt>
      <trkpt lat="37.242417" lon="-6.314846">
        <ele>22.54</ele>
        <time>2022-02-05T13:09:22Z</time>
      </trkpt>
      <trkpt lat="37.242815" lon="-6.313451">
        <ele>22.36</ele>
        <time>2022-02-05T13:09:27Z</time>
      </trkpt>
      <trkpt lat="37.243129" lon="-6.312045">
        <ele>21.81</ele>
        <time>2022-02-05T13:09:33Z</time>
      </trkpt>
      <trkpt lat="37.243862" lon="-6.309945">
        <ele>22.22</ele>
        <time>2022-02-05T13:09:40Z</time>
      </trkpt>
      <trkpt lat="37.244489" lon="-6.308784">
        <ele>22.05</ele>
        <time>2022-02-05T13:09:45Z</time>
      </trkpt>
      <trkpt lat="37.244793" lon="-6.308386">
        <ele>22.19</ele>
        <time>2022-02-05T13:09:47.94Z</time>
      </trkpt>
      <trkpt lat="37.244924" lon="-6.308215">
        <ele>22.25</ele>
        <time>2022-02-05T13:09:49.19Z</time>
      </trkpt>
      <trkpt lat="37.244958" lon="-6.308171">
        <ele>22.27</ele>
        <time>2022-02-05T13:09:49.52Z</time>
      </trkpt>
      <trkpt lat="37.245007" lon="-6.308107">
        <ele>22.29</ele>
        <time>2022-02-05T13:09:50Z</time>
      </trkpt>
      <trkpt lat="37.245020" lon="-6.308087">
        <ele>22.26</ele>
        <time>2022-02-05T13:14:35Z</time>
      </trkpt>
      <trkpt lat="37.245150" lon="-6.307971">
        <ele>21.04</ele>
        <time>2022-02-05T13:14:40Z</time>
      </trkpt>
      <trkpt lat="37.245291" lon="-6.307837">
        <ele>24.83</ele>
        <time>2022-02-05T13:14:48Z</time>
      </trkpt>
      <trkpt lat="37.245456" lon="-6.307683">
        <ele>28.29</ele>
        <time>2022-02-05T13:14:53Z</time>
      </trkpt>
      <trkpt lat="37.245596" lon="-6.307507">
        <ele>30.06</ele>
        <time>2022-02-05T13:14:58Z</time>
      </trkpt>
      <trkpt lat="37.245715" lon="-6.307320">
        <ele>30.40</ele>
        <time>2022-02-05T13:15:03Z</time>
      </trkpt>
      <trkpt lat="37.245819" lon="-6.307124">
        <ele>32.07</ele>
        <time>2022-02-05T13:15:08Z</time>
      </trkpt>
      <trkpt lat="37.245935" lon="-6.306952">
        <ele>31.03</ele>
        <time>2022-02-05T13:15:15Z</time>
      </trkpt>
      <trkpt lat="37.246118" lon="-6.306911">
        <ele>27.53</ele>
        <time>2022-02-05T13:15:21Z</time>
      </trkpt>
      <trkpt lat="37.246253" lon="-6.306709">
        <ele>27.18</ele>
        <time>2022-02-05T13:15:27Z</time>
      </trkpt>
      <trkpt lat="37.246445" lon="-6.306587">
        <ele>27.57</ele>
        <time>2022-02-05T13:15:32Z</time>
      </trkpt>
      <trkpt lat="37.246524" lon="-6.306381">
        <ele>27.67</ele>
        <time>2022-02-05T13:15:36Z</time>
      </trkpt>
      <trkpt lat="37.246564" lon="-6.306114">
        <ele>28.15</ele>
        <time>2022-02-05T13:15:41Z</time>
      </trkpt>
      <trkpt lat="37.246542" lon="-6.305888">
        <ele>28.06</ele>
        <time>2022-02-05T13:15:45Z</time>
      </trkpt>
      <trkpt lat="37.246523" lon="-6.305641">
        <ele>27.45</ele>
        <time>2022-02-05T13:15:49Z</time>
      </trkpt>
      <trkpt lat="37.246503" lon="-6.305390">
        <ele>27.22</ele>
        <time>2022-02-05T13:15:53Z</time>
      </trkpt>
      <trkpt lat="37.246509" lon="-6.305157">
        <ele>25.60</ele>
        <time>2022-02-05T13:15:57Z</time>
      </trkpt>
      <trkpt lat="37.246601" lon="-6.304905">
        <ele>23.65</ele>
        <time>2022-02-05T13:16:01Z</time>
      </trkpt>
      <trkpt lat="37.246676" lon="-6.304699">
        <ele>22.93</ele>
        <time>2022-02-05T13:16:04Z</time>
      </trkpt>
      <trkpt lat="37.246760" lon="-6.304426">
        <ele>22.44</ele>
        <time>2022-02-05T13:16:08Z</time>
      </trkpt>
      <trkpt lat="37.246858" lon="-6.304170">
        <ele>22.74</ele>
        <time>2022-02-05T13:16:12Z</time>
      </trkpt>
      <trkpt lat="37.246953" lon="-6.303923">
        <ele>22.18</ele>
        <time>2022-02-05T13:16:16Z</time>
      </trkpt>
      <trkpt lat="37.247051" lon="-6.303685">
        <ele>21.87</ele>
        <time>2022-02-05T13:16:20Z</time>
      </trkpt>
      <trkpt lat="37.247172" lon="-6.303455">
        <ele>21.15</ele>
        <time>2022-02-05T13:16:24Z</time>
      </trkpt>
      <trkpt lat="37.247347" lon="-6.303279">
        <ele>21.92</ele>
        <time>2022-02-05T13:16:28Z</time>
      </trkpt>
      <trkpt lat="37.247521" lon="-6.303124">
        <ele>22.38</ele>
        <time>2022-02-05T13:16:32Z</time>
      </trkpt>
      <trkpt lat="37.247679" lon="-6.302961">
        <ele>23.11</ele>
        <time>2022-02-05T13:16:36Z</time>
      </trkpt>
      <trkpt lat="37.247820" lon="-6.302801">
        <ele>24.22</ele>
        <time>2022-02-05T13:16:40Z</time>
      </trkpt>
      <trkpt lat="37.247853" lon="-6.302556">
        <ele>24.78</ele>
        <time>2022-02-05T13:16:45Z</time>
      </trkpt>
      <trkpt lat="37.247788" lon="-6.302287">
        <ele>24.58</ele>
        <time>2022-02-05T13:16:50Z</time>
      </trkpt>
      <trkpt lat="37.247743" lon="-6.302052">
        <ele>24.41</ele>
        <time>2022-02-05T13:16:54Z</time>
      </trkpt>
      <trkpt lat="37.247701" lon="-6.301815">
        <ele>24.01</ele>
        <time>2022-02-05T13:16:58Z</time>
      </trkpt>
      <trkpt lat="37.247651" lon="-6.301560">
        <ele>23.97</ele>
        <time>2022-02-05T13:17:02Z</time>
      </trkpt>
      <trkpt lat="37.247609" lon="-6.301304">
        <ele>24.14</ele>
        <time>2022-02-05T13:17:06Z</time>
      </trkpt>
      <trkpt lat="37.247550" lon="-6.301056">
        <ele>23.78</ele>
        <time>2022-02-05T13:17:10Z</time>
      </trkpt>
      <trkpt lat="37.247502" lon="-6.300793">
        <ele>23.62</ele>
        <time>2022-02-05T13:17:14Z</time>
      </trkpt>
      <trkpt lat="37.247458" lon="-6.300538">
        <ele>23.31</ele>
        <time>2022-02-05T13:17:18Z</time>
      </trkpt>
      <trkpt lat="37.247434" lon="-6.300291">
        <ele>23.24</ele>
        <time>2022-02-05T13:17:22Z</time>
      </trkpt>
      <trkpt lat="37.247421" lon="-6.300038">
        <ele>23.68</ele>
        <time>2022-02-05T13:17:26Z</time>
      </trkpt>
      <trkpt lat="37.247441" lon="-6.299795">
        <ele>23.79</ele>
        <time>2022-02-05T13:17:30Z</time>
      </trkpt>
      <trkpt lat="37.247479" lon="-6.299557">
        <ele>24.54</ele>
        <time>2022-02-05T13:17:34Z</time>
      </trkpt>
      <trkpt lat="37.247531" lon="-6.299310">
        <ele>24.26</ele>
        <time>2022-02-05T13:17:38Z</time>
      </trkpt>
      <trkpt lat="37.247574" lon="-6.299065">
        <ele>24.52</ele>
        <time>2022-02-05T13:17:42Z</time>
      </trkpt>
      <trkpt lat="37.247591" lon="-6.298809">
        <ele>23.81</ele>
        <time>2022-02-05T13:17:46Z</time>
      </trkpt>
      <trkpt lat="37.247630" lon="-6.298568">
        <ele>23.73</ele>
        <time>2022-02-05T13:17:50Z</time>
      </trkpt>
      <trkpt lat="37.247668" lon="-6.298318">
        <ele>22.91</ele>
        <time>2022-02-05T13:17:54Z</time>
      </trkpt>
      <trkpt lat="37.247716" lon="-6.298062">
        <ele>22.42</ele>
        <time>2022-02-05T13:17:58Z</time>
      </trkpt>
      <trkpt lat="37.247732" lon="-6.297791">
        <ele>21.78</ele>
        <time>2022-02-05T13:18:02Z</time>
      </trkpt>
      <trkpt lat="37.247762" lon="-6.297535">
        <ele>22.25</ele>
        <time>2022-02-05T13:18:06Z</time>
      </trkpt>
      <trkpt lat="37.247782" lon="-6.297275">
        <ele>22.10</ele>
        <time>2022-02-05T13:18:10Z</time>
      </trkpt>
      <trkpt lat="37.247793" lon="-6.297027">
        <ele>22.28</ele>
        <time>2022-02-05T13:18:14Z</time>
      </trkpt>
      <trkpt lat="37.247812" lon="-6.296785">
        <ele>22.51</ele>
        <time>2022-02-05T13:18:18Z</time>
      </trkpt>
      <trkpt lat="37.247841" lon="-6.296546">
        <ele>22.68</ele>
        <time>2022-02-05T13:18:22Z</time>
      </trkpt>
      <trkpt lat="37.247872" lon="-6.296312">
        <ele>22.58</ele>
        <time>2022-02-05T13:18:26Z</time>
      </trkpt>
      <trkpt lat="37.247898" lon="-6.296078">
        <ele>22.50</ele>
        <time>2022-02-05T13:18:30Z</time>
      </trkpt>
      <trkpt lat="37.247921" lon="-6.295809">
        <ele>22.93</ele>
        <time>2022-02-05T13:18:35Z</time>
      </trkpt>
      <trkpt lat="37.247935" lon="-6.295575">
        <ele>23.04</ele>
        <time>2022-02-05T13:18:39Z</time>
      </trkpt>
      <trkpt lat="37.247968" lon="-6.295350">
        <ele>23.52</ele>
        <time>2022-02-05T13:18:43Z</time>
      </trkpt>
      <trkpt lat="37.247998" lon="-6.295118">
        <ele>23.33</ele>
        <time>2022-02-05T13:18:47Z</time>
      </trkpt>
      <trkpt lat="37.248041" lon="-6.294842">
        <ele>23.97</ele>
        <time>2022-02-05T13:18:52Z</time>
      </trkpt>
      <trkpt lat="37.248109" lon="-6.294575">
        <ele>24.68</ele>
        <time>2022-02-05T13:18:57Z</time>
      </trkpt>
      <trkpt lat="37.248188" lon="-6.294313">
        <ele>25.02</ele>
        <time>2022-02-05T13:19:02Z</time>
      </trkpt>
      <trkpt lat="37.248278" lon="-6.294058">
        <ele>24.28</ele>
        <time>2022-02-05T13:19:07Z</time>
      </trkpt>
      <trkpt lat="37.248381" lon="-6.293820">
        <ele>24.16</ele>
        <time>2022-02-05T13:19:12Z</time>
      </trkpt>
      <trkpt lat="37.248470" lon="-6.293597">
        <ele>25.01</ele>
        <time>2022-02-05T13:19:17Z</time>
      </trkpt>
      <trkpt lat="37.248560" lon="-6.293358">
        <ele>25.56</ele>
        <time>2022-02-05T13:19:23Z</time>
      </trkpt>
      <trkpt lat="37.248595" lon="-6.293130">
        <ele>25.81</ele>
        <time>2022-02-05T13:19:28Z</time>
      </trkpt>
      <trkpt lat="37.248616" lon="-6.292902">
        <ele>26.38</ele>
        <time>2022-02-05T13:19:33Z</time>
      </trkpt>
      <trkpt lat="37.248664" lon="-6.292655">
        <ele>27.75</ele>
        <time>2022-02-05T13:19:39Z</time>
      </trkpt>
      <trkpt lat="37.248751" lon="-6.292420">
        <ele>28.69</ele>
        <time>2022-02-05T13:19:45Z</time>
      </trkpt>
      <trkpt lat="37.248879" lon="-6.292223">
        <ele>29.93</ele>
        <time>2022-02-05T13:19:51Z</time>
      </trkpt>
      <trkpt lat="37.249006" lon="-6.292032">
        <ele>31.64</ele>
        <time>2022-02-05T13:19:57Z</time>
      </trkpt>
      <trkpt lat="37.249136" lon="-6.291869">
        <ele>31.41</ele>
        <time>2022-02-05T13:20:02Z</time>
      </trkpt>
      <trkpt lat="37.249292" lon="-6.291688">
        <ele>30.00</ele>
        <time>2022-02-05T13:20:06Z</time>
      </trkpt>
      <trkpt lat="37.249401" lon="-6.291440">
        <ele>29.02</ele>
        <time>2022-02-05T13:20:10Z</time>
      </trkpt>
      <trkpt lat="37.249478" lon="-6.291181">
        <ele>28.29</ele>
        <time>2022-02-05T13:20:14Z</time>
      </trkpt>
      <trkpt lat="37.249502" lon="-6.290906">
        <ele>27.26</ele>
        <time>2022-02-05T13:20:18Z</time>
      </trkpt>
      <trkpt lat="37.249491" lon="-6.290610">
        <ele>26.40</ele>
        <time>2022-02-05T13:20:22Z</time>
      </trkpt>
      <trkpt lat="37.249487" lon="-6.290322">
        <ele>24.79</ele>
        <time>2022-02-05T13:20:26Z</time>
      </trkpt>
      <trkpt lat="37.249500" lon="-6.290028">
        <ele>24.22</ele>
        <time>2022-02-05T13:20:30Z</time>
      </trkpt>
      <trkpt lat="37.249508" lon="-6.289785">
        <ele>23.63</ele>
        <time>2022-02-05T13:20:33Z</time>
      </trkpt>
      <trkpt lat="37.249515" lon="-6.289552">
        <ele>23.82</ele>
        <time>2022-02-05T13:20:36Z</time>
      </trkpt>
      <trkpt lat="37.249529" lon="-6.289268">
        <ele>22.96</ele>
        <time>2022-02-05T13:20:40Z</time>
      </trkpt>
      <trkpt lat="37.249527" lon="-6.288982">
        <ele>22.32</ele>
        <time>2022-02-05T13:20:44Z</time>
      </trkpt>
      <trkpt lat="37.249510" lon="-6.288683">
        <ele>21.94</ele>
        <time>2022-02-05T13:20:48Z</time>
      </trkpt>
      <trkpt lat="37.249453" lon="-6.288395">
        <ele>21.84</ele>
        <time>2022-02-05T13:20:52Z</time>
      </trkpt>
      <trkpt lat="37.249418" lon="-6.288114">
        <ele>21.34</ele>
        <time>2022-02-05T13:20:56Z</time>
      </trkpt>
      <trkpt lat="37.249391" lon="-6.287879">
        <ele>20.26</ele>
        <time>2022-02-05T13:20:59Z</time>
      </trkpt>
      <trkpt lat="37.249381" lon="-6.287642">
        <ele>19.48</ele>
        <time>2022-02-05T13:21:02Z</time>
      </trkpt>
      <trkpt lat="37.249370" lon="-6.287407">
        <ele>19.40</ele>
        <time>2022-02-05T13:21:05Z</time>
      </trkpt>
      <trkpt lat="37.249347" lon="-6.287117">
        <ele>19.25</ele>
        <time>2022-02-05T13:21:09Z</time>
      </trkpt>
      <trkpt lat="37.249323" lon="-6.286846">
        <ele>19.72</ele>
        <time>2022-02-05T13:21:13Z</time>
      </trkpt>
      <trkpt lat="37.249284" lon="-6.286575">
        <ele>19.37</ele>
        <time>2022-02-05T13:21:17Z</time>
      </trkpt>
      <trkpt lat="37.249225" lon="-6.286303">
        <ele>19.08</ele>
        <time>2022-02-05T13:21:21Z</time>
      </trkpt>
      <trkpt lat="37.249140" lon="-6.286043">
        <ele>19.04</ele>
        <time>2022-02-05T13:21:25Z</time>
      </trkpt>
      <trkpt lat="37.249047" lon="-6.285812">
        <ele>18.76</ele>
        <time>2022-02-05T13:21:29Z</time>
      </trkpt>
      <trkpt lat="37.248955" lon="-6.285609">
        <ele>18.91</ele>
        <time>2022-02-05T13:21:33Z</time>
      </trkpt>
      <trkpt lat="37.248869" lon="-6.285409">
        <ele>18.86</ele>
        <time>2022-02-05T13:21:37Z</time>
      </trkpt>
      <trkpt lat="37.248797" lon="-6.285187">
        <ele>18.24</ele>
        <time>2022-02-05T13:21:41Z</time>
      </trkpt>
      <trkpt lat="37.248725" lon="-6.284943">
        <ele>17.46</ele>
        <time>2022-02-05T13:21:45Z</time>
      </trkpt>
      <trkpt lat="37.248631" lon="-6.284715">
        <ele>16.85</ele>
        <time>2022-02-05T13:21:49Z</time>
      </trkpt>
      <trkpt lat="37.248522" lon="-6.284501">
        <ele>16.84</ele>
        <time>2022-02-05T13:21:53Z</time>
      </trkpt>
      <trkpt lat="37.248398" lon="-6.284276">
        <ele>16.36</ele>
        <time>2022-02-05T13:21:57Z</time>
      </trkpt>
      <trkpt lat="37.248262" lon="-6.284054">
        <ele>16.61</ele>
        <time>2022-02-05T13:22:01Z</time>
      </trkpt>
      <trkpt lat="37.248200" lon="-6.283811">
        <ele>18.19</ele>
        <time>2022-02-05T13:22:05Z</time>
      </trkpt>
      <trkpt lat="37.248175" lon="-6.283576">
        <ele>17.99</ele>
        <time>2022-02-05T13:22:09Z</time>
      </trkpt>
      <trkpt lat="37.248119" lon="-6.283311">
        <ele>17.87</ele>
        <time>2022-02-05T13:22:14Z</time>
      </trkpt>
      <trkpt lat="37.248067" lon="-6.283040">
        <ele>17.66</ele>
        <time>2022-02-05T13:22:19Z</time>
      </trkpt>
      <trkpt lat="37.247980" lon="-6.282833">
        <ele>17.63</ele>
        <time>2022-02-05T13:22:23Z</time>
      </trkpt>
      <trkpt lat="37.247885" lon="-6.282583">
        <ele>16.89</ele>
        <time>2022-02-05T13:22:28Z</time>
      </trkpt>
      <trkpt lat="37.247812" lon="-6.282376">
        <ele>17.36</ele>
        <time>2022-02-05T13:22:32Z</time>
      </trkpt>
      <trkpt lat="37.247720" lon="-6.282152">
        <ele>17.83</ele>
        <time>2022-02-05T13:22:37Z</time>
      </trkpt>
      <trkpt lat="37.247596" lon="-6.281947">
        <ele>16.91</ele>
        <time>2022-02-05T13:22:43Z</time>
      </trkpt>
      <trkpt lat="37.247527" lon="-6.281707">
        <ele>16.09</ele>
        <time>2022-02-05T13:22:48Z</time>
      </trkpt>
      <trkpt lat="37.247499" lon="-6.281438">
        <ele>14.19</ele>
        <time>2022-02-05T13:22:53Z</time>
      </trkpt>
      <trkpt lat="37.247508" lon="-6.281166">
        <ele>13.67</ele>
        <time>2022-02-05T13:22:58Z</time>
      </trkpt>
      <trkpt lat="37.247513" lon="-6.280935">
        <ele>14.05</ele>
        <time>2022-02-05T13:23:02Z</time>
      </trkpt>
      <trkpt lat="37.247482" lon="-6.280699">
        <ele>13.66</ele>
        <time>2022-02-05T13:23:06Z</time>
      </trkpt>
      <trkpt lat="37.247436" lon="-6.280474">
        <ele>13.03</ele>
        <time>2022-02-05T13:23:10Z</time>
      </trkpt>
      <trkpt lat="37.247412" lon="-6.280244">
        <ele>12.36</ele>
        <time>2022-02-05T13:23:14Z</time>
      </trkpt>
      <trkpt lat="37.247392" lon="-6.280006">
        <ele>12.59</ele>
        <time>2022-02-05T13:23:18Z</time>
      </trkpt>
      <trkpt lat="37.247380" lon="-6.279763">
        <ele>12.93</ele>
        <time>2022-02-05T13:23:22Z</time>
      </trkpt>
      <trkpt lat="37.247373" lon="-6.279517">
        <ele>13.01</ele>
        <time>2022-02-05T13:23:26Z</time>
      </trkpt>
      <trkpt lat="37.247366" lon="-6.279264">
        <ele>13.52</ele>
        <time>2022-02-05T13:23:30Z</time>
      </trkpt>
      <trkpt lat="37.247391" lon="-6.279003">
        <ele>14.11</ele>
        <time>2022-02-05T13:23:34Z</time>
      </trkpt>
      <trkpt lat="37.247382" lon="-6.278755">
        <ele>13.70</ele>
        <time>2022-02-05T13:23:38Z</time>
      </trkpt>
      <trkpt lat="37.247360" lon="-6.278510">
        <ele>13.62</ele>
        <time>2022-02-05T13:23:42Z</time>
      </trkpt>
      <trkpt lat="37.247322" lon="-6.278279">
        <ele>13.76</ele>
        <time>2022-02-05T13:23:46Z</time>
      </trkpt>
      <trkpt lat="37.247295" lon="-6.278012">
        <ele>14.14</ele>
        <time>2022-02-05T13:23:51Z</time>
      </trkpt>
      <trkpt lat="37.247276" lon="-6.277746">
        <ele>14.20</ele>
        <time>2022-02-05T13:23:56Z</time>
      </trkpt>
      <trkpt lat="37.247253" lon="-6.277492">
        <ele>13.70</ele>
        <time>2022-02-05T13:24:00Z</time>
      </trkpt>
      <trkpt lat="37.247228" lon="-6.277225">
        <ele>12.90</ele>
        <time>2022-02-05T13:24:04Z</time>
      </trkpt>
      <trkpt lat="37.247206" lon="-6.276937">
        <ele>12.07</ele>
        <time>2022-02-05T13:24:08Z</time>
      </trkpt>
      <trkpt lat="37.247183" lon="-6.276659">
        <ele>11.24</ele>
        <time>2022-02-05T13:24:12Z</time>
      </trkpt>
      <trkpt lat="37.247160" lon="-6.276390">
        <ele>10.65</ele>
        <time>2022-02-05T13:24:16Z</time>
      </trkpt>
      <trkpt lat="37.247160" lon="-6.276110">
        <ele>10.45</ele>
        <time>2022-02-05T13:24:20Z</time>
      </trkpt>
      <trkpt lat="37.247173" lon="-6.275831">
        <ele>10.91</ele>
        <time>2022-02-05T13:24:24Z</time>
      </trkpt>
      <trkpt lat="37.247209" lon="-6.275596">
        <ele>11.52</ele>
        <time>2022-02-05T13:24:28Z</time>
      </trkpt>
      <trkpt lat="37.247245" lon="-6.275321">
        <ele>11.55</ele>
        <time>2022-02-05T13:24:33Z</time>
      </trkpt>
      <trkpt lat="37.247275" lon="-6.275073">
        <ele>11.73</ele>
        <time>2022-02-05T13:24:37Z</time>
      </trkpt>
      <trkpt lat="37.247288" lon="-6.274843">
        <ele>12.51</ele>
        <time>2022-02-05T13:24:41Z</time>
      </trkpt>
      <trkpt lat="37.247282" lon="-6.274571">
        <ele>12.73</ele>
        <time>2022-02-05T13:24:46Z</time>
      </trkpt>
      <trkpt lat="37.247262" lon="-6.274344">
        <ele>11.92</ele>
        <time>2022-02-05T13:24:50Z</time>
      </trkpt>
      <trkpt lat="37.247211" lon="-6.274094">
        <ele>11.15</ele>
        <time>2022-02-05T13:24:54Z</time>
      </trkpt>
      <trkpt lat="37.247140" lon="-6.273856">
        <ele>10.44</ele>
        <time>2022-02-05T13:24:58Z</time>
      </trkpt>
      <trkpt lat="37.247070" lon="-6.273634">
        <ele>9.07</ele>
        <time>2022-02-05T13:25:02Z</time>
      </trkpt>
      <trkpt lat="37.246991" lon="-6.273380">
        <ele>8.14</ele>
        <time>2022-02-05T13:25:07Z</time>
      </trkpt>
      <trkpt lat="37.246916" lon="-6.273118">
        <ele>7.22</ele>
        <time>2022-02-05T13:25:12Z</time>
      </trkpt>
      <trkpt lat="37.246888" lon="-6.272877">
        <ele>7.23</ele>
        <time>2022-02-05T13:25:16Z</time>
      </trkpt>
      <trkpt lat="37.246876" lon="-6.272636">
        <ele>6.50</ele>
        <time>2022-02-05T13:25:20Z</time>
      </trkpt>
      <trkpt lat="37.246832" lon="-6.272347">
        <ele>6.19</ele>
        <time>2022-02-05T13:25:24Z</time>
      </trkpt>
      <trkpt lat="37.246800" lon="-6.272065">
        <ele>6.08</ele>
        <time>2022-02-05T13:25:28Z</time>
      </trkpt>
      <trkpt lat="37.246768" lon="-6.271784">
        <ele>6.39</ele>
        <time>2022-02-05T13:25:32Z</time>
      </trkpt>
      <trkpt lat="37.246742" lon="-6.271512">
        <ele>6.51</ele>
        <time>2022-02-05T13:25:36Z</time>
      </trkpt>
      <trkpt lat="37.246705" lon="-6.271244">
        <ele>6.04</ele>
        <time>2022-02-05T13:25:40Z</time>
      </trkpt>
      <trkpt lat="37.246659" lon="-6.270974">
        <ele>5.82</ele>
        <time>2022-02-05T13:25:44Z</time>
      </trkpt>
      <trkpt lat="37.246627" lon="-6.270716">
        <ele>5.69</ele>
        <time>2022-02-05T13:25:48Z</time>
      </trkpt>
      <trkpt lat="37.246585" lon="-6.270461">
        <ele>5.82</ele>
        <time>2022-02-05T13:25:52Z</time>
      </trkpt>
      <trkpt lat="37.246523" lon="-6.270222">
        <ele>6.07</ele>
        <time>2022-02-05T13:25:56Z</time>
      </trkpt>
      <trkpt lat="37.246457" lon="-6.269982">
        <ele>5.45</ele>
        <time>2022-02-05T13:26:00Z</time>
      </trkpt>
      <trkpt lat="37.246367" lon="-6.269741">
        <ele>5.62</ele>
        <time>2022-02-05T13:26:04Z</time>
      </trkpt>
      <trkpt lat="37.246285" lon="-6.269506">
        <ele>5.36</ele>
        <time>2022-02-05T13:26:08Z</time>
      </trkpt>
      <trkpt lat="37.246185" lon="-6.269269">
        <ele>5.02</ele>
        <time>2022-02-05T13:26:12Z</time>
      </trkpt>
      <trkpt lat="37.246095" lon="-6.269047">
        <ele>4.94</ele>
        <time>2022-02-05T13:26:16Z</time>
      </trkpt>
      <trkpt lat="37.246007" lon="-6.268827">
        <ele>5.22</ele>
        <time>2022-02-05T13:26:20Z</time>
      </trkpt>
      <trkpt lat="37.245921" lon="-6.268626">
        <ele>5.13</ele>
        <time>2022-02-05T13:26:24Z</time>
      </trkpt>
      <trkpt lat="37.245836" lon="-6.268421">
        <ele>4.76</ele>
        <time>2022-02-05T13:26:28Z</time>
      </trkpt>
      <trkpt lat="37.245759" lon="-6.268205">
        <ele>5.04</ele>
        <time>2022-02-05T13:26:32Z</time>
      </trkpt>
      <trkpt lat="37.245730" lon="-6.267931">
        <ele>5.55</ele>
        <time>2022-02-05T13:26:37Z</time>
      </trkpt>
      <trkpt lat="37.245799" lon="-6.267694">
        <ele>6.81</ele>
        <time>2022-02-05T13:26:42Z</time>
      </trkpt>
      <trkpt lat="37.245911" lon="-6.267510">
        <ele>6.89</ele>
        <time>2022-02-05T13:26:47Z</time>
      </trkpt>
      <trkpt lat="37.246029" lon="-6.267298">
        <ele>6.82</ele>
        <time>2022-02-05T13:26:53Z</time>
      </trkpt>
      <trkpt lat="37.246152" lon="-6.267081">
        <ele>6.02</ele>
        <time>2022-02-05T13:26:59Z</time>
      </trkpt>
      <trkpt lat="37.246219" lon="-6.266815">
        <ele>5.40</ele>
        <time>2022-02-05T13:27:04Z</time>
      </trkpt>
      <trkpt lat="37.246212" lon="-6.266543">
        <ele>4.63</ele>
        <time>2022-02-05T13:27:08Z</time>
      </trkpt>
      <trkpt lat="37.246172" lon="-6.266318">
        <ele>3.98</ele>
        <time>2022-02-05T13:27:11Z</time>
      </trkpt>
      <trkpt lat="37.246132" lon="-6.266051">
        <ele>3.68</ele>
        <time>2022-02-05T13:27:15Z</time>
      </trkpt>
      <trkpt lat="37.246100" lon="-6.265791">
        <ele>3.26</ele>
        <time>2022-02-05T13:27:19Z</time>
      </trkpt>
      <trkpt lat="37.246062" lon="-6.265534">
        <ele>2.80</ele>
        <time>2022-02-05T13:27:23Z</time>
      </trkpt>
      <trkpt lat="37.246031" lon="-6.265268">
        <ele>2.83</ele>
        <time>2022-02-05T13:27:27Z</time>
      </trkpt>
      <trkpt lat="37.245992" lon="-6.265033">
        <ele>2.05</ele>
        <time>2022-02-05T13:27:31Z</time>
      </trkpt>
      <trkpt lat="37.245958" lon="-6.264761">
        <ele>1.25</ele>
        <time>2022-02-05T13:27:36Z</time>
      </trkpt>
      <trkpt lat="37.245918" lon="-6.264514">
        <ele>2.64</ele>
        <time>2022-02-05T13:27:41Z</time>
      </trkpt>
      <trkpt lat="37.245887" lon="-6.264263">
        <ele>3.12</ele>
        <time>2022-02-05T13:27:46Z</time>
      </trkpt>
      <trkpt lat="37.245957" lon="-6.264039">
        <ele>2.96</ele>
        <time>2022-02-05T13:27:51Z</time>
      </trkpt>
      <trkpt lat="37.246118" lon="-6.263923">
        <ele>2.97</ele>
        <time>2022-02-05T13:27:55Z</time>
      </trkpt>
      <trkpt lat="37.246309" lon="-6.263851">
        <ele>2.98</ele>
        <time>2022-02-05T13:27:59Z</time>
      </trkpt>
      <trkpt lat="37.246478" lon="-6.263759">
        <ele>2.73</ele>
        <time>2022-02-05T13:28:03Z</time>
      </trkpt>
      <trkpt lat="37.246654" lon="-6.263677">
        <ele>3.41</ele>
        <time>2022-02-05T13:28:07Z</time>
      </trkpt>
      <trkpt lat="37.246845" lon="-6.263553">
        <ele>4.57</ele>
        <time>2022-02-05T13:28:12Z</time>
      </trkpt>
      <trkpt lat="37.247030" lon="-6.263440">
        <ele>4.98</ele>
        <time>2022-02-05T13:28:17Z</time>
      </trkpt>
      <trkpt lat="37.247230" lon="-6.263344">
        <ele>4.72</ele>
        <time>2022-02-05T13:28:22Z</time>
      </trkpt>
      <trkpt lat="37.247434" lon="-6.263249">
        <ele>4.57</ele>
        <time>2022-02-05T13:28:27Z</time>
      </trkpt>
      <trkpt lat="37.247639" lon="-6.263147">
        <ele>4.22</ele>
        <time>2022-02-05T13:28:32Z</time>
      </trkpt>
      <trkpt lat="37.247808" lon="-6.263066">
        <ele>4.42</ele>
        <time>2022-02-05T13:28:36Z</time>
      </trkpt>
      <trkpt lat="37.247985" lon="-6.262973">
        <ele>3.85</ele>
        <time>2022-02-05T13:28:40Z</time>
      </trkpt>
      <trkpt lat="37.248186" lon="-6.262893">
        <ele>3.99</ele>
        <time>2022-02-05T13:28:45Z</time>
      </trkpt>
      <trkpt lat="37.248380" lon="-6.262813">
        <ele>2.01</ele>
        <time>2022-02-05T13:28:50Z</time>
      </trkpt>
      <trkpt lat="37.248576" lon="-6.262704">
        <ele>2.55</ele>
        <time>2022-02-05T13:28:55Z</time>
      </trkpt>
      <trkpt lat="37.248769" lon="-6.262605">
        <ele>2.82</ele>
        <time>2022-02-05T13:29:00Z</time>
      </trkpt>
      <trkpt lat="37.248946" lon="-6.262448">
        <ele>2.65</ele>
        <time>2022-02-05T13:29:05Z</time>
      </trkpt>
      <trkpt lat="37.249097" lon="-6.262316">
        <ele>3.01</ele>
        <time>2022-02-05T13:29:09Z</time>
      </trkpt>
      <trkpt lat="37.249289" lon="-6.262173">
        <ele>4.33</ele>
        <time>2022-02-05T13:29:14Z</time>
      </trkpt>
      <trkpt lat="37.249445" lon="-6.262046">
        <ele>4.42</ele>
        <time>2022-02-05T13:29:18Z</time>
      </trkpt>
      <trkpt lat="37.249618" lon="-6.261875">
        <ele>5.07</ele>
        <time>2022-02-05T13:29:23Z</time>
      </trkpt>
      <trkpt lat="37.249774" lon="-6.261737">
        <ele>5.29</ele>
        <time>2022-02-05T13:29:28Z</time>
      </trkpt>
      <trkpt lat="37.249927" lon="-6.261605">
        <ele>5.46</ele>
        <time>2022-02-05T13:29:33Z</time>
      </trkpt>
      <trkpt lat="37.250081" lon="-6.261486">
        <ele>4.13</ele>
        <time>2022-02-05T13:29:38Z</time>
      </trkpt>
      <trkpt lat="37.250262" lon="-6.261361">
        <ele>5.21</ele>
        <time>2022-02-05T13:29:44Z</time>
      </trkpt>
      <trkpt lat="37.250449" lon="-6.261231">
        <ele>5.84</ele>
        <time>2022-02-05T13:29:50Z</time>
      </trkpt>
      <trkpt lat="37.250621" lon="-6.261099">
        <ele>6.48</ele>
        <time>2022-02-05T13:29:56Z</time>
      </trkpt>
      <trkpt lat="37.250787" lon="-6.260980">
        <ele>7.25</ele>
        <time>2022-02-05T13:30:02Z</time>
      </trkpt>
      <trkpt lat="37.250947" lon="-6.260849">
        <ele>8.01</ele>
        <time>2022-02-05T13:30:08Z</time>
      </trkpt>
      <trkpt lat="37.251116" lon="-6.260739">
        <ele>8.48</ele>
        <time>2022-02-05T13:30:14Z</time>
      </trkpt>
      <trkpt lat="37.251284" lon="-6.260619">
        <ele>8.92</ele>
        <time>2022-02-05T13:30:20Z</time>
      </trkpt>
      <trkpt lat="37.251443" lon="-6.260472">
        <ele>9.72</ele>
        <time>2022-02-05T13:30:26Z</time>
      </trkpt>
      <trkpt lat="37.251591" lon="-6.260329">
        <ele>9.95</ele>
        <time>2022-02-05T13:30:32Z</time>
      </trkpt>
      <trkpt lat="37.251751" lon="-6.260212">
        <ele>11.37</ele>
        <time>2022-02-05T13:30:39Z</time>
      </trkpt>
      <trkpt lat="37.251920" lon="-6.260101">
        <ele>13.00</ele>
        <time>2022-02-05T13:30:47Z</time>
      </trkpt>
      <trkpt lat="37.252080" lon="-6.259981">
        <ele>15.41</ele>
        <time>2022-02-05T13:30:56Z</time>
      </trkpt>
      <trkpt lat="37.252246" lon="-6.259868">
        <ele>16.11</ele>
        <time>2022-02-05T13:31:04Z</time>
      </trkpt>
      <trkpt lat="37.252428" lon="-6.259799">
        <ele>15.06</ele>
        <time>2022-02-05T13:31:10Z</time>
      </trkpt>
      <trkpt lat="37.252614" lon="-6.259738">
        <ele>14.44</ele>
        <time>2022-02-05T13:31:15Z</time>
      </trkpt>
      <trkpt lat="37.252832" lon="-6.259679">
        <ele>13.59</ele>
        <time>2022-02-05T13:31:20Z</time>
      </trkpt>
      <trkpt lat="37.253037" lon="-6.259619">
        <ele>12.71</ele>
        <time>2022-02-05T13:31:24Z</time>
      </trkpt>
      <trkpt lat="37.253251" lon="-6.259544">
        <ele>12.14</ele>
        <time>2022-02-05T13:31:28Z</time>
      </trkpt>
      <trkpt lat="37.253471" lon="-6.259477">
        <ele>11.73</ele>
        <time>2022-02-05T13:31:32Z</time>
      </trkpt>
      <trkpt lat="37.253679" lon="-6.259417">
        <ele>11.01</ele>
        <time>2022-02-05T13:31:36Z</time>
      </trkpt>
      <trkpt lat="37.253890" lon="-6.259367">
        <ele>10.92</ele>
        <time>2022-02-05T13:31:40Z</time>
      </trkpt>
      <trkpt lat="37.254089" lon="-6.259297">
        <ele>10.91</ele>
        <time>2022-02-05T13:31:44Z</time>
      </trkpt>
      <trkpt lat="37.254296" lon="-6.259232">
        <ele>10.96</ele>
        <time>2022-02-05T13:31:48Z</time>
      </trkpt>
      <trkpt lat="37.254479" lon="-6.259106">
        <ele>11.20</ele>
        <time>2022-02-05T13:31:52Z</time>
      </trkpt>
      <trkpt lat="37.254628" lon="-6.258977">
        <ele>11.82</ele>
        <time>2022-02-05T13:31:56Z</time>
      </trkpt>
      <trkpt lat="37.254802" lon="-6.258823">
        <ele>11.65</ele>
        <time>2022-02-05T13:32:01Z</time>
      </trkpt>
      <trkpt lat="37.254987" lon="-6.258692">
        <ele>11.02</ele>
        <time>2022-02-05T13:32:05Z</time>
      </trkpt>
      <trkpt lat="37.255202" lon="-6.258572">
        <ele>10.87</ele>
        <time>2022-02-05T13:32:09Z</time>
      </trkpt>
      <trkpt lat="37.255419" lon="-6.258471">
        <ele>10.88</ele>
        <time>2022-02-05T13:32:13Z</time>
      </trkpt>
      <trkpt lat="37.255651" lon="-6.258395">
        <ele>11.21</ele>
        <time>2022-02-05T13:32:17Z</time>
      </trkpt>
      <trkpt lat="37.255871" lon="-6.258316">
        <ele>10.79</ele>
        <time>2022-02-05T13:32:21Z</time>
      </trkpt>
      <trkpt lat="37.256080" lon="-6.258221">
        <ele>10.63</ele>
        <time>2022-02-05T13:32:25Z</time>
      </trkpt>
      <trkpt lat="37.256275" lon="-6.258123">
        <ele>10.65</ele>
        <time>2022-02-05T13:32:29Z</time>
      </trkpt>
      <trkpt lat="37.256473" lon="-6.258038">
        <ele>11.42</ele>
        <time>2022-02-05T13:32:33Z</time>
      </trkpt>
      <trkpt lat="37.256663" lon="-6.257956">
        <ele>11.33</ele>
        <time>2022-02-05T13:32:37Z</time>
      </trkpt>
      <trkpt lat="37.256840" lon="-6.257875">
        <ele>12.25</ele>
        <time>2022-02-05T13:32:41Z</time>
      </trkpt>
      <trkpt lat="37.257049" lon="-6.257781">
        <ele>13.71</ele>
        <time>2022-02-05T13:32:46Z</time>
      </trkpt>
      <trkpt lat="37.257252" lon="-6.257657">
        <ele>12.36</ele>
        <time>2022-02-05T13:32:51Z</time>
      </trkpt>
      <trkpt lat="37.257448" lon="-6.257572">
        <ele>13.03</ele>
        <time>2022-02-05T13:32:56Z</time>
      </trkpt>
      <trkpt lat="37.257625" lon="-6.257493">
        <ele>14.26</ele>
        <time>2022-02-05T13:33:01Z</time>
      </trkpt>
      <trkpt lat="37.257809" lon="-6.257422">
        <ele>15.15</ele>
        <time>2022-02-05T13:33:06Z</time>
      </trkpt>
      <trkpt lat="37.257996" lon="-6.257341">
        <ele>15.83</ele>
        <time>2022-02-05T13:33:11Z</time>
      </trkpt>
      <trkpt lat="37.258160" lon="-6.257235">
        <ele>15.31</ele>
        <time>2022-02-05T13:33:15Z</time>
      </trkpt>
      <trkpt lat="37.258328" lon="-6.257088">
        <ele>15.55</ele>
        <time>2022-02-05T13:33:19Z</time>
      </trkpt>
      <trkpt lat="37.258486" lon="-6.256935">
        <ele>16.06</ele>
        <time>2022-02-05T13:33:23Z</time>
      </trkpt>
      <trkpt lat="37.258639" lon="-6.256781">
        <ele>16.07</ele>
        <time>2022-02-05T13:33:27Z</time>
      </trkpt>
      <trkpt lat="37.258811" lon="-6.256619">
        <ele>15.72</ele>
        <time>2022-02-05T13:33:31Z</time>
      </trkpt>
      <trkpt lat="37.258967" lon="-6.256451">
        <ele>15.73</ele>
        <time>2022-02-05T13:33:35Z</time>
      </trkpt>
      <trkpt lat="37.259119" lon="-6.256294">
        <ele>15.81</ele>
        <time>2022-02-05T13:33:39Z</time>
      </trkpt>
      <trkpt lat="37.259261" lon="-6.256142">
        <ele>15.54</ele>
        <time>2022-02-05T13:33:43Z</time>
      </trkpt>
      <trkpt lat="37.259413" lon="-6.255966">
        <ele>15.18</ele>
        <time>2022-02-05T13:33:47Z</time>
      </trkpt>
      <trkpt lat="37.259561" lon="-6.255797">
        <ele>14.53</ele>
        <time>2022-02-05T13:33:51Z</time>
      </trkpt>
      <trkpt lat="37.259684" lon="-6.255606">
        <ele>15.54</ele>
        <time>2022-02-05T13:33:55Z</time>
      </trkpt>
      <trkpt lat="37.259797" lon="-6.255416">
        <ele>15.51</ele>
        <time>2022-02-05T13:33:59Z</time>
      </trkpt>
      <trkpt lat="37.259913" lon="-6.255229">
        <ele>16.94</ele>
        <time>2022-02-05T13:34:03Z</time>
      </trkpt>
      <trkpt lat="37.260041" lon="-6.255018">
        <ele>18.20</ele>
        <time>2022-02-05T13:34:08Z</time>
      </trkpt>
      <trkpt lat="37.260165" lon="-6.254834">
        <ele>17.95</ele>
        <time>2022-02-05T13:34:13Z</time>
      </trkpt>
      <trkpt lat="37.260291" lon="-6.254620">
        <ele>19.24</ele>
        <time>2022-02-05T13:34:19Z</time>
      </trkpt>
      <trkpt lat="37.260402" lon="-6.254415">
        <ele>19.71</ele>
        <time>2022-02-05T13:34:25Z</time>
      </trkpt>
      <trkpt lat="37.260510" lon="-6.254211">
        <ele>20.40</ele>
        <time>2022-02-05T13:34:31Z</time>
      </trkpt>
      <trkpt lat="37.260607" lon="-6.254002">
        <ele>21.72</ele>
        <time>2022-02-05T13:34:37Z</time>
      </trkpt>
      <trkpt lat="37.260693" lon="-6.253786">
        <ele>23.23</ele>
        <time>2022-02-05T13:34:43Z</time>
      </trkpt>
      <trkpt lat="37.260792" lon="-6.253571">
        <ele>23.82</ele>
        <time>2022-02-05T13:34:49Z</time>
      </trkpt>
      <trkpt lat="37.260892" lon="-6.253364">
        <ele>24.04</ele>
        <time>2022-02-05T13:34:55Z</time>
      </trkpt>
      <trkpt lat="37.261006" lon="-6.253158">
        <ele>23.62</ele>
        <time>2022-02-05T13:35:01Z</time>
      </trkpt>
      <trkpt lat="37.261108" lon="-6.252965">
        <ele>23.70</ele>
        <time>2022-02-05T13:35:07Z</time>
      </trkpt>
      <trkpt lat="37.261219" lon="-6.252749">
        <ele>23.48</ele>
        <time>2022-02-05T13:35:13Z</time>
      </trkpt>
      <trkpt lat="37.261330" lon="-6.252566">
        <ele>23.65</ele>
        <time>2022-02-05T13:35:18Z</time>
      </trkpt>
      <trkpt lat="37.261450" lon="-6.252373">
        <ele>22.98</ele>
        <time>2022-02-05T13:35:23Z</time>
      </trkpt>
      <trkpt lat="37.261573" lon="-6.252134">
        <ele>21.52</ele>
        <time>2022-02-05T13:35:28Z</time>
      </trkpt>
      <trkpt lat="37.261674" lon="-6.251891">
        <ele>20.84</ele>
        <time>2022-02-05T13:35:32Z</time>
      </trkpt>
      <trkpt lat="37.261795" lon="-6.251643">
        <ele>20.42</ele>
        <time>2022-02-05T13:35:36Z</time>
      </trkpt>
      <trkpt lat="37.261921" lon="-6.251412">
        <ele>20.29</ele>
        <time>2022-02-05T13:35:40Z</time>
      </trkpt>
      <trkpt lat="37.262046" lon="-6.251179">
        <ele>19.85</ele>
        <time>2022-02-05T13:35:44Z</time>
      </trkpt>
      <trkpt lat="37.262180" lon="-6.250983">
        <ele>19.86</ele>
        <time>2022-02-05T13:35:48Z</time>
      </trkpt>
      <trkpt lat="37.262338" lon="-6.250787">
        <ele>19.84</ele>
        <time>2022-02-05T13:35:53Z</time>
      </trkpt>
      <trkpt lat="37.262510" lon="-6.250612">
        <ele>20.24</ele>
        <time>2022-02-05T13:35:58Z</time>
      </trkpt>
      <trkpt lat="37.262677" lon="-6.250435">
        <ele>20.45</ele>
        <time>2022-02-05T13:36:03Z</time>
      </trkpt>
      <trkpt lat="37.262849" lon="-6.250297">
        <ele>20.35</ele>
        <time>2022-02-05T13:36:08Z</time>
      </trkpt>
      <trkpt lat="37.263014" lon="-6.250133">
        <ele>19.86</ele>
        <time>2022-02-05T13:36:12Z</time>
      </trkpt>
      <trkpt lat="37.263176" lon="-6.249965">
        <ele>20.65</ele>
        <time>2022-02-05T13:36:16Z</time>
      </trkpt>
      <trkpt lat="37.263346" lon="-6.249802">
        <ele>21.07</ele>
        <time>2022-02-05T13:36:21Z</time>
      </trkpt>
      <trkpt lat="37.263482" lon="-6.249654">
        <ele>20.81</ele>
        <time>2022-02-05T13:36:25Z</time>
      </trkpt>
      <trkpt lat="37.263632" lon="-6.249509">
        <ele>21.62</ele>
        <time>2022-02-05T13:36:30Z</time>
      </trkpt>
      <trkpt lat="37.263785" lon="-6.249360">
        <ele>21.63</ele>
        <time>2022-02-05T13:36:35Z</time>
      </trkpt>
      <trkpt lat="37.263970" lon="-6.249200">
        <ele>20.57</ele>
        <time>2022-02-05T13:36:40Z</time>
      </trkpt>
      <trkpt lat="37.264121" lon="-6.249054">
        <ele>21.66</ele>
        <time>2022-02-05T13:36:44Z</time>
      </trkpt>
      <trkpt lat="37.264295" lon="-6.248868">
        <ele>21.05</ele>
        <time>2022-02-05T13:36:48Z</time>
      </trkpt>
      <trkpt lat="37.264424" lon="-6.248654">
        <ele>21.24</ele>
        <time>2022-02-05T13:36:52Z</time>
      </trkpt>
      <trkpt lat="37.264542" lon="-6.248455">
        <ele>21.60</ele>
        <time>2022-02-05T13:36:56Z</time>
      </trkpt>
      <trkpt lat="37.264654" lon="-6.248254">
        <ele>21.53</ele>
        <time>2022-02-05T13:37:00Z</time>
      </trkpt>
      <trkpt lat="37.264756" lon="-6.248052">
        <ele>21.13</ele>
        <time>2022-02-05T13:37:04Z</time>
      </trkpt>
      <trkpt lat="37.264842" lon="-6.247848">
        <ele>21.69</ele>
        <time>2022-02-05T13:37:08Z</time>
      </trkpt>
      <trkpt lat="37.264919" lon="-6.247589">
        <ele>20.89</ele>
        <time>2022-02-05T13:37:13Z</time>
      </trkpt>
      <trkpt lat="37.264962" lon="-6.247359">
        <ele>21.63</ele>
        <time>2022-02-05T13:37:18Z</time>
      </trkpt>
      <trkpt lat="37.265013" lon="-6.247114">
        <ele>20.38</ele>
        <time>2022-02-05T13:37:25Z</time>
      </trkpt>
      <trkpt lat="37.265075" lon="-6.246863">
        <ele>19.56</ele>
        <time>2022-02-05T13:37:32Z</time>
      </trkpt>
      <trkpt lat="37.265144" lon="-6.246633">
        <ele>20.19</ele>
        <time>2022-02-05T13:37:38Z</time>
      </trkpt>
      <trkpt lat="37.265240" lon="-6.246416">
        <ele>21.85</ele>
        <time>2022-02-05T13:37:44Z</time>
      </trkpt>
      <trkpt lat="37.265349" lon="-6.246197">
        <ele>22.92</ele>
        <time>2022-02-05T13:37:50Z</time>
      </trkpt>
      <trkpt lat="37.265464" lon="-6.246008">
        <ele>24.68</ele>
        <time>2022-02-05T13:37:56Z</time>
      </trkpt>
      <trkpt lat="37.265582" lon="-6.245827">
        <ele>25.17</ele>
        <time>2022-02-05T13:38:02Z</time>
      </trkpt>
      <trkpt lat="37.265727" lon="-6.245635">
        <ele>26.88</ele>
        <time>2022-02-05T13:38:09Z</time>
      </trkpt>
      <trkpt lat="37.265852" lon="-6.245470">
        <ele>26.75</ele>
        <time>2022-02-05T13:38:15Z</time>
      </trkpt>
      <trkpt lat="37.265996" lon="-6.245289">
        <ele>28.20</ele>
        <time>2022-02-05T13:38:22Z</time>
      </trkpt>
      <trkpt lat="37.266143" lon="-6.245137">
        <ele>28.59</ele>
        <time>2022-02-05T13:38:28Z</time>
      </trkpt>
      <trkpt lat="37.266297" lon="-6.245011">
        <ele>28.67</ele>
        <time>2022-02-05T13:38:34Z</time>
      </trkpt>
      <trkpt lat="37.266475" lon="-6.244863">
        <ele>28.80</ele>
        <time>2022-02-05T13:38:40Z</time>
      </trkpt>
      <trkpt lat="37.266643" lon="-6.244741">
        <ele>28.94</ele>
        <time>2022-02-05T13:38:45Z</time>
      </trkpt>
      <trkpt lat="37.266806" lon="-6.244629">
        <ele>29.41</ele>
        <time>2022-02-05T13:38:50Z</time>
      </trkpt>
      <trkpt lat="37.266956" lon="-6.244487">
        <ele>30.05</ele>
        <time>2022-02-05T13:38:55Z</time>
      </trkpt>
      <trkpt lat="37.267080" lon="-6.244287">
        <ele>30.21</ele>
        <time>2022-02-05T13:39:00Z</time>
      </trkpt>
      <trkpt lat="37.267245" lon="-6.244135">
        <ele>31.85</ele>
        <time>2022-02-05T13:39:05Z</time>
      </trkpt>
      <trkpt lat="37.267421" lon="-6.243993">
        <ele>31.94</ele>
        <time>2022-02-05T13:39:10Z</time>
      </trkpt>
      <trkpt lat="37.267576" lon="-6.243864">
        <ele>31.07</ele>
        <time>2022-02-05T13:39:14Z</time>
      </trkpt>
      <trkpt lat="37.267742" lon="-6.243741">
        <ele>30.22</ele>
        <time>2022-02-05T13:39:18Z</time>
      </trkpt>
      <trkpt lat="37.267920" lon="-6.243600">
        <ele>28.84</ele>
        <time>2022-02-05T13:39:22Z</time>
      </trkpt>
      <trkpt lat="37.268104" lon="-6.243438">
        <ele>28.69</ele>
        <time>2022-02-05T13:39:26Z</time>
      </trkpt>
      <trkpt lat="37.268282" lon="-6.243299">
        <ele>27.66</ele>
        <time>2022-02-05T13:39:30Z</time>
      </trkpt>
      <trkpt lat="37.268440" lon="-6.243172">
        <ele>26.73</ele>
        <time>2022-02-05T13:39:34Z</time>
      </trkpt>
      <trkpt lat="37.268602" lon="-6.243047">
        <ele>26.05</ele>
        <time>2022-02-05T13:39:38Z</time>
      </trkpt>
      <trkpt lat="37.268764" lon="-6.242916">
        <ele>26.05</ele>
        <time>2022-02-05T13:39:42Z</time>
      </trkpt>
      <trkpt lat="37.268916" lon="-6.242775">
        <ele>26.73</ele>
        <time>2022-02-05T13:39:46Z</time>
      </trkpt>
      <trkpt lat="37.269099" lon="-6.242617">
        <ele>27.12</ele>
        <time>2022-02-05T13:39:51Z</time>
      </trkpt>
      <trkpt lat="37.269249" lon="-6.242484">
        <ele>27.18</ele>
        <time>2022-02-05T13:39:55Z</time>
      </trkpt>
      <trkpt lat="37.269418" lon="-6.242324">
        <ele>27.01</ele>
        <time>2022-02-05T13:40:00Z</time>
      </trkpt>
      <trkpt lat="37.269587" lon="-6.242172">
        <ele>27.16</ele>
        <time>2022-02-05T13:40:05Z</time>
      </trkpt>
      <trkpt lat="37.269762" lon="-6.242021">
        <ele>26.68</ele>
        <time>2022-02-05T13:40:10Z</time>
      </trkpt>
      <trkpt lat="37.269928" lon="-6.241877">
        <ele>26.18</ele>
        <time>2022-02-05T13:40:14Z</time>
      </trkpt>
      <trkpt lat="37.270089" lon="-6.241728">
        <ele>25.74</ele>
        <time>2022-02-05T13:40:18Z</time>
      </trkpt>
      <trkpt lat="37.270248" lon="-6.241615">
        <ele>26.72</ele>
        <time>2022-02-05T13:40:22Z</time>
      </trkpt>
      <trkpt lat="37.270392" lon="-6.241475">
        <ele>27.12</ele>
        <time>2022-02-05T13:40:26Z</time>
      </trkpt>
      <trkpt lat="37.270542" lon="-6.241346">
        <ele>27.28</ele>
        <time>2022-02-05T13:40:30Z</time>
      </trkpt>
      <trkpt lat="37.270715" lon="-6.241178">
        <ele>27.88</ele>
        <time>2022-02-05T13:40:35Z</time>
      </trkpt>
      <trkpt lat="37.270884" lon="-6.241031">
        <ele>28.22</ele>
        <time>2022-02-05T13:40:40Z</time>
      </trkpt>
      <trkpt lat="37.271067" lon="-6.240862">
        <ele>28.39</ele>
        <time>2022-02-05T13:40:45Z</time>
      </trkpt>
      <trkpt lat="37.271215" lon="-6.240696">
        <ele>27.85</ele>
        <time>2022-02-05T13:40:49Z</time>
      </trkpt>
      <trkpt lat="37.271386" lon="-6.240539">
        <ele>28.66</ele>
        <time>2022-02-05T13:40:53Z</time>
      </trkpt>
      <trkpt lat="37.271531" lon="-6.240382">
        <ele>28.58</ele>
        <time>2022-02-05T13:40:58Z</time>
      </trkpt>
      <trkpt lat="37.271675" lon="-6.240239">
        <ele>28.59</ele>
        <time>2022-02-05T13:41:03Z</time>
      </trkpt>
      <trkpt lat="37.271810" lon="-6.240087">
        <ele>28.02</ele>
        <time>2022-02-05T13:41:08Z</time>
      </trkpt>
      <trkpt lat="37.271974" lon="-6.239930">
        <ele>29.59</ele>
        <time>2022-02-05T13:41:14Z</time>
      </trkpt>
      <trkpt lat="37.272112" lon="-6.239772">
        <ele>28.19</ele>
        <time>2022-02-05T13:41:19Z</time>
      </trkpt>
      <trkpt lat="37.272262" lon="-6.239620">
        <ele>28.22</ele>
        <time>2022-02-05T13:41:24Z</time>
      </trkpt>
      <trkpt lat="37.272410" lon="-6.239478">
        <ele>28.77</ele>
        <time>2022-02-05T13:41:29Z</time>
      </trkpt>
      <trkpt lat="37.272558" lon="-6.239343">
        <ele>30.33</ele>
        <time>2022-02-05T13:41:34Z</time>
      </trkpt>
      <trkpt lat="37.272704" lon="-6.239178">
        <ele>31.90</ele>
        <time>2022-02-05T13:41:40Z</time>
      </trkpt>
      <trkpt lat="37.272788" lon="-6.238951">
        <ele>31.39</ele>
        <time>2022-02-05T13:41:47Z</time>
      </trkpt>
      <trkpt lat="37.272858" lon="-6.238717">
        <ele>30.98</ele>
        <time>2022-02-05T13:41:53Z</time>
      </trkpt>
      <trkpt lat="37.272911" lon="-6.238494">
        <ele>30.96</ele>
        <time>2022-02-05T13:41:58Z</time>
      </trkpt>
      <trkpt lat="37.272990" lon="-6.238267">
        <ele>30.60</ele>
        <time>2022-02-05T13:42:04Z</time>
      </trkpt>
      <trkpt lat="37.273087" lon="-6.238035">
        <ele>29.92</ele>
        <time>2022-02-05T13:42:09Z</time>
      </trkpt>
      <trkpt lat="37.273190" lon="-6.237794">
        <ele>29.96</ele>
        <time>2022-02-05T13:42:14Z</time>
      </trkpt>
      <trkpt lat="37.273273" lon="-6.237548">
        <ele>30.11</ele>
        <time>2022-02-05T13:42:19Z</time>
      </trkpt>
      <trkpt lat="37.273356" lon="-6.237298">
        <ele>30.94</ele>
        <time>2022-02-05T13:42:24Z</time>
      </trkpt>
      <trkpt lat="37.273447" lon="-6.237053">
        <ele>30.04</ele>
        <time>2022-02-05T13:42:29Z</time>
      </trkpt>
      <trkpt lat="37.273498" lon="-6.236803">
        <ele>29.53</ele>
        <time>2022-02-05T13:42:34Z</time>
      </trkpt>
      <trkpt lat="37.273540" lon="-6.236564">
        <ele>28.62</ele>
        <time>2022-02-05T13:42:39Z</time>
      </trkpt>
      <trkpt lat="37.273552" lon="-6.236319">
        <ele>29.97</ele>
        <time>2022-02-05T13:42:44Z</time>
      </trkpt>
      <trkpt lat="37.273550" lon="-6.236073">
        <ele>30.47</ele>
        <time>2022-02-05T13:42:49Z</time>
      </trkpt>
      <trkpt lat="37.273563" lon="-6.235824">
        <ele>31.50</ele>
        <time>2022-02-05T13:42:54Z</time>
      </trkpt>
      <trkpt lat="37.273580" lon="-6.235576">
        <ele>32.17</ele>
        <time>2022-02-05T13:42:59Z</time>
      </trkpt>
      <trkpt lat="37.273623" lon="-6.235336">
        <ele>31.25</ele>
        <time>2022-02-05T13:43:04Z</time>
      </trkpt>
      <trkpt lat="37.273676" lon="-6.235112">
        <ele>31.00</ele>
        <time>2022-02-05T13:43:09Z</time>
      </trkpt>
      <trkpt lat="37.273731" lon="-6.234887">
        <ele>31.16</ele>
        <time>2022-02-05T13:43:14Z</time>
      </trkpt>
      <trkpt lat="37.273770" lon="-6.234663">
        <ele>30.35</ele>
        <time>2022-02-05T13:43:19Z</time>
      </trkpt>
      <trkpt lat="37.273816" lon="-6.234404">
        <ele>30.19</ele>
        <time>2022-02-05T13:43:25Z</time>
      </trkpt>
      <trkpt lat="37.273853" lon="-6.234148">
        <ele>31.74</ele>
        <time>2022-02-05T13:43:31Z</time>
      </trkpt>
      <trkpt lat="37.273905" lon="-6.233916">
        <ele>31.26</ele>
        <time>2022-02-05T13:43:37Z</time>
      </trkpt>
      <trkpt lat="37.273969" lon="-6.233679">
        <ele>34.29</ele>
        <time>2022-02-05T13:43:44Z</time>
      </trkpt>
      <trkpt lat="37.274081" lon="-6.233482">
        <ele>34.40</ele>
        <time>2022-02-05T13:43:50Z</time>
      </trkpt>
      <trkpt lat="37.274173" lon="-6.233213">
        <ele>32.83</ele>
        <time>2022-02-05T13:43:56Z</time>
      </trkpt>
      <trkpt lat="37.274300" lon="-6.232968">
        <ele>33.96</ele>
        <time>2022-02-05T13:44:00Z</time>
      </trkpt>
      <trkpt lat="37.274397" lon="-6.232704">
        <ele>33.76</ele>
        <time>2022-02-05T13:44:04Z</time>
      </trkpt>
      <trkpt lat="37.274442" lon="-6.232477">
        <ele>32.29</ele>
        <time>2022-02-05T13:44:08Z</time>
      </trkpt>
      <trkpt lat="37.274515" lon="-6.232266">
        <ele>29.91</ele>
        <time>2022-02-05T13:44:14Z</time>
      </trkpt>
      <trkpt lat="37.274713" lon="-6.232378">
        <ele>27.72</ele>
        <time>2022-02-05T13:44:21Z</time>
      </trkpt>
      <trkpt lat="37.274861" lon="-6.232602">
        <ele>26.42</ele>
        <time>2022-02-05T13:44:25Z</time>
      </trkpt>
      <trkpt lat="37.275002" lon="-6.232755">
        <ele>26.15</ele>
        <time>2022-02-05T13:44:28Z</time>
      </trkpt>
      <trkpt lat="37.275149" lon="-6.232900">
        <ele>23.54</ele>
        <time>2022-02-05T13:44:31Z</time>
      </trkpt>
      <trkpt lat="37.275308" lon="-6.233074">
        <ele>23.77</ele>
        <time>2022-02-05T13:44:34Z</time>
      </trkpt>
      <trkpt lat="37.275466" lon="-6.233256">
        <ele>23.14</ele>
        <time>2022-02-05T13:44:37Z</time>
      </trkpt>
      <trkpt lat="37.275627" lon="-6.233428">
        <ele>23.13</ele>
        <time>2022-02-05T13:44:40Z</time>
      </trkpt>
      <trkpt lat="37.275794" lon="-6.233575">
        <ele>22.50</ele>
        <time>2022-02-05T13:44:43Z</time>
      </trkpt>
      <trkpt lat="37.275964" lon="-6.233700">
        <ele>22.88</ele>
        <time>2022-02-05T13:44:46Z</time>
      </trkpt>
      <trkpt lat="37.276115" lon="-6.233826">
        <ele>23.33</ele>
        <time>2022-02-05T13:44:49Z</time>
      </trkpt>
      <trkpt lat="37.276306" lon="-6.233993">
        <ele>22.38</ele>
        <time>2022-02-05T13:44:53Z</time>
      </trkpt>
      <trkpt lat="37.276458" lon="-6.234121">
        <ele>22.51</ele>
        <time>2022-02-05T13:44:56Z</time>
      </trkpt>
      <trkpt lat="37.276651" lon="-6.234292">
        <ele>22.22</ele>
        <time>2022-02-05T13:45:00Z</time>
      </trkpt>
      <trkpt lat="37.276813" lon="-6.234482">
        <ele>22.23</ele>
        <time>2022-02-05T13:45:04Z</time>
      </trkpt>
      <trkpt lat="37.276955" lon="-6.234685">
        <ele>23.65</ele>
        <time>2022-02-05T13:45:08Z</time>
      </trkpt>
      <trkpt lat="37.277093" lon="-6.234840">
        <ele>23.11</ele>
        <time>2022-02-05T13:45:12Z</time>
      </trkpt>
      <trkpt lat="37.277231" lon="-6.234986">
        <ele>22.98</ele>
        <time>2022-02-05T13:45:16Z</time>
      </trkpt>
      <trkpt lat="37.277375" lon="-6.235184">
        <ele>23.86</ele>
        <time>2022-02-05T13:45:21Z</time>
      </trkpt>
      <trkpt lat="37.277554" lon="-6.235267">
        <ele>24.14</ele>
        <time>2022-02-05T13:45:26Z</time>
      </trkpt>
      <trkpt lat="37.277719" lon="-6.235124">
        <ele>26.12</ele>
        <time>2022-02-05T13:45:32Z</time>
      </trkpt>
      <trkpt lat="37.277870" lon="-6.234990">
        <ele>25.25</ele>
        <time>2022-02-05T13:45:39Z</time>
      </trkpt>
      <trkpt lat="37.277882" lon="-6.234992">
        <ele>23.21</ele>
        <time>2022-02-05T13:45:59Z</time>
      </trkpt>
      <trkpt lat="37.277934" lon="-6.234747">
        <ele>21.68</ele>
        <time>2022-02-05T13:46:10Z</time>
      </trkpt>
      <trkpt lat="37.278027" lon="-6.234548">
        <ele>21.48</ele>
        <time>2022-02-05T13:46:16Z</time>
      </trkpt>
      <trkpt lat="37.278211" lon="-6.234533">
        <ele>21.23</ele>
        <time>2022-02-05T13:46:24Z</time>
      </trkpt>
      <trkpt lat="37.278394" lon="-6.234545">
        <ele>21.73</ele>
        <time>2022-02-05T13:46:35Z</time>
      </trkpt>
      <trkpt lat="37.278467" lon="-6.234446">
        <ele>21.85</ele>
        <time>2022-02-05T13:57:45Z</time>
      </trkpt>
      <trkpt lat="37.278470" lon="-6.234443">
        <ele>20.70</ele>
        <time>2022-02-05T13:58:16Z</time>
      </trkpt>
      <trkpt lat="37.278662" lon="-6.234563">
        <ele>20.53</ele>
        <time>2022-02-05T13:58:34Z</time>
      </trkpt>
      <trkpt lat="37.278856" lon="-6.234635">
        <ele>21.40</ele>
        <time>2022-02-05T13:58:38Z</time>
      </trkpt>
      <trkpt lat="37.279051" lon="-6.234550">
        <ele>20.71</ele>
        <time>2022-02-05T13:58:44Z</time>
      </trkpt>
      <trkpt lat="37.279136" lon="-6.234311">
        <ele>22.13</ele>
        <time>2022-02-05T13:58:50Z</time>
      </trkpt>
      <trkpt lat="37.279213" lon="-6.234076">
        <ele>22.55</ele>
        <time>2022-02-05T13:58:55Z</time>
      </trkpt>
      <trkpt lat="37.279257" lon="-6.233849">
        <ele>24.09</ele>
        <time>2022-02-05T13:59:00Z</time>
      </trkpt>
      <trkpt lat="37.279285" lon="-6.233618">
        <ele>25.15</ele>
        <time>2022-02-05T13:59:05Z</time>
      </trkpt>
      <trkpt lat="37.279296" lon="-6.233352">
        <ele>25.20</ele>
        <time>2022-02-05T13:59:11Z</time>
      </trkpt>
      <trkpt lat="37.279317" lon="-6.233114">
        <ele>26.61</ele>
        <time>2022-02-05T13:59:17Z</time>
      </trkpt>
      <trkpt lat="37.279367" lon="-6.232879">
        <ele>28.68</ele>
        <time>2022-02-05T13:59:24Z</time>
      </trkpt>
      <trkpt lat="37.279396" lon="-6.232649">
        <ele>27.44</ele>
        <time>2022-02-05T13:59:30Z</time>
      </trkpt>
      <trkpt lat="37.279416" lon="-6.232403">
        <ele>28.11</ele>
        <time>2022-02-05T13:59:37Z</time>
      </trkpt>
      <trkpt lat="37.279486" lon="-6.232170">
        <ele>28.82</ele>
        <time>2022-02-05T13:59:44Z</time>
      </trkpt>
      <trkpt lat="37.279538" lon="-6.231953">
        <ele>29.12</ele>
        <time>2022-02-05T13:59:51Z</time>
      </trkpt>
      <trkpt lat="37.279580" lon="-6.231688">
        <ele>29.02</ele>
        <time>2022-02-05T13:59:58Z</time>
      </trkpt>
      <trkpt lat="37.279649" lon="-6.231443">
        <ele>28.24</ele>
        <time>2022-02-05T14:00:03Z</time>
      </trkpt>
      <trkpt lat="37.279695" lon="-6.231219">
        <ele>28.58</ele>
        <time>2022-02-05T14:00:08Z</time>
      </trkpt>
      <trkpt lat="37.279761" lon="-6.231008">
        <ele>28.30</ele>
        <time>2022-02-05T14:00:13Z</time>
      </trkpt>
      <trkpt lat="37.279790" lon="-6.230785">
        <ele>28.01</ele>
        <time>2022-02-05T14:00:17Z</time>
      </trkpt>
      <trkpt lat="37.279829" lon="-6.230542">
        <ele>30.19</ele>
        <time>2022-02-05T14:00:22Z</time>
      </trkpt>
      <trkpt lat="37.279852" lon="-6.230317">
        <ele>30.32</ele>
        <time>2022-02-05T14:00:27Z</time>
      </trkpt>
      <trkpt lat="37.279877" lon="-6.230060">
        <ele>30.21</ele>
        <time>2022-02-05T14:00:32Z</time>
      </trkpt>
      <trkpt lat="37.279893" lon="-6.229807">
        <ele>29.88</ele>
        <time>2022-02-05T14:00:37Z</time>
      </trkpt>
      <trkpt lat="37.279919" lon="-6.229564">
        <ele>30.41</ele>
        <time>2022-02-05T14:00:42Z</time>
      </trkpt>
      <trkpt lat="37.279950" lon="-6.229331">
        <ele>30.70</ele>
        <time>2022-02-05T14:00:46Z</time>
      </trkpt>
      <trkpt lat="37.279989" lon="-6.229068">
        <ele>31.13</ele>
        <time>2022-02-05T14:00:51Z</time>
      </trkpt>
      <trkpt lat="37.279995" lon="-6.228837">
        <ele>30.46</ele>
        <time>2022-02-05T14:00:55Z</time>
      </trkpt>
      <trkpt lat="37.279980" lon="-6.228570">
        <ele>29.39</ele>
        <time>2022-02-05T14:00:59Z</time>
      </trkpt>
      <trkpt lat="37.280025" lon="-6.228345">
        <ele>29.92</ele>
        <time>2022-02-05T14:01:03Z</time>
      </trkpt>
      <trkpt lat="37.280057" lon="-6.228106">
        <ele>30.24</ele>
        <time>2022-02-05T14:01:07Z</time>
      </trkpt>
      <trkpt lat="37.280055" lon="-6.227819">
        <ele>29.39</ele>
        <time>2022-02-05T14:01:11Z</time>
      </trkpt>
      <trkpt lat="37.280096" lon="-6.227553">
        <ele>29.64</ele>
        <time>2022-02-05T14:01:15Z</time>
      </trkpt>
      <trkpt lat="37.280130" lon="-6.227296">
        <ele>29.47</ele>
        <time>2022-02-05T14:01:19Z</time>
      </trkpt>
      <trkpt lat="37.280156" lon="-6.227062">
        <ele>30.73</ele>
        <time>2022-02-05T14:01:23Z</time>
      </trkpt>
      <trkpt lat="37.280180" lon="-6.226805">
        <ele>30.73</ele>
        <time>2022-02-05T14:01:28Z</time>
      </trkpt>
      <trkpt lat="37.280220" lon="-6.226576">
        <ele>31.39</ele>
        <time>2022-02-05T14:01:32Z</time>
      </trkpt>
      <trkpt lat="37.280264" lon="-6.226304">
        <ele>31.05</ele>
        <time>2022-02-05T14:01:36Z</time>
      </trkpt>
      <trkpt lat="37.280324" lon="-6.226069">
        <ele>30.79</ele>
        <time>2022-02-05T14:01:40Z</time>
      </trkpt>
      <trkpt lat="37.280351" lon="-6.225778">
        <ele>31.87</ele>
        <time>2022-02-05T14:01:45Z</time>
      </trkpt>
      <trkpt lat="37.280383" lon="-6.225502">
        <ele>31.84</ele>
        <time>2022-02-05T14:01:50Z</time>
      </trkpt>
      <trkpt lat="37.280401" lon="-6.225249">
        <ele>30.61</ele>
        <time>2022-02-05T14:01:55Z</time>
      </trkpt>
      <trkpt lat="37.280554" lon="-6.225083">
        <ele>32.41</ele>
        <time>2022-02-05T14:02:02Z</time>
      </trkpt>
      <trkpt lat="37.280738" lon="-6.225046">
        <ele>31.69</ele>
        <time>2022-02-05T14:02:12Z</time>
      </trkpt>
      <trkpt lat="37.280928" lon="-6.225074">
        <ele>31.26</ele>
        <time>2022-02-05T14:02:21Z</time>
      </trkpt>
      <trkpt lat="37.281122" lon="-6.225122">
        <ele>30.40</ele>
        <time>2022-02-05T14:02:30Z</time>
      </trkpt>
      <trkpt lat="37.281319" lon="-6.225173">
        <ele>30.98</ele>
        <time>2022-02-05T14:02:39Z</time>
      </trkpt>
      <trkpt lat="37.281506" lon="-6.225178">
        <ele>31.81</ele>
        <time>2022-02-05T14:02:46Z</time>
      </trkpt>
      <trkpt lat="37.281703" lon="-6.225140">
        <ele>32.29</ele>
        <time>2022-02-05T14:02:52Z</time>
      </trkpt>
      <trkpt lat="37.281885" lon="-6.225133">
        <ele>31.78</ele>
        <time>2022-02-05T14:02:58Z</time>
      </trkpt>
      <trkpt lat="37.282074" lon="-6.225117">
        <ele>32.48</ele>
        <time>2022-02-05T14:03:04Z</time>
      </trkpt>
      <trkpt lat="37.282258" lon="-6.225150">
        <ele>33.71</ele>
        <time>2022-02-05T14:03:09Z</time>
      </trkpt>
      <trkpt lat="37.282446" lon="-6.225040">
        <ele>34.08</ele>
        <time>2022-02-05T14:03:15Z</time>
      </trkpt>
      <trkpt lat="37.282535" lon="-6.224825">
        <ele>33.82</ele>
        <time>2022-02-05T14:03:20Z</time>
      </trkpt>
      <trkpt lat="37.282575" lon="-6.224580">
        <ele>33.23</ele>
        <time>2022-02-05T14:03:25Z</time>
      </trkpt>
      <trkpt lat="37.282577" lon="-6.224529">
        <ele>33.88</ele>
        <time>2022-02-05T14:04:02Z</time>
      </trkpt>
      <trkpt lat="37.282602" lon="-6.224274">
        <ele>33.84</ele>
        <time>2022-02-05T14:04:10Z</time>
      </trkpt>
      <trkpt lat="37.282626" lon="-6.224050">
        <ele>34.60</ele>
        <time>2022-02-05T14:04:15Z</time>
      </trkpt>
      <trkpt lat="37.282656" lon="-6.223802">
        <ele>36.14</ele>
        <time>2022-02-05T14:04:21Z</time>
      </trkpt>
      <trkpt lat="37.282718" lon="-6.223581">
        <ele>38.18</ele>
        <time>2022-02-05T14:04:27Z</time>
      </trkpt>
      <trkpt lat="37.282798" lon="-6.223358">
        <ele>38.76</ele>
        <time>2022-02-05T14:04:33Z</time>
      </trkpt>
      <trkpt lat="37.282923" lon="-6.223143">
        <ele>39.28</ele>
        <time>2022-02-05T14:04:39Z</time>
      </trkpt>
      <trkpt lat="37.283046" lon="-6.222955">
        <ele>39.53</ele>
        <time>2022-02-05T14:04:44Z</time>
      </trkpt>
      <trkpt lat="37.283192" lon="-6.222744">
        <ele>38.70</ele>
        <time>2022-02-05T14:04:49Z</time>
      </trkpt>
      <trkpt lat="37.283334" lon="-6.222540">
        <ele>39.05</ele>
        <time>2022-02-05T14:04:54Z</time>
      </trkpt>
      <trkpt lat="37.283496" lon="-6.222350">
        <ele>40.28</ele>
        <time>2022-02-05T14:04:59Z</time>
      </trkpt>
      <trkpt lat="37.283618" lon="-6.222184">
        <ele>39.64</ele>
        <time>2022-02-05T14:05:03Z</time>
      </trkpt>
      <trkpt lat="37.283754" lon="-6.222021">
        <ele>39.11</ele>
        <time>2022-02-05T14:05:07Z</time>
      </trkpt>
      <trkpt lat="37.283887" lon="-6.221811">
        <ele>38.70</ele>
        <time>2022-02-05T14:05:11Z</time>
      </trkpt>
      <trkpt lat="37.284040" lon="-6.221602">
        <ele>37.58</ele>
        <time>2022-02-05T14:05:15Z</time>
      </trkpt>
      <trkpt lat="37.284173" lon="-6.221413">
        <ele>36.74</ele>
        <time>2022-02-05T14:05:19Z</time>
      </trkpt>
      <trkpt lat="37.284323" lon="-6.221211">
        <ele>36.00</ele>
        <time>2022-02-05T14:05:23Z</time>
      </trkpt>
      <trkpt lat="37.284455" lon="-6.221039">
        <ele>35.59</ele>
        <time>2022-02-05T14:05:26Z</time>
      </trkpt>
      <trkpt lat="37.284553" lon="-6.220849">
        <ele>34.03</ele>
        <time>2022-02-05T14:05:29Z</time>
      </trkpt>
      <trkpt lat="37.284670" lon="-6.220677">
        <ele>33.32</ele>
        <time>2022-02-05T14:05:32Z</time>
      </trkpt>
      <trkpt lat="37.284852" lon="-6.220498">
        <ele>33.24</ele>
        <time>2022-02-05T14:05:36Z</time>
      </trkpt>
      <trkpt lat="37.285026" lon="-6.220384">
        <ele>34.09</ele>
        <time>2022-02-05T14:05:40Z</time>
      </trkpt>
      <trkpt lat="37.285216" lon="-6.220288">
        <ele>33.83</ele>
        <time>2022-02-05T14:05:45Z</time>
      </trkpt>
      <trkpt lat="37.285433" lon="-6.220239">
        <ele>34.33</ele>
        <time>2022-02-05T14:05:50Z</time>
      </trkpt>
      <trkpt lat="37.285614" lon="-6.220172">
        <ele>32.98</ele>
        <time>2022-02-05T14:05:54Z</time>
      </trkpt>
      <trkpt lat="37.285818" lon="-6.220147">
        <ele>32.18</ele>
        <time>2022-02-05T14:05:59Z</time>
      </trkpt>
      <trkpt lat="37.286024" lon="-6.220151">
        <ele>31.61</ele>
        <time>2022-02-05T14:06:04Z</time>
      </trkpt>
      <trkpt lat="37.286222" lon="-6.220162">
        <ele>32.74</ele>
        <time>2022-02-05T14:06:09Z</time>
      </trkpt>
      <trkpt lat="37.286427" lon="-6.220078">
        <ele>32.44</ele>
        <time>2022-02-05T14:06:14Z</time>
      </trkpt>
      <trkpt lat="37.286605" lon="-6.219976">
        <ele>33.63</ele>
        <time>2022-02-05T14:06:18Z</time>
      </trkpt>
      <trkpt lat="37.286795" lon="-6.219825">
        <ele>34.29</ele>
        <time>2022-02-05T14:06:23Z</time>
      </trkpt>
      <trkpt lat="37.286963" lon="-6.219701">
        <ele>35.06</ele>
        <time>2022-02-05T14:06:27Z</time>
      </trkpt>
      <trkpt lat="37.287136" lon="-6.219598">
        <ele>36.45</ele>
        <time>2022-02-05T14:06:31Z</time>
      </trkpt>
      <trkpt lat="37.287330" lon="-6.219554">
        <ele>38.30</ele>
        <time>2022-02-05T14:06:35Z</time>
      </trkpt>
      <trkpt lat="37.287542" lon="-6.219493">
        <ele>38.20</ele>
        <time>2022-02-05T14:06:40Z</time>
      </trkpt>
      <trkpt lat="37.287726" lon="-6.219531">
        <ele>37.43</ele>
        <time>2022-02-05T14:06:45Z</time>
      </trkpt>
      <trkpt lat="37.287927" lon="-6.219470">
        <ele>37.94</ele>
        <time>2022-02-05T14:06:50Z</time>
      </trkpt>
      <trkpt lat="37.288123" lon="-6.219542">
        <ele>39.15</ele>
        <time>2022-02-05T14:06:56Z</time>
      </trkpt>
      <trkpt lat="37.288314" lon="-6.219560">
        <ele>40.57</ele>
        <time>2022-02-05T14:07:01Z</time>
      </trkpt>
      <trkpt lat="37.288516" lon="-6.219512">
        <ele>39.36</ele>
        <time>2022-02-05T14:07:06Z</time>
      </trkpt>
      <trkpt lat="37.288694" lon="-6.219427">
        <ele>38.82</ele>
        <time>2022-02-05T14:07:11Z</time>
      </trkpt>
      <trkpt lat="37.288851" lon="-6.219297">
        <ele>39.68</ele>
        <time>2022-02-05T14:07:16Z</time>
      </trkpt>
      <trkpt lat="37.289033" lon="-6.219180">
        <ele>41.39</ele>
        <time>2022-02-05T14:07:21Z</time>
      </trkpt>
      <trkpt lat="37.289212" lon="-6.219084">
        <ele>42.11</ele>
        <time>2022-02-05T14:07:26Z</time>
      </trkpt>
      <trkpt lat="37.289393" lon="-6.219003">
        <ele>42.24</ele>
        <time>2022-02-05T14:07:31Z</time>
      </trkpt>
      <trkpt lat="37.289568" lon="-6.218947">
        <ele>40.62</ele>
        <time>2022-02-05T14:07:36Z</time>
      </trkpt>
      <trkpt lat="37.289758" lon="-6.218911">
        <ele>39.14</ele>
        <time>2022-02-05T14:07:41Z</time>
      </trkpt>
      <trkpt lat="37.289967" lon="-6.218870">
        <ele>40.17</ele>
        <time>2022-02-05T14:07:47Z</time>
      </trkpt>
      <trkpt lat="37.290142" lon="-6.218810">
        <ele>39.90</ele>
        <time>2022-02-05T14:07:52Z</time>
      </trkpt>
      <trkpt lat="37.290330" lon="-6.218752">
        <ele>40.34</ele>
        <time>2022-02-05T14:07:57Z</time>
      </trkpt>
      <trkpt lat="37.290503" lon="-6.218623">
        <ele>39.88</ele>
        <time>2022-02-05T14:08:02Z</time>
      </trkpt>
      <trkpt lat="37.290622" lon="-6.218427">
        <ele>39.73</ele>
        <time>2022-02-05T14:08:06Z</time>
      </trkpt>
      <trkpt lat="37.290646" lon="-6.218192">
        <ele>40.36</ele>
        <time>2022-02-05T14:08:10Z</time>
      </trkpt>
      <trkpt lat="37.290635" lon="-6.217950">
        <ele>40.95</ele>
        <time>2022-02-05T14:08:15Z</time>
      </trkpt>
      <trkpt lat="37.290588" lon="-6.217705">
        <ele>41.06</ele>
        <time>2022-02-05T14:08:21Z</time>
      </trkpt>
      <trkpt lat="37.290516" lon="-6.217489">
        <ele>43.39</ele>
        <time>2022-02-05T14:08:27Z</time>
      </trkpt>
      <trkpt lat="37.290518" lon="-6.217259">
        <ele>45.97</ele>
        <time>2022-02-05T14:08:33Z</time>
      </trkpt>
      <trkpt lat="37.290519" lon="-6.217006">
        <ele>46.26</ele>
        <time>2022-02-05T14:08:39Z</time>
      </trkpt>
      <trkpt lat="37.290484" lon="-6.216752">
        <ele>46.51</ele>
        <time>2022-02-05T14:08:46Z</time>
      </trkpt>
      <trkpt lat="37.290470" lon="-6.216517">
        <ele>48.30</ele>
        <time>2022-02-05T14:08:52Z</time>
      </trkpt>
      <trkpt lat="37.290467" lon="-6.216254">
        <ele>48.57</ele>
        <time>2022-02-05T14:08:59Z</time>
      </trkpt>
      <trkpt lat="37.290402" lon="-6.216008">
        <ele>49.28</ele>
        <time>2022-02-05T14:09:05Z</time>
      </trkpt>
      <trkpt lat="37.290352" lon="-6.215742">
        <ele>48.96</ele>
        <time>2022-02-05T14:09:11Z</time>
      </trkpt>
      <trkpt lat="37.290248" lon="-6.215531">
        <ele>48.65</ele>
        <time>2022-02-05T14:09:16Z</time>
      </trkpt>
      <trkpt lat="37.290189" lon="-6.215262">
        <ele>47.61</ele>
        <time>2022-02-05T14:09:21Z</time>
      </trkpt>
      <trkpt lat="37.290140" lon="-6.214995">
        <ele>48.19</ele>
        <time>2022-02-05T14:09:26Z</time>
      </trkpt>
      <trkpt lat="37.290087" lon="-6.214729">
        <ele>48.04</ele>
        <time>2022-02-05T14:09:31Z</time>
      </trkpt>
      <trkpt lat="37.290053" lon="-6.214454">
        <ele>47.78</ele>
        <time>2022-02-05T14:09:36Z</time>
      </trkpt>
      <trkpt lat="37.290052" lon="-6.214174">
        <ele>47.72</ele>
        <time>2022-02-05T14:09:41Z</time>
      </trkpt>
      <trkpt lat="37.290078" lon="-6.213915">
        <ele>48.19</ele>
        <time>2022-02-05T14:09:46Z</time>
      </trkpt>
      <trkpt lat="37.290135" lon="-6.213662">
        <ele>48.67</ele>
        <time>2022-02-05T14:09:51Z</time>
      </trkpt>
      <trkpt lat="37.290211" lon="-6.213410">
        <ele>48.23</ele>
        <time>2022-02-05T14:09:56Z</time>
      </trkpt>
      <trkpt lat="37.290305" lon="-6.213151">
        <ele>47.79</ele>
        <time>2022-02-05T14:10:01Z</time>
      </trkpt>
      <trkpt lat="37.290393" lon="-6.212929">
        <ele>47.29</ele>
        <time>2022-02-05T14:10:05Z</time>
      </trkpt>
      <trkpt lat="37.290497" lon="-6.212693">
        <ele>47.37</ele>
        <time>2022-02-05T14:10:09Z</time>
      </trkpt>
      <trkpt lat="37.290582" lon="-6.212437">
        <ele>46.51</ele>
        <time>2022-02-05T14:10:13Z</time>
      </trkpt>
      <trkpt lat="37.290685" lon="-6.212168">
        <ele>45.85</ele>
        <time>2022-02-05T14:10:17Z</time>
      </trkpt>
      <trkpt lat="37.290763" lon="-6.211962">
        <ele>45.29</ele>
        <time>2022-02-05T14:10:20Z</time>
      </trkpt>
      <trkpt lat="37.290872" lon="-6.211707">
        <ele>45.15</ele>
        <time>2022-02-05T14:10:24Z</time>
      </trkpt>
      <trkpt lat="37.290960" lon="-6.211459">
        <ele>44.78</ele>
        <time>2022-02-05T14:10:28Z</time>
      </trkpt>
      <trkpt lat="37.291043" lon="-6.211237">
        <ele>44.27</ele>
        <time>2022-02-05T14:10:32Z</time>
      </trkpt>
      <trkpt lat="37.291129" lon="-6.210986">
        <ele>43.56</ele>
        <time>2022-02-05T14:10:37Z</time>
      </trkpt>
      <trkpt lat="37.291186" lon="-6.210762">
        <ele>43.13</ele>
        <time>2022-02-05T14:10:41Z</time>
      </trkpt>
      <trkpt lat="37.291256" lon="-6.210529">
        <ele>43.10</ele>
        <time>2022-02-05T14:10:45Z</time>
      </trkpt>
      <trkpt lat="37.291355" lon="-6.210317">
        <ele>43.08</ele>
        <time>2022-02-05T14:10:49Z</time>
      </trkpt>
      <trkpt lat="37.291456" lon="-6.210106">
        <ele>42.96</ele>
        <time>2022-02-05T14:10:53Z</time>
      </trkpt>
      <trkpt lat="37.291536" lon="-6.209891">
        <ele>42.40</ele>
        <time>2022-02-05T14:10:57Z</time>
      </trkpt>
      <trkpt lat="37.291602" lon="-6.209678">
        <ele>43.03</ele>
        <time>2022-02-05T14:11:07Z</time>
      </trkpt>
      <trkpt lat="37.291654" lon="-6.209417">
        <ele>43.37</ele>
        <time>2022-02-05T14:11:14Z</time>
      </trkpt>
      <trkpt lat="37.291703" lon="-6.209166">
        <ele>43.91</ele>
        <time>2022-02-05T14:11:19Z</time>
      </trkpt>
      <trkpt lat="37.291797" lon="-6.208914">
        <ele>43.62</ele>
        <time>2022-02-05T14:11:24Z</time>
      </trkpt>
      <trkpt lat="37.291860" lon="-6.208690">
        <ele>43.64</ele>
        <time>2022-02-05T14:11:28Z</time>
      </trkpt>
      <trkpt lat="37.291897" lon="-6.208421">
        <ele>43.85</ele>
        <time>2022-02-05T14:11:33Z</time>
      </trkpt>
      <trkpt lat="37.291946" lon="-6.208161">
        <ele>44.18</ele>
        <time>2022-02-05T14:11:38Z</time>
      </trkpt>
      <trkpt lat="37.292014" lon="-6.207916">
        <ele>45.07</ele>
        <time>2022-02-05T14:11:43Z</time>
      </trkpt>
      <trkpt lat="37.292084" lon="-6.207695">
        <ele>45.18</ele>
        <time>2022-02-05T14:11:48Z</time>
      </trkpt>
      <trkpt lat="37.292158" lon="-6.207471">
        <ele>45.84</ele>
        <time>2022-02-05T14:11:53Z</time>
      </trkpt>
      <trkpt lat="37.292229" lon="-6.207230">
        <ele>45.88</ele>
        <time>2022-02-05T14:11:58Z</time>
      </trkpt>
      <trkpt lat="37.292306" lon="-6.207022">
        <ele>45.77</ele>
        <time>2022-02-05T14:12:02Z</time>
      </trkpt>
      <trkpt lat="37.292409" lon="-6.206804">
        <ele>45.09</ele>
        <time>2022-02-05T14:12:06Z</time>
      </trkpt>
      <trkpt lat="37.292519" lon="-6.206591">
        <ele>44.63</ele>
        <time>2022-02-05T14:12:10Z</time>
      </trkpt>
      <trkpt lat="37.292601" lon="-6.206366">
        <ele>44.21</ele>
        <time>2022-02-05T14:12:14Z</time>
      </trkpt>
      <trkpt lat="37.292657" lon="-6.206101">
        <ele>43.40</ele>
        <time>2022-02-05T14:12:18Z</time>
      </trkpt>
      <trkpt lat="37.292663" lon="-6.205834">
        <ele>44.16</ele>
        <time>2022-02-05T14:12:22Z</time>
      </trkpt>
      <trkpt lat="37.292675" lon="-6.205597">
        <ele>43.87</ele>
        <time>2022-02-05T14:12:26Z</time>
      </trkpt>
      <trkpt lat="37.292707" lon="-6.205357">
        <ele>44.81</ele>
        <time>2022-02-05T14:12:31Z</time>
      </trkpt>
      <trkpt lat="37.292720" lon="-6.205327">
        <ele>43.84</ele>
        <time>2022-02-05T14:13:26Z</time>
      </trkpt>
      <trkpt lat="37.292713" lon="-6.205063">
        <ele>43.61</ele>
        <time>2022-02-05T14:13:33Z</time>
      </trkpt>
      <trkpt lat="37.292750" lon="-6.204840">
        <ele>43.52</ele>
        <time>2022-02-05T14:13:37Z</time>
      </trkpt>
      <trkpt lat="37.292796" lon="-6.204605">
        <ele>43.71</ele>
        <time>2022-02-05T14:13:41Z</time>
      </trkpt>
      <trkpt lat="37.292833" lon="-6.204372">
        <ele>44.09</ele>
        <time>2022-02-05T14:13:45Z</time>
      </trkpt>
      <trkpt lat="37.292873" lon="-6.204125">
        <ele>44.05</ele>
        <time>2022-02-05T14:13:49Z</time>
      </trkpt>
      <trkpt lat="37.292936" lon="-6.203844">
        <ele>43.61</ele>
        <time>2022-02-05T14:13:53Z</time>
      </trkpt>
      <trkpt lat="37.292973" lon="-6.203621">
        <ele>43.36</ele>
        <time>2022-02-05T14:13:56Z</time>
      </trkpt>
      <trkpt lat="37.293002" lon="-6.203396">
        <ele>43.61</ele>
        <time>2022-02-05T14:13:59Z</time>
      </trkpt>
      <trkpt lat="37.293054" lon="-6.203104">
        <ele>43.45</ele>
        <time>2022-02-05T14:14:03Z</time>
      </trkpt>
      <trkpt lat="37.293117" lon="-6.202825">
        <ele>43.72</ele>
        <time>2022-02-05T14:14:07Z</time>
      </trkpt>
      <trkpt lat="37.293156" lon="-6.202554">
        <ele>43.75</ele>
        <time>2022-02-05T14:14:12Z</time>
      </trkpt>
      <trkpt lat="37.293199" lon="-6.202278">
        <ele>44.10</ele>
        <time>2022-02-05T14:14:17Z</time>
      </trkpt>
      <trkpt lat="37.293242" lon="-6.202003">
        <ele>44.41</ele>
        <time>2022-02-05T14:14:22Z</time>
      </trkpt>
      <trkpt lat="37.293280" lon="-6.201756">
        <ele>45.17</ele>
        <time>2022-02-05T14:14:27Z</time>
      </trkpt>
      <trkpt lat="37.293305" lon="-6.201513">
        <ele>45.91</ele>
        <time>2022-02-05T14:14:32Z</time>
      </trkpt>
      <trkpt lat="37.293353" lon="-6.201233">
        <ele>46.01</ele>
        <time>2022-02-05T14:14:37Z</time>
      </trkpt>
      <trkpt lat="37.293414" lon="-6.200991">
        <ele>45.71</ele>
        <time>2022-02-05T14:14:41Z</time>
      </trkpt>
      <trkpt lat="37.293462" lon="-6.200725">
        <ele>45.09</ele>
        <time>2022-02-05T14:14:45Z</time>
      </trkpt>
      <trkpt lat="37.293507" lon="-6.200479">
        <ele>44.97</ele>
        <time>2022-02-05T14:14:49Z</time>
      </trkpt>
      <trkpt lat="37.293554" lon="-6.200234">
        <ele>45.07</ele>
        <time>2022-02-05T14:14:53Z</time>
      </trkpt>
      <trkpt lat="37.293599" lon="-6.199989">
        <ele>44.91</ele>
        <time>2022-02-05T14:14:57Z</time>
      </trkpt>
      <trkpt lat="37.293630" lon="-6.199743">
        <ele>45.00</ele>
        <time>2022-02-05T14:15:01Z</time>
      </trkpt>
      <trkpt lat="37.293673" lon="-6.199501">
        <ele>45.45</ele>
        <time>2022-02-05T14:15:05Z</time>
      </trkpt>
      <trkpt lat="37.293716" lon="-6.199262">
        <ele>46.07</ele>
        <time>2022-02-05T14:15:09Z</time>
      </trkpt>
      <trkpt lat="37.293759" lon="-6.199030">
        <ele>47.30</ele>
        <time>2022-02-05T14:15:13Z</time>
      </trkpt>
      <trkpt lat="37.293812" lon="-6.198796">
        <ele>47.20</ele>
        <time>2022-02-05T14:15:17Z</time>
      </trkpt>
      <trkpt lat="37.293860" lon="-6.198536">
        <ele>47.20</ele>
        <time>2022-02-05T14:15:21Z</time>
      </trkpt>
      <trkpt lat="37.293906" lon="-6.198270">
        <ele>46.96</ele>
        <time>2022-02-05T14:15:25Z</time>
      </trkpt>
      <trkpt lat="37.293960" lon="-6.197989">
        <ele>46.69</ele>
        <time>2022-02-05T14:15:29Z</time>
      </trkpt>
      <trkpt lat="37.294025" lon="-6.197699">
        <ele>46.27</ele>
        <time>2022-02-05T14:15:33Z</time>
      </trkpt>
      <trkpt lat="37.294068" lon="-6.197469">
        <ele>46.11</ele>
        <time>2022-02-05T14:15:36Z</time>
      </trkpt>
      <trkpt lat="37.294109" lon="-6.197242">
        <ele>45.76</ele>
        <time>2022-02-05T14:15:39Z</time>
      </trkpt>
      <trkpt lat="37.294158" lon="-6.196953">
        <ele>44.86</ele>
        <time>2022-02-05T14:15:43Z</time>
      </trkpt>
      <trkpt lat="37.294201" lon="-6.196672">
        <ele>44.85</ele>
        <time>2022-02-05T14:15:47Z</time>
      </trkpt>
      <trkpt lat="37.294240" lon="-6.196406">
        <ele>44.38</ele>
        <time>2022-02-05T14:15:51Z</time>
      </trkpt>
      <trkpt lat="37.294265" lon="-6.196175">
        <ele>44.76</ele>
        <time>2022-02-05T14:15:54Z</time>
      </trkpt>
      <trkpt lat="37.294311" lon="-6.195880">
        <ele>45.21</ele>
        <time>2022-02-05T14:15:58Z</time>
      </trkpt>
      <trkpt lat="37.294340" lon="-6.195653">
        <ele>45.43</ele>
        <time>2022-02-05T14:16:01Z</time>
      </trkpt>
      <trkpt lat="37.294311" lon="-6.195357">
        <ele>45.54</ele>
        <time>2022-02-05T14:16:05Z</time>
      </trkpt>
      <trkpt lat="37.294219" lon="-6.195142">
        <ele>44.91</ele>
        <time>2022-02-05T14:16:08Z</time>
      </trkpt>
      <trkpt lat="37.294090" lon="-6.194973">
        <ele>44.91</ele>
        <time>2022-02-05T14:16:11Z</time>
      </trkpt>
      <trkpt lat="37.293956" lon="-6.194807">
        <ele>45.17</ele>
        <time>2022-02-05T14:16:14Z</time>
      </trkpt>
      <trkpt lat="37.293834" lon="-6.194637">
        <ele>45.03</ele>
        <time>2022-02-05T14:16:17Z</time>
      </trkpt>
      <trkpt lat="37.293715" lon="-6.194464">
        <ele>44.69</ele>
        <time>2022-02-05T14:16:20Z</time>
      </trkpt>
      <trkpt lat="37.293585" lon="-6.194304">
        <ele>44.59</ele>
        <time>2022-02-05T14:16:23Z</time>
      </trkpt>
      <trkpt lat="37.293447" lon="-6.194153">
        <ele>44.35</ele>
        <time>2022-02-05T14:16:26Z</time>
      </trkpt>
      <trkpt lat="37.293275" lon="-6.193974">
        <ele>44.93</ele>
        <time>2022-02-05T14:16:30Z</time>
      </trkpt>
      <trkpt lat="37.293130" lon="-6.193773">
        <ele>44.50</ele>
        <time>2022-02-05T14:16:34Z</time>
      </trkpt>
      <trkpt lat="37.292978" lon="-6.193560">
        <ele>44.37</ele>
        <time>2022-02-05T14:16:38Z</time>
      </trkpt>
      <trkpt lat="37.292867" lon="-6.193318">
        <ele>44.22</ele>
        <time>2022-02-05T14:16:42Z</time>
      </trkpt>
      <trkpt lat="37.292779" lon="-6.193065">
        <ele>44.34</ele>
        <time>2022-02-05T14:16:46Z</time>
      </trkpt>
      <trkpt lat="37.292755" lon="-6.192790">
        <ele>44.40</ele>
        <time>2022-02-05T14:16:50Z</time>
      </trkpt>
      <trkpt lat="37.292778" lon="-6.192528">
        <ele>45.00</ele>
        <time>2022-02-05T14:16:54Z</time>
      </trkpt>
      <trkpt lat="37.292797" lon="-6.192265">
        <ele>45.02</ele>
        <time>2022-02-05T14:16:58Z</time>
      </trkpt>
      <trkpt lat="37.292826" lon="-6.191996">
        <ele>45.02</ele>
        <time>2022-02-05T14:17:02Z</time>
      </trkpt>
      <trkpt lat="37.292845" lon="-6.191713">
        <ele>44.41</ele>
        <time>2022-02-05T14:17:06Z</time>
      </trkpt>
      <trkpt lat="37.292867" lon="-6.191432">
        <ele>43.58</ele>
        <time>2022-02-05T14:17:10Z</time>
      </trkpt>
      <trkpt lat="37.292885" lon="-6.191144">
        <ele>43.21</ele>
        <time>2022-02-05T14:17:14Z</time>
      </trkpt>
      <trkpt lat="37.292911" lon="-6.190917">
        <ele>42.93</ele>
        <time>2022-02-05T14:17:17Z</time>
      </trkpt>
      <trkpt lat="37.292945" lon="-6.190676">
        <ele>42.34</ele>
        <time>2022-02-05T14:17:20Z</time>
      </trkpt>
      <trkpt lat="37.292964" lon="-6.190428">
        <ele>41.99</ele>
        <time>2022-02-05T14:17:23Z</time>
      </trkpt>
      <trkpt lat="37.292986" lon="-6.190171">
        <ele>42.06</ele>
        <time>2022-02-05T14:17:26Z</time>
      </trkpt>
      <trkpt lat="37.292999" lon="-6.189925">
        <ele>41.44</ele>
        <time>2022-02-05T14:17:29Z</time>
      </trkpt>
      <trkpt lat="37.293010" lon="-6.189688">
        <ele>40.98</ele>
        <time>2022-02-05T14:17:32Z</time>
      </trkpt>
      <trkpt lat="37.293019" lon="-6.189449">
        <ele>41.09</ele>
        <time>2022-02-05T14:17:35Z</time>
      </trkpt>
      <trkpt lat="37.293029" lon="-6.189215">
        <ele>40.78</ele>
        <time>2022-02-05T14:17:38Z</time>
      </trkpt>
      <trkpt lat="37.293048" lon="-6.188975">
        <ele>40.55</ele>
        <time>2022-02-05T14:17:41Z</time>
      </trkpt>
      <trkpt lat="37.293055" lon="-6.188734">
        <ele>40.66</ele>
        <time>2022-02-05T14:17:44Z</time>
      </trkpt>
      <trkpt lat="37.293062" lon="-6.188499">
        <ele>40.62</ele>
        <time>2022-02-05T14:17:47Z</time>
      </trkpt>
      <trkpt lat="37.293080" lon="-6.188272">
        <ele>40.24</ele>
        <time>2022-02-05T14:17:50Z</time>
      </trkpt>
      <trkpt lat="37.293112" lon="-6.187971">
        <ele>40.37</ele>
        <time>2022-02-05T14:17:54Z</time>
      </trkpt>
      <trkpt lat="37.293148" lon="-6.187673">
        <ele>40.65</ele>
        <time>2022-02-05T14:17:58Z</time>
      </trkpt>
      <trkpt lat="37.293195" lon="-6.187387">
        <ele>41.05</ele>
        <time>2022-02-05T14:18:02Z</time>
      </trkpt>
      <trkpt lat="37.293242" lon="-6.187112">
        <ele>41.59</ele>
        <time>2022-02-05T14:18:06Z</time>
      </trkpt>
      <trkpt lat="37.293270" lon="-6.186834">
        <ele>41.99</ele>
        <time>2022-02-05T14:18:10Z</time>
      </trkpt>
      <trkpt lat="37.293294" lon="-6.186557">
        <ele>42.23</ele>
        <time>2022-02-05T14:18:14Z</time>
      </trkpt>
      <trkpt lat="37.293301" lon="-6.186287">
        <ele>42.04</ele>
        <time>2022-02-05T14:18:18Z</time>
      </trkpt>
      <trkpt lat="37.293301" lon="-6.186021">
        <ele>41.82</ele>
        <time>2022-02-05T14:18:22Z</time>
      </trkpt>
      <trkpt lat="37.293313" lon="-6.185775">
        <ele>41.30</ele>
        <time>2022-02-05T14:18:26Z</time>
      </trkpt>
      <trkpt lat="37.293331" lon="-6.185532">
        <ele>41.30</ele>
        <time>2022-02-05T14:18:30Z</time>
      </trkpt>
      <trkpt lat="37.293352" lon="-6.185289">
        <ele>41.00</ele>
        <time>2022-02-05T14:18:34Z</time>
      </trkpt>
      <trkpt lat="37.293391" lon="-6.185020">
        <ele>39.57</ele>
        <time>2022-02-05T14:18:38Z</time>
      </trkpt>
      <trkpt lat="37.293438" lon="-6.184786">
        <ele>37.76</ele>
        <time>2022-02-05T14:18:41Z</time>
      </trkpt>
      <trkpt lat="37.293496" lon="-6.184530">
        <ele>36.64</ele>
        <time>2022-02-05T14:18:44Z</time>
      </trkpt>
      <trkpt lat="37.293560" lon="-6.184277">
        <ele>36.03</ele>
        <time>2022-02-05T14:18:47Z</time>
      </trkpt>
      <trkpt lat="37.293627" lon="-6.184026">
        <ele>35.38</ele>
        <time>2022-02-05T14:18:50Z</time>
      </trkpt>
      <trkpt lat="37.293675" lon="-6.183786">
        <ele>34.32</ele>
        <time>2022-02-05T14:18:53Z</time>
      </trkpt>
      <trkpt lat="37.293749" lon="-6.183550">
        <ele>33.15</ele>
        <time>2022-02-05T14:18:56Z</time>
      </trkpt>
      <trkpt lat="37.293846" lon="-6.183292">
        <ele>34.06</ele>
        <time>2022-02-05T14:19:00Z</time>
      </trkpt>
      <trkpt lat="37.293942" lon="-6.183069">
        <ele>34.96</ele>
        <time>2022-02-05T14:19:04Z</time>
      </trkpt>
      <trkpt lat="37.294042" lon="-6.182870">
        <ele>35.94</ele>
        <time>2022-02-05T14:19:08Z</time>
      </trkpt>
      <trkpt lat="37.294166" lon="-6.182643">
        <ele>37.13</ele>
        <time>2022-02-05T14:19:13Z</time>
      </trkpt>
      <trkpt lat="37.294292" lon="-6.182422">
        <ele>37.78</ele>
        <time>2022-02-05T14:19:18Z</time>
      </trkpt>
      <trkpt lat="37.294408" lon="-6.182198">
        <ele>38.18</ele>
        <time>2022-02-05T14:19:23Z</time>
      </trkpt>
      <trkpt lat="37.294527" lon="-6.181994">
        <ele>38.76</ele>
        <time>2022-02-05T14:19:28Z</time>
      </trkpt>
      <trkpt lat="37.294650" lon="-6.181803">
        <ele>39.94</ele>
        <time>2022-02-05T14:19:33Z</time>
      </trkpt>
      <trkpt lat="37.294776" lon="-6.181627">
        <ele>39.89</ele>
        <time>2022-02-05T14:19:38Z</time>
      </trkpt>
      <trkpt lat="37.294887" lon="-6.181433">
        <ele>40.61</ele>
        <time>2022-02-05T14:19:43Z</time>
      </trkpt>
      <trkpt lat="37.294997" lon="-6.181241">
        <ele>40.51</ele>
        <time>2022-02-05T14:19:48Z</time>
      </trkpt>
      <trkpt lat="37.295094" lon="-6.181036">
        <ele>41.47</ele>
        <time>2022-02-05T14:19:53Z</time>
      </trkpt>
      <trkpt lat="37.295190" lon="-6.180833">
        <ele>41.48</ele>
        <time>2022-02-05T14:19:58Z</time>
      </trkpt>
      <trkpt lat="37.295279" lon="-6.180592">
        <ele>42.41</ele>
        <time>2022-02-05T14:20:04Z</time>
      </trkpt>
      <trkpt lat="37.295342" lon="-6.180362">
        <ele>42.79</ele>
        <time>2022-02-05T14:20:10Z</time>
      </trkpt>
      <trkpt lat="37.295402" lon="-6.180132">
        <ele>43.84</ele>
        <time>2022-02-05T14:20:16Z</time>
      </trkpt>
      <trkpt lat="37.295451" lon="-6.179881">
        <ele>43.76</ele>
        <time>2022-02-05T14:20:22Z</time>
      </trkpt>
      <trkpt lat="37.295498" lon="-6.179653">
        <ele>43.96</ele>
        <time>2022-02-05T14:20:27Z</time>
      </trkpt>
      <trkpt lat="37.295557" lon="-6.179407">
        <ele>44.34</ele>
        <time>2022-02-05T14:20:33Z</time>
      </trkpt>
      <trkpt lat="37.295597" lon="-6.179170">
        <ele>44.75</ele>
        <time>2022-02-05T14:20:39Z</time>
      </trkpt>
      <trkpt lat="37.295617" lon="-6.178928">
        <ele>45.15</ele>
        <time>2022-02-05T14:20:45Z</time>
      </trkpt>
      <trkpt lat="37.295659" lon="-6.178707">
        <ele>45.44</ele>
        <time>2022-02-05T14:20:50Z</time>
      </trkpt>
      <trkpt lat="37.295695" lon="-6.178469">
        <ele>44.63</ele>
        <time>2022-02-05T14:20:55Z</time>
      </trkpt>
      <trkpt lat="37.295719" lon="-6.178224">
        <ele>43.71</ele>
        <time>2022-02-05T14:20:59Z</time>
      </trkpt>
      <trkpt lat="37.295717" lon="-6.177950">
        <ele>42.85</ele>
        <time>2022-02-05T14:21:03Z</time>
      </trkpt>
      <trkpt lat="37.295680" lon="-6.177682">
        <ele>42.61</ele>
        <time>2022-02-05T14:21:07Z</time>
      </trkpt>
      <trkpt lat="37.295635" lon="-6.177433">
        <ele>41.70</ele>
        <time>2022-02-05T14:21:11Z</time>
      </trkpt>
      <trkpt lat="37.295590" lon="-6.177204">
        <ele>42.19</ele>
        <time>2022-02-05T14:21:15Z</time>
      </trkpt>
      <trkpt lat="37.295524" lon="-6.176959">
        <ele>41.31</ele>
        <time>2022-02-05T14:21:20Z</time>
      </trkpt>
      <trkpt lat="37.295426" lon="-6.176723">
        <ele>42.36</ele>
        <time>2022-02-05T14:21:25Z</time>
      </trkpt>
      <trkpt lat="37.295341" lon="-6.176491">
        <ele>42.94</ele>
        <time>2022-02-05T14:21:30Z</time>
      </trkpt>
      <trkpt lat="37.295265" lon="-6.176266">
        <ele>43.56</ele>
        <time>2022-02-05T14:21:35Z</time>
      </trkpt>
      <trkpt lat="37.295222" lon="-6.176034">
        <ele>44.00</ele>
        <time>2022-02-05T14:21:40Z</time>
      </trkpt>
      <trkpt lat="37.295185" lon="-6.175801">
        <ele>43.93</ele>
        <time>2022-02-05T14:21:45Z</time>
      </trkpt>
      <trkpt lat="37.295185" lon="-6.175565">
        <ele>44.27</ele>
        <time>2022-02-05T14:21:50Z</time>
      </trkpt>
      <trkpt lat="37.295181" lon="-6.175328">
        <ele>44.27</ele>
        <time>2022-02-05T14:21:55Z</time>
      </trkpt>
      <trkpt lat="37.295207" lon="-6.175100">
        <ele>44.78</ele>
        <time>2022-02-05T14:22:00Z</time>
      </trkpt>
      <trkpt lat="37.295229" lon="-6.174863">
        <ele>44.80</ele>
        <time>2022-02-05T14:22:05Z</time>
      </trkpt>
      <trkpt lat="37.295241" lon="-6.174625">
        <ele>45.41</ele>
        <time>2022-02-05T14:22:10Z</time>
      </trkpt>
      <trkpt lat="37.295251" lon="-6.174383">
        <ele>44.78</ele>
        <time>2022-02-05T14:22:15Z</time>
      </trkpt>
      <trkpt lat="37.295254" lon="-6.174154">
        <ele>44.07</ele>
        <time>2022-02-05T14:22:19Z</time>
      </trkpt>
      <trkpt lat="37.295247" lon="-6.173875">
        <ele>43.79</ele>
        <time>2022-02-05T14:22:24Z</time>
      </trkpt>
      <trkpt lat="37.295246" lon="-6.173605">
        <ele>43.02</ele>
        <time>2022-02-05T14:22:29Z</time>
      </trkpt>
      <trkpt lat="37.295249" lon="-6.173340">
        <ele>42.80</ele>
        <time>2022-02-05T14:22:34Z</time>
      </trkpt>
      <trkpt lat="37.295247" lon="-6.173077">
        <ele>42.69</ele>
        <time>2022-02-05T14:22:39Z</time>
      </trkpt>
      <trkpt lat="37.295250" lon="-6.172806">
        <ele>42.62</ele>
        <time>2022-02-05T14:22:44Z</time>
      </trkpt>
      <trkpt lat="37.295254" lon="-6.172524">
        <ele>42.84</ele>
        <time>2022-02-05T14:22:49Z</time>
      </trkpt>
      <trkpt lat="37.295268" lon="-6.172246">
        <ele>42.93</ele>
        <time>2022-02-05T14:22:54Z</time>
      </trkpt>
      <trkpt lat="37.295276" lon="-6.171965">
        <ele>43.90</ele>
        <time>2022-02-05T14:22:59Z</time>
      </trkpt>
      <trkpt lat="37.295287" lon="-6.171698">
        <ele>44.38</ele>
        <time>2022-02-05T14:23:04Z</time>
      </trkpt>
      <trkpt lat="37.295313" lon="-6.171441">
        <ele>44.68</ele>
        <time>2022-02-05T14:23:09Z</time>
      </trkpt>
      <trkpt lat="37.295368" lon="-6.171204">
        <ele>45.60</ele>
        <time>2022-02-05T14:23:14Z</time>
      </trkpt>
      <trkpt lat="37.295457" lon="-6.170968">
        <ele>45.67</ele>
        <time>2022-02-05T14:23:19Z</time>
      </trkpt>
      <trkpt lat="37.295551" lon="-6.170742">
        <ele>46.25</ele>
        <time>2022-02-05T14:23:24Z</time>
      </trkpt>
      <trkpt lat="37.295629" lon="-6.170503">
        <ele>46.30</ele>
        <time>2022-02-05T14:23:29Z</time>
      </trkpt>
      <trkpt lat="37.295712" lon="-6.170301">
        <ele>45.04</ele>
        <time>2022-02-05T14:23:33Z</time>
      </trkpt>
      <trkpt lat="37.295827" lon="-6.170071">
        <ele>44.30</ele>
        <time>2022-02-05T14:23:37Z</time>
      </trkpt>
      <trkpt lat="37.295968" lon="-6.169849">
        <ele>43.53</ele>
        <time>2022-02-05T14:23:41Z</time>
      </trkpt>
      <trkpt lat="37.296108" lon="-6.169625">
        <ele>43.06</ele>
        <time>2022-02-05T14:23:45Z</time>
      </trkpt>
      <trkpt lat="37.296247" lon="-6.169413">
        <ele>42.53</ele>
        <time>2022-02-05T14:23:49Z</time>
      </trkpt>
      <trkpt lat="37.296379" lon="-6.169191">
        <ele>42.40</ele>
        <time>2022-02-05T14:23:53Z</time>
      </trkpt>
      <trkpt lat="37.296487" lon="-6.168995">
        <ele>42.50</ele>
        <time>2022-02-05T14:23:57Z</time>
      </trkpt>
      <trkpt lat="37.296597" lon="-6.168789">
        <ele>42.07</ele>
        <time>2022-02-05T14:24:01Z</time>
      </trkpt>
      <trkpt lat="37.296712" lon="-6.168565">
        <ele>42.31</ele>
        <time>2022-02-05T14:24:05Z</time>
      </trkpt>
      <trkpt lat="37.296815" lon="-6.168337">
        <ele>42.31</ele>
        <time>2022-02-05T14:24:10Z</time>
      </trkpt>
      <trkpt lat="37.296904" lon="-6.168109">
        <ele>42.87</ele>
        <time>2022-02-05T14:24:15Z</time>
      </trkpt>
      <trkpt lat="37.297004" lon="-6.167887">
        <ele>41.87</ele>
        <time>2022-02-05T14:24:20Z</time>
      </trkpt>
      <trkpt lat="37.297111" lon="-6.167670">
        <ele>41.96</ele>
        <time>2022-02-05T14:24:25Z</time>
      </trkpt>
      <trkpt lat="37.297135" lon="-6.167407">
        <ele>42.98</ele>
        <time>2022-02-05T14:24:30Z</time>
      </trkpt>
      <trkpt lat="37.297218" lon="-6.167153">
        <ele>43.32</ele>
        <time>2022-02-05T14:24:35Z</time>
      </trkpt>
      <trkpt lat="37.297324" lon="-6.166931">
        <ele>43.70</ele>
        <time>2022-02-05T14:24:40Z</time>
      </trkpt>
      <trkpt lat="37.297432" lon="-6.166699">
        <ele>44.31</ele>
        <time>2022-02-05T14:24:45Z</time>
      </trkpt>
      <trkpt lat="37.297502" lon="-6.166490">
        <ele>43.46</ele>
        <time>2022-02-05T14:24:49Z</time>
      </trkpt>
      <trkpt lat="37.297576" lon="-6.166269">
        <ele>43.19</ele>
        <time>2022-02-05T14:24:53Z</time>
      </trkpt>
      <trkpt lat="37.297649" lon="-6.166045">
        <ele>43.35</ele>
        <time>2022-02-05T14:24:57Z</time>
      </trkpt>
      <trkpt lat="37.297713" lon="-6.165831">
        <ele>43.79</ele>
        <time>2022-02-05T14:25:01Z</time>
      </trkpt>
      <trkpt lat="37.297789" lon="-6.165605">
        <ele>43.21</ele>
        <time>2022-02-05T14:25:05Z</time>
      </trkpt>
      <trkpt lat="37.297867" lon="-6.165347">
        <ele>42.74</ele>
        <time>2022-02-05T14:25:09Z</time>
      </trkpt>
      <trkpt lat="37.297971" lon="-6.165090">
        <ele>42.89</ele>
        <time>2022-02-05T14:25:13Z</time>
      </trkpt>
      <trkpt lat="37.297977" lon="-6.164830">
        <ele>43.36</ele>
        <time>2022-02-05T14:25:17Z</time>
      </trkpt>
      <trkpt lat="37.297946" lon="-6.164583">
        <ele>43.33</ele>
        <time>2022-02-05T14:25:21Z</time>
      </trkpt>
      <trkpt lat="37.297955" lon="-6.164330">
        <ele>43.77</ele>
        <time>2022-02-05T14:25:25Z</time>
      </trkpt>
      <trkpt lat="37.297990" lon="-6.164058">
        <ele>43.68</ele>
        <time>2022-02-05T14:25:29Z</time>
      </trkpt>
      <trkpt lat="37.298048" lon="-6.163778">
        <ele>42.80</ele>
        <time>2022-02-05T14:25:33Z</time>
      </trkpt>
      <trkpt lat="37.298094" lon="-6.163554">
        <ele>42.56</ele>
        <time>2022-02-05T14:25:36Z</time>
      </trkpt>
      <trkpt lat="37.298153" lon="-6.163269">
        <ele>42.42</ele>
        <time>2022-02-05T14:25:40Z</time>
      </trkpt>
      <trkpt lat="37.298203" lon="-6.163036">
        <ele>42.22</ele>
        <time>2022-02-05T14:25:43Z</time>
      </trkpt>
      <trkpt lat="37.298294" lon="-6.162806">
        <ele>42.66</ele>
        <time>2022-02-05T14:25:46Z</time>
      </trkpt>
      <trkpt lat="37.298393" lon="-6.162609">
        <ele>42.94</ele>
        <time>2022-02-05T14:25:49Z</time>
      </trkpt>
      <trkpt lat="37.298515" lon="-6.162373">
        <ele>42.51</ele>
        <time>2022-02-05T14:25:53Z</time>
      </trkpt>
      <trkpt lat="37.298634" lon="-6.162140">
        <ele>42.63</ele>
        <time>2022-02-05T14:25:57Z</time>
      </trkpt>
      <trkpt lat="37.298782" lon="-6.161932">
        <ele>42.96</ele>
        <time>2022-02-05T14:26:01Z</time>
      </trkpt>
      <trkpt lat="37.298928" lon="-6.161717">
        <ele>42.92</ele>
        <time>2022-02-05T14:26:05Z</time>
      </trkpt>
      <trkpt lat="37.299068" lon="-6.161534">
        <ele>43.23</ele>
        <time>2022-02-05T14:26:09Z</time>
      </trkpt>
      <trkpt lat="37.299219" lon="-6.161335">
        <ele>44.47</ele>
        <time>2022-02-05T14:26:14Z</time>
      </trkpt>
      <trkpt lat="37.299370" lon="-6.161147">
        <ele>45.37</ele>
        <time>2022-02-05T14:26:19Z</time>
      </trkpt>
      <trkpt lat="37.299528" lon="-6.160981">
        <ele>45.78</ele>
        <time>2022-02-05T14:26:24Z</time>
      </trkpt>
      <trkpt lat="37.299677" lon="-6.160836">
        <ele>46.65</ele>
        <time>2022-02-05T14:26:29Z</time>
      </trkpt>
      <trkpt lat="37.299847" lon="-6.160694">
        <ele>46.05</ele>
        <time>2022-02-05T14:26:34Z</time>
      </trkpt>
      <trkpt lat="37.300007" lon="-6.160566">
        <ele>46.11</ele>
        <time>2022-02-05T14:26:38Z</time>
      </trkpt>
      <trkpt lat="37.300161" lon="-6.160429">
        <ele>45.35</ele>
        <time>2022-02-05T14:26:42Z</time>
      </trkpt>
      <trkpt lat="37.300335" lon="-6.160247">
        <ele>44.92</ele>
        <time>2022-02-05T14:26:47Z</time>
      </trkpt>
      <trkpt lat="37.300481" lon="-6.160093">
        <ele>44.91</ele>
        <time>2022-02-05T14:26:51Z</time>
      </trkpt>
      <trkpt lat="37.300640" lon="-6.159900">
        <ele>45.09</ele>
        <time>2022-02-05T14:26:56Z</time>
      </trkpt>
      <trkpt lat="37.300771" lon="-6.159738">
        <ele>45.12</ele>
        <time>2022-02-05T14:27:00Z</time>
      </trkpt>
      <trkpt lat="37.300928" lon="-6.159608">
        <ele>44.85</ele>
        <time>2022-02-05T14:27:04Z</time>
      </trkpt>
      <trkpt lat="37.301095" lon="-6.159469">
        <ele>44.79</ele>
        <time>2022-02-05T14:27:08Z</time>
      </trkpt>
      <trkpt lat="37.301279" lon="-6.159325">
        <ele>44.25</ele>
        <time>2022-02-05T14:27:12Z</time>
      </trkpt>
      <trkpt lat="37.301462" lon="-6.159144">
        <ele>43.89</ele>
        <time>2022-02-05T14:27:16Z</time>
      </trkpt>
      <trkpt lat="37.301627" lon="-6.158972">
        <ele>43.66</ele>
        <time>2022-02-05T14:27:20Z</time>
      </trkpt>
      <trkpt lat="37.301759" lon="-6.158811">
        <ele>43.78</ele>
        <time>2022-02-05T14:27:24Z</time>
      </trkpt>
      <trkpt lat="37.301879" lon="-6.158640">
        <ele>43.62</ele>
        <time>2022-02-05T14:27:28Z</time>
      </trkpt>
      <trkpt lat="37.302018" lon="-6.158467">
        <ele>43.15</ele>
        <time>2022-02-05T14:27:32Z</time>
      </trkpt>
      <trkpt lat="37.302157" lon="-6.158298">
        <ele>42.95</ele>
        <time>2022-02-05T14:27:36Z</time>
      </trkpt>
      <trkpt lat="37.302294" lon="-6.158149">
        <ele>43.06</ele>
        <time>2022-02-05T14:27:40Z</time>
      </trkpt>
      <trkpt lat="37.302457" lon="-6.157978">
        <ele>43.61</ele>
        <time>2022-02-05T14:27:45Z</time>
      </trkpt>
      <trkpt lat="37.302625" lon="-6.157800">
        <ele>43.72</ele>
        <time>2022-02-05T14:27:50Z</time>
      </trkpt>
      <trkpt lat="37.302777" lon="-6.157649">
        <ele>43.77</ele>
        <time>2022-02-05T14:27:54Z</time>
      </trkpt>
      <trkpt lat="37.302946" lon="-6.157491">
        <ele>43.75</ele>
        <time>2022-02-05T14:27:58Z</time>
      </trkpt>
      <trkpt lat="37.303109" lon="-6.157307">
        <ele>43.45</ele>
        <time>2022-02-05T14:28:02Z</time>
      </trkpt>
      <trkpt lat="37.303284" lon="-6.157114">
        <ele>43.93</ele>
        <time>2022-02-05T14:28:06Z</time>
      </trkpt>
      <trkpt lat="37.303480" lon="-6.156982">
        <ele>44.02</ele>
        <time>2022-02-05T14:28:10Z</time>
      </trkpt>
      <trkpt lat="37.303696" lon="-6.156860">
        <ele>43.14</ele>
        <time>2022-02-05T14:28:14Z</time>
      </trkpt>
      <trkpt lat="37.303856" lon="-6.156661">
        <ele>43.77</ele>
        <time>2022-02-05T14:28:18Z</time>
      </trkpt>
      <trkpt lat="37.304038" lon="-6.156511">
        <ele>43.88</ele>
        <time>2022-02-05T14:28:22Z</time>
      </trkpt>
      <trkpt lat="37.304206" lon="-6.156344">
        <ele>44.08</ele>
        <time>2022-02-05T14:28:26Z</time>
      </trkpt>
      <trkpt lat="37.304316" lon="-6.156129">
        <ele>43.49</ele>
        <time>2022-02-05T14:28:30Z</time>
      </trkpt>
      <trkpt lat="37.304375" lon="-6.155852">
        <ele>43.30</ele>
        <time>2022-02-05T14:28:34Z</time>
      </trkpt>
      <trkpt lat="37.304415" lon="-6.155576">
        <ele>42.61</ele>
        <time>2022-02-05T14:28:38Z</time>
      </trkpt>
      <trkpt lat="37.304407" lon="-6.155299">
        <ele>41.80</ele>
        <time>2022-02-05T14:28:42Z</time>
      </trkpt>
      <trkpt lat="37.304362" lon="-6.155048">
        <ele>41.36</ele>
        <time>2022-02-05T14:28:46Z</time>
      </trkpt>
      <trkpt lat="37.304282" lon="-6.154795">
        <ele>41.89</ele>
        <time>2022-02-05T14:28:50Z</time>
      </trkpt>
      <trkpt lat="37.304189" lon="-6.154547">
        <ele>41.87</ele>
        <time>2022-02-05T14:28:54Z</time>
      </trkpt>
      <trkpt lat="37.304123" lon="-6.154315">
        <ele>41.53</ele>
        <time>2022-02-05T14:28:58Z</time>
      </trkpt>
      <trkpt lat="37.304052" lon="-6.154101">
        <ele>40.50</ele>
        <time>2022-02-05T14:29:02Z</time>
      </trkpt>
      <trkpt lat="37.303988" lon="-6.153832">
        <ele>39.58</ele>
        <time>2022-02-05T14:29:07Z</time>
      </trkpt>
      <trkpt lat="37.303977" lon="-6.153577">
        <ele>39.50</ele>
        <time>2022-02-05T14:29:12Z</time>
      </trkpt>
      <trkpt lat="37.303818" lon="-6.153416">
        <ele>38.73</ele>
        <time>2022-02-05T14:29:17Z</time>
      </trkpt>
      <trkpt lat="37.303706" lon="-6.153312">
        <ele>39.33</ele>
        <time>2022-02-05T14:29:21.30Z</time>
      </trkpt>
      <trkpt lat="37.303679" lon="-6.153288">
        <ele>39.48</ele>
        <time>2022-02-05T14:29:22.32Z</time>
      </trkpt>
      <trkpt lat="37.303686" lon="-6.153259">
        <ele>39.49</ele>
        <time>2022-02-05T14:29:22.42Z</time>
      </trkpt>
      <trkpt lat="37.303693" lon="-6.153234">
        <ele>39.50</ele>
        <time>2022-02-05T14:29:22.50Z</time>
      </trkpt>
      <trkpt lat="37.303707" lon="-6.153176">
        <ele>39.53</ele>
        <time>2022-02-05T14:29:22.70Z</time>
      </trkpt>
      <trkpt lat="37.303709" lon="-6.153168">
        <ele>39.53</ele>
        <time>2022-02-05T14:29:22.72Z</time>
      </trkpt>
      <trkpt lat="37.303722" lon="-6.153118">
        <ele>39.56</ele>
        <time>2022-02-05T14:29:22.89Z</time>
      </trkpt>
      <trkpt lat="37.303724" lon="-6.153110">
        <ele>39.56</ele>
        <time>2022-02-05T14:29:22.92Z</time>
      </trkpt>
      <trkpt lat="37.303730" lon="-6.153087">
        <ele>39.57</ele>
        <time>2022-02-05T14:29:23Z</time>
      </trkpt>
      <trkpt lat="37.303747" lon="-6.153176">
        <ele>36.90</ele>
        <time>2022-02-05T14:30:52Z</time>
      </trkpt>
      <trkpt lat="37.303748" lon="-6.153156">
        <ele>37.27</ele>
        <time>2022-02-05T14:34:56Z</time>
      </trkpt>
      <trkpt lat="37.303731" lon="-6.153105">
        <ele>38.64</ele>
        <time>2022-02-05T14:35:45Z</time>
      </trkpt>
      <trkpt lat="37.303727" lon="-6.153072">
        <ele>37.48</ele>
        <time>2022-02-05T14:37:03Z</time>
      </trkpt>
      <trkpt lat="37.303735" lon="-6.153083">
        <ele>36.11</ele>
        <time>2022-02-05T14:37:48Z</time>
      </trkpt>
      <trkpt lat="37.303755" lon="-6.153040">
        <ele>35.14</ele>
        <time>2022-02-05T14:38:40Z</time>
      </trkpt>
      <trkpt lat="37.303789" lon="-6.152897">
        <ele>36.81</ele>
        <time>2022-02-05T14:38:53.48Z</time>
      </trkpt>
      <trkpt lat="37.303810" lon="-6.152806">
        <ele>37.87</ele>
        <time>2022-02-05T14:39:02Z</time>
      </trkpt>
      <trkpt lat="37.303877" lon="-6.152697">
        <ele>39.14</ele>
        <time>2022-02-05T14:39:18.82Z</time>
      </trkpt>
      <trkpt lat="37.303909" lon="-6.152644">
        <ele>39.76</ele>
        <time>2022-02-05T14:39:26.96Z</time>
      </trkpt>
      <trkpt lat="37.303921" lon="-6.152624">
        <ele>39.99</ele>
        <time>2022-02-05T14:39:30Z</time>
      </trkpt>
      <trkpt lat="37.303910" lon="-6.152602">
        <ele>40.05</ele>
        <time>2022-02-05T14:40:00Z</time>
      </trkpt>
      <trkpt lat="37.303915" lon="-6.152582">
        <ele>39.03</ele>
        <time>2022-02-05T14:40:31Z</time>
      </trkpt>
      <trkpt lat="37.303940" lon="-6.152353">
        <ele>38.74</ele>
        <time>2022-02-05T14:40:39Z</time>
      </trkpt>
      <trkpt lat="37.303871" lon="-6.152132">
        <ele>37.95</ele>
        <time>2022-02-05T14:40:44Z</time>
      </trkpt>
      <trkpt lat="37.303799" lon="-6.151917">
        <ele>39.03</ele>
        <time>2022-02-05T14:40:51Z</time>
      </trkpt>
      <trkpt lat="37.303771" lon="-6.151680">
        <ele>39.89</ele>
        <time>2022-02-05T14:40:58Z</time>
      </trkpt>
      <trkpt lat="37.303776" lon="-6.151449">
        <ele>40.56</ele>
        <time>2022-02-05T14:41:04Z</time>
      </trkpt>
      <trkpt lat="37.303820" lon="-6.151194">
        <ele>42.22</ele>
        <time>2022-02-05T14:41:10Z</time>
      </trkpt>
      <trkpt lat="37.303868" lon="-6.150968">
        <ele>43.02</ele>
        <time>2022-02-05T14:41:15Z</time>
      </trkpt>
      <trkpt lat="37.303931" lon="-6.150748">
        <ele>43.58</ele>
        <time>2022-02-05T14:41:20Z</time>
      </trkpt>
      <trkpt lat="37.304043" lon="-6.150531">
        <ele>44.01</ele>
        <time>2022-02-05T14:41:26Z</time>
      </trkpt>
      <trkpt lat="37.304223" lon="-6.150398">
        <ele>44.82</ele>
        <time>2022-02-05T14:41:32Z</time>
      </trkpt>
      <trkpt lat="37.304390" lon="-6.150292">
        <ele>45.05</ele>
        <time>2022-02-05T14:41:37Z</time>
      </trkpt>
      <trkpt lat="37.304552" lon="-6.150184">
        <ele>46.10</ele>
        <time>2022-02-05T14:41:42Z</time>
      </trkpt>
      <trkpt lat="37.304709" lon="-6.150064">
        <ele>46.57</ele>
        <time>2022-02-05T14:41:47Z</time>
      </trkpt>
      <trkpt lat="37.304881" lon="-6.149957">
        <ele>46.88</ele>
        <time>2022-02-05T14:41:52Z</time>
      </trkpt>
      <trkpt lat="37.305066" lon="-6.149872">
        <ele>47.05</ele>
        <time>2022-02-05T14:41:57Z</time>
      </trkpt>
      <trkpt lat="37.305253" lon="-6.149783">
        <ele>47.31</ele>
        <time>2022-02-05T14:42:02Z</time>
      </trkpt>
      <trkpt lat="37.305444" lon="-6.149686">
        <ele>47.66</ele>
        <time>2022-02-05T14:42:07Z</time>
      </trkpt>
      <trkpt lat="37.305634" lon="-6.149588">
        <ele>47.58</ele>
        <time>2022-02-05T14:42:12Z</time>
      </trkpt>
      <trkpt lat="37.305824" lon="-6.149485">
        <ele>48.02</ele>
        <time>2022-02-05T14:42:17Z</time>
      </trkpt>
      <trkpt lat="37.306009" lon="-6.149398">
        <ele>48.69</ele>
        <time>2022-02-05T14:42:22Z</time>
      </trkpt>
      <trkpt lat="37.306177" lon="-6.149313">
        <ele>49.54</ele>
        <time>2022-02-05T14:42:27Z</time>
      </trkpt>
      <trkpt lat="37.306362" lon="-6.149216">
        <ele>50.43</ele>
        <time>2022-02-05T14:42:33Z</time>
      </trkpt>
      <trkpt lat="37.306543" lon="-6.149115">
        <ele>51.42</ele>
        <time>2022-02-05T14:42:39Z</time>
      </trkpt>
      <trkpt lat="37.306713" lon="-6.148965">
        <ele>52.63</ele>
        <time>2022-02-05T14:42:46Z</time>
      </trkpt>
      <trkpt lat="37.306894" lon="-6.148872">
        <ele>53.79</ele>
        <time>2022-02-05T14:42:52Z</time>
      </trkpt>
      <trkpt lat="37.307080" lon="-6.148740">
        <ele>54.40</ele>
        <time>2022-02-05T14:42:58Z</time>
      </trkpt>
      <trkpt lat="37.307242" lon="-6.148625">
        <ele>54.29</ele>
        <time>2022-02-05T14:43:03Z</time>
      </trkpt>
      <trkpt lat="37.307409" lon="-6.148504">
        <ele>54.67</ele>
        <time>2022-02-05T14:43:08Z</time>
      </trkpt>
      <trkpt lat="37.307578" lon="-6.148346">
        <ele>54.49</ele>
        <time>2022-02-05T14:43:14Z</time>
      </trkpt>
      <trkpt lat="37.307733" lon="-6.148216">
        <ele>55.24</ele>
        <time>2022-02-05T14:43:19Z</time>
      </trkpt>
      <trkpt lat="37.307891" lon="-6.148068">
        <ele>55.29</ele>
        <time>2022-02-05T14:43:24Z</time>
      </trkpt>
      <trkpt lat="37.308053" lon="-6.147915">
        <ele>55.07</ele>
        <time>2022-02-05T14:43:29Z</time>
      </trkpt>
      <trkpt lat="37.308221" lon="-6.147737">
        <ele>54.88</ele>
        <time>2022-02-05T14:43:34Z</time>
      </trkpt>
      <trkpt lat="37.308363" lon="-6.147553">
        <ele>54.56</ele>
        <time>2022-02-05T14:43:39Z</time>
      </trkpt>
      <trkpt lat="37.308492" lon="-6.147365">
        <ele>54.75</ele>
        <time>2022-02-05T14:43:44Z</time>
      </trkpt>
      <trkpt lat="37.308615" lon="-6.147179">
        <ele>54.97</ele>
        <time>2022-02-05T14:43:49Z</time>
      </trkpt>
      <trkpt lat="37.308732" lon="-6.146992">
        <ele>54.79</ele>
        <time>2022-02-05T14:43:54Z</time>
      </trkpt>
      <trkpt lat="37.308853" lon="-6.146824">
        <ele>54.47</ele>
        <time>2022-02-05T14:43:58Z</time>
      </trkpt>
      <trkpt lat="37.308981" lon="-6.146639">
        <ele>53.93</ele>
        <time>2022-02-05T14:44:02Z</time>
      </trkpt>
      <trkpt lat="37.309106" lon="-6.146440">
        <ele>53.73</ele>
        <time>2022-02-05T14:44:06Z</time>
      </trkpt>
      <trkpt lat="37.309231" lon="-6.146235">
        <ele>53.74</ele>
        <time>2022-02-05T14:44:10Z</time>
      </trkpt>
      <trkpt lat="37.309346" lon="-6.146032">
        <ele>53.04</ele>
        <time>2022-02-05T14:44:14Z</time>
      </trkpt>
      <trkpt lat="37.309446" lon="-6.145816">
        <ele>52.73</ele>
        <time>2022-02-05T14:44:18Z</time>
      </trkpt>
      <trkpt lat="37.309543" lon="-6.145578">
        <ele>53.05</ele>
        <time>2022-02-05T14:44:22Z</time>
      </trkpt>
      <trkpt lat="37.309667" lon="-6.145369">
        <ele>53.68</ele>
        <time>2022-02-05T14:44:26Z</time>
      </trkpt>
      <trkpt lat="37.309792" lon="-6.145167">
        <ele>53.68</ele>
        <time>2022-02-05T14:44:30Z</time>
      </trkpt>
      <trkpt lat="37.309916" lon="-6.144966">
        <ele>54.34</ele>
        <time>2022-02-05T14:44:34Z</time>
      </trkpt>
      <trkpt lat="37.310028" lon="-6.144764">
        <ele>55.47</ele>
        <time>2022-02-05T14:44:38Z</time>
      </trkpt>
      <trkpt lat="37.310130" lon="-6.144558">
        <ele>56.55</ele>
        <time>2022-02-05T14:44:42Z</time>
      </trkpt>
      <trkpt lat="37.310224" lon="-6.144315">
        <ele>57.81</ele>
        <time>2022-02-05T14:44:47Z</time>
      </trkpt>
      <trkpt lat="37.310287" lon="-6.144063">
        <ele>57.27</ele>
        <time>2022-02-05T14:44:52Z</time>
      </trkpt>
      <trkpt lat="37.310345" lon="-6.143832">
        <ele>56.92</ele>
        <time>2022-02-05T14:44:56Z</time>
      </trkpt>
      <trkpt lat="37.310423" lon="-6.143615">
        <ele>56.87</ele>
        <time>2022-02-05T14:45:00Z</time>
      </trkpt>
      <trkpt lat="37.310527" lon="-6.143395">
        <ele>57.41</ele>
        <time>2022-02-05T14:45:04Z</time>
      </trkpt>
      <trkpt lat="37.310641" lon="-6.143200">
        <ele>57.79</ele>
        <time>2022-02-05T14:45:08Z</time>
      </trkpt>
      <trkpt lat="37.310749" lon="-6.143015">
        <ele>57.85</ele>
        <time>2022-02-05T14:45:12Z</time>
      </trkpt>
      <trkpt lat="37.310857" lon="-6.142809">
        <ele>58.38</ele>
        <time>2022-02-05T14:45:16Z</time>
      </trkpt>
      <trkpt lat="37.310959" lon="-6.142600">
        <ele>58.00</ele>
        <time>2022-02-05T14:45:20Z</time>
      </trkpt>
      <trkpt lat="37.311067" lon="-6.142386">
        <ele>58.11</ele>
        <time>2022-02-05T14:45:24Z</time>
      </trkpt>
      <trkpt lat="37.311175" lon="-6.142177">
        <ele>58.16</ele>
        <time>2022-02-05T14:45:28Z</time>
      </trkpt>
      <trkpt lat="37.311302" lon="-6.141953">
        <ele>57.74</ele>
        <time>2022-02-05T14:45:32Z</time>
      </trkpt>
      <trkpt lat="37.311433" lon="-6.141729">
        <ele>57.67</ele>
        <time>2022-02-05T14:45:36Z</time>
      </trkpt>
      <trkpt lat="37.311542" lon="-6.141505">
        <ele>57.16</ele>
        <time>2022-02-05T14:45:40Z</time>
      </trkpt>
      <trkpt lat="37.311650" lon="-6.141288">
        <ele>56.60</ele>
        <time>2022-02-05T14:45:44Z</time>
      </trkpt>
      <trkpt lat="37.311756" lon="-6.141058">
        <ele>56.49</ele>
        <time>2022-02-05T14:45:48Z</time>
      </trkpt>
      <trkpt lat="37.311887" lon="-6.140834">
        <ele>55.88</ele>
        <time>2022-02-05T14:45:52Z</time>
      </trkpt>
      <trkpt lat="37.312033" lon="-6.140619">
        <ele>55.91</ele>
        <time>2022-02-05T14:45:56Z</time>
      </trkpt>
      <trkpt lat="37.312185" lon="-6.140414">
        <ele>56.08</ele>
        <time>2022-02-05T14:46:00Z</time>
      </trkpt>
      <trkpt lat="37.312351" lon="-6.140226">
        <ele>56.24</ele>
        <time>2022-02-05T14:46:04Z</time>
      </trkpt>
      <trkpt lat="37.312514" lon="-6.140055">
        <ele>56.17</ele>
        <time>2022-02-05T14:46:08Z</time>
      </trkpt>
      <trkpt lat="37.312675" lon="-6.139878">
        <ele>56.24</ele>
        <time>2022-02-05T14:46:12Z</time>
      </trkpt>
      <trkpt lat="37.312844" lon="-6.139704">
        <ele>56.24</ele>
        <time>2022-02-05T14:46:16Z</time>
      </trkpt>
      <trkpt lat="37.312998" lon="-6.139536">
        <ele>56.23</ele>
        <time>2022-02-05T14:46:20Z</time>
      </trkpt>
      <trkpt lat="37.313147" lon="-6.139375">
        <ele>56.77</ele>
        <time>2022-02-05T14:46:24Z</time>
      </trkpt>
      <trkpt lat="37.313291" lon="-6.139221">
        <ele>57.31</ele>
        <time>2022-02-05T14:46:28Z</time>
      </trkpt>
      <trkpt lat="37.313432" lon="-6.139064">
        <ele>57.58</ele>
        <time>2022-02-05T14:46:32Z</time>
      </trkpt>
      <trkpt lat="37.313592" lon="-6.138878">
        <ele>57.62</ele>
        <time>2022-02-05T14:46:37Z</time>
      </trkpt>
      <trkpt lat="37.313750" lon="-6.138705">
        <ele>58.19</ele>
        <time>2022-02-05T14:46:42Z</time>
      </trkpt>
      <trkpt lat="37.313907" lon="-6.138535">
        <ele>58.79</ele>
        <time>2022-02-05T14:46:47Z</time>
      </trkpt>
      <trkpt lat="37.314055" lon="-6.138340">
        <ele>59.29</ele>
        <time>2022-02-05T14:46:52Z</time>
      </trkpt>
      <trkpt lat="37.314174" lon="-6.138156">
        <ele>59.38</ele>
        <time>2022-02-05T14:46:56Z</time>
      </trkpt>
      <trkpt lat="37.314294" lon="-6.137983">
        <ele>59.62</ele>
        <time>2022-02-05T14:47:00Z</time>
      </trkpt>
      <trkpt lat="37.314441" lon="-6.137778">
        <ele>60.11</ele>
        <time>2022-02-05T14:47:05Z</time>
      </trkpt>
      <trkpt lat="37.314584" lon="-6.137593">
        <ele>61.61</ele>
        <time>2022-02-05T14:47:10Z</time>
      </trkpt>
      <trkpt lat="37.314700" lon="-6.137380">
        <ele>62.12</ele>
        <time>2022-02-05T14:47:15Z</time>
      </trkpt>
      <trkpt lat="37.314848" lon="-6.137177">
        <ele>62.60</ele>
        <time>2022-02-05T14:47:20Z</time>
      </trkpt>
      <trkpt lat="37.314976" lon="-6.137017">
        <ele>62.19</ele>
        <time>2022-02-05T14:47:24Z</time>
      </trkpt>
      <trkpt lat="37.315108" lon="-6.136848">
        <ele>61.86</ele>
        <time>2022-02-05T14:47:28Z</time>
      </trkpt>
      <trkpt lat="37.315248" lon="-6.136672">
        <ele>61.60</ele>
        <time>2022-02-05T14:47:32Z</time>
      </trkpt>
      <trkpt lat="37.315417" lon="-6.136508">
        <ele>61.56</ele>
        <time>2022-02-05T14:47:36Z</time>
      </trkpt>
      <trkpt lat="37.315588" lon="-6.136353">
        <ele>60.82</ele>
        <time>2022-02-05T14:47:40Z</time>
      </trkpt>
      <trkpt lat="37.315741" lon="-6.136201">
        <ele>60.52</ele>
        <time>2022-02-05T14:47:44Z</time>
      </trkpt>
      <trkpt lat="37.315881" lon="-6.136040">
        <ele>60.47</ele>
        <time>2022-02-05T14:47:48Z</time>
      </trkpt>
      <trkpt lat="37.316021" lon="-6.135879">
        <ele>59.78</ele>
        <time>2022-02-05T14:47:52Z</time>
      </trkpt>
      <trkpt lat="37.316144" lon="-6.135698">
        <ele>60.03</ele>
        <time>2022-02-05T14:47:56Z</time>
      </trkpt>
      <trkpt lat="37.316270" lon="-6.135515">
        <ele>60.16</ele>
        <time>2022-02-05T14:48:00Z</time>
      </trkpt>
      <trkpt lat="37.316393" lon="-6.135325">
        <ele>60.51</ele>
        <time>2022-02-05T14:48:04Z</time>
      </trkpt>
      <trkpt lat="37.316520" lon="-6.135151">
        <ele>60.63</ele>
        <time>2022-02-05T14:48:08Z</time>
      </trkpt>
      <trkpt lat="37.316670" lon="-6.134988">
        <ele>61.23</ele>
        <time>2022-02-05T14:48:12Z</time>
      </trkpt>
      <trkpt lat="37.316831" lon="-6.134833">
        <ele>61.64</ele>
        <time>2022-02-05T14:48:16Z</time>
      </trkpt>
      <trkpt lat="37.316996" lon="-6.134718">
        <ele>62.09</ele>
        <time>2022-02-05T14:48:20Z</time>
      </trkpt>
      <trkpt lat="37.317155" lon="-6.134608">
        <ele>63.18</ele>
        <time>2022-02-05T14:48:24Z</time>
      </trkpt>
      <trkpt lat="37.317357" lon="-6.134515">
        <ele>64.27</ele>
        <time>2022-02-05T14:48:29Z</time>
      </trkpt>
      <trkpt lat="37.317561" lon="-6.134415">
        <ele>65.06</ele>
        <time>2022-02-05T14:48:34Z</time>
      </trkpt>
      <trkpt lat="37.317726" lon="-6.134306">
        <ele>65.10</ele>
        <time>2022-02-05T14:48:38Z</time>
      </trkpt>
      <trkpt lat="37.317886" lon="-6.134175">
        <ele>64.88</ele>
        <time>2022-02-05T14:48:42Z</time>
      </trkpt>
      <trkpt lat="37.318035" lon="-6.134029">
        <ele>64.57</ele>
        <time>2022-02-05T14:48:46Z</time>
      </trkpt>
      <trkpt lat="37.318171" lon="-6.133880">
        <ele>65.23</ele>
        <time>2022-02-05T14:48:50Z</time>
      </trkpt>
      <trkpt lat="37.318282" lon="-6.133702">
        <ele>65.38</ele>
        <time>2022-02-05T14:48:54Z</time>
      </trkpt>
      <trkpt lat="37.318400" lon="-6.133522">
        <ele>65.38</ele>
        <time>2022-02-05T14:48:58Z</time>
      </trkpt>
      <trkpt lat="37.318548" lon="-6.133376">
        <ele>65.78</ele>
        <time>2022-02-05T14:49:02Z</time>
      </trkpt>
      <trkpt lat="37.318728" lon="-6.133224">
        <ele>65.30</ele>
        <time>2022-02-05T14:49:07Z</time>
      </trkpt>
      <trkpt lat="37.318917" lon="-6.133090">
        <ele>65.02</ele>
        <time>2022-02-05T14:49:12Z</time>
      </trkpt>
      <trkpt lat="37.319108" lon="-6.132972">
        <ele>65.46</ele>
        <time>2022-02-05T14:49:17Z</time>
      </trkpt>
      <trkpt lat="37.319275" lon="-6.132865">
        <ele>65.36</ele>
        <time>2022-02-05T14:49:21Z</time>
      </trkpt>
      <trkpt lat="37.319439" lon="-6.132772">
        <ele>65.56</ele>
        <time>2022-02-05T14:49:25Z</time>
      </trkpt>
      <trkpt lat="37.319622" lon="-6.132705">
        <ele>65.51</ele>
        <time>2022-02-05T14:49:29Z</time>
      </trkpt>
      <trkpt lat="37.319801" lon="-6.132633">
        <ele>65.27</ele>
        <time>2022-02-05T14:49:33Z</time>
      </trkpt>
      <trkpt lat="37.319970" lon="-6.132508">
        <ele>65.65</ele>
        <time>2022-02-05T14:49:37Z</time>
      </trkpt>
      <trkpt lat="37.320110" lon="-6.132339">
        <ele>65.69</ele>
        <time>2022-02-05T14:49:41Z</time>
      </trkpt>
      <trkpt lat="37.320231" lon="-6.132156">
        <ele>65.45</ele>
        <time>2022-02-05T14:49:45Z</time>
      </trkpt>
      <trkpt lat="37.320340" lon="-6.131946">
        <ele>65.47</ele>
        <time>2022-02-05T14:49:49Z</time>
      </trkpt>
      <trkpt lat="37.320439" lon="-6.131700">
        <ele>64.76</ele>
        <time>2022-02-05T14:49:53Z</time>
      </trkpt>
      <trkpt lat="37.320569" lon="-6.131473">
        <ele>64.12</ele>
        <time>2022-02-05T14:49:57Z</time>
      </trkpt>
      <trkpt lat="37.320674" lon="-6.131221">
        <ele>63.61</ele>
        <time>2022-02-05T14:50:01Z</time>
      </trkpt>
      <trkpt lat="37.320779" lon="-6.130976">
        <ele>63.82</ele>
        <time>2022-02-05T14:50:05Z</time>
      </trkpt>
      <trkpt lat="37.320882" lon="-6.130745">
        <ele>63.94</ele>
        <time>2022-02-05T14:50:09Z</time>
      </trkpt>
      <trkpt lat="37.320976" lon="-6.130519">
        <ele>63.14</ele>
        <time>2022-02-05T14:50:13Z</time>
      </trkpt>
      <trkpt lat="37.321093" lon="-6.130286">
        <ele>62.16</ele>
        <time>2022-02-05T14:50:17Z</time>
      </trkpt>
      <trkpt lat="37.321230" lon="-6.130044">
        <ele>61.98</ele>
        <time>2022-02-05T14:50:21Z</time>
      </trkpt>
      <trkpt lat="37.321368" lon="-6.129821">
        <ele>61.60</ele>
        <time>2022-02-05T14:50:25Z</time>
      </trkpt>
      <trkpt lat="37.321498" lon="-6.129600">
        <ele>61.08</ele>
        <time>2022-02-05T14:50:29Z</time>
      </trkpt>
      <trkpt lat="37.321599" lon="-6.129385">
        <ele>60.69</ele>
        <time>2022-02-05T14:50:33Z</time>
      </trkpt>
      <trkpt lat="37.321703" lon="-6.129192">
        <ele>60.52</ele>
        <time>2022-02-05T14:50:37Z</time>
      </trkpt>
      <trkpt lat="37.321829" lon="-6.128995">
        <ele>60.38</ele>
        <time>2022-02-05T14:50:41Z</time>
      </trkpt>
      <trkpt lat="37.321949" lon="-6.128802">
        <ele>60.65</ele>
        <time>2022-02-05T14:50:45Z</time>
      </trkpt>
      <trkpt lat="37.322083" lon="-6.128585">
        <ele>60.19</ele>
        <time>2022-02-05T14:50:50Z</time>
      </trkpt>
      <trkpt lat="37.322191" lon="-6.128395">
        <ele>60.59</ele>
        <time>2022-02-05T14:50:54Z</time>
      </trkpt>
      <trkpt lat="37.322289" lon="-6.128186">
        <ele>61.04</ele>
        <time>2022-02-05T14:50:58Z</time>
      </trkpt>
      <trkpt lat="37.322375" lon="-6.127981">
        <ele>61.11</ele>
        <time>2022-02-05T14:51:02Z</time>
      </trkpt>
      <trkpt lat="37.322472" lon="-6.127776">
        <ele>61.43</ele>
        <time>2022-02-05T14:51:06Z</time>
      </trkpt>
      <trkpt lat="37.322578" lon="-6.127570">
        <ele>61.64</ele>
        <time>2022-02-05T14:51:10Z</time>
      </trkpt>
      <trkpt lat="37.322693" lon="-6.127380">
        <ele>61.20</ele>
        <time>2022-02-05T14:51:15Z</time>
      </trkpt>
      <trkpt lat="37.322817" lon="-6.127198">
        <ele>60.95</ele>
        <time>2022-02-05T14:51:20Z</time>
      </trkpt>
      <trkpt lat="37.322939" lon="-6.126991">
        <ele>60.36</ele>
        <time>2022-02-05T14:51:26Z</time>
      </trkpt>
      <trkpt lat="37.323058" lon="-6.126816">
        <ele>60.38</ele>
        <time>2022-02-05T14:51:33Z</time>
      </trkpt>
      <trkpt lat="37.323134" lon="-6.126727">
        <ele>60.22</ele>
        <time>2022-02-05T14:52:50Z</time>
      </trkpt>
      <trkpt lat="37.323264" lon="-6.126519">
        <ele>59.96</ele>
        <time>2022-02-05T14:52:58Z</time>
      </trkpt>
      <trkpt lat="37.323372" lon="-6.126300">
        <ele>60.18</ele>
        <time>2022-02-05T14:53:03Z</time>
      </trkpt>
      <trkpt lat="37.323450" lon="-6.126095">
        <ele>60.73</ele>
        <time>2022-02-05T14:53:07Z</time>
      </trkpt>
      <trkpt lat="37.323538" lon="-6.125877">
        <ele>60.90</ele>
        <time>2022-02-05T14:53:11Z</time>
      </trkpt>
      <trkpt lat="37.323629" lon="-6.125660">
        <ele>61.11</ele>
        <time>2022-02-05T14:53:15Z</time>
      </trkpt>
      <trkpt lat="37.323711" lon="-6.125436">
        <ele>60.99</ele>
        <time>2022-02-05T14:53:19Z</time>
      </trkpt>
      <trkpt lat="37.323766" lon="-6.125207">
        <ele>60.05</ele>
        <time>2022-02-05T14:53:23Z</time>
      </trkpt>
      <trkpt lat="37.323819" lon="-6.124989">
        <ele>59.98</ele>
        <time>2022-02-05T14:53:27Z</time>
      </trkpt>
      <trkpt lat="37.323881" lon="-6.124734">
        <ele>59.17</ele>
        <time>2022-02-05T14:53:32Z</time>
      </trkpt>
      <trkpt lat="37.323932" lon="-6.124500">
        <ele>58.88</ele>
        <time>2022-02-05T14:53:36Z</time>
      </trkpt>
      <trkpt lat="37.323979" lon="-6.124256">
        <ele>59.22</ele>
        <time>2022-02-05T14:53:40Z</time>
      </trkpt>
      <trkpt lat="37.324036" lon="-6.124023">
        <ele>60.13</ele>
        <time>2022-02-05T14:53:44Z</time>
      </trkpt>
      <trkpt lat="37.324099" lon="-6.123788">
        <ele>60.87</ele>
        <time>2022-02-05T14:53:48Z</time>
      </trkpt>
      <trkpt lat="37.324166" lon="-6.123559">
        <ele>61.10</ele>
        <time>2022-02-05T14:53:52Z</time>
      </trkpt>
      <trkpt lat="37.324237" lon="-6.123336">
        <ele>61.10</ele>
        <time>2022-02-05T14:53:56Z</time>
      </trkpt>
      <trkpt lat="37.324305" lon="-6.123126">
        <ele>61.45</ele>
        <time>2022-02-05T14:54:00Z</time>
      </trkpt>
      <trkpt lat="37.324388" lon="-6.122878">
        <ele>61.76</ele>
        <time>2022-02-05T14:54:05Z</time>
      </trkpt>
      <trkpt lat="37.324423" lon="-6.122654">
        <ele>61.15</ele>
        <time>2022-02-05T14:54:09Z</time>
      </trkpt>
      <trkpt lat="37.324483" lon="-6.122429">
        <ele>60.71</ele>
        <time>2022-02-05T14:54:13Z</time>
      </trkpt>
      <trkpt lat="37.324543" lon="-6.122159">
        <ele>60.54</ele>
        <time>2022-02-05T14:54:18Z</time>
      </trkpt>
      <trkpt lat="37.324593" lon="-6.121932">
        <ele>60.82</ele>
        <time>2022-02-05T14:54:22Z</time>
      </trkpt>
      <trkpt lat="37.324646" lon="-6.121696">
        <ele>60.36</ele>
        <time>2022-02-05T14:54:26Z</time>
      </trkpt>
      <trkpt lat="37.324704" lon="-6.121466">
        <ele>60.58</ele>
        <time>2022-02-05T14:54:30Z</time>
      </trkpt>
      <trkpt lat="37.324795" lon="-6.121222">
        <ele>60.76</ele>
        <time>2022-02-05T14:54:34Z</time>
      </trkpt>
      <trkpt lat="37.324885" lon="-6.120947">
        <ele>59.24</ele>
        <time>2022-02-05T14:54:38Z</time>
      </trkpt>
      <trkpt lat="37.324953" lon="-6.120721">
        <ele>58.32</ele>
        <time>2022-02-05T14:54:41Z</time>
      </trkpt>
      <trkpt lat="37.325018" lon="-6.120500">
        <ele>57.50</ele>
        <time>2022-02-05T14:54:44Z</time>
      </trkpt>
      <trkpt lat="37.325080" lon="-6.120284">
        <ele>57.20</ele>
        <time>2022-02-05T14:54:47Z</time>
      </trkpt>
      <trkpt lat="37.325151" lon="-6.120008">
        <ele>56.56</ele>
        <time>2022-02-05T14:54:51Z</time>
      </trkpt>
      <trkpt lat="37.325226" lon="-6.119759">
        <ele>56.31</ele>
        <time>2022-02-05T14:54:55Z</time>
      </trkpt>
      <trkpt lat="37.325359" lon="-6.119577">
        <ele>56.26</ele>
        <time>2022-02-05T14:54:59Z</time>
      </trkpt>
      <trkpt lat="37.325461" lon="-6.119377">
        <ele>56.64</ele>
        <time>2022-02-05T14:55:03Z</time>
      </trkpt>
      <trkpt lat="37.325540" lon="-6.119152">
        <ele>56.91</ele>
        <time>2022-02-05T14:55:07Z</time>
      </trkpt>
      <trkpt lat="37.325632" lon="-6.118947">
        <ele>57.24</ele>
        <time>2022-02-05T14:55:11Z</time>
      </trkpt>
      <trkpt lat="37.325754" lon="-6.118726">
        <ele>58.14</ele>
        <time>2022-02-05T14:55:16Z</time>
      </trkpt>
      <trkpt lat="37.325873" lon="-6.118501">
        <ele>58.53</ele>
        <time>2022-02-05T14:55:21Z</time>
      </trkpt>
      <trkpt lat="37.326002" lon="-6.118294">
        <ele>60.12</ele>
        <time>2022-02-05T14:55:26Z</time>
      </trkpt>
      <trkpt lat="37.326120" lon="-6.118108">
        <ele>61.09</ele>
        <time>2022-02-05T14:55:31Z</time>
      </trkpt>
      <trkpt lat="37.326248" lon="-6.117919">
        <ele>61.72</ele>
        <time>2022-02-05T14:55:36Z</time>
      </trkpt>
      <trkpt lat="37.326384" lon="-6.117734">
        <ele>61.74</ele>
        <time>2022-02-05T14:55:41Z</time>
      </trkpt>
      <trkpt lat="37.326534" lon="-6.117545">
        <ele>61.38</ele>
        <time>2022-02-05T14:55:46Z</time>
      </trkpt>
      <trkpt lat="37.326673" lon="-6.117337">
        <ele>62.03</ele>
        <time>2022-02-05T14:55:51Z</time>
      </trkpt>
      <trkpt lat="37.326794" lon="-6.117108">
        <ele>61.85</ele>
        <time>2022-02-05T14:55:56Z</time>
      </trkpt>
      <trkpt lat="37.326937" lon="-6.116904">
        <ele>62.29</ele>
        <time>2022-02-05T14:56:01Z</time>
      </trkpt>
      <trkpt lat="37.327088" lon="-6.116700">
        <ele>62.34</ele>
        <time>2022-02-05T14:56:06Z</time>
      </trkpt>
      <trkpt lat="37.327221" lon="-6.116537">
        <ele>62.19</ele>
        <time>2022-02-05T14:56:10Z</time>
      </trkpt>
      <trkpt lat="37.327378" lon="-6.116350">
        <ele>62.77</ele>
        <time>2022-02-05T14:56:15Z</time>
      </trkpt>
      <trkpt lat="37.327540" lon="-6.116165">
        <ele>62.88</ele>
        <time>2022-02-05T14:56:20Z</time>
      </trkpt>
      <trkpt lat="37.327699" lon="-6.115968">
        <ele>63.27</ele>
        <time>2022-02-05T14:56:25Z</time>
      </trkpt>
      <trkpt lat="37.327842" lon="-6.115763">
        <ele>63.04</ele>
        <time>2022-02-05T14:56:30Z</time>
      </trkpt>
      <trkpt lat="37.327988" lon="-6.115625">
        <ele>62.63</ele>
        <time>2022-02-05T14:56:34Z</time>
      </trkpt>
      <trkpt lat="37.328126" lon="-6.115455">
        <ele>62.04</ele>
        <time>2022-02-05T14:56:38Z</time>
      </trkpt>
      <trkpt lat="37.328259" lon="-6.115264">
        <ele>61.59</ele>
        <time>2022-02-05T14:56:42Z</time>
      </trkpt>
      <trkpt lat="37.328401" lon="-6.115076">
        <ele>61.99</ele>
        <time>2022-02-05T14:56:46Z</time>
      </trkpt>
      <trkpt lat="37.328529" lon="-6.114897">
        <ele>61.84</ele>
        <time>2022-02-05T14:56:50Z</time>
      </trkpt>
      <trkpt lat="37.328685" lon="-6.114736">
        <ele>62.25</ele>
        <time>2022-02-05T14:56:54Z</time>
      </trkpt>
      <trkpt lat="37.328818" lon="-6.114563">
        <ele>62.18</ele>
        <time>2022-02-05T14:56:58Z</time>
      </trkpt>
      <trkpt lat="37.328949" lon="-6.114383">
        <ele>62.42</ele>
        <time>2022-02-05T14:57:02Z</time>
      </trkpt>
      <trkpt lat="37.329082" lon="-6.114190">
        <ele>63.11</ele>
        <time>2022-02-05T14:57:06Z</time>
      </trkpt>
      <trkpt lat="37.329209" lon="-6.114011">
        <ele>63.68</ele>
        <time>2022-02-05T14:57:10Z</time>
      </trkpt>
      <trkpt lat="37.329344" lon="-6.113851">
        <ele>63.71</ele>
        <time>2022-02-05T14:57:14Z</time>
      </trkpt>
      <trkpt lat="37.329476" lon="-6.113693">
        <ele>64.32</ele>
        <time>2022-02-05T14:57:18Z</time>
      </trkpt>
      <trkpt lat="37.329626" lon="-6.113511">
        <ele>64.80</ele>
        <time>2022-02-05T14:57:23Z</time>
      </trkpt>
      <trkpt lat="37.329765" lon="-6.113334">
        <ele>65.06</ele>
        <time>2022-02-05T14:57:28Z</time>
      </trkpt>
      <trkpt lat="37.329898" lon="-6.113165">
        <ele>65.87</ele>
        <time>2022-02-05T14:57:33Z</time>
      </trkpt>
      <trkpt lat="37.330034" lon="-6.113007">
        <ele>67.15</ele>
        <time>2022-02-05T14:57:38Z</time>
      </trkpt>
      <trkpt lat="37.330143" lon="-6.112824">
        <ele>67.24</ele>
        <time>2022-02-05T14:57:43Z</time>
      </trkpt>
      <trkpt lat="37.330270" lon="-6.112610">
        <ele>67.40</ele>
        <time>2022-02-05T14:57:49Z</time>
      </trkpt>
      <trkpt lat="37.330411" lon="-6.112458">
        <ele>68.12</ele>
        <time>2022-02-05T14:57:54Z</time>
      </trkpt>
      <trkpt lat="37.330559" lon="-6.112317">
        <ele>68.70</ele>
        <time>2022-02-05T14:57:59Z</time>
      </trkpt>
      <trkpt lat="37.330699" lon="-6.112158">
        <ele>68.95</ele>
        <time>2022-02-05T14:58:04Z</time>
      </trkpt>
      <trkpt lat="37.330864" lon="-6.112035">
        <ele>69.08</ele>
        <time>2022-02-05T14:58:09Z</time>
      </trkpt>
      <trkpt lat="37.331035" lon="-6.111896">
        <ele>69.16</ele>
        <time>2022-02-05T14:58:14Z</time>
      </trkpt>
      <trkpt lat="37.331198" lon="-6.111757">
        <ele>70.04</ele>
        <time>2022-02-05T14:58:19Z</time>
      </trkpt>
      <trkpt lat="37.331349" lon="-6.111623">
        <ele>69.39</ele>
        <time>2022-02-05T14:58:24Z</time>
      </trkpt>
      <trkpt lat="37.331522" lon="-6.111478">
        <ele>71.17</ele>
        <time>2022-02-05T14:58:31Z</time>
      </trkpt>
      <trkpt lat="37.331682" lon="-6.111322">
        <ele>71.57</ele>
        <time>2022-02-05T14:58:37Z</time>
      </trkpt>
      <trkpt lat="37.331877" lon="-6.111208">
        <ele>70.57</ele>
        <time>2022-02-05T14:58:43Z</time>
      </trkpt>
      <trkpt lat="37.332074" lon="-6.111100">
        <ele>69.62</ele>
        <time>2022-02-05T14:58:48Z</time>
      </trkpt>
      <trkpt lat="37.332275" lon="-6.111060">
        <ele>68.95</ele>
        <time>2022-02-05T14:58:52Z</time>
      </trkpt>
      <trkpt lat="37.332486" lon="-6.111041">
        <ele>68.45</ele>
        <time>2022-02-05T14:58:56Z</time>
      </trkpt>
      <trkpt lat="37.332685" lon="-6.111032">
        <ele>68.56</ele>
        <time>2022-02-05T14:59:00Z</time>
      </trkpt>
      <trkpt lat="37.332868" lon="-6.111013">
        <ele>68.64</ele>
        <time>2022-02-05T14:59:04Z</time>
      </trkpt>
      <trkpt lat="37.333086" lon="-6.110967">
        <ele>69.21</ele>
        <time>2022-02-05T14:59:09Z</time>
      </trkpt>
      <trkpt lat="37.333283" lon="-6.110912">
        <ele>69.28</ele>
        <time>2022-02-05T14:59:14Z</time>
      </trkpt>
      <trkpt lat="37.333480" lon="-6.110848">
        <ele>70.43</ele>
        <time>2022-02-05T14:59:20Z</time>
      </trkpt>
      <trkpt lat="37.333679" lon="-6.110768">
        <ele>72.33</ele>
        <time>2022-02-05T14:59:27Z</time>
      </trkpt>
      <trkpt lat="37.333830" lon="-6.110626">
        <ele>73.21</ele>
        <time>2022-02-05T14:59:34Z</time>
      </trkpt>
      <trkpt lat="37.333901" lon="-6.110399">
        <ele>74.61</ele>
        <time>2022-02-05T14:59:42Z</time>
      </trkpt>
      <trkpt lat="37.333931" lon="-6.110146">
        <ele>75.62</ele>
        <time>2022-02-05T14:59:50Z</time>
      </trkpt>
      <trkpt lat="37.333958" lon="-6.109921">
        <ele>76.01</ele>
        <time>2022-02-05T14:59:57Z</time>
      </trkpt>
      <trkpt lat="37.333966" lon="-6.109678">
        <ele>77.33</ele>
        <time>2022-02-05T15:00:04Z</time>
      </trkpt>
      <trkpt lat="37.333990" lon="-6.109441">
        <ele>76.95</ele>
        <time>2022-02-05T15:00:11Z</time>
      </trkpt>
      <trkpt lat="37.334021" lon="-6.109184">
        <ele>76.19</ele>
        <time>2022-02-05T15:00:18Z</time>
      </trkpt>
      <trkpt lat="37.334043" lon="-6.108910">
        <ele>75.96</ele>
        <time>2022-02-05T15:00:24Z</time>
      </trkpt>
      <trkpt lat="37.334132" lon="-6.108701">
        <ele>75.76</ele>
        <time>2022-02-05T15:00:28Z</time>
      </trkpt>
      <trkpt lat="37.334259" lon="-6.108487">
        <ele>74.69</ele>
        <time>2022-02-05T15:00:32Z</time>
      </trkpt>
      <trkpt lat="37.334460" lon="-6.108319">
        <ele>72.17</ele>
        <time>2022-02-05T15:00:36Z</time>
      </trkpt>
      <trkpt lat="37.334663" lon="-6.108228">
        <ele>70.81</ele>
        <time>2022-02-05T15:00:39Z</time>
      </trkpt>
      <trkpt lat="37.334876" lon="-6.108156">
        <ele>70.37</ele>
        <time>2022-02-05T15:00:42Z</time>
      </trkpt>
      <trkpt lat="37.335087" lon="-6.108086">
        <ele>69.50</ele>
        <time>2022-02-05T15:00:45Z</time>
      </trkpt>
      <trkpt lat="37.335306" lon="-6.108005">
        <ele>68.39</ele>
        <time>2022-02-05T15:00:48Z</time>
      </trkpt>
      <trkpt lat="37.335536" lon="-6.107922">
        <ele>67.98</ele>
        <time>2022-02-05T15:00:51Z</time>
      </trkpt>
      <trkpt lat="37.335753" lon="-6.107819">
        <ele>67.73</ele>
        <time>2022-02-05T15:00:54Z</time>
      </trkpt>
      <trkpt lat="37.335941" lon="-6.107665">
        <ele>66.81</ele>
        <time>2022-02-05T15:00:57Z</time>
      </trkpt>
      <trkpt lat="37.336082" lon="-6.107489">
        <ele>66.71</ele>
        <time>2022-02-05T15:01:00Z</time>
      </trkpt>
      <trkpt lat="37.336187" lon="-6.107290">
        <ele>66.43</ele>
        <time>2022-02-05T15:01:03Z</time>
      </trkpt>
      <trkpt lat="37.336265" lon="-6.107071">
        <ele>65.83</ele>
        <time>2022-02-05T15:01:06Z</time>
      </trkpt>
      <trkpt lat="37.336339" lon="-6.106860">
        <ele>65.54</ele>
        <time>2022-02-05T15:01:09Z</time>
      </trkpt>
      <trkpt lat="37.336415" lon="-6.106652">
        <ele>64.49</ele>
        <time>2022-02-05T15:01:12Z</time>
      </trkpt>
      <trkpt lat="37.336502" lon="-6.106444">
        <ele>63.75</ele>
        <time>2022-02-05T15:01:15Z</time>
      </trkpt>
      <trkpt lat="37.336608" lon="-6.106182">
        <ele>63.17</ele>
        <time>2022-02-05T15:01:19Z</time>
      </trkpt>
      <trkpt lat="37.336697" lon="-6.105941">
        <ele>63.03</ele>
        <time>2022-02-05T15:01:23Z</time>
      </trkpt>
      <trkpt lat="37.336793" lon="-6.105715">
        <ele>62.79</ele>
        <time>2022-02-05T15:01:27Z</time>
      </trkpt>
      <trkpt lat="37.336926" lon="-6.105490">
        <ele>62.25</ele>
        <time>2022-02-05T15:01:32Z</time>
      </trkpt>
      <trkpt lat="37.337103" lon="-6.105349">
        <ele>61.85</ele>
        <time>2022-02-05T15:01:37Z</time>
      </trkpt>
      <trkpt lat="37.337217" lon="-6.105160">
        <ele>62.49</ele>
        <time>2022-02-05T15:01:42Z</time>
      </trkpt>
      <trkpt lat="37.337303" lon="-6.104951">
        <ele>63.06</ele>
        <time>2022-02-05T15:01:46Z</time>
      </trkpt>
      <trkpt lat="37.337395" lon="-6.104722">
        <ele>63.62</ele>
        <time>2022-02-05T15:01:50Z</time>
      </trkpt>
      <trkpt lat="37.337480" lon="-6.104481">
        <ele>63.81</ele>
        <time>2022-02-05T15:01:54Z</time>
      </trkpt>
      <trkpt lat="37.337578" lon="-6.104235">
        <ele>63.65</ele>
        <time>2022-02-05T15:01:58Z</time>
      </trkpt>
      <trkpt lat="37.337648" lon="-6.103990">
        <ele>63.31</ele>
        <time>2022-02-05T15:02:02Z</time>
      </trkpt>
      <trkpt lat="37.337707" lon="-6.103748">
        <ele>63.05</ele>
        <time>2022-02-05T15:02:06Z</time>
      </trkpt>
      <trkpt lat="37.337773" lon="-6.103488">
        <ele>63.43</ele>
        <time>2022-02-05T15:02:11Z</time>
      </trkpt>
      <trkpt lat="37.337834" lon="-6.103269">
        <ele>64.37</ele>
        <time>2022-02-05T15:02:16Z</time>
      </trkpt>
      <trkpt lat="37.337890" lon="-6.103027">
        <ele>64.80</ele>
        <time>2022-02-05T15:02:23Z</time>
      </trkpt>
      <trkpt lat="37.337909" lon="-6.102782">
        <ele>64.72</ele>
        <time>2022-02-05T15:02:33Z</time>
      </trkpt>
      <trkpt lat="37.337954" lon="-6.102561">
        <ele>64.83</ele>
        <time>2022-02-05T15:02:42Z</time>
      </trkpt>
      <trkpt lat="37.338003" lon="-6.102324">
        <ele>65.52</ele>
        <time>2022-02-05T15:02:50Z</time>
      </trkpt>
      <trkpt lat="37.338063" lon="-6.102099">
        <ele>64.25</ele>
        <time>2022-02-05T15:02:59Z</time>
      </trkpt>
      <trkpt lat="37.338109" lon="-6.101878">
        <ele>64.29</ele>
        <time>2022-02-05T15:03:07Z</time>
      </trkpt>
      <trkpt lat="37.338152" lon="-6.101644">
        <ele>64.39</ele>
        <time>2022-02-05T15:03:18Z</time>
      </trkpt>
      <trkpt lat="37.338222" lon="-6.101431">
        <ele>65.18</ele>
        <time>2022-02-05T15:03:29Z</time>
      </trkpt>
      <trkpt lat="37.338307" lon="-6.101232">
        <ele>65.57</ele>
        <time>2022-02-05T15:03:42Z</time>
      </trkpt>
      <trkpt lat="37.338384" lon="-6.101026">
        <ele>65.31</ele>
        <time>2022-02-05T15:03:52Z</time>
      </trkpt>
      <trkpt lat="37.338470" lon="-6.100820">
        <ele>64.11</ele>
        <time>2022-02-05T15:04:01Z</time>
      </trkpt>
      <trkpt lat="37.338560" lon="-6.100665">
        <ele>64.01</ele>
        <time>2022-02-05T15:05:01Z</time>
      </trkpt>
      <trkpt lat="37.338646" lon="-6.100437">
        <ele>62.06</ele>
        <time>2022-02-05T15:05:11Z</time>
      </trkpt>
      <trkpt lat="37.338756" lon="-6.100209">
        <ele>61.08</ele>
        <time>2022-02-05T15:05:18Z</time>
      </trkpt>
      <trkpt lat="37.338871" lon="-6.100033">
        <ele>60.72</ele>
        <time>2022-02-05T15:05:23Z</time>
      </trkpt>
      <trkpt lat="37.339009" lon="-6.099828">
        <ele>60.41</ele>
        <time>2022-02-05T15:05:29Z</time>
      </trkpt>
      <trkpt lat="37.339145" lon="-6.099633">
        <ele>60.30</ele>
        <time>2022-02-05T15:05:34Z</time>
      </trkpt>
      <trkpt lat="37.339275" lon="-6.099456">
        <ele>59.90</ele>
        <time>2022-02-05T15:05:38Z</time>
      </trkpt>
      <trkpt lat="37.339412" lon="-6.099267">
        <ele>59.74</ele>
        <time>2022-02-05T15:05:42Z</time>
      </trkpt>
      <trkpt lat="37.339551" lon="-6.099065">
        <ele>60.34</ele>
        <time>2022-02-05T15:05:46Z</time>
      </trkpt>
      <trkpt lat="37.339672" lon="-6.098844">
        <ele>60.29</ele>
        <time>2022-02-05T15:05:50Z</time>
      </trkpt>
      <trkpt lat="37.339782" lon="-6.098604">
        <ele>61.62</ele>
        <time>2022-02-05T15:05:54Z</time>
      </trkpt>
      <trkpt lat="37.339899" lon="-6.098364">
        <ele>63.07</ele>
        <time>2022-02-05T15:05:58Z</time>
      </trkpt>
      <trkpt lat="37.340018" lon="-6.098149">
        <ele>64.37</ele>
        <time>2022-02-05T15:06:02Z</time>
      </trkpt>
      <trkpt lat="37.340127" lon="-6.097934">
        <ele>64.37</ele>
        <time>2022-02-05T15:06:06Z</time>
      </trkpt>
      <trkpt lat="37.340246" lon="-6.097702">
        <ele>63.30</ele>
        <time>2022-02-05T15:06:10Z</time>
      </trkpt>
      <trkpt lat="37.340348" lon="-6.097505">
        <ele>62.21</ele>
        <time>2022-02-05T15:06:13Z</time>
      </trkpt>
      <trkpt lat="37.340467" lon="-6.097288">
        <ele>60.14</ele>
        <time>2022-02-05T15:06:16Z</time>
      </trkpt>
      <trkpt lat="37.340596" lon="-6.097066">
        <ele>58.36</ele>
        <time>2022-02-05T15:06:19Z</time>
      </trkpt>
      <trkpt lat="37.340721" lon="-6.096841">
        <ele>57.43</ele>
        <time>2022-02-05T15:06:22Z</time>
      </trkpt>
      <trkpt lat="37.340836" lon="-6.096632">
        <ele>56.83</ele>
        <time>2022-02-05T15:06:25Z</time>
      </trkpt>
      <trkpt lat="37.340942" lon="-6.096433">
        <ele>56.81</ele>
        <time>2022-02-05T15:06:28Z</time>
      </trkpt>
      <trkpt lat="37.341089" lon="-6.096203">
        <ele>56.44</ele>
        <time>2022-02-05T15:06:32Z</time>
      </trkpt>
      <trkpt lat="37.341206" lon="-6.096028">
        <ele>55.71</ele>
        <time>2022-02-05T15:06:35Z</time>
      </trkpt>
      <trkpt lat="37.341318" lon="-6.095851">
        <ele>54.91</ele>
        <time>2022-02-05T15:06:38Z</time>
      </trkpt>
      <trkpt lat="37.341434" lon="-6.095674">
        <ele>55.66</ele>
        <time>2022-02-05T15:06:41Z</time>
      </trkpt>
      <trkpt lat="37.341563" lon="-6.095456">
        <ele>56.37</ele>
        <time>2022-02-05T15:06:45Z</time>
      </trkpt>
      <trkpt lat="37.341688" lon="-6.095253">
        <ele>56.97</ele>
        <time>2022-02-05T15:06:49Z</time>
      </trkpt>
      <trkpt lat="37.341818" lon="-6.095061">
        <ele>55.33</ele>
        <time>2022-02-05T15:06:53Z</time>
      </trkpt>
      <trkpt lat="37.341961" lon="-6.094860">
        <ele>53.88</ele>
        <time>2022-02-05T15:06:57Z</time>
      </trkpt>
      <trkpt lat="37.342093" lon="-6.094702">
        <ele>52.72</ele>
        <time>2022-02-05T15:07:00Z</time>
      </trkpt>
      <trkpt lat="37.342237" lon="-6.094540">
        <ele>51.39</ele>
        <time>2022-02-05T15:07:03Z</time>
      </trkpt>
      <trkpt lat="37.342390" lon="-6.094378">
        <ele>49.17</ele>
        <time>2022-02-05T15:07:06Z</time>
      </trkpt>
      <trkpt lat="37.342562" lon="-6.094237">
        <ele>47.49</ele>
        <time>2022-02-05T15:07:09Z</time>
      </trkpt>
      <trkpt lat="37.342730" lon="-6.094100">
        <ele>47.12</ele>
        <time>2022-02-05T15:07:12Z</time>
      </trkpt>
      <trkpt lat="37.342905" lon="-6.093964">
        <ele>47.12</ele>
        <time>2022-02-05T15:07:15Z</time>
      </trkpt>
      <trkpt lat="37.343087" lon="-6.093827">
        <ele>46.03</ele>
        <time>2022-02-05T15:07:18Z</time>
      </trkpt>
      <trkpt lat="37.343260" lon="-6.093719">
        <ele>45.94</ele>
        <time>2022-02-05T15:07:21Z</time>
      </trkpt>
      <trkpt lat="37.343472" lon="-6.093643">
        <ele>46.58</ele>
        <time>2022-02-05T15:07:25Z</time>
      </trkpt>
      <trkpt lat="37.343669" lon="-6.093618">
        <ele>46.52</ele>
        <time>2022-02-05T15:07:29Z</time>
      </trkpt>
      <trkpt lat="37.343822" lon="-6.093459">
        <ele>45.87</ele>
        <time>2022-02-05T15:07:33Z</time>
      </trkpt>
      <trkpt lat="37.343921" lon="-6.093228">
        <ele>43.42</ele>
        <time>2022-02-05T15:07:37Z</time>
      </trkpt>
      <trkpt lat="37.344026" lon="-6.093036">
        <ele>42.34</ele>
        <time>2022-02-05T15:07:41Z</time>
      </trkpt>
      <trkpt lat="37.344175" lon="-6.092817">
        <ele>40.95</ele>
        <time>2022-02-05T15:07:45Z</time>
      </trkpt>
      <trkpt lat="37.344301" lon="-6.092596">
        <ele>41.43</ele>
        <time>2022-02-05T15:07:49Z</time>
      </trkpt>
      <trkpt lat="37.3445963" lon="-6.091771"/>
      <trkpt lat="37.34461" lon="-6.09173"/>
      <trkpt lat="37.34468" lon="-6.09143"/>
      <trkpt lat="37.34471" lon="-6.09128"/>
      <trkpt lat="37.3447075" lon="-6.0912775"/>
      <trkpt lat="37.34457" lon="-6.0909"/>
      <trkpt lat="37.34449" lon="-6.09061"/>
      <trkpt lat="37.34446" lon="-6.09044"/>
      <trkpt lat="37.34447" lon="-6.09"/>
      <trkpt lat="37.34446" lon="-6.08998"/>
      <trkpt lat="37.34445" lon="-6.08962"/>
      <trkpt lat="37.34441" lon="-6.08947"/>
      <trkpt lat="37.34441" lon="-6.08938"/>
      <trkpt lat="37.34441" lon="-6.08901"/>
      <trkpt lat="37.34441" lon="-6.08894"/>
      <trkpt lat="37.34443" lon="-6.08859"/>
      <trkpt lat="37.34444" lon="-6.08847"/>
      <trkpt lat="37.34447" lon="-6.08817"/>
      <trkpt lat="37.34447" lon="-6.08811"/>
      <trkpt lat="37.34449" lon="-6.08789"/>
      <trkpt lat="37.3445" lon="-6.0877"/>
      <trkpt lat="37.34455" lon="-6.08709"/>
      <trkpt lat="37.34455" lon="-6.08698"/>
      <trkpt lat="37.34456" lon="-6.08676"/>
      <trkpt lat="37.34455" lon="-6.08654"/>
      <trkpt lat="37.34455" lon="-6.08634"/>
      <trkpt lat="37.34454" lon="-6.08607"/>
      <trkpt lat="37.34452" lon="-6.08563"/>
      <trkpt lat="37.34452" lon="-6.08553"/>
      <trkpt lat="37.34451" lon="-6.0854"/>
      <trkpt lat="37.3445" lon="-6.08512"/>
      <trkpt lat="37.34447" lon="-6.08469"/>
      <trkpt lat="37.34446" lon="-6.0845"/>
      <trkpt lat="37.34445" lon="-6.08432"/>
      <trkpt lat="37.34444" lon="-6.08428"/>
      <trkpt lat="37.34442" lon="-6.08405"/>
      <trkpt lat="37.34438" lon="-6.08383"/>
      <trkpt lat="37.34436" lon="-6.08374"/>
      <trkpt lat="37.34434" lon="-6.08365"/>
      <trkpt lat="37.34432" lon="-6.08353"/>
      <trkpt lat="37.34432" lon="-6.08352"/>
      <trkpt lat="37.34426" lon="-6.08325"/>
      <trkpt lat="37.34423" lon="-6.08307"/>
      <trkpt lat="37.34419" lon="-6.08281"/>
      <trkpt lat="37.34418" lon="-6.08275"/>
      <trkpt lat="37.34417" lon="-6.08273"/>
      <trkpt lat="37.34412" lon="-6.08237"/>
      <trkpt lat="37.34411" lon="-6.08233"/>
      <trkpt lat="37.34407" lon="-6.08215"/>
      <trkpt lat="37.34403" lon="-6.082"/>
      <trkpt lat="37.34401" lon="-6.08193"/>
      <trkpt lat="37.34389" lon="-6.08151"/>
      <trkpt lat="37.34386" lon="-6.08142"/>
      <trkpt lat="37.34382" lon="-6.08122"/>
      <trkpt lat="37.34379" lon="-6.08106"/>
      <trkpt lat="37.34378" lon="-6.08092"/>
      <trkpt lat="37.34377" lon="-6.08085"/>
      <trkpt lat="37.34377" lon="-6.08081"/>
      <trkpt lat="37.34375" lon="-6.08076"/>
      <trkpt lat="37.34373" lon="-6.08073"/>
      <trkpt lat="37.34371" lon="-6.0807"/>
      <trkpt lat="37.34362" lon="-6.08066"/>
      <trkpt lat="37.3435" lon="-6.08059"/>
      <trkpt lat="37.34345" lon="-6.08052"/>
      <trkpt lat="37.34343" lon="-6.0805"/>
      <trkpt lat="37.3434" lon="-6.08047"/>
      <trkpt lat="37.34336" lon="-6.08038"/>
      <trkpt lat="37.34332" lon="-6.08027"/>
      <trkpt lat="37.34331" lon="-6.08016"/>
      <trkpt lat="37.34332" lon="-6.08007"/>
      <trkpt lat="37.34332" lon="-6.08006"/>
      <trkpt lat="37.34333" lon="-6.08001"/>
      <trkpt lat="37.34335" lon="-6.07997"/>
      <trkpt lat="37.34338" lon="-6.07995"/>
      <trkpt lat="37.343383" lon="-6.0799529"/>
      <trkpt lat="37.34341" lon="-6.07996"/>
      <trkpt lat="37.34345" lon="-6.07998"/>
      <trkpt lat="37.34349" lon="-6.08001"/>
      <trkpt lat="37.3434904" lon="-6.0800065"/>
      <trkpt lat="37.3435" lon="-6.07998"/>
      <trkpt lat="37.34352" lon="-6.07993"/>
      <trkpt lat="37.34354" lon="-6.0799"/>
      <trkpt lat="37.34357" lon="-6.07986"/>
      <trkpt lat="37.3436" lon="-6.07983"/>
      <trkpt lat="37.34364" lon="-6.07981"/>
      <trkpt lat="37.34367" lon="-6.07979"/>
      <trkpt lat="37.34376" lon="-6.07961"/>
      <trkpt lat="37.3438" lon="-6.07944"/>
      <trkpt lat="37.34384" lon="-6.07918"/>
      <trkpt lat="37.34392" lon="-6.0788"/>
      <trkpt lat="37.34398" lon="-6.07852"/>
      <trkpt lat="37.34402" lon="-6.07834"/>
      <trkpt lat="37.34403" lon="-6.0783"/>
      <trkpt lat="37.34416" lon="-6.07779"/>
      <trkpt lat="37.34429" lon="-6.07734"/>
      <trkpt lat="37.34446" lon="-6.07681"/>
      <trkpt lat="37.34445" lon="-6.0768"/>
      <trkpt lat="37.34445" lon="-6.07679"/>
      <trkpt lat="37.34444" lon="-6.07678"/>
      <trkpt lat="37.34444" lon="-6.07677"/>
      <trkpt lat="37.34444" lon="-6.07676"/>
      <trkpt lat="37.34444" lon="-6.07675"/>
      <trkpt lat="37.34443" lon="-6.07674"/>
      <trkpt lat="37.34443" lon="-6.07673"/>
      <trkpt lat="37.34443" lon="-6.07672"/>
      <trkpt lat="37.34443" lon="-6.07671"/>
      <trkpt lat="37.34443" lon="-6.0767"/>
      <trkpt lat="37.34443" lon="-6.07669"/>
      <trkpt lat="37.34444" lon="-6.07668"/>
      <trkpt lat="37.34444" lon="-6.07667"/>
      <trkpt lat="37.34444" lon="-6.07666"/>
      <trkpt lat="37.34444" lon="-6.07665"/>
      <trkpt lat="37.34445" lon="-6.07664"/>
      <trkpt lat="37.34445" lon="-6.07663"/>
      <trkpt lat="37.34446" lon="-6.07662"/>
      <trkpt lat="37.34447" lon="-6.07661"/>
      <trkpt lat="37.34447" lon="-6.0766"/>
      <trkpt lat="37.34448" lon="-6.0766"/>
      <trkpt lat="37.34448" lon="-6.07659"/>
      <trkpt lat="37.34449" lon="-6.07659"/>
      <trkpt lat="37.34449" lon="-6.07658"/>
      <trkpt lat="37.3445" lon="-6.07658"/>
      <trkpt lat="37.3445" lon="-6.07657"/>
      <trkpt lat="37.34451" lon="-6.07657"/>
      <trkpt lat="37.34452" lon="-6.07657"/>
      <trkpt lat="37.34453" lon="-6.07656"/>
      <trkpt lat="37.34454" lon="-6.07656"/>
      <trkpt lat="37.34455" lon="-6.07656"/>
      <trkpt lat="37.34487" lon="-6.07573"/>
      <trkpt lat="37.3453" lon="-6.07462"/>
      <trkpt lat="37.34587" lon="-6.07305"/>
      <trkpt lat="37.34594" lon="-6.07286"/>
      <trkpt lat="37.34597" lon="-6.07278"/>
      <trkpt lat="37.34627" lon="-6.07207"/>
      <trkpt lat="37.34652" lon="-6.07151"/>
      <trkpt lat="37.34677" lon="-6.07095"/>
      <trkpt lat="37.34699" lon="-6.07055"/>
      <trkpt lat="37.3471" lon="-6.07031"/>
      <trkpt lat="37.3471027" lon="-6.070311"/>
      <trkpt lat="37.3471" lon="-6.0703"/>
      <trkpt lat="37.34709" lon="-6.07029"/>
      <trkpt lat="37.34709" lon="-6.07027"/>
      <trkpt lat="37.34708" lon="-6.07026"/>
      <trkpt lat="37.34708" lon="-6.07025"/>
      <trkpt lat="37.34708" lon="-6.07023"/>
      <trkpt lat="37.34707" lon="-6.07022"/>
      <trkpt lat="37.34707" lon="-6.07021"/>
      <trkpt lat="37.34707" lon="-6.07019"/>
      <trkpt lat="37.34707" lon="-6.07018"/>
      <trkpt lat="37.34707" lon="-6.07017"/>
      <trkpt lat="37.34707" lon="-6.07015"/>
      <trkpt lat="37.34708" lon="-6.07014"/>
      <trkpt lat="37.34708" lon="-6.07012"/>
      <trkpt lat="37.34709" lon="-6.0701"/>
      <trkpt lat="37.34709" lon="-6.07009"/>
      <trkpt lat="37.3471" lon="-6.07008"/>
      <trkpt lat="37.3471" lon="-6.07007"/>
      <trkpt lat="37.34711" lon="-6.07006"/>
      <trkpt lat="37.34712" lon="-6.07005"/>
      <trkpt lat="37.34713" lon="-6.07004"/>
      <trkpt lat="37.34714" lon="-6.07003"/>
      <trkpt lat="37.34714" lon="-6.07002"/>
      <trkpt lat="37.34715" lon="-6.07002"/>
      <trkpt lat="37.34716" lon="-6.07001"/>
      <trkpt lat="37.34717" lon="-6.07"/>
      <trkpt lat="37.34718" lon="-6.07"/>
      <trkpt lat="37.3472" lon="-6.07"/>
      <trkpt lat="37.34721" lon="-6.06999"/>
      <trkpt lat="37.34722" lon="-6.06999"/>
      <trkpt lat="37.34723" lon="-6.06999"/>
      <trkpt lat="37.34724" lon="-6.06999"/>
      <trkpt lat="37.34725" lon="-6.06999"/>
      <trkpt lat="37.34726" lon="-6.07"/>
      <trkpt lat="37.34727" lon="-6.07"/>
      <trkpt lat="37.34728" lon="-6.07"/>
      <trkpt lat="37.34729" lon="-6.07001"/>
      <trkpt lat="37.34755" lon="-6.06952"/>
      <trkpt lat="37.3477" lon="-6.0692"/>
      <trkpt lat="37.34777" lon="-6.06906"/>
      <trkpt lat="37.34795" lon="-6.06868"/>
      <trkpt lat="37.34829" lon="-6.06791"/>
      <trkpt lat="37.34868" lon="-6.06698"/>
      <trkpt lat="37.34873" lon="-6.06682"/>
      <trkpt lat="37.3487296" lon="-6.0668244"/>
      <trkpt lat="37.34872" lon="-6.06682"/>
      <trkpt lat="37.34872" lon="-6.06681"/>
      <trkpt lat="37.34871" lon="-6.06681"/>
      <trkpt lat="37.34871" lon="-6.0668"/>
      <trkpt lat="37.34871" lon="-6.06679"/>
      <trkpt lat="37.3487" lon="-6.06678"/>
      <trkpt lat="37.3487" lon="-6.06677"/>
      <trkpt lat="37.3487" lon="-6.06676"/>
      <trkpt lat="37.34869" lon="-6.06676"/>
      <trkpt lat="37.34869" lon="-6.06675"/>
      <trkpt lat="37.34869" lon="-6.06674"/>
      <trkpt lat="37.34869" lon="-6.06673"/>
      <trkpt lat="37.34869" lon="-6.06672"/>
      <trkpt lat="37.34869" lon="-6.06671"/>
      <trkpt lat="37.34869" lon="-6.0667"/>
      <trkpt lat="37.34869" lon="-6.06669"/>
      <trkpt lat="37.34869" lon="-6.06668"/>
      <trkpt lat="37.3487" lon="-6.06667"/>
      <trkpt lat="37.3487" lon="-6.06666"/>
      <trkpt lat="37.3487" lon="-6.06665"/>
      <trkpt lat="37.34871" lon="-6.06665"/>
      <trkpt lat="37.34871" lon="-6.06664"/>
      <trkpt lat="37.34871" lon="-6.06663"/>
      <trkpt lat="37.34872" lon="-6.06663"/>
      <trkpt lat="37.34872" lon="-6.06662"/>
      <trkpt lat="37.34873" lon="-6.06661"/>
      <trkpt lat="37.34874" lon="-6.0666"/>
      <trkpt lat="37.34875" lon="-6.0666"/>
      <trkpt lat="37.34875" lon="-6.06659"/>
      <trkpt lat="37.34876" lon="-6.06659"/>
      <trkpt lat="37.34877" lon="-6.06659"/>
      <trkpt lat="37.34877" lon="-6.06658"/>
      <trkpt lat="37.34878" lon="-6.06658"/>
      <trkpt lat="37.34879" lon="-6.06658"/>
      <trkpt lat="37.3488" lon="-6.06658"/>
      <trkpt lat="37.34881" lon="-6.06658"/>
      <trkpt lat="37.34893" lon="-6.06615"/>
      <trkpt lat="37.34898" lon="-6.06594"/>
      <trkpt lat="37.34908" lon="-6.06558"/>
      <trkpt lat="37.34909" lon="-6.06557"/>
      <trkpt lat="37.34915" lon="-6.06541"/>
      <trkpt lat="37.34928" lon="-6.06514"/>
      <trkpt lat="37.34936" lon="-6.06498"/>
      <trkpt lat="37.34942" lon="-6.06487"/>
      <trkpt lat="37.34945" lon="-6.06482"/>
      <trkpt lat="37.34953" lon="-6.0647"/>
      <trkpt lat="37.34971" lon="-6.06446"/>
      <trkpt lat="37.34983" lon="-6.0643"/>
      <trkpt lat="37.34994" lon="-6.06416"/>
      <trkpt lat="37.35006" lon="-6.06397"/>
      <trkpt lat="37.35024" lon="-6.06366"/>
      <trkpt lat="37.35034" lon="-6.06347"/>
      <trkpt lat="37.35046" lon="-6.0632"/>
      <trkpt lat="37.35064" lon="-6.06266"/>
      <trkpt lat="37.35075" lon="-6.06214"/>
      <trkpt lat="37.35079" lon="-6.06185"/>
      <trkpt lat="37.35081" lon="-6.06169"/>
      <trkpt lat="37.35082" lon="-6.06138"/>
      <trkpt lat="37.35081" lon="-6.06107"/>
      <trkpt lat="37.35078" lon="-6.06001"/>
      <trkpt lat="37.35078" lon="-6.05988"/>
      <trkpt lat="37.35076" lon="-6.05965"/>
      <trkpt lat="37.35075" lon="-6.05943"/>
      <trkpt lat="37.35072" lon="-6.05886"/>
      <trkpt lat="37.3507224" lon="-6.0588608"/>
      <trkpt lat="37.3506" lon="-6.05878"/>
      <trkpt lat="37.35044" lon="-6.05868"/>
      <trkpt lat="37.35027" lon="-6.05858"/>
      <trkpt lat="37.35011" lon="-6.05848"/>
      <trkpt lat="37.34995" lon="-6.05838"/>
      <trkpt lat="37.34982" lon="-6.05829"/>
      <trkpt lat="37.34951" lon="-6.0582"/>
      <trkpt lat="37.34892" lon="-6.05799"/>
      <trkpt lat="37.3489219" lon="-6.0579926"/>
      <trkpt lat="37.34895" lon="-6.05797"/>
      <trkpt lat="37.34911" lon="-6.05781"/>
      <trkpt lat="37.34933" lon="-6.0576"/>
      <trkpt lat="37.34947" lon="-6.05754"/>
      <trkpt lat="37.3496" lon="-6.05751"/>
      <trkpt lat="37.3495985" lon="-6.0575097"/>
      <trkpt lat="37.34956" lon="-6.05745"/>
      <trkpt lat="37.34952" lon="-6.0574"/>
      <trkpt lat="37.3495" lon="-6.05736"/>
      <trkpt lat="37.34948" lon="-6.05734"/>
      <trkpt lat="37.34941" lon="-6.0573"/>
      <trkpt lat="37.34933" lon="-6.05725"/>
      <trkpt lat="37.34924" lon="-6.05721"/>
      <trkpt lat="37.34919" lon="-6.05719"/>
      <trkpt lat="37.34917" lon="-6.05718"/>
      <trkpt lat="37.34915" lon="-6.05716"/>
      <trkpt lat="37.34914" lon="-6.05715"/>
      <trkpt lat="37.34913" lon="-6.05714"/>
      <trkpt lat="37.34913" lon="-6.05713"/>
      <trkpt lat="37.34912" lon="-6.05708"/>
      <trkpt lat="37.3491" lon="-6.057"/>
      <trkpt lat="37.3491014" lon="-6.0569999"/>
      <trkpt lat="37.34903" lon="-6.05703"/>
      <trkpt lat="37.34902" lon="-6.05703"/>
      <trkpt lat="37.34879" lon="-6.05711"/>
      <trkpt lat="37.3487908" lon="-6.0571131"/>
      <trkpt lat="37.34879" lon="-6.05713"/>
      <trkpt lat="37.34879" lon="-6.05715"/>
      <trkpt lat="37.34879" lon="-6.05717"/>
      <trkpt lat="37.34878" lon="-6.05719"/>
      <trkpt lat="37.34878" lon="-6.05721"/>
      <trkpt lat="37.34877" lon="-6.05722"/>
      <trkpt lat="37.34876" lon="-6.05724"/>
      <trkpt lat="37.34876" lon="-6.05725"/>
      <trkpt lat="37.34875" lon="-6.05727"/>
      <trkpt lat="37.34874" lon="-6.05728"/>
      <trkpt lat="37.34872" lon="-6.0573"/>
      <trkpt lat="37.34871" lon="-6.05731"/>
      <trkpt lat="37.3487" lon="-6.05732"/>
      <trkpt lat="37.34869" lon="-6.05733"/>
      <trkpt lat="37.34866" lon="-6.05734"/>
      <trkpt lat="37.34865" lon="-6.05734"/>
      <trkpt lat="37.34863" lon="-6.05735"/>
      <trkpt lat="37.34862" lon="-6.05735"/>
      <trkpt lat="37.3486" lon="-6.05735"/>
      <trkpt lat="37.34859" lon="-6.05735"/>
      <trkpt lat="37.34857" lon="-6.05734"/>
      <trkpt lat="37.34856" lon="-6.05734"/>
      <trkpt lat="37.34854" lon="-6.05733"/>
      <trkpt lat="37.34853" lon="-6.05733"/>
      <trkpt lat="37.34851" lon="-6.05732"/>
      <trkpt lat="37.3485" lon="-6.05731"/>
      <trkpt lat="37.34849" lon="-6.05729"/>
      <trkpt lat="37.34848" lon="-6.05728"/>
      <trkpt lat="37.34847" lon="-6.05727"/>
      <trkpt lat="37.34846" lon="-6.05725"/>
      <trkpt lat="37.34845" lon="-6.05724"/>
      <trkpt lat="37.34844" lon="-6.05722"/>
      <trkpt lat="37.34843" lon="-6.0572"/>
      <trkpt lat="37.34843" lon="-6.05717"/>
      <trkpt lat="37.34843" lon="-6.05715"/>
      <trkpt lat="37.34842" lon="-6.05714"/>
      <trkpt lat="37.34842" lon="-6.05712"/>
      <trkpt lat="37.34842" lon="-6.0571"/>
      <trkpt lat="37.34843" lon="-6.05708"/>
      <trkpt lat="37.34843" lon="-6.05706"/>
      <trkpt lat="37.34843" lon="-6.05704"/>
      <trkpt lat="37.34844" lon="-6.05702"/>
      <trkpt lat="37.34845" lon="-6.05701"/>
      <trkpt lat="37.34845" lon="-6.05699"/>
      <trkpt lat="37.34846" lon="-6.05698"/>
      <trkpt lat="37.34847" lon="-6.05696"/>
      <trkpt lat="37.34848" lon="-6.05695"/>
      <trkpt lat="37.34849" lon="-6.05694"/>
      <trkpt lat="37.34851" lon="-6.05693"/>
      <trkpt lat="37.34853" lon="-6.05691"/>
      <trkpt lat="37.34857" lon="-6.05682"/>
      <trkpt lat="37.34859" lon="-6.05674"/>
      <trkpt lat="37.34862" lon="-6.05657"/>
      <trkpt lat="37.34865" lon="-6.05636"/>
      <trkpt lat="37.34866" lon="-6.05619"/>
      <trkpt lat="37.34866" lon="-6.05596"/>
      <trkpt lat="37.34864" lon="-6.05571"/>
      <trkpt lat="37.3486" lon="-6.0553"/>
      <trkpt lat="37.34854" lon="-6.05459"/>
      <trkpt lat="37.34852" lon="-6.0539"/>
      <trkpt lat="37.3485202" lon="-6.053903"/>
      <trkpt lat="37.3485" lon="-6.05388"/>
      <trkpt lat="37.34849" lon="-6.05386"/>
      <trkpt lat="37.34848" lon="-6.05383"/>
      <trkpt lat="37.34847" lon="-6.0538"/>
      <trkpt lat="37.34846" lon="-6.05377"/>
      <trkpt lat="37.34846" lon="-6.05374"/>
      <trkpt lat="37.34846" lon="-6.05371"/>
      <trkpt lat="37.3486" lon="-6.05297"/>
      <trkpt lat="37.34862" lon="-6.05295"/>
      <trkpt lat="37.34863" lon="-6.05292"/>
      <trkpt lat="37.34865" lon="-6.05289"/>
      <trkpt lat="37.34868" lon="-6.05285"/>
      <trkpt lat="37.34869" lon="-6.05275"/>
      <trkpt lat="37.34871" lon="-6.05265"/>
      <trkpt lat="37.34877" lon="-6.05243"/>
      <trkpt lat="37.34879" lon="-6.05236"/>
      <trkpt lat="37.34887" lon="-6.05217"/>
      <trkpt lat="37.34895" lon="-6.05199"/>
      <trkpt lat="37.34899" lon="-6.05189"/>
      <trkpt lat="37.3492" lon="-6.05145"/>
      <trkpt lat="37.34991" lon="-6.05001"/>
      <trkpt lat="37.34996" lon="-6.04991"/>
      <trkpt lat="37.35032" lon="-6.04925"/>
      <trkpt lat="37.35045" lon="-6.04898"/>
      <trkpt lat="37.3505" lon="-6.04889"/>
      <trkpt lat="37.35055" lon="-6.04882"/>
      <trkpt lat="37.35055" lon="-6.04881"/>
      <trkpt lat="37.35057" lon="-6.04879"/>
      <trkpt lat="37.35059" lon="-6.04878"/>
      <trkpt lat="37.35061" lon="-6.04876"/>
      <trkpt lat="37.35077" lon="-6.04868"/>
      <trkpt lat="37.35081" lon="-6.04866"/>
      <trkpt lat="37.35084" lon="-6.04864"/>
      <trkpt lat="37.35086" lon="-6.04862"/>
      <trkpt lat="37.35089" lon="-6.0486"/>
      <trkpt lat="37.35094" lon="-6.04855"/>
      <trkpt lat="37.35099" lon="-6.04849"/>
      <trkpt lat="37.35121" lon="-6.04801"/>
      <trkpt lat="37.35125" lon="-6.04785"/>
      <trkpt lat="37.35126" lon="-6.04772"/>
      <trkpt lat="37.3512603" lon="-6.0477186"/>
      <trkpt lat="37.35125" lon="-6.04768"/>
      <trkpt lat="37.35124" lon="-6.04765"/>
      <trkpt lat="37.35124" lon="-6.04761"/>
      <trkpt lat="37.35124" lon="-6.04757"/>
      <trkpt lat="37.35124" lon="-6.04753"/>
      <trkpt lat="37.35124" lon="-6.04749"/>
      <trkpt lat="37.35125" lon="-6.04746"/>
      <trkpt lat="37.35127" lon="-6.04742"/>
      <trkpt lat="37.35127" lon="-6.04741"/>
      <trkpt lat="37.35128" lon="-6.04739"/>
      <trkpt lat="37.35131" lon="-6.04735"/>
      <trkpt lat="37.35134" lon="-6.04732"/>
      <trkpt lat="37.35136" lon="-6.0473"/>
      <trkpt lat="37.35137" lon="-6.0473"/>
      <trkpt lat="37.35139" lon="-6.04728"/>
      <trkpt lat="37.35142" lon="-6.04727"/>
      <trkpt lat="37.35144" lon="-6.04726"/>
      <trkpt lat="37.35147" lon="-6.04726"/>
      <trkpt lat="37.3515" lon="-6.04726"/>
      <trkpt lat="37.35153" lon="-6.04727"/>
      <trkpt lat="37.35156" lon="-6.04727"/>
      <trkpt lat="37.35181" lon="-6.04706"/>
      <trkpt lat="37.35194" lon="-6.04694"/>
      <trkpt lat="37.35198" lon="-6.0469"/>
      <trkpt lat="37.35221" lon="-6.04659"/>
      <trkpt lat="37.35235" lon="-6.04642"/>
      <trkpt lat="37.35256" lon="-6.04614"/>
      <trkpt lat="37.35263" lon="-6.04602"/>
      <trkpt lat="37.35282" lon="-6.04567"/>
      <trkpt lat="37.3529" lon="-6.04555"/>
      <trkpt lat="37.35293" lon="-6.0455"/>
      <trkpt lat="37.35338" lon="-6.04493"/>
      <trkpt lat="37.3533754" lon="-6.0449273"/>
      <trkpt lat="37.35337" lon="-6.04492"/>
      <trkpt lat="37.35337" lon="-6.04491"/>
      <trkpt lat="37.35336" lon="-6.0449"/>
      <trkpt lat="37.35336" lon="-6.04489"/>
      <trkpt lat="37.35336" lon="-6.04488"/>
      <trkpt lat="37.35335" lon="-6.04488"/>
      <trkpt lat="37.35335" lon="-6.04487"/>
      <trkpt lat="37.35335" lon="-6.04486"/>
      <trkpt lat="37.35335" lon="-6.04485"/>
      <trkpt lat="37.35335" lon="-6.04484"/>
      <trkpt lat="37.35335" lon="-6.04483"/>
      <trkpt lat="37.35335" lon="-6.04482"/>
      <trkpt lat="37.35335" lon="-6.04481"/>
      <trkpt lat="37.35335" lon="-6.0448"/>
      <trkpt lat="37.35335" lon="-6.04479"/>
      <trkpt lat="37.35336" lon="-6.04478"/>
      <trkpt lat="37.35336" lon="-6.04477"/>
      <trkpt lat="37.35336" lon="-6.04476"/>
      <trkpt lat="37.35337" lon="-6.04476"/>
      <trkpt lat="37.35337" lon="-6.04475"/>
      <trkpt lat="37.35338" lon="-6.04474"/>
      <trkpt lat="37.35338" lon="-6.04473"/>
      <trkpt lat="37.35339" lon="-6.04473"/>
      <trkpt lat="37.35339" lon="-6.04472"/>
      <trkpt lat="37.3534" lon="-6.04472"/>
      <trkpt lat="37.3534" lon="-6.04471"/>
      <trkpt lat="37.35341" lon="-6.04471"/>
      <trkpt lat="37.35342" lon="-6.0447"/>
      <trkpt lat="37.35343" lon="-6.0447"/>
      <trkpt lat="37.35344" lon="-6.04469"/>
      <trkpt lat="37.35345" lon="-6.04469"/>
      <trkpt lat="37.35346" lon="-6.04469"/>
      <trkpt lat="37.35347" lon="-6.04469"/>
      <trkpt lat="37.35348" lon="-6.04469"/>
      <trkpt lat="37.35349" lon="-6.04469"/>
      <trkpt lat="37.3535" lon="-6.0447"/>
      <trkpt lat="37.35351" lon="-6.0447"/>
      <trkpt lat="37.35352" lon="-6.04471"/>
      <trkpt lat="37.35353" lon="-6.04471"/>
      <trkpt lat="37.35353" lon="-6.04472"/>
      <trkpt lat="37.35354" lon="-6.04472"/>
      <trkpt lat="37.35369" lon="-6.04448"/>
      <trkpt lat="37.35403" lon="-6.04395"/>
      <trkpt lat="37.35415" lon="-6.04372"/>
      <trkpt lat="37.35455" lon="-6.04324"/>
      <trkpt lat="37.35488" lon="-6.04286"/>
      <trkpt lat="37.35504" lon="-6.04265"/>
      <trkpt lat="37.35528" lon="-6.04235"/>
      <trkpt lat="37.3555" lon="-6.04201"/>
      <trkpt lat="37.35562" lon="-6.04177"/>
      <trkpt lat="37.3556169" lon="-6.0417687"/>
      <trkpt lat="37.3557" lon="-6.04161"/>
      <trkpt lat="37.35579" lon="-6.04145"/>
      <trkpt lat="37.35593" lon="-6.0412"/>
      <trkpt lat="37.35605" lon="-6.04105"/>
      <trkpt lat="37.35607" lon="-6.04102"/>
      <trkpt lat="37.35615" lon="-6.04087"/>
      <trkpt lat="37.35626" lon="-6.04066"/>
      <trkpt lat="37.35628" lon="-6.04063"/>
      <trkpt lat="37.35645" lon="-6.04022"/>
      <trkpt lat="37.35659" lon="-6.03986"/>
      <trkpt lat="37.35662" lon="-6.03978"/>
      <trkpt lat="37.35683" lon="-6.0393"/>
      <trkpt lat="37.35699" lon="-6.0389"/>
      <trkpt lat="37.35707" lon="-6.03872"/>
      <trkpt lat="37.35736" lon="-6.03799"/>
      <trkpt lat="37.3574" lon="-6.0379"/>
      <trkpt lat="37.35747" lon="-6.03771"/>
      <trkpt lat="37.35748" lon="-6.03769"/>
      <trkpt lat="37.35765" lon="-6.03739"/>
      <trkpt lat="37.35776" lon="-6.0372"/>
      <trkpt lat="37.3579" lon="-6.03701"/>
      <trkpt lat="37.3579" lon="-6.037"/>
      <trkpt lat="37.35802" lon="-6.03684"/>
      <trkpt lat="37.35812" lon="-6.0367"/>
      <trkpt lat="37.35821" lon="-6.03654"/>
      <trkpt lat="37.35824" lon="-6.03648"/>
      <trkpt lat="37.35834" lon="-6.0363"/>
      <trkpt lat="37.35865" lon="-6.03574"/>
      <trkpt lat="37.35871" lon="-6.03559"/>
      <trkpt lat="37.35873" lon="-6.03553"/>
      <trkpt lat="37.35877" lon="-6.03543"/>
      <trkpt lat="37.3587657" lon="-6.0354256"/>
      <trkpt lat="37.35881" lon="-6.03533"/>
      <trkpt lat="37.35893" lon="-6.0351"/>
      <trkpt lat="37.35903" lon="-6.03488"/>
      <trkpt lat="37.35908" lon="-6.03481"/>
      <trkpt lat="37.35913" lon="-6.03469"/>
      <trkpt lat="37.35919" lon="-6.03454"/>
      <trkpt lat="37.35926" lon="-6.03432"/>
      <trkpt lat="37.35938" lon="-6.03393"/>
      <trkpt lat="37.3596" lon="-6.03322"/>
      <trkpt lat="37.35961" lon="-6.03317"/>
      <trkpt lat="37.35969" lon="-6.03292"/>
      <trkpt lat="37.36001" lon="-6.03189"/>
      <trkpt lat="37.3601" lon="-6.03161"/>
      <trkpt lat="37.36012" lon="-6.03157"/>
      <trkpt lat="37.36049" lon="-6.03043"/>
      <trkpt lat="37.36058" lon="-6.03014"/>
      <trkpt lat="37.36063" lon="-6.02999"/>
      <trkpt lat="37.3606328" lon="-6.0299852"/>
      <trkpt lat="37.36066" lon="-6.0299"/>
      <trkpt lat="37.36074" lon="-6.02961"/>
      <trkpt lat="37.36077" lon="-6.02949"/>
      <trkpt lat="37.36087" lon="-6.02921"/>
      <trkpt lat="37.36088" lon="-6.0292"/>
      <trkpt lat="37.36092" lon="-6.02908"/>
      <trkpt lat="37.36092" lon="-6.02907"/>
      <trkpt lat="37.36096" lon="-6.02897"/>
      <trkpt lat="37.36105" lon="-6.02876"/>
      <trkpt lat="37.36109" lon="-6.02867"/>
      <trkpt lat="37.36114" lon="-6.02858"/>
      <trkpt lat="37.36114" lon="-6.02857"/>
      <trkpt lat="37.36119" lon="-6.0285"/>
      <trkpt lat="37.36137" lon="-6.02824"/>
      <trkpt lat="37.36143" lon="-6.02815"/>
      <trkpt lat="37.36147" lon="-6.02809"/>
      <trkpt lat="37.36153" lon="-6.02797"/>
      <trkpt lat="37.36163" lon="-6.02762"/>
      <trkpt lat="37.3616265" lon="-6.0276154"/>
      <trkpt lat="37.36162" lon="-6.02761"/>
      <trkpt lat="37.36162" lon="-6.0276"/>
      <trkpt lat="37.36162" lon="-6.02759"/>
      <trkpt lat="37.36161" lon="-6.02759"/>
      <trkpt lat="37.36161" lon="-6.02758"/>
      <trkpt lat="37.36161" lon="-6.02757"/>
      <trkpt lat="37.36161" lon="-6.02756"/>
      <trkpt lat="37.36161" lon="-6.02755"/>
      <trkpt lat="37.36161" lon="-6.02754"/>
      <trkpt lat="37.36161" lon="-6.02753"/>
      <trkpt lat="37.36161" lon="-6.02752"/>
      <trkpt lat="37.36161" lon="-6.02751"/>
      <trkpt lat="37.36161" lon="-6.0275"/>
      <trkpt lat="37.36161" lon="-6.02749"/>
      <trkpt lat="37.36162" lon="-6.02748"/>
      <trkpt lat="37.36158" lon="-6.02725"/>
      <trkpt lat="37.36149" lon="-6.02696"/>
      <trkpt lat="37.36138" lon="-6.02643"/>
      <trkpt lat="37.36137" lon="-6.02616"/>
      <trkpt lat="37.36142" lon="-6.02559"/>
      <trkpt lat="37.36145" lon="-6.02538"/>
      <trkpt lat="37.36145" lon="-6.02535"/>
      <trkpt lat="37.3614507" lon="-6.0253456"/>
      <trkpt lat="37.36151" lon="-6.02532"/>
      <trkpt lat="37.36155" lon="-6.0253"/>
      <trkpt lat="37.36158" lon="-6.02527"/>
      <trkpt lat="37.3616" lon="-6.02525"/>
      <trkpt lat="37.36163" lon="-6.02523"/>
      <trkpt lat="37.36166" lon="-6.02519"/>
      <trkpt lat="37.36168" lon="-6.02515"/>
      <trkpt lat="37.3616818" lon="-6.0251486"/>
      <trkpt lat="37.36182" lon="-6.02511"/>
      <trkpt lat="37.36211" lon="-6.02501"/>
      <trkpt lat="37.36226" lon="-6.02498"/>
      <trkpt lat="37.36233" lon="-6.02497"/>
      <trkpt lat="37.36234" lon="-6.02497"/>
      <trkpt lat="37.36262" lon="-6.02495"/>
      <trkpt lat="37.36294" lon="-6.02493"/>
      <trkpt lat="37.36335" lon="-6.02497"/>
      <trkpt lat="37.3633496" lon="-6.0249712"/>
      <trkpt lat="37.3634" lon="-6.02505"/>
      <trkpt lat="37.363396" lon="-6.0250523"/>
      <trkpt lat="37.36355" lon="-6.02506"/>
      <trkpt lat="37.36364" lon="-6.02506"/>
      <trkpt lat="37.36419" lon="-6.02506"/>
      <trkpt lat="37.3643" lon="-6.02507"/>
      <trkpt lat="37.36471" lon="-6.02507"/>
      <trkpt lat="37.36493" lon="-6.02506"/>
      <trkpt lat="37.36506" lon="-6.02506"/>
      <trkpt lat="37.36514" lon="-6.02508"/>
      <trkpt lat="37.36524" lon="-6.02513"/>
      <trkpt lat="37.3658" lon="-6.02544"/>
      <trkpt lat="37.36585" lon="-6.02547"/>
      <trkpt lat="37.36591" lon="-6.02551"/>
      <trkpt lat="37.36627" lon="-6.0257"/>
      <trkpt lat="37.36628" lon="-6.0257"/>
      <trkpt lat="37.36646" lon="-6.02571"/>
      <trkpt lat="37.3664612" lon="-6.0257126"/>
      <trkpt lat="37.36647" lon="-6.02571"/>
      <trkpt lat="37.36647" lon="-6.0257"/>
      <trkpt lat="37.36648" lon="-6.02569"/>
      <trkpt lat="37.36649" lon="-6.02569"/>
      <trkpt lat="37.36649" lon="-6.02568"/>
      <trkpt lat="37.3665" lon="-6.02568"/>
      <trkpt lat="37.36651" lon="-6.02568"/>
      <trkpt lat="37.36651" lon="-6.02567"/>
      <trkpt lat="37.36652" lon="-6.02567"/>
      <trkpt lat="37.36653" lon="-6.02567"/>
      <trkpt lat="37.36654" lon="-6.02567"/>
      <trkpt lat="37.36655" lon="-6.02567"/>
      <trkpt lat="37.36656" lon="-6.02567"/>
      <trkpt lat="37.36657" lon="-6.02567"/>
      <trkpt lat="37.36658" lon="-6.02568"/>
      <trkpt lat="37.36659" lon="-6.02568"/>
      <trkpt lat="37.3666" lon="-6.02569"/>
      <trkpt lat="37.36661" lon="-6.02569"/>
      <trkpt lat="37.36661" lon="-6.0257"/>
      <trkpt lat="37.36662" lon="-6.0257"/>
      <trkpt lat="37.36662" lon="-6.02571"/>
      <trkpt lat="37.36663" lon="-6.02572"/>
      <trkpt lat="37.36663" lon="-6.02573"/>
      <trkpt lat="37.36664" lon="-6.02573"/>
      <trkpt lat="37.36664" lon="-6.02574"/>
      <trkpt lat="37.36665" lon="-6.02575"/>
      <trkpt lat="37.36665" lon="-6.02576"/>
      <trkpt lat="37.36665" lon="-6.02577"/>
      <trkpt lat="37.36665" lon="-6.02578"/>
      <trkpt lat="37.36666" lon="-6.02579"/>
      <trkpt lat="37.36666" lon="-6.0258"/>
      <trkpt lat="37.36666" lon="-6.02581"/>
      <trkpt lat="37.36675" lon="-6.02582"/>
      <trkpt lat="37.36679" lon="-6.02583"/>
      <trkpt lat="37.36682" lon="-6.02582"/>
      <trkpt lat="37.36688" lon="-6.02581"/>
      <trkpt lat="37.36693" lon="-6.02579"/>
      <trkpt lat="37.36703" lon="-6.02575"/>
      <trkpt lat="37.36716" lon="-6.02567"/>
      <trkpt lat="37.36725" lon="-6.02561"/>
      <trkpt lat="37.36733" lon="-6.02556"/>
      <trkpt lat="37.36738" lon="-6.02552"/>
      <trkpt lat="37.3676" lon="-6.02526"/>
      <trkpt lat="37.36773" lon="-6.02511"/>
      <trkpt lat="37.36773" lon="-6.0251"/>
      <trkpt lat="37.36784" lon="-6.02492"/>
      <trkpt lat="37.36786" lon="-6.02487"/>
      <trkpt lat="37.36792" lon="-6.02472"/>
      <trkpt lat="37.36797" lon="-6.02459"/>
      <trkpt lat="37.36799" lon="-6.02451"/>
      <trkpt lat="37.36802" lon="-6.02442"/>
      <trkpt lat="37.36802" lon="-6.0244"/>
      <trkpt lat="37.36805" lon="-6.0243"/>
      <trkpt lat="37.36806" lon="-6.02425"/>
      <trkpt lat="37.36807" lon="-6.0242"/>
      <trkpt lat="37.36808" lon="-6.02408"/>
      <trkpt lat="37.36809" lon="-6.02387"/>
      <trkpt lat="37.36809" lon="-6.02379"/>
      <trkpt lat="37.36809" lon="-6.02368"/>
      <trkpt lat="37.36809" lon="-6.02356"/>
      <trkpt lat="37.36809" lon="-6.02334"/>
      <trkpt lat="37.36809" lon="-6.02311"/>
      <trkpt lat="37.36808" lon="-6.02289"/>
      <trkpt lat="37.36808" lon="-6.02266"/>
      <trkpt lat="37.36808" lon="-6.02251"/>
      <trkpt lat="37.36807" lon="-6.02229"/>
      <trkpt lat="37.36807" lon="-6.02206"/>
      <trkpt lat="37.36806" lon="-6.02183"/>
      <trkpt lat="37.36805" lon="-6.02163"/>
      <trkpt lat="37.36804" lon="-6.02148"/>
      <trkpt lat="37.36804" lon="-6.02145"/>
      <trkpt lat="37.36804" lon="-6.02144"/>
      <trkpt lat="37.36804" lon="-6.02132"/>
      <trkpt lat="37.36803" lon="-6.02125"/>
      <trkpt lat="37.36804" lon="-6.02109"/>
      <trkpt lat="37.36805" lon="-6.02103"/>
      <trkpt lat="37.36807" lon="-6.02087"/>
      <trkpt lat="37.36807" lon="-6.02082"/>
      <trkpt lat="37.36818" lon="-6.0202"/>
      <trkpt lat="37.36822" lon="-6.01998"/>
      <trkpt lat="37.36858" lon="-6.01799"/>
      <trkpt lat="37.36861" lon="-6.01785"/>
      <trkpt lat="37.3687" lon="-6.01733"/>
      <trkpt lat="37.36874" lon="-6.01711"/>
      <trkpt lat="37.36878" lon="-6.0169"/>
      <trkpt lat="37.36878" lon="-6.01689"/>
      <trkpt lat="37.36885" lon="-6.01646"/>
      <trkpt lat="37.36885" lon="-6.01645"/>
      <trkpt lat="37.36887" lon="-6.01624"/>
      <trkpt lat="37.3688745" lon="-6.0162379"/>
      <trkpt lat="37.36887" lon="-6.01612"/>
      <trkpt lat="37.36887" lon="-6.01606"/>
      <trkpt lat="37.36886" lon="-6.01602"/>
      <trkpt lat="37.36884" lon="-6.01594"/>
      <trkpt lat="37.36883" lon="-6.01591"/>
      <trkpt lat="37.36881" lon="-6.01587"/>
      <trkpt lat="37.36878" lon="-6.01582"/>
      <trkpt lat="37.36878" lon="-6.01581"/>
      <trkpt lat="37.36874" lon="-6.01575"/>
      <trkpt lat="37.36873" lon="-6.01574"/>
      <trkpt lat="37.36869" lon="-6.01569"/>
      <trkpt lat="37.36865" lon="-6.01563"/>
      <trkpt lat="37.36862" lon="-6.01559"/>
      <trkpt lat="37.36857" lon="-6.01551"/>
      <trkpt lat="37.36854" lon="-6.01545"/>
      <trkpt lat="37.3685" lon="-6.0154"/>
      <trkpt lat="37.3685" lon="-6.01539"/>
      <trkpt lat="37.36845" lon="-6.01533"/>
      <trkpt lat="37.3684" lon="-6.01528"/>
      <trkpt lat="37.36836" lon="-6.01523"/>
      <trkpt lat="37.36831" lon="-6.01517"/>
      <trkpt lat="37.36829" lon="-6.01515"/>
      <trkpt lat="37.36824" lon="-6.0151"/>
      <trkpt lat="37.36821" lon="-6.01508"/>
      <trkpt lat="37.36817" lon="-6.01505"/>
      <trkpt lat="37.36814" lon="-6.01502"/>
      <trkpt lat="37.36811" lon="-6.015"/>
      <trkpt lat="37.36804" lon="-6.01495"/>
      <trkpt lat="37.36801" lon="-6.01494"/>
      <trkpt lat="37.36798" lon="-6.01493"/>
      <trkpt lat="37.36794" lon="-6.01492"/>
      <trkpt lat="37.3679" lon="-6.01492"/>
      <trkpt lat="37.36788" lon="-6.01492"/>
      <trkpt lat="37.36785" lon="-6.01492"/>
      <trkpt lat="37.36781" lon="-6.01493"/>
      <trkpt lat="37.3678" lon="-6.01493"/>
      <trkpt lat="37.36776" lon="-6.01492"/>
      <trkpt lat="37.36773" lon="-6.01491"/>
      <trkpt lat="37.36769" lon="-6.01487"/>
      <trkpt lat="37.36768" lon="-6.01485"/>
      <trkpt lat="37.36767" lon="-6.01483"/>
      <trkpt lat="37.36767" lon="-6.01479"/>
      <trkpt lat="37.36767" lon="-6.01474"/>
      <trkpt lat="37.36767" lon="-6.0147"/>
      <trkpt lat="37.36769" lon="-6.01463"/>
      <trkpt lat="37.3677" lon="-6.01459"/>
      <trkpt lat="37.36772" lon="-6.01441"/>
      <trkpt lat="37.36773" lon="-6.01439"/>
      <trkpt lat="37.36776" lon="-6.01419"/>
      <trkpt lat="37.3678" lon="-6.01404"/>
      <trkpt lat="37.36781" lon="-6.014"/>
      <trkpt lat="37.36781" lon="-6.01399"/>
      <trkpt lat="37.36782" lon="-6.01398"/>
      <trkpt lat="37.36784" lon="-6.01396"/>
      <trkpt lat="37.36787" lon="-6.01396"/>
      <trkpt lat="37.36791" lon="-6.01396"/>
      <trkpt lat="37.36796" lon="-6.01397"/>
      <trkpt lat="37.36802" lon="-6.01397"/>
      <trkpt lat="37.36803" lon="-6.01397"/>
      <trkpt lat="37.36806" lon="-6.01397"/>
      <trkpt lat="37.36812" lon="-6.01396"/>
      <trkpt lat="37.36815" lon="-6.01395"/>
      <trkpt lat="37.36817" lon="-6.01394"/>
      <trkpt lat="37.3682" lon="-6.01393"/>
      <trkpt lat="37.36823" lon="-6.0139"/>
      <trkpt lat="37.36828" lon="-6.01386"/>
      <trkpt lat="37.3683" lon="-6.01384"/>
      <trkpt lat="37.36839" lon="-6.01376"/>
      <trkpt lat="37.36845" lon="-6.01372"/>
      <trkpt lat="37.36854" lon="-6.01363"/>
      <trkpt lat="37.36861" lon="-6.01358"/>
      <trkpt lat="37.36865" lon="-6.01353"/>
      <trkpt lat="37.36867" lon="-6.01351"/>
      <trkpt lat="37.36868" lon="-6.01348"/>
      <trkpt lat="37.3687" lon="-6.01345"/>
      <trkpt lat="37.3687" lon="-6.01342"/>
      <trkpt lat="37.3687037" lon="-6.0134164"/>
      <trkpt lat="37.36865" lon="-6.01318"/>
      <trkpt lat="37.36862" lon="-6.01306"/>
      <trkpt lat="37.36861" lon="-6.01299"/>
      <trkpt lat="37.36857" lon="-6.0128"/>
      <trkpt lat="37.36856" lon="-6.01274"/>
      <trkpt lat="37.36853" lon="-6.01254"/>
      <trkpt lat="37.3685" lon="-6.01238"/>
      <trkpt lat="37.36848" lon="-6.01223"/>
      <trkpt lat="37.36842" lon="-6.01187"/>
      <trkpt lat="37.36839" lon="-6.01167"/>
      <trkpt lat="37.36831" lon="-6.01119"/>
      <trkpt lat="37.3682" lon="-6.01045"/>
      <trkpt lat="37.36803" lon="-6.00937"/>
      <trkpt lat="37.36793" lon="-6.00874"/>
      <trkpt lat="37.36788" lon="-6.00836"/>
      <trkpt lat="37.36778" lon="-6.00781"/>
      <trkpt lat="37.3677" lon="-6.00727"/>
      <trkpt lat="37.36767" lon="-6.00713"/>
      <trkpt lat="37.36758" lon="-6.00659"/>
      <trkpt lat="37.36746" lon="-6.00584"/>
      <trkpt lat="37.36734" lon="-6.00512"/>
      <trkpt lat="37.36724" lon="-6.00451"/>
      <trkpt lat="37.3672" lon="-6.00429"/>
      <trkpt lat="37.36715" lon="-6.00383"/>
      <trkpt lat="37.36714" lon="-6.0036"/>
      <trkpt lat="37.36713" lon="-6.00347"/>
      <trkpt lat="37.36714" lon="-6.00326"/>
      <trkpt lat="37.36714" lon="-6.00325"/>
      <trkpt lat="37.36714" lon="-6.00323"/>
      <trkpt lat="37.36715" lon="-6.00311"/>
      <trkpt lat="37.36716" lon="-6.00258"/>
      <trkpt lat="37.36717" lon="-6.00239"/>
      <trkpt lat="37.36717" lon="-6.0021"/>
      <trkpt lat="37.36718" lon="-6.00178"/>
      <trkpt lat="37.36718" lon="-6.00177"/>
      <trkpt lat="37.36721" lon="-6.00119"/>
      <trkpt lat="37.36722" lon="-6.00094"/>
      <trkpt lat="37.36721" lon="-6.00074"/>
      <trkpt lat="37.36721" lon="-6.00054"/>
      <trkpt lat="37.3672" lon="-6.00046"/>
      <trkpt lat="37.36717" lon="-6.00009"/>
      <trkpt lat="37.36712" lon="-5.99971"/>
      <trkpt lat="37.36708" lon="-5.9994"/>
      <trkpt lat="37.36703" lon="-5.99905"/>
      <trkpt lat="37.36701" lon="-5.99893"/>
      <trkpt lat="37.36699" lon="-5.99874"/>
      <trkpt lat="37.36694" lon="-5.99836"/>
      <trkpt lat="37.36697" lon="-5.99806"/>
      <trkpt lat="37.3669728" lon="-5.998056"/>
      <trkpt lat="37.36717" lon="-5.99792"/>
      <trkpt lat="37.3673" lon="-5.99783"/>
      <trkpt lat="37.3674" lon="-5.99779"/>
      <trkpt lat="37.36756" lon="-5.99774"/>
      <trkpt lat="37.367558" lon="-5.9977412"/>
      <trkpt lat="37.36754" lon="-5.99772"/>
      <trkpt lat="37.36753" lon="-5.9977"/>
      <trkpt lat="37.36751" lon="-5.99768"/>
      <trkpt lat="37.3675" lon="-5.99766"/>
      <trkpt lat="37.36749" lon="-5.99764"/>
      <trkpt lat="37.36748" lon="-5.99761"/>
      <trkpt lat="37.36747" lon="-5.99759"/>
      <trkpt lat="37.36746" lon="-5.99756"/>
      <trkpt lat="37.36746" lon="-5.99754"/>
      <trkpt lat="37.36745" lon="-5.99753"/>
      <trkpt lat="37.36745" lon="-5.99751"/>
      <trkpt lat="37.36745" lon="-5.99749"/>
      <trkpt lat="37.36745" lon="-5.99747"/>
      <trkpt lat="37.36745" lon="-5.99745"/>
      <trkpt lat="37.36745" lon="-5.99743"/>
      <trkpt lat="37.36745" lon="-5.99742"/>
      <trkpt lat="37.36745" lon="-5.99734"/>
      <trkpt lat="37.36747" lon="-5.99726"/>
      <trkpt lat="37.36749" lon="-5.99719"/>
      <trkpt lat="37.36752" lon="-5.99713"/>
      <trkpt lat="37.36756" lon="-5.99707"/>
      <trkpt lat="37.3676" lon="-5.99702"/>
      <trkpt lat="37.36764" lon="-5.99699"/>
      <trkpt lat="37.36766" lon="-5.99699"/>
      <trkpt lat="37.36773" lon="-5.99698"/>
      <trkpt lat="37.3677334" lon="-5.9969762"/>
      <trkpt lat="37.36771" lon="-5.99617"/>
      <trkpt lat="37.36771" lon="-5.99594"/>
      <trkpt lat="37.36766" lon="-5.99413"/>
      <trkpt lat="37.36765" lon="-5.99387"/>
      <trkpt lat="37.36765" lon="-5.9938"/>
      <trkpt lat="37.36764" lon="-5.99361"/>
      <trkpt lat="37.36763" lon="-5.99325"/>
      <trkpt lat="37.36763" lon="-5.99315"/>
      <trkpt lat="37.36762" lon="-5.99293"/>
      <trkpt lat="37.36762" lon="-5.9927"/>
      <trkpt lat="37.36761" lon="-5.99254"/>
      <trkpt lat="37.3676" lon="-5.99225"/>
      <trkpt lat="37.36759" lon="-5.9918"/>
      <trkpt lat="37.36759" lon="-5.99165"/>
      <trkpt lat="37.36757" lon="-5.99075"/>
      <trkpt lat="37.36756" lon="-5.99054"/>
      <trkpt lat="37.36756" lon="-5.99053"/>
      <trkpt lat="37.36756" lon="-5.99033"/>
      <trkpt lat="37.36756" lon="-5.99025"/>
      <trkpt lat="37.36753" lon="-5.98943"/>
      <trkpt lat="37.36754" lon="-5.98933"/>
      <trkpt lat="37.36752" lon="-5.98909"/>
      <trkpt lat="37.3675207" lon="-5.989093"/>
      <trkpt lat="37.3675" lon="-5.98903"/>
      <trkpt lat="37.3675" lon="-5.989"/>
      <trkpt lat="37.36749" lon="-5.98896"/>
      <trkpt lat="37.36749" lon="-5.98887"/>
      <trkpt lat="37.36748" lon="-5.98874"/>
      <trkpt lat="37.36748" lon="-5.98865"/>
      <trkpt lat="37.36747" lon="-5.98832"/>
      <trkpt lat="37.36747" lon="-5.98826"/>
      <trkpt lat="37.36746" lon="-5.98816"/>
      <trkpt lat="37.36746" lon="-5.98814"/>
      <trkpt lat="37.36746" lon="-5.98802"/>
      <trkpt lat="37.36746" lon="-5.98788"/>
      <trkpt lat="37.36746" lon="-5.98776"/>
      <trkpt lat="37.36747" lon="-5.98771"/>
      <trkpt lat="37.36747" lon="-5.9877"/>
      <trkpt lat="37.36749" lon="-5.98763"/>
      <trkpt lat="37.36752" lon="-5.98749"/>
      <trkpt lat="37.36754" lon="-5.98742"/>
      <trkpt lat="37.36758" lon="-5.98728"/>
      <trkpt lat="37.36764" lon="-5.98706"/>
      <trkpt lat="37.36769" lon="-5.98685"/>
      <trkpt lat="37.36777" lon="-5.98665"/>
      <trkpt lat="37.36782" lon="-5.9865"/>
      <trkpt lat="37.36792" lon="-5.98617"/>
      <trkpt lat="37.36801" lon="-5.98581"/>
      <trkpt lat="37.36805" lon="-5.98562"/>
      <trkpt lat="37.36806" lon="-5.98548"/>
      <trkpt lat="37.36807" lon="-5.98541"/>
      <trkpt lat="37.36806" lon="-5.98534"/>
      <trkpt lat="37.368062" lon="-5.985343"/>
      <trkpt lat="37.36816" lon="-5.98537"/>
      <trkpt lat="37.36823" lon="-5.98539"/>
      <trkpt lat="37.36849" lon="-5.98545"/>
      <trkpt lat="37.36876" lon="-5.9855"/>
      <trkpt lat="37.369" lon="-5.98554"/>
      <trkpt lat="37.36917" lon="-5.98553"/>
      <trkpt lat="37.36919" lon="-5.98553"/>
      <trkpt lat="37.36925" lon="-5.98552"/>
      <trkpt lat="37.36938" lon="-5.98551"/>
      <trkpt lat="37.3696" lon="-5.98546"/>
      <trkpt lat="37.36967" lon="-5.98545"/>
      <trkpt lat="37.369668" lon="-5.9854541"/>
      <trkpt lat="37.36989" lon="-5.98542"/>
      <trkpt lat="37.36992" lon="-5.98542"/>
      <trkpt lat="37.36996" lon="-5.98541"/>
      <trkpt lat="37.37015" lon="-5.98538"/>
      <trkpt lat="37.3704" lon="-5.98537"/>
      <trkpt lat="37.37062" lon="-5.98537"/>
      <trkpt lat="37.37202" lon="-5.98547"/>
      <trkpt lat="37.37347" lon="-5.98535"/>
      <trkpt lat="37.37386" lon="-5.98531"/>
      <trkpt lat="37.37443" lon="-5.98524"/>
      <trkpt lat="37.37454" lon="-5.9852"/>
      <trkpt lat="37.37582" lon="-5.98475"/>
      <trkpt lat="37.3761" lon="-5.98465"/>
      <trkpt lat="37.37684" lon="-5.98439"/>
      <trkpt lat="37.37702" lon="-5.98431"/>
      <trkpt lat="37.37725" lon="-5.98419"/>
      <trkpt lat="37.37749" lon="-5.98408"/>
      <trkpt lat="37.37765" lon="-5.984"/>
      <trkpt lat="37.37766" lon="-5.98399"/>
      <trkpt lat="37.37783" lon="-5.98391"/>
      <trkpt lat="37.37792" lon="-5.98386"/>
      <trkpt lat="37.37815" lon="-5.98375"/>
      <trkpt lat="37.37878" lon="-5.98345"/>
      <trkpt lat="37.37889" lon="-5.98339"/>
      <trkpt lat="37.3791" lon="-5.9833"/>
      <trkpt lat="37.37932" lon="-5.9832"/>
      <trkpt lat="37.3793206" lon="-5.9832"/>
      <trkpt lat="37.37936" lon="-5.98312"/>
      <trkpt lat="37.37941" lon="-5.98305"/>
      <trkpt lat="37.37945" lon="-5.98299"/>
      <trkpt lat="37.3795" lon="-5.98292"/>
      <trkpt lat="37.37952" lon="-5.98287"/>
      <trkpt lat="37.37955" lon="-5.9828"/>
      <trkpt lat="37.37957" lon="-5.98275"/>
      <trkpt lat="37.37957" lon="-5.98272"/>
      <trkpt lat="37.37955" lon="-5.98261"/>
      <trkpt lat="37.37954" lon="-5.98254"/>
      <trkpt lat="37.37952" lon="-5.98247"/>
      <trkpt lat="37.37951" lon="-5.98242"/>
      <trkpt lat="37.3795" lon="-5.9824"/>
      <trkpt lat="37.3794" lon="-5.98212"/>
      <trkpt lat="37.37903" lon="-5.98082"/>
      <trkpt lat="37.37889" lon="-5.98025"/>
      <trkpt lat="37.3788907" lon="-5.9802493"/>
      <trkpt lat="37.37903" lon="-5.9802"/>
      <trkpt lat="37.3790286" lon="-5.9801971"/>
      <trkpt lat="37.37895" lon="-5.97983"/>
      <trkpt lat="37.37887" lon="-5.97959"/>
      <trkpt lat="37.3788655" lon="-5.97959"/>
    </trkseg>
  </trk>
</gpx>
